<?xml version="1.0" encoding="UTF-8" ?>
<gpx version="1.1" xmlns:xsi="http://www.w3.org/2001/XMLSchema-instance" 
    xmlns="http://www.topografix.com/GPX/1/1" 
    xsi:schemaLocation="http://www.topografix.com/GPX/1/1 http://www.topografix.com/GPX/1/1/gpx.xsd" 
    creator="Openrunner - https://www.openrunner.com" >	<trk>
						<name>DDX 08 - La Ferté-Milon 201 Km-19915831</name>
						<trkseg>
					<trkpt lat="48.889300" lon="2.392340">
						<ele>55</ele>
						<time>2024-11-03T17:20:32Z</time>
					</trkpt>
					<trkpt lat="48.889180" lon="2.391710">
						<ele>54</ele>
						<time>2024-11-03T17:20:40Z</time>
					</trkpt>
					<trkpt lat="48.890010" lon="2.390800">
						<ele>55</ele>
						<time>2024-11-03T17:20:58Z</time>
					</trkpt>
					<trkpt lat="48.890040" lon="2.390760">
						<ele>55</ele>
						<time>2024-11-03T17:20:59Z</time>
					</trkpt>
					<trkpt lat="48.890380" lon="2.390400">
						<ele>55</ele>
						<time>2024-11-03T17:21:06Z</time>
					</trkpt>
					<trkpt lat="48.890940" lon="2.389820">
						<ele>55</ele>
						<time>2024-11-03T17:21:18Z</time>
					</trkpt>
					<trkpt lat="48.891190" lon="2.389540">
						<ele>54</ele>
						<time>2024-11-03T17:21:24Z</time>
					</trkpt>
					<trkpt lat="48.891340" lon="2.389380">
						<ele>53</ele>
						<time>2024-11-03T17:21:27Z</time>
					</trkpt>
					<trkpt lat="48.891700" lon="2.388990">
						<ele>52</ele>
						<time>2024-11-03T17:21:35Z</time>
					</trkpt>
					<trkpt lat="48.892000" lon="2.388680">
						<ele>52</ele>
						<time>2024-11-03T17:21:41Z</time>
					</trkpt>
					<trkpt lat="48.892240" lon="2.388430">
						<ele>53</ele>
						<time>2024-11-03T17:21:46Z</time>
					</trkpt>
					<trkpt lat="48.892360" lon="2.388310">
						<ele>53</ele>
						<time>2024-11-03T17:21:49Z</time>
					</trkpt>
					<trkpt lat="48.892430" lon="2.388270">
						<ele>53</ele>
						<time>2024-11-03T17:21:50Z</time>
					</trkpt>
					<trkpt lat="48.892550" lon="2.388150">
						<ele>54</ele>
						<time>2024-11-03T17:21:53Z</time>
					</trkpt>
					<trkpt lat="48.892950" lon="2.388960">
						<ele>53</ele>
						<time>2024-11-03T17:22:05Z</time>
					</trkpt>
					<trkpt lat="48.893700" lon="2.390460">
						<ele>54</ele>
						<time>2024-11-03T17:22:27Z</time>
					</trkpt>
					<trkpt lat="48.894290" lon="2.391630">
						<ele>55</ele>
						<time>2024-11-03T17:22:44Z</time>
					</trkpt>
					<trkpt lat="48.894360" lon="2.391770">
						<ele>54</ele>
						<time>2024-11-03T17:22:46Z</time>
					</trkpt>
					<trkpt lat="48.894410" lon="2.391880">
						<ele>54</ele>
						<time>2024-11-03T17:22:47Z</time>
					</trkpt>
					<trkpt lat="48.894500" lon="2.392050">
						<ele>53</ele>
						<time>2024-11-03T17:22:50Z</time>
					</trkpt>
					<trkpt lat="48.895090" lon="2.393310">
						<ele>51</ele>
						<time>2024-11-03T17:23:08Z</time>
					</trkpt>
					<trkpt lat="48.895150" lon="2.393480">
						<ele>51</ele>
						<time>2024-11-03T17:23:10Z</time>
					</trkpt>
					<trkpt lat="48.895230" lon="2.393690">
						<ele>51</ele>
						<time>2024-11-03T17:23:13Z</time>
					</trkpt>
					<trkpt lat="48.895310" lon="2.393810">
						<ele>51</ele>
						<time>2024-11-03T17:23:15Z</time>
					</trkpt>
					<trkpt lat="48.895450" lon="2.394250">
						<ele>51</ele>
						<time>2024-11-03T17:23:21Z</time>
					</trkpt>
					<trkpt lat="48.895620" lon="2.394830">
						<ele>53</ele>
						<time>2024-11-03T17:23:28Z</time>
					</trkpt>
					<trkpt lat="48.895570" lon="2.395020">
						<ele>54</ele>
						<time>2024-11-03T17:23:31Z</time>
					</trkpt>
					<trkpt lat="48.895780" lon="2.396550">
						<ele>51</ele>
						<time>2024-11-03T17:23:49Z</time>
					</trkpt>
					<trkpt lat="48.895800" lon="2.396710">
						<ele>51</ele>
						<time>2024-11-03T17:23:51Z</time>
					</trkpt>
					<trkpt lat="48.895810" lon="2.396970">
						<ele>51</ele>
						<time>2024-11-03T17:23:54Z</time>
					</trkpt>
					<trkpt lat="48.895820" lon="2.397020">
						<ele>51</ele>
						<time>2024-11-03T17:23:55Z</time>
					</trkpt>
					<trkpt lat="48.895880" lon="2.397590">
						<ele>52</ele>
						<time>2024-11-03T17:24:01Z</time>
					</trkpt>
					<trkpt lat="48.895890" lon="2.398180">
						<ele>53</ele>
						<time>2024-11-03T17:24:08Z</time>
					</trkpt>
					<trkpt lat="48.895870" lon="2.399080">
						<ele>54</ele>
						<time>2024-11-03T17:24:19Z</time>
					</trkpt>
					<trkpt lat="48.895810" lon="2.399740">
						<ele>56</ele>
						<time>2024-11-03T17:24:27Z</time>
					</trkpt>
					<trkpt lat="48.895930" lon="2.399880">
						<ele>56</ele>
						<time>2024-11-03T17:24:29Z</time>
					</trkpt>
					<trkpt lat="48.895940" lon="2.399930">
						<ele>57</ele>
						<time>2024-11-03T17:24:30Z</time>
					</trkpt>
					<trkpt lat="48.895900" lon="2.400500">
						<ele>56</ele>
						<time>2024-11-03T17:24:37Z</time>
					</trkpt>
					<trkpt lat="48.895880" lon="2.400530">
						<ele>56</ele>
						<time>2024-11-03T17:24:37Z</time>
					</trkpt>
					<trkpt lat="48.895860" lon="2.400730">
						<ele>55</ele>
						<time>2024-11-03T17:24:39Z</time>
					</trkpt>
					<trkpt lat="48.895880" lon="2.400770">
						<ele>55</ele>
						<time>2024-11-03T17:24:40Z</time>
					</trkpt>
					<trkpt lat="48.895910" lon="2.400840">
						<ele>55</ele>
						<time>2024-11-03T17:24:41Z</time>
					</trkpt>
					<trkpt lat="48.895920" lon="2.400870">
						<ele>55</ele>
						<time>2024-11-03T17:24:41Z</time>
					</trkpt>
					<trkpt lat="48.895890" lon="2.401150">
						<ele>55</ele>
						<time>2024-11-03T17:24:45Z</time>
					</trkpt>
					<trkpt lat="48.895850" lon="2.401230">
						<ele>55</ele>
						<time>2024-11-03T17:24:46Z</time>
					</trkpt>
					<trkpt lat="48.895760" lon="2.402160">
						<ele>58</ele>
						<time>2024-11-03T17:24:57Z</time>
					</trkpt>
					<trkpt lat="48.895610" lon="2.403720">
						<ele>58</ele>
						<time>2024-11-03T17:25:15Z</time>
					</trkpt>
					<trkpt lat="48.895470" lon="2.405160">
						<ele>58</ele>
						<time>2024-11-03T17:25:32Z</time>
					</trkpt>
					<trkpt lat="48.895430" lon="2.405310">
						<ele>57</ele>
						<time>2024-11-03T17:25:34Z</time>
					</trkpt>
					<trkpt lat="48.895370" lon="2.406090">
						<ele>56</ele>
						<time>2024-11-03T17:25:43Z</time>
					</trkpt>
					<trkpt lat="48.895600" lon="2.406300">
						<ele>57</ele>
						<time>2024-11-03T17:25:48Z</time>
					</trkpt>
					<trkpt lat="48.895520" lon="2.407080">
						<ele>58</ele>
						<time>2024-11-03T17:25:57Z</time>
					</trkpt>
					<trkpt lat="48.895480" lon="2.407290">
						<ele>58</ele>
						<time>2024-11-03T17:26:00Z</time>
					</trkpt>
					<trkpt lat="48.895280" lon="2.409360">
						<ele>56</ele>
						<time>2024-11-03T17:26:25Z</time>
					</trkpt>
					<trkpt lat="48.895230" lon="2.409840">
						<ele>56</ele>
						<time>2024-11-03T17:26:30Z</time>
					</trkpt>
					<trkpt lat="48.895230" lon="2.409970">
						<ele>55</ele>
						<time>2024-11-03T17:26:32Z</time>
					</trkpt>
					<trkpt lat="48.895240" lon="2.410170">
						<ele>55</ele>
						<time>2024-11-03T17:26:34Z</time>
					</trkpt>
					<trkpt lat="48.895130" lon="2.411460">
						<ele>55</ele>
						<time>2024-11-03T17:26:49Z</time>
					</trkpt>
					<trkpt lat="48.895120" lon="2.412270">
						<ele>54</ele>
						<time>2024-11-03T17:26:59Z</time>
					</trkpt>
					<trkpt lat="48.895140" lon="2.412810">
						<ele>54</ele>
						<time>2024-11-03T17:27:05Z</time>
					</trkpt>
					<trkpt lat="48.895250" lon="2.413950">
						<ele>52</ele>
						<time>2024-11-03T17:27:19Z</time>
					</trkpt>
					<trkpt lat="48.895370" lon="2.414930">
						<ele>53</ele>
						<time>2024-11-03T17:27:30Z</time>
					</trkpt>
					<trkpt lat="48.896380" lon="2.415150">
						<ele>50</ele>
						<time>2024-11-03T17:27:48Z</time>
					</trkpt>
					<trkpt lat="48.896410" lon="2.415220">
						<ele>50</ele>
						<time>2024-11-03T17:27:49Z</time>
					</trkpt>
					<trkpt lat="48.896470" lon="2.415790">
						<ele>50</ele>
						<time>2024-11-03T17:27:56Z</time>
					</trkpt>
					<trkpt lat="48.896540" lon="2.417940">
						<ele>49</ele>
						<time>2024-11-03T17:28:21Z</time>
					</trkpt>
					<trkpt lat="48.896520" lon="2.418070">
						<ele>49</ele>
						<time>2024-11-03T17:28:23Z</time>
					</trkpt>
					<trkpt lat="48.896540" lon="2.418130">
						<ele>49</ele>
						<time>2024-11-03T17:28:24Z</time>
					</trkpt>
					<trkpt lat="48.896710" lon="2.424340">
						<ele>49</ele>
						<time>2024-11-03T17:29:36Z</time>
					</trkpt>
					<trkpt lat="48.896670" lon="2.425160">
						<ele>51</ele>
						<time>2024-11-03T17:29:46Z</time>
					</trkpt>
					<trkpt lat="48.896630" lon="2.425290">
						<ele>51</ele>
						<time>2024-11-03T17:29:48Z</time>
					</trkpt>
					<trkpt lat="48.896630" lon="2.425290">
						<ele>51</ele>
						<time>2024-11-03T17:29:48Z</time>
					</trkpt>
					<trkpt lat="48.896580" lon="2.425370">
						<ele>52</ele>
						<time>2024-11-03T17:29:49Z</time>
					</trkpt>
					<trkpt lat="48.896530" lon="2.425470">
						<ele>52</ele>
						<time>2024-11-03T17:29:50Z</time>
					</trkpt>
					<trkpt lat="48.896530" lon="2.425470">
						<ele>52</ele>
						<time>2024-11-03T17:29:50Z</time>
					</trkpt>
					<trkpt lat="48.896710" lon="2.427120">
						<ele>53</ele>
						<time>2024-11-03T17:30:10Z</time>
					</trkpt>
					<trkpt lat="48.896810" lon="2.427520">
						<ele>52</ele>
						<time>2024-11-03T17:30:15Z</time>
					</trkpt>
					<trkpt lat="48.896830" lon="2.427960">
						<ele>52</ele>
						<time>2024-11-03T17:30:20Z</time>
					</trkpt>
					<trkpt lat="48.898070" lon="2.434200">
						<ele>55</ele>
						<time>2024-11-03T17:31:36Z</time>
					</trkpt>
					<trkpt lat="48.898080" lon="2.434550">
						<ele>55</ele>
						<time>2024-11-03T17:31:40Z</time>
					</trkpt>
					<trkpt lat="48.898320" lon="2.435780">
						<ele>55</ele>
						<time>2024-11-03T17:31:56Z</time>
					</trkpt>
					<trkpt lat="48.898370" lon="2.435890">
						<ele>55</ele>
						<time>2024-11-03T17:31:57Z</time>
					</trkpt>
					<trkpt lat="48.898460" lon="2.436370">
						<ele>55</ele>
						<time>2024-11-03T17:32:03Z</time>
					</trkpt>
					<trkpt lat="48.898470" lon="2.436530">
						<ele>55</ele>
						<time>2024-11-03T17:32:05Z</time>
					</trkpt>
					<trkpt lat="48.898520" lon="2.436750">
						<ele>55</ele>
						<time>2024-11-03T17:32:08Z</time>
					</trkpt>
					<trkpt lat="48.898570" lon="2.436880">
						<ele>55</ele>
						<time>2024-11-03T17:32:09Z</time>
					</trkpt>
					<trkpt lat="48.899470" lon="2.441400">
						<ele>56</ele>
						<time>2024-11-03T17:33:05Z</time>
					</trkpt>
					<trkpt lat="48.899570" lon="2.442010">
						<ele>55</ele>
						<time>2024-11-03T17:33:12Z</time>
					</trkpt>
					<trkpt lat="48.899690" lon="2.442500">
						<ele>53</ele>
						<time>2024-11-03T17:33:18Z</time>
					</trkpt>
					<trkpt lat="48.900170" lon="2.444950">
						<ele>53</ele>
						<time>2024-11-03T17:33:48Z</time>
					</trkpt>
					<trkpt lat="48.900440" lon="2.445960">
						<ele>50</ele>
						<time>2024-11-03T17:34:01Z</time>
					</trkpt>
					<trkpt lat="48.900540" lon="2.446180">
						<ele>50</ele>
						<time>2024-11-03T17:34:04Z</time>
					</trkpt>
					<trkpt lat="48.900620" lon="2.446560">
						<ele>51</ele>
						<time>2024-11-03T17:34:08Z</time>
					</trkpt>
					<trkpt lat="48.901500" lon="2.451020">
						<ele>52</ele>
						<time>2024-11-03T17:35:03Z</time>
					</trkpt>
					<trkpt lat="48.901560" lon="2.451300">
						<ele>51</ele>
						<time>2024-11-03T17:35:06Z</time>
					</trkpt>
					<trkpt lat="48.901830" lon="2.452680">
						<ele>52</ele>
						<time>2024-11-03T17:35:23Z</time>
					</trkpt>
					<trkpt lat="48.901920" lon="2.453140">
						<ele>52</ele>
						<time>2024-11-03T17:35:29Z</time>
					</trkpt>
					<trkpt lat="48.902170" lon="2.454370">
						<ele>52</ele>
						<time>2024-11-03T17:35:44Z</time>
					</trkpt>
					<trkpt lat="48.902450" lon="2.455760">
						<ele>51</ele>
						<time>2024-11-03T17:36:01Z</time>
					</trkpt>
					<trkpt lat="48.902560" lon="2.456320">
						<ele>52</ele>
						<time>2024-11-03T17:36:08Z</time>
					</trkpt>
					<trkpt lat="48.903300" lon="2.459980">
						<ele>54</ele>
						<time>2024-11-03T17:36:52Z</time>
					</trkpt>
					<trkpt lat="48.903440" lon="2.460670">
						<ele>53</ele>
						<time>2024-11-03T17:37:01Z</time>
					</trkpt>
					<trkpt lat="48.903630" lon="2.461590">
						<ele>53</ele>
						<time>2024-11-03T17:37:12Z</time>
					</trkpt>
					<trkpt lat="48.903710" lon="2.461990">
						<ele>54</ele>
						<time>2024-11-03T17:37:17Z</time>
					</trkpt>
					<trkpt lat="48.903890" lon="2.462930">
						<ele>54</ele>
						<time>2024-11-03T17:37:29Z</time>
					</trkpt>
					<trkpt lat="48.903990" lon="2.463420">
						<ele>53</ele>
						<time>2024-11-03T17:37:35Z</time>
					</trkpt>
					<trkpt lat="48.904260" lon="2.464760">
						<ele>54</ele>
						<time>2024-11-03T17:37:51Z</time>
					</trkpt>
					<trkpt lat="48.904240" lon="2.464910">
						<ele>54</ele>
						<time>2024-11-03T17:37:53Z</time>
					</trkpt>
					<trkpt lat="48.904320" lon="2.465320">
						<ele>54</ele>
						<time>2024-11-03T17:37:58Z</time>
					</trkpt>
					<trkpt lat="48.904390" lon="2.465440">
						<ele>54</ele>
						<time>2024-11-03T17:38:00Z</time>
					</trkpt>
					<trkpt lat="48.904500" lon="2.465970">
						<ele>54</ele>
						<time>2024-11-03T17:38:06Z</time>
					</trkpt>
					<trkpt lat="48.904770" lon="2.467350">
						<ele>53</ele>
						<time>2024-11-03T17:38:23Z</time>
					</trkpt>
					<trkpt lat="48.904890" lon="2.468080">
						<ele>51</ele>
						<time>2024-11-03T17:38:32Z</time>
					</trkpt>
					<trkpt lat="48.905190" lon="2.469630">
						<ele>52</ele>
						<time>2024-11-03T17:38:51Z</time>
					</trkpt>
					<trkpt lat="48.905310" lon="2.470220">
						<ele>53</ele>
						<time>2024-11-03T17:38:58Z</time>
					</trkpt>
					<trkpt lat="48.905490" lon="2.471110">
						<ele>54</ele>
						<time>2024-11-03T17:39:09Z</time>
					</trkpt>
					<trkpt lat="48.905700" lon="2.472190">
						<ele>51</ele>
						<time>2024-11-03T17:39:22Z</time>
					</trkpt>
					<trkpt lat="48.905910" lon="2.472970">
						<ele>50</ele>
						<time>2024-11-03T17:39:32Z</time>
					</trkpt>
					<trkpt lat="48.906050" lon="2.473650">
						<ele>51</ele>
						<time>2024-11-03T17:39:40Z</time>
					</trkpt>
					<trkpt lat="48.906040" lon="2.473680">
						<ele>51</ele>
						<time>2024-11-03T17:39:41Z</time>
					</trkpt>
					<trkpt lat="48.905800" lon="2.474060">
						<ele>53</ele>
						<time>2024-11-03T17:39:47Z</time>
					</trkpt>
					<trkpt lat="48.905790" lon="2.474090">
						<ele>54</ele>
						<time>2024-11-03T17:39:47Z</time>
					</trkpt>
					<trkpt lat="48.906010" lon="2.475090">
						<ele>54</ele>
						<time>2024-11-03T17:39:59Z</time>
					</trkpt>
					<trkpt lat="48.906100" lon="2.475480">
						<ele>53</ele>
						<time>2024-11-03T17:40:04Z</time>
					</trkpt>
					<trkpt lat="48.907050" lon="2.480130">
						<ele>52</ele>
						<time>2024-11-03T17:41:01Z</time>
					</trkpt>
					<trkpt lat="48.907130" lon="2.480490">
						<ele>52</ele>
						<time>2024-11-03T17:41:06Z</time>
					</trkpt>
					<trkpt lat="48.907160" lon="2.480650">
						<ele>52</ele>
						<time>2024-11-03T17:41:08Z</time>
					</trkpt>
					<trkpt lat="48.907890" lon="2.484350">
						<ele>51</ele>
						<time>2024-11-03T17:41:53Z</time>
					</trkpt>
					<trkpt lat="48.908180" lon="2.485740">
						<ele>50</ele>
						<time>2024-11-03T17:42:10Z</time>
					</trkpt>
					<trkpt lat="48.908430" lon="2.486860">
						<ele>49</ele>
						<time>2024-11-03T17:42:24Z</time>
					</trkpt>
					<trkpt lat="48.908430" lon="2.486910">
						<ele>50</ele>
						<time>2024-11-03T17:42:24Z</time>
					</trkpt>
					<trkpt lat="48.908730" lon="2.488530">
						<ele>51</ele>
						<time>2024-11-03T17:42:44Z</time>
					</trkpt>
					<trkpt lat="48.909170" lon="2.490590">
						<ele>54</ele>
						<time>2024-11-03T17:43:09Z</time>
					</trkpt>
					<trkpt lat="48.909250" lon="2.490860">
						<ele>54</ele>
						<time>2024-11-03T17:43:13Z</time>
					</trkpt>
					<trkpt lat="48.909310" lon="2.491100">
						<ele>53</ele>
						<time>2024-11-03T17:43:16Z</time>
					</trkpt>
					<trkpt lat="48.909240" lon="2.491350">
						<ele>53</ele>
						<time>2024-11-03T17:43:19Z</time>
					</trkpt>
					<trkpt lat="48.909300" lon="2.491640">
						<ele>53</ele>
						<time>2024-11-03T17:43:22Z</time>
					</trkpt>
					<trkpt lat="48.909440" lon="2.492360">
						<ele>53</ele>
						<time>2024-11-03T17:43:31Z</time>
					</trkpt>
					<trkpt lat="48.909670" lon="2.493480">
						<ele>52</ele>
						<time>2024-11-03T17:43:45Z</time>
					</trkpt>
					<trkpt lat="48.909840" lon="2.494290">
						<ele>52</ele>
						<time>2024-11-03T17:43:55Z</time>
					</trkpt>
					<trkpt lat="48.909900" lon="2.494350">
						<ele>52</ele>
						<time>2024-11-03T17:43:56Z</time>
					</trkpt>
					<trkpt lat="48.910110" lon="2.495310">
						<ele>52</ele>
						<time>2024-11-03T17:44:08Z</time>
					</trkpt>
					<trkpt lat="48.910070" lon="2.495480">
						<ele>53</ele>
						<time>2024-11-03T17:44:10Z</time>
					</trkpt>
					<trkpt lat="48.910080" lon="2.495560">
						<ele>53</ele>
						<time>2024-11-03T17:44:11Z</time>
					</trkpt>
					<trkpt lat="48.910080" lon="2.495560">
						<ele>53</ele>
						<time>2024-11-03T17:44:11Z</time>
					</trkpt>
					<trkpt lat="48.910240" lon="2.496180">
						<ele>54</ele>
						<time>2024-11-03T17:44:19Z</time>
					</trkpt>
					<trkpt lat="48.910420" lon="2.496710">
						<ele>54</ele>
						<time>2024-11-03T17:44:26Z</time>
					</trkpt>
					<trkpt lat="48.910700" lon="2.497450">
						<ele>53</ele>
						<time>2024-11-03T17:44:36Z</time>
					</trkpt>
					<trkpt lat="48.910960" lon="2.498040">
						<ele>53</ele>
						<time>2024-11-03T17:44:44Z</time>
					</trkpt>
					<trkpt lat="48.911210" lon="2.498390">
						<ele>54</ele>
						<time>2024-11-03T17:44:50Z</time>
					</trkpt>
					<trkpt lat="48.911300" lon="2.498530">
						<ele>53</ele>
						<time>2024-11-03T17:44:52Z</time>
					</trkpt>
					<trkpt lat="48.911330" lon="2.498560">
						<ele>53</ele>
						<time>2024-11-03T17:44:53Z</time>
					</trkpt>
					<trkpt lat="48.911650" lon="2.499040">
						<ele>53</ele>
						<time>2024-11-03T17:45:01Z</time>
					</trkpt>
					<trkpt lat="48.912050" lon="2.499520">
						<ele>53</ele>
						<time>2024-11-03T17:45:10Z</time>
					</trkpt>
					<trkpt lat="48.913110" lon="2.500770">
						<ele>53</ele>
						<time>2024-11-03T17:45:34Z</time>
					</trkpt>
					<trkpt lat="48.913740" lon="2.501510">
						<ele>53</ele>
						<time>2024-11-03T17:45:48Z</time>
					</trkpt>
					<trkpt lat="48.914370" lon="2.502150">
						<ele>53</ele>
						<time>2024-11-03T17:46:02Z</time>
					</trkpt>
					<trkpt lat="48.914400" lon="2.502180">
						<ele>53</ele>
						<time>2024-11-03T17:46:02Z</time>
					</trkpt>
					<trkpt lat="48.914490" lon="2.502140">
						<ele>53</ele>
						<time>2024-11-03T17:46:04Z</time>
					</trkpt>
					<trkpt lat="48.914610" lon="2.502270">
						<ele>52</ele>
						<time>2024-11-03T17:46:07Z</time>
					</trkpt>
					<trkpt lat="48.914650" lon="2.502340">
						<ele>52</ele>
						<time>2024-11-03T17:46:08Z</time>
					</trkpt>
					<trkpt lat="48.914710" lon="2.502550">
						<ele>52</ele>
						<time>2024-11-03T17:46:10Z</time>
					</trkpt>
					<trkpt lat="48.915760" lon="2.503780">
						<ele>52</ele>
						<time>2024-11-03T17:46:34Z</time>
					</trkpt>
					<trkpt lat="48.916260" lon="2.504320">
						<ele>52</ele>
						<time>2024-11-03T17:46:45Z</time>
					</trkpt>
					<trkpt lat="48.917390" lon="2.505570">
						<ele>54</ele>
						<time>2024-11-03T17:47:10Z</time>
					</trkpt>
					<trkpt lat="48.918000" lon="2.506230">
						<ele>54</ele>
						<time>2024-11-03T17:47:23Z</time>
					</trkpt>
					<trkpt lat="48.918590" lon="2.506930">
						<ele>54</ele>
						<time>2024-11-03T17:47:36Z</time>
					</trkpt>
					<trkpt lat="48.918800" lon="2.507150">
						<ele>54</ele>
						<time>2024-11-03T17:47:41Z</time>
					</trkpt>
					<trkpt lat="48.918860" lon="2.507180">
						<ele>54</ele>
						<time>2024-11-03T17:47:42Z</time>
					</trkpt>
					<trkpt lat="48.920220" lon="2.508680">
						<ele>52</ele>
						<time>2024-11-03T17:48:12Z</time>
					</trkpt>
					<trkpt lat="48.920370" lon="2.508750">
						<ele>52</ele>
						<time>2024-11-03T17:48:15Z</time>
					</trkpt>
					<trkpt lat="48.920470" lon="2.508870">
						<ele>52</ele>
						<time>2024-11-03T17:48:17Z</time>
					</trkpt>
					<trkpt lat="48.920530" lon="2.509020">
						<ele>52</ele>
						<time>2024-11-03T17:48:19Z</time>
					</trkpt>
					<trkpt lat="48.921200" lon="2.509720">
						<ele>52</ele>
						<time>2024-11-03T17:48:33Z</time>
					</trkpt>
					<trkpt lat="48.922590" lon="2.511290">
						<ele>53</ele>
						<time>2024-11-03T17:49:04Z</time>
					</trkpt>
					<trkpt lat="48.923900" lon="2.512760">
						<ele>54</ele>
						<time>2024-11-03T17:49:33Z</time>
					</trkpt>
					<trkpt lat="48.924030" lon="2.512870">
						<ele>54</ele>
						<time>2024-11-03T17:49:36Z</time>
					</trkpt>
					<trkpt lat="48.924170" lon="2.512860">
						<ele>54</ele>
						<time>2024-11-03T17:49:38Z</time>
					</trkpt>
					<trkpt lat="48.924390" lon="2.513100">
						<ele>55</ele>
						<time>2024-11-03T17:49:43Z</time>
					</trkpt>
					<trkpt lat="48.924410" lon="2.513190">
						<ele>55</ele>
						<time>2024-11-03T17:49:44Z</time>
					</trkpt>
					<trkpt lat="48.924960" lon="2.513850">
						<ele>54</ele>
						<time>2024-11-03T17:49:57Z</time>
					</trkpt>
					<trkpt lat="48.925030" lon="2.514020">
						<ele>54</ele>
						<time>2024-11-03T17:49:59Z</time>
					</trkpt>
					<trkpt lat="48.927030" lon="2.516220">
						<ele>54</ele>
						<time>2024-11-03T17:50:43Z</time>
					</trkpt>
					<trkpt lat="48.927380" lon="2.516630">
						<ele>54</ele>
						<time>2024-11-03T17:50:51Z</time>
					</trkpt>
					<trkpt lat="48.927580" lon="2.516830">
						<ele>54</ele>
						<time>2024-11-03T17:50:55Z</time>
					</trkpt>
					<trkpt lat="48.927710" lon="2.516940">
						<ele>54</ele>
						<time>2024-11-03T17:50:58Z</time>
					</trkpt>
					<trkpt lat="48.927770" lon="2.517060">
						<ele>54</ele>
						<time>2024-11-03T17:51:00Z</time>
					</trkpt>
					<trkpt lat="48.928000" lon="2.517280">
						<ele>53</ele>
						<time>2024-11-03T17:51:04Z</time>
					</trkpt>
					<trkpt lat="48.928250" lon="2.517550">
						<ele>53</ele>
						<time>2024-11-03T17:51:10Z</time>
					</trkpt>
					<trkpt lat="48.928300" lon="2.517550">
						<ele>53</ele>
						<time>2024-11-03T17:51:11Z</time>
					</trkpt>
					<trkpt lat="48.928630" lon="2.517820">
						<ele>53</ele>
						<time>2024-11-03T17:51:17Z</time>
					</trkpt>
					<trkpt lat="48.928670" lon="2.517820">
						<ele>53</ele>
						<time>2024-11-03T17:51:18Z</time>
					</trkpt>
					<trkpt lat="48.928770" lon="2.517900">
						<ele>53</ele>
						<time>2024-11-03T17:51:20Z</time>
					</trkpt>
					<trkpt lat="48.929150" lon="2.518350">
						<ele>53</ele>
						<time>2024-11-03T17:51:29Z</time>
					</trkpt>
					<trkpt lat="48.929200" lon="2.518540">
						<ele>53</ele>
						<time>2024-11-03T17:51:31Z</time>
					</trkpt>
					<trkpt lat="48.929440" lon="2.518790">
						<ele>53</ele>
						<time>2024-11-03T17:51:36Z</time>
					</trkpt>
					<trkpt lat="48.929860" lon="2.519250">
						<ele>52</ele>
						<time>2024-11-03T17:51:45Z</time>
					</trkpt>
					<trkpt lat="48.929960" lon="2.519360">
						<ele>52</ele>
						<time>2024-11-03T17:51:48Z</time>
					</trkpt>
					<trkpt lat="48.930760" lon="2.520250">
						<ele>52</ele>
						<time>2024-11-03T17:52:05Z</time>
					</trkpt>
					<trkpt lat="48.931150" lon="2.520780">
						<ele>53</ele>
						<time>2024-11-03T17:52:15Z</time>
					</trkpt>
					<trkpt lat="48.931240" lon="2.520950">
						<ele>53</ele>
						<time>2024-11-03T17:52:17Z</time>
					</trkpt>
					<trkpt lat="48.931590" lon="2.521570">
						<ele>53</ele>
						<time>2024-11-03T17:52:27Z</time>
					</trkpt>
					<trkpt lat="48.931780" lon="2.522020">
						<ele>53</ele>
						<time>2024-11-03T17:52:33Z</time>
					</trkpt>
					<trkpt lat="48.932100" lon="2.522870">
						<ele>52</ele>
						<time>2024-11-03T17:52:44Z</time>
					</trkpt>
					<trkpt lat="48.932320" lon="2.523670">
						<ele>53</ele>
						<time>2024-11-03T17:52:54Z</time>
					</trkpt>
					<trkpt lat="48.932610" lon="2.524810">
						<ele>51</ele>
						<time>2024-11-03T17:53:09Z</time>
					</trkpt>
					<trkpt lat="48.932610" lon="2.524850">
						<ele>51</ele>
						<time>2024-11-03T17:53:09Z</time>
					</trkpt>
					<trkpt lat="48.932550" lon="2.524970">
						<ele>51</ele>
						<time>2024-11-03T17:53:11Z</time>
					</trkpt>
					<trkpt lat="48.932550" lon="2.525150">
						<ele>51</ele>
						<time>2024-11-03T17:53:13Z</time>
					</trkpt>
					<trkpt lat="48.932670" lon="2.525650">
						<ele>53</ele>
						<time>2024-11-03T17:53:19Z</time>
					</trkpt>
					<trkpt lat="48.932900" lon="2.526530">
						<ele>54</ele>
						<time>2024-11-03T17:53:30Z</time>
					</trkpt>
					<trkpt lat="48.932930" lon="2.526590">
						<ele>54</ele>
						<time>2024-11-03T17:53:31Z</time>
					</trkpt>
					<trkpt lat="48.933030" lon="2.526680">
						<ele>53</ele>
						<time>2024-11-03T17:53:33Z</time>
					</trkpt>
					<trkpt lat="48.933330" lon="2.527870">
						<ele>54</ele>
						<time>2024-11-03T17:53:48Z</time>
					</trkpt>
					<trkpt lat="48.933420" lon="2.528110">
						<ele>55</ele>
						<time>2024-11-03T17:53:51Z</time>
					</trkpt>
					<trkpt lat="48.933450" lon="2.528330">
						<ele>55</ele>
						<time>2024-11-03T17:53:54Z</time>
					</trkpt>
					<trkpt lat="48.933560" lon="2.528780">
						<ele>55</ele>
						<time>2024-11-03T17:54:00Z</time>
					</trkpt>
					<trkpt lat="48.933900" lon="2.530050">
						<ele>56</ele>
						<time>2024-11-03T17:54:16Z</time>
					</trkpt>
					<trkpt lat="48.934380" lon="2.532000">
						<ele>57</ele>
						<time>2024-11-03T17:54:40Z</time>
					</trkpt>
					<trkpt lat="48.934490" lon="2.532440">
						<ele>57</ele>
						<time>2024-11-03T17:54:46Z</time>
					</trkpt>
					<trkpt lat="48.934790" lon="2.533420">
						<ele>57</ele>
						<time>2024-11-03T17:54:58Z</time>
					</trkpt>
					<trkpt lat="48.934880" lon="2.533600">
						<ele>57</ele>
						<time>2024-11-03T17:55:01Z</time>
					</trkpt>
					<trkpt lat="48.934950" lon="2.533880">
						<ele>58</ele>
						<time>2024-11-03T17:55:04Z</time>
					</trkpt>
					<trkpt lat="48.935260" lon="2.535130">
						<ele>58</ele>
						<time>2024-11-03T17:55:20Z</time>
					</trkpt>
					<trkpt lat="48.935270" lon="2.535380">
						<ele>58</ele>
						<time>2024-11-03T17:55:23Z</time>
					</trkpt>
					<trkpt lat="48.935380" lon="2.535950">
						<ele>57</ele>
						<time>2024-11-03T17:55:30Z</time>
					</trkpt>
					<trkpt lat="48.935570" lon="2.536710">
						<ele>58</ele>
						<time>2024-11-03T17:55:39Z</time>
					</trkpt>
					<trkpt lat="48.935580" lon="2.536810">
						<ele>58</ele>
						<time>2024-11-03T17:55:41Z</time>
					</trkpt>
					<trkpt lat="48.935740" lon="2.537400">
						<ele>57</ele>
						<time>2024-11-03T17:55:48Z</time>
					</trkpt>
					<trkpt lat="48.935780" lon="2.537660">
						<ele>57</ele>
						<time>2024-11-03T17:55:51Z</time>
					</trkpt>
					<trkpt lat="48.935790" lon="2.537720">
						<ele>56</ele>
						<time>2024-11-03T17:55:52Z</time>
					</trkpt>
					<trkpt lat="48.935820" lon="2.537900">
						<ele>56</ele>
						<time>2024-11-03T17:55:54Z</time>
					</trkpt>
					<trkpt lat="48.935970" lon="2.538500">
						<ele>55</ele>
						<time>2024-11-03T17:56:02Z</time>
					</trkpt>
					<trkpt lat="48.936050" lon="2.539070">
						<ele>55</ele>
						<time>2024-11-03T17:56:08Z</time>
					</trkpt>
					<trkpt lat="48.936230" lon="2.539580">
						<ele>55</ele>
						<time>2024-11-03T17:56:15Z</time>
					</trkpt>
					<trkpt lat="48.938200" lon="2.547650">
						<ele>64</ele>
						<time>2024-11-03T17:57:56Z</time>
					</trkpt>
					<trkpt lat="48.938240" lon="2.547790">
						<ele>64</ele>
						<time>2024-11-03T17:57:58Z</time>
					</trkpt>
					<trkpt lat="48.938180" lon="2.547880">
						<ele>64</ele>
						<time>2024-11-03T17:57:59Z</time>
					</trkpt>
					<trkpt lat="48.938180" lon="2.547880">
						<ele>64</ele>
						<time>2024-11-03T17:57:59Z</time>
					</trkpt>
					<trkpt lat="48.937820" lon="2.548080">
						<ele>64</ele>
						<time>2024-11-03T17:58:06Z</time>
					</trkpt>
					<trkpt lat="48.938020" lon="2.548950">
						<ele>65</ele>
						<time>2024-11-03T17:58:17Z</time>
					</trkpt>
					<trkpt lat="48.938290" lon="2.550130">
						<ele>68</ele>
						<time>2024-11-03T17:58:31Z</time>
					</trkpt>
					<trkpt lat="48.938550" lon="2.551250">
						<ele>66</ele>
						<time>2024-11-03T17:58:45Z</time>
					</trkpt>
					<trkpt lat="48.938700" lon="2.551860">
						<ele>66</ele>
						<time>2024-11-03T17:58:53Z</time>
					</trkpt>
					<trkpt lat="48.938830" lon="2.552420">
						<ele>65</ele>
						<time>2024-11-03T17:59:00Z</time>
					</trkpt>
					<trkpt lat="48.938980" lon="2.553090">
						<ele>65</ele>
						<time>2024-11-03T17:59:08Z</time>
					</trkpt>
					<trkpt lat="48.939200" lon="2.554000">
						<ele>66</ele>
						<time>2024-11-03T17:59:19Z</time>
					</trkpt>
					<trkpt lat="48.939510" lon="2.555280">
						<ele>69</ele>
						<time>2024-11-03T17:59:35Z</time>
					</trkpt>
					<trkpt lat="48.939780" lon="2.556400">
						<ele>70</ele>
						<time>2024-11-03T17:59:49Z</time>
					</trkpt>
					<trkpt lat="48.940050" lon="2.557540">
						<ele>70</ele>
						<time>2024-11-03T18:00:03Z</time>
					</trkpt>
					<trkpt lat="48.940430" lon="2.559180">
						<ele>69</ele>
						<time>2024-11-03T18:00:24Z</time>
					</trkpt>
					<trkpt lat="48.940710" lon="2.560310">
						<ele>69</ele>
						<time>2024-11-03T18:00:38Z</time>
					</trkpt>
					<trkpt lat="48.940970" lon="2.561440">
						<ele>71</ele>
						<time>2024-11-03T18:00:52Z</time>
					</trkpt>
					<trkpt lat="48.941040" lon="2.561750">
						<ele>71</ele>
						<time>2024-11-03T18:00:56Z</time>
					</trkpt>
					<trkpt lat="48.941220" lon="2.562520">
						<ele>71</ele>
						<time>2024-11-03T18:01:05Z</time>
					</trkpt>
					<trkpt lat="48.941490" lon="2.563690">
						<ele>73</ele>
						<time>2024-11-03T18:01:20Z</time>
					</trkpt>
					<trkpt lat="48.941740" lon="2.564750">
						<ele>71</ele>
						<time>2024-11-03T18:01:33Z</time>
					</trkpt>
					<trkpt lat="48.941830" lon="2.565090">
						<ele>70</ele>
						<time>2024-11-03T18:01:37Z</time>
					</trkpt>
					<trkpt lat="48.941840" lon="2.565170">
						<ele>70</ele>
						<time>2024-11-03T18:01:38Z</time>
					</trkpt>
					<trkpt lat="48.941960" lon="2.565100">
						<ele>70</ele>
						<time>2024-11-03T18:01:40Z</time>
					</trkpt>
					<trkpt lat="48.942200" lon="2.565150">
						<ele>69</ele>
						<time>2024-11-03T18:01:45Z</time>
					</trkpt>
					<trkpt lat="48.942320" lon="2.565220">
						<ele>69</ele>
						<time>2024-11-03T18:01:47Z</time>
					</trkpt>
					<trkpt lat="48.942490" lon="2.565430">
						<ele>70</ele>
						<time>2024-11-03T18:01:51Z</time>
					</trkpt>
					<trkpt lat="48.942570" lon="2.565460">
						<ele>69</ele>
						<time>2024-11-03T18:01:52Z</time>
					</trkpt>
					<trkpt lat="48.942570" lon="2.565460">
						<ele>69</ele>
						<time>2024-11-03T18:01:52Z</time>
					</trkpt>
					<trkpt lat="48.942600" lon="2.565450">
						<ele>69</ele>
						<time>2024-11-03T18:01:53Z</time>
					</trkpt>
					<trkpt lat="48.942840" lon="2.566030">
						<ele>67</ele>
						<time>2024-11-03T18:02:01Z</time>
					</trkpt>
					<trkpt lat="48.943500" lon="2.567930">
						<ele>60</ele>
						<time>2024-11-03T18:02:26Z</time>
					</trkpt>
					<trkpt lat="48.943550" lon="2.568020">
						<ele>59</ele>
						<time>2024-11-03T18:02:27Z</time>
					</trkpt>
					<trkpt lat="48.943580" lon="2.568080">
						<ele>59</ele>
						<time>2024-11-03T18:02:28Z</time>
					</trkpt>
					<trkpt lat="48.943660" lon="2.568370">
						<ele>58</ele>
						<time>2024-11-03T18:02:32Z</time>
					</trkpt>
					<trkpt lat="48.943730" lon="2.568570">
						<ele>59</ele>
						<time>2024-11-03T18:02:35Z</time>
					</trkpt>
					<trkpt lat="48.943850" lon="2.569130">
						<ele>61</ele>
						<time>2024-11-03T18:02:41Z</time>
					</trkpt>
					<trkpt lat="48.943880" lon="2.569410">
						<ele>63</ele>
						<time>2024-11-03T18:02:45Z</time>
					</trkpt>
					<trkpt lat="48.943930" lon="2.569840">
						<ele>65</ele>
						<time>2024-11-03T18:02:50Z</time>
					</trkpt>
					<trkpt lat="48.944090" lon="2.570710">
						<ele>67</ele>
						<time>2024-11-03T18:03:00Z</time>
					</trkpt>
					<trkpt lat="48.944250" lon="2.571260">
						<ele>66</ele>
						<time>2024-11-03T18:03:07Z</time>
					</trkpt>
					<trkpt lat="48.944490" lon="2.572410">
						<ele>65</ele>
						<time>2024-11-03T18:03:22Z</time>
					</trkpt>
					<trkpt lat="48.944750" lon="2.573460">
						<ele>64</ele>
						<time>2024-11-03T18:03:35Z</time>
					</trkpt>
					<trkpt lat="48.944820" lon="2.573810">
						<ele>63</ele>
						<time>2024-11-03T18:03:39Z</time>
					</trkpt>
					<trkpt lat="48.945020" lon="2.574190">
						<ele>62</ele>
						<time>2024-11-03T18:03:45Z</time>
					</trkpt>
					<trkpt lat="48.945090" lon="2.574370">
						<ele>63</ele>
						<time>2024-11-03T18:03:47Z</time>
					</trkpt>
					<trkpt lat="48.945200" lon="2.575240">
						<ele>65</ele>
						<time>2024-11-03T18:03:57Z</time>
					</trkpt>
					<trkpt lat="48.945450" lon="2.576180">
						<ele>67</ele>
						<time>2024-11-03T18:04:09Z</time>
					</trkpt>
					<trkpt lat="48.945730" lon="2.577340">
						<ele>68</ele>
						<time>2024-11-03T18:04:24Z</time>
					</trkpt>
					<trkpt lat="48.945720" lon="2.577660">
						<ele>67</ele>
						<time>2024-11-03T18:04:27Z</time>
					</trkpt>
					<trkpt lat="48.945740" lon="2.577780">
						<ele>68</ele>
						<time>2024-11-03T18:04:29Z</time>
					</trkpt>
					<trkpt lat="48.946060" lon="2.579110">
						<ele>68</ele>
						<time>2024-11-03T18:04:45Z</time>
					</trkpt>
					<trkpt lat="48.946160" lon="2.579340">
						<ele>68</ele>
						<time>2024-11-03T18:04:49Z</time>
					</trkpt>
					<trkpt lat="48.946260" lon="2.579510">
						<ele>68</ele>
						<time>2024-11-03T18:04:51Z</time>
					</trkpt>
					<trkpt lat="48.946320" lon="2.579670">
						<ele>68</ele>
						<time>2024-11-03T18:04:53Z</time>
					</trkpt>
					<trkpt lat="48.946400" lon="2.580020">
						<ele>67</ele>
						<time>2024-11-03T18:04:58Z</time>
					</trkpt>
					<trkpt lat="48.946400" lon="2.580290">
						<ele>67</ele>
						<time>2024-11-03T18:05:01Z</time>
					</trkpt>
					<trkpt lat="48.946420" lon="2.580400">
						<ele>67</ele>
						<time>2024-11-03T18:05:02Z</time>
					</trkpt>
					<trkpt lat="48.946560" lon="2.580630">
						<ele>68</ele>
						<time>2024-11-03T18:05:06Z</time>
					</trkpt>
					<trkpt lat="48.947100" lon="2.582790">
						<ele>66</ele>
						<time>2024-11-03T18:05:33Z</time>
					</trkpt>
					<trkpt lat="48.947350" lon="2.583360">
						<ele>67</ele>
						<time>2024-11-03T18:05:41Z</time>
					</trkpt>
					<trkpt lat="48.947430" lon="2.583780">
						<ele>67</ele>
						<time>2024-11-03T18:05:46Z</time>
					</trkpt>
					<trkpt lat="48.947440" lon="2.583980">
						<ele>67</ele>
						<time>2024-11-03T18:05:48Z</time>
					</trkpt>
					<trkpt lat="48.947530" lon="2.584300">
						<ele>67</ele>
						<time>2024-11-03T18:05:52Z</time>
					</trkpt>
					<trkpt lat="48.947620" lon="2.584490">
						<ele>66</ele>
						<time>2024-11-03T18:05:55Z</time>
					</trkpt>
					<trkpt lat="48.947780" lon="2.584960">
						<ele>65</ele>
						<time>2024-11-03T18:06:01Z</time>
					</trkpt>
					<trkpt lat="48.947950" lon="2.585690">
						<ele>65</ele>
						<time>2024-11-03T18:06:10Z</time>
					</trkpt>
					<trkpt lat="48.947960" lon="2.585790">
						<ele>65</ele>
						<time>2024-11-03T18:06:12Z</time>
					</trkpt>
					<trkpt lat="48.947950" lon="2.585890">
						<ele>65</ele>
						<time>2024-11-03T18:06:13Z</time>
					</trkpt>
					<trkpt lat="48.947930" lon="2.586090">
						<ele>65</ele>
						<time>2024-11-03T18:06:15Z</time>
					</trkpt>
					<trkpt lat="48.947990" lon="2.586480">
						<ele>64</ele>
						<time>2024-11-03T18:06:20Z</time>
					</trkpt>
					<trkpt lat="48.948240" lon="2.587730">
						<ele>64</ele>
						<time>2024-11-03T18:06:35Z</time>
					</trkpt>
					<trkpt lat="48.948300" lon="2.588010">
						<ele>65</ele>
						<time>2024-11-03T18:06:39Z</time>
					</trkpt>
					<trkpt lat="48.948470" lon="2.588260">
						<ele>66</ele>
						<time>2024-11-03T18:06:43Z</time>
					</trkpt>
					<trkpt lat="48.948930" lon="2.590030">
						<ele>65</ele>
						<time>2024-11-03T18:07:05Z</time>
					</trkpt>
					<trkpt lat="48.949060" lon="2.590610">
						<ele>64</ele>
						<time>2024-11-03T18:07:12Z</time>
					</trkpt>
					<trkpt lat="48.949210" lon="2.590900">
						<ele>63</ele>
						<time>2024-11-03T18:07:17Z</time>
					</trkpt>
					<trkpt lat="48.949280" lon="2.591010">
						<ele>64</ele>
						<time>2024-11-03T18:07:18Z</time>
					</trkpt>
					<trkpt lat="48.949420" lon="2.591500">
						<ele>64</ele>
						<time>2024-11-03T18:07:25Z</time>
					</trkpt>
					<trkpt lat="48.949810" lon="2.593150">
						<ele>66</ele>
						<time>2024-11-03T18:07:45Z</time>
					</trkpt>
					<trkpt lat="48.950170" lon="2.594470">
						<ele>67</ele>
						<time>2024-11-03T18:08:02Z</time>
					</trkpt>
					<trkpt lat="48.950790" lon="2.596870">
						<ele>65</ele>
						<time>2024-11-03T18:08:32Z</time>
					</trkpt>
					<trkpt lat="48.950840" lon="2.597100">
						<ele>65</ele>
						<time>2024-11-03T18:08:35Z</time>
					</trkpt>
					<trkpt lat="48.950860" lon="2.597360">
						<ele>64</ele>
						<time>2024-11-03T18:08:38Z</time>
					</trkpt>
					<trkpt lat="48.950850" lon="2.597510">
						<ele>64</ele>
						<time>2024-11-03T18:08:40Z</time>
					</trkpt>
					<trkpt lat="48.950900" lon="2.597690">
						<ele>64</ele>
						<time>2024-11-03T18:08:42Z</time>
					</trkpt>
					<trkpt lat="48.951570" lon="2.600340">
						<ele>61</ele>
						<time>2024-11-03T18:09:15Z</time>
					</trkpt>
					<trkpt lat="48.951610" lon="2.600470">
						<ele>61</ele>
						<time>2024-11-03T18:09:17Z</time>
					</trkpt>
					<trkpt lat="48.951740" lon="2.600700">
						<ele>60</ele>
						<time>2024-11-03T18:09:20Z</time>
					</trkpt>
					<trkpt lat="48.951820" lon="2.600970">
						<ele>59</ele>
						<time>2024-11-03T18:09:24Z</time>
					</trkpt>
					<trkpt lat="48.951850" lon="2.601040">
						<ele>59</ele>
						<time>2024-11-03T18:09:25Z</time>
					</trkpt>
					<trkpt lat="48.951870" lon="2.601430">
						<ele>58</ele>
						<time>2024-11-03T18:09:29Z</time>
					</trkpt>
					<trkpt lat="48.951890" lon="2.601560">
						<ele>58</ele>
						<time>2024-11-03T18:09:31Z</time>
					</trkpt>
					<trkpt lat="48.951970" lon="2.601520">
						<ele>58</ele>
						<time>2024-11-03T18:09:32Z</time>
					</trkpt>
					<trkpt lat="48.952100" lon="2.601450">
						<ele>58</ele>
						<time>2024-11-03T18:09:35Z</time>
					</trkpt>
					<trkpt lat="48.952160" lon="2.601420">
						<ele>58</ele>
						<time>2024-11-03T18:09:36Z</time>
					</trkpt>
					<trkpt lat="48.952260" lon="2.601360">
						<ele>58</ele>
						<time>2024-11-03T18:09:38Z</time>
					</trkpt>
					<trkpt lat="48.952280" lon="2.601640">
						<ele>58</ele>
						<time>2024-11-03T18:09:41Z</time>
					</trkpt>
					<trkpt lat="48.952280" lon="2.602060">
						<ele>58</ele>
						<time>2024-11-03T18:09:46Z</time>
					</trkpt>
					<trkpt lat="48.952460" lon="2.602730">
						<ele>59</ele>
						<time>2024-11-03T18:09:54Z</time>
					</trkpt>
					<trkpt lat="48.952580" lon="2.603350">
						<ele>60</ele>
						<time>2024-11-03T18:10:02Z</time>
					</trkpt>
					<trkpt lat="48.952590" lon="2.603580">
						<ele>60</ele>
						<time>2024-11-03T18:10:05Z</time>
					</trkpt>
					<trkpt lat="48.952570" lon="2.603880">
						<ele>60</ele>
						<time>2024-11-03T18:10:08Z</time>
					</trkpt>
					<trkpt lat="48.952510" lon="2.604360">
						<ele>60</ele>
						<time>2024-11-03T18:10:14Z</time>
					</trkpt>
					<trkpt lat="48.952330" lon="2.605220">
						<ele>58</ele>
						<time>2024-11-03T18:10:24Z</time>
					</trkpt>
					<trkpt lat="48.952280" lon="2.605350">
						<ele>58</ele>
						<time>2024-11-03T18:10:26Z</time>
					</trkpt>
					<trkpt lat="48.952080" lon="2.605720">
						<ele>58</ele>
						<time>2024-11-03T18:10:32Z</time>
					</trkpt>
					<trkpt lat="48.952030" lon="2.605940">
						<ele>58</ele>
						<time>2024-11-03T18:10:35Z</time>
					</trkpt>
					<trkpt lat="48.952010" lon="2.606040">
						<ele>58</ele>
						<time>2024-11-03T18:10:36Z</time>
					</trkpt>
					<trkpt lat="48.952010" lon="2.606290">
						<ele>59</ele>
						<time>2024-11-03T18:10:39Z</time>
					</trkpt>
					<trkpt lat="48.952000" lon="2.606720">
						<ele>60</ele>
						<time>2024-11-03T18:10:44Z</time>
					</trkpt>
					<trkpt lat="48.951020" lon="2.611100">
						<ele>59</ele>
						<time>2024-11-03T18:11:38Z</time>
					</trkpt>
					<trkpt lat="48.950930" lon="2.611610">
						<ele>60</ele>
						<time>2024-11-03T18:11:44Z</time>
					</trkpt>
					<trkpt lat="48.950890" lon="2.612020">
						<ele>60</ele>
						<time>2024-11-03T18:11:49Z</time>
					</trkpt>
					<trkpt lat="48.950870" lon="2.612430">
						<ele>60</ele>
						<time>2024-11-03T18:11:54Z</time>
					</trkpt>
					<trkpt lat="48.950870" lon="2.612830">
						<ele>60</ele>
						<time>2024-11-03T18:11:58Z</time>
					</trkpt>
					<trkpt lat="48.950890" lon="2.613330">
						<ele>61</ele>
						<time>2024-11-03T18:12:04Z</time>
					</trkpt>
					<trkpt lat="48.950970" lon="2.613820">
						<ele>60</ele>
						<time>2024-11-03T18:12:10Z</time>
					</trkpt>
					<trkpt lat="48.951010" lon="2.614030">
						<ele>59</ele>
						<time>2024-11-03T18:12:13Z</time>
					</trkpt>
					<trkpt lat="48.951110" lon="2.614690">
						<ele>58</ele>
						<time>2024-11-03T18:12:20Z</time>
					</trkpt>
					<trkpt lat="48.951170" lon="2.614880">
						<ele>57</ele>
						<time>2024-11-03T18:12:23Z</time>
					</trkpt>
					<trkpt lat="48.951440" lon="2.615310">
						<ele>57</ele>
						<time>2024-11-03T18:12:30Z</time>
					</trkpt>
					<trkpt lat="48.951510" lon="2.615470">
						<ele>57</ele>
						<time>2024-11-03T18:12:32Z</time>
					</trkpt>
					<trkpt lat="48.951920" lon="2.616340">
						<ele>58</ele>
						<time>2024-11-03T18:12:45Z</time>
					</trkpt>
					<trkpt lat="48.952150" lon="2.616900">
						<ele>58</ele>
						<time>2024-11-03T18:12:52Z</time>
					</trkpt>
					<trkpt lat="48.952430" lon="2.617710">
						<ele>62</ele>
						<time>2024-11-03T18:13:03Z</time>
					</trkpt>
					<trkpt lat="48.952580" lon="2.618240">
						<ele>62</ele>
						<time>2024-11-03T18:13:10Z</time>
					</trkpt>
					<trkpt lat="48.952630" lon="2.618680">
						<ele>61</ele>
						<time>2024-11-03T18:13:15Z</time>
					</trkpt>
					<trkpt lat="48.952930" lon="2.620330">
						<ele>58</ele>
						<time>2024-11-03T18:13:35Z</time>
					</trkpt>
					<trkpt lat="48.953210" lon="2.623370">
						<ele>55</ele>
						<time>2024-11-03T18:14:11Z</time>
					</trkpt>
					<trkpt lat="48.953220" lon="2.623620">
						<ele>56</ele>
						<time>2024-11-03T18:14:14Z</time>
					</trkpt>
					<trkpt lat="48.953200" lon="2.624050">
						<ele>57</ele>
						<time>2024-11-03T18:14:19Z</time>
					</trkpt>
					<trkpt lat="48.953230" lon="2.624320">
						<ele>56</ele>
						<time>2024-11-03T18:14:22Z</time>
					</trkpt>
					<trkpt lat="48.953510" lon="2.627230">
						<ele>54</ele>
						<time>2024-11-03T18:14:56Z</time>
					</trkpt>
					<trkpt lat="48.953520" lon="2.627530">
						<ele>54</ele>
						<time>2024-11-03T18:15:00Z</time>
					</trkpt>
					<trkpt lat="48.953500" lon="2.627740">
						<ele>54</ele>
						<time>2024-11-03T18:15:02Z</time>
					</trkpt>
					<trkpt lat="48.953550" lon="2.628130">
						<ele>54</ele>
						<time>2024-11-03T18:15:07Z</time>
					</trkpt>
					<trkpt lat="48.953580" lon="2.628240">
						<ele>54</ele>
						<time>2024-11-03T18:15:08Z</time>
					</trkpt>
					<trkpt lat="48.955680" lon="2.652160">
						<ele>55</ele>
						<time>2024-11-03T18:19:50Z</time>
					</trkpt>
					<trkpt lat="48.956660" lon="2.662540">
						<ele>51</ele>
						<time>2024-11-03T18:21:53Z</time>
					</trkpt>
					<trkpt lat="48.956730" lon="2.663430">
						<ele>52</ele>
						<time>2024-11-03T18:22:03Z</time>
					</trkpt>
					<trkpt lat="48.956810" lon="2.664230">
						<ele>53</ele>
						<time>2024-11-03T18:22:13Z</time>
					</trkpt>
					<trkpt lat="48.956870" lon="2.664510">
						<ele>53</ele>
						<time>2024-11-03T18:22:16Z</time>
					</trkpt>
					<trkpt lat="48.956980" lon="2.664860">
						<ele>53</ele>
						<time>2024-11-03T18:22:21Z</time>
					</trkpt>
					<trkpt lat="48.956980" lon="2.664860">
						<ele>53</ele>
						<time>2024-11-03T18:22:21Z</time>
					</trkpt>
					<trkpt lat="48.957020" lon="2.665120">
						<ele>53</ele>
						<time>2024-11-03T18:22:24Z</time>
					</trkpt>
					<trkpt lat="48.957990" lon="2.664890">
						<ele>55</ele>
						<time>2024-11-03T18:22:41Z</time>
					</trkpt>
					<trkpt lat="48.957990" lon="2.664950">
						<ele>55</ele>
						<time>2024-11-03T18:22:42Z</time>
					</trkpt>
					<trkpt lat="48.958150" lon="2.664920">
						<ele>55</ele>
						<time>2024-11-03T18:22:45Z</time>
					</trkpt>
					<trkpt lat="48.958100" lon="2.665260">
						<ele>55</ele>
						<time>2024-11-03T18:22:49Z</time>
					</trkpt>
					<trkpt lat="48.957940" lon="2.666480">
						<ele>56</ele>
						<time>2024-11-03T18:23:04Z</time>
					</trkpt>
					<trkpt lat="48.957760" lon="2.667520">
						<ele>55</ele>
						<time>2024-11-03T18:23:16Z</time>
					</trkpt>
					<trkpt lat="48.957770" lon="2.667760">
						<ele>54</ele>
						<time>2024-11-03T18:23:19Z</time>
					</trkpt>
					<trkpt lat="48.957810" lon="2.667990">
						<ele>54</ele>
						<time>2024-11-03T18:23:22Z</time>
					</trkpt>
					<trkpt lat="48.957960" lon="2.668350">
						<ele>53</ele>
						<time>2024-11-03T18:23:27Z</time>
					</trkpt>
					<trkpt lat="48.958130" lon="2.668620">
						<ele>53</ele>
						<time>2024-11-03T18:23:31Z</time>
					</trkpt>
					<trkpt lat="48.958170" lon="2.668700">
						<ele>53</ele>
						<time>2024-11-03T18:23:32Z</time>
					</trkpt>
					<trkpt lat="48.958480" lon="2.669160">
						<ele>54</ele>
						<time>2024-11-03T18:23:40Z</time>
					</trkpt>
					<trkpt lat="48.958670" lon="2.669390">
						<ele>54</ele>
						<time>2024-11-03T18:23:44Z</time>
					</trkpt>
					<trkpt lat="48.958930" lon="2.669620">
						<ele>54</ele>
						<time>2024-11-03T18:23:50Z</time>
					</trkpt>
					<trkpt lat="48.959330" lon="2.669840">
						<ele>55</ele>
						<time>2024-11-03T18:23:57Z</time>
					</trkpt>
					<trkpt lat="48.959670" lon="2.669930">
						<ele>55</ele>
						<time>2024-11-03T18:24:03Z</time>
					</trkpt>
					<trkpt lat="48.959920" lon="2.669970">
						<ele>56</ele>
						<time>2024-11-03T18:24:08Z</time>
					</trkpt>
					<trkpt lat="48.960010" lon="2.669980">
						<ele>56</ele>
						<time>2024-11-03T18:24:09Z</time>
					</trkpt>
					<trkpt lat="48.960120" lon="2.669990">
						<ele>56</ele>
						<time>2024-11-03T18:24:11Z</time>
					</trkpt>
					<trkpt lat="48.960490" lon="2.670090">
						<ele>56</ele>
						<time>2024-11-03T18:24:18Z</time>
					</trkpt>
					<trkpt lat="48.960650" lon="2.670270">
						<ele>56</ele>
						<time>2024-11-03T18:24:22Z</time>
					</trkpt>
					<trkpt lat="48.960730" lon="2.670480">
						<ele>56</ele>
						<time>2024-11-03T18:24:24Z</time>
					</trkpt>
					<trkpt lat="48.960980" lon="2.671390">
						<ele>55</ele>
						<time>2024-11-03T18:24:36Z</time>
					</trkpt>
					<trkpt lat="48.961030" lon="2.671520">
						<ele>55</ele>
						<time>2024-11-03T18:24:38Z</time>
					</trkpt>
					<trkpt lat="48.961200" lon="2.671760">
						<ele>56</ele>
						<time>2024-11-03T18:24:42Z</time>
					</trkpt>
					<trkpt lat="48.961850" lon="2.671990">
						<ele>58</ele>
						<time>2024-11-03T18:24:54Z</time>
					</trkpt>
					<trkpt lat="48.962030" lon="2.671810">
						<ele>59</ele>
						<time>2024-11-03T18:24:58Z</time>
					</trkpt>
					<trkpt lat="48.962180" lon="2.671700">
						<ele>60</ele>
						<time>2024-11-03T18:25:01Z</time>
					</trkpt>
					<trkpt lat="48.962370" lon="2.671640">
						<ele>61</ele>
						<time>2024-11-03T18:25:04Z</time>
					</trkpt>
					<trkpt lat="48.962900" lon="2.671630">
						<ele>61</ele>
						<time>2024-11-03T18:25:13Z</time>
					</trkpt>
					<trkpt lat="48.963340" lon="2.671840">
						<ele>62</ele>
						<time>2024-11-03T18:25:22Z</time>
					</trkpt>
					<trkpt lat="48.963390" lon="2.671850">
						<ele>62</ele>
						<time>2024-11-03T18:25:23Z</time>
					</trkpt>
					<trkpt lat="48.963940" lon="2.672060">
						<ele>62</ele>
						<time>2024-11-03T18:25:33Z</time>
					</trkpt>
					<trkpt lat="48.964480" lon="2.672320">
						<ele>63</ele>
						<time>2024-11-03T18:25:43Z</time>
					</trkpt>
					<trkpt lat="48.964610" lon="2.672380">
						<ele>63</ele>
						<time>2024-11-03T18:25:45Z</time>
					</trkpt>
					<trkpt lat="48.964940" lon="2.672530">
						<ele>63</ele>
						<time>2024-11-03T18:25:51Z</time>
					</trkpt>
					<trkpt lat="48.965350" lon="2.672690">
						<ele>62</ele>
						<time>2024-11-03T18:25:59Z</time>
					</trkpt>
					<trkpt lat="48.965450" lon="2.672710">
						<ele>62</ele>
						<time>2024-11-03T18:26:01Z</time>
					</trkpt>
					<trkpt lat="48.965510" lon="2.673740">
						<ele>59</ele>
						<time>2024-11-03T18:26:13Z</time>
					</trkpt>
					<trkpt lat="48.965480" lon="2.673850">
						<ele>59</ele>
						<time>2024-11-03T18:26:14Z</time>
					</trkpt>
					<trkpt lat="48.965220" lon="2.674400">
						<ele>59</ele>
						<time>2024-11-03T18:26:22Z</time>
					</trkpt>
					<trkpt lat="48.965050" lon="2.674660">
						<ele>59</ele>
						<time>2024-11-03T18:26:26Z</time>
					</trkpt>
					<trkpt lat="48.964940" lon="2.674790">
						<ele>59</ele>
						<time>2024-11-03T18:26:29Z</time>
					</trkpt>
					<trkpt lat="48.964810" lon="2.674880">
						<ele>59</ele>
						<time>2024-11-03T18:26:31Z</time>
					</trkpt>
					<trkpt lat="48.964750" lon="2.674980">
						<ele>60</ele>
						<time>2024-11-03T18:26:33Z</time>
					</trkpt>
					<trkpt lat="48.964720" lon="2.675090">
						<ele>59</ele>
						<time>2024-11-03T18:26:34Z</time>
					</trkpt>
					<trkpt lat="48.964710" lon="2.675230">
						<ele>59</ele>
						<time>2024-11-03T18:26:36Z</time>
					</trkpt>
					<trkpt lat="48.964710" lon="2.675590">
						<ele>58</ele>
						<time>2024-11-03T18:26:40Z</time>
					</trkpt>
					<trkpt lat="48.964670" lon="2.675970">
						<ele>57</ele>
						<time>2024-11-03T18:26:45Z</time>
					</trkpt>
					<trkpt lat="48.964640" lon="2.676350">
						<ele>57</ele>
						<time>2024-11-03T18:26:49Z</time>
					</trkpt>
					<trkpt lat="48.964620" lon="2.676700">
						<ele>56</ele>
						<time>2024-11-03T18:26:53Z</time>
					</trkpt>
					<trkpt lat="48.964640" lon="2.676890">
						<ele>56</ele>
						<time>2024-11-03T18:26:55Z</time>
					</trkpt>
					<trkpt lat="48.964670" lon="2.677080">
						<ele>55</ele>
						<time>2024-11-03T18:26:58Z</time>
					</trkpt>
					<trkpt lat="48.964680" lon="2.677130">
						<ele>55</ele>
						<time>2024-11-03T18:26:58Z</time>
					</trkpt>
					<trkpt lat="48.964690" lon="2.677210">
						<ele>55</ele>
						<time>2024-11-03T18:26:59Z</time>
					</trkpt>
					<trkpt lat="48.965120" lon="2.679260">
						<ele>56</ele>
						<time>2024-11-03T18:27:24Z</time>
					</trkpt>
					<trkpt lat="48.965380" lon="2.680570">
						<ele>59</ele>
						<time>2024-11-03T18:27:40Z</time>
					</trkpt>
					<trkpt lat="48.965490" lon="2.681080">
						<ele>60</ele>
						<time>2024-11-03T18:27:47Z</time>
					</trkpt>
					<trkpt lat="48.965700" lon="2.681630">
						<ele>59</ele>
						<time>2024-11-03T18:27:54Z</time>
					</trkpt>
					<trkpt lat="48.966020" lon="2.682330">
						<ele>61</ele>
						<time>2024-11-03T18:28:04Z</time>
					</trkpt>
					<trkpt lat="48.966780" lon="2.684020">
						<ele>61</ele>
						<time>2024-11-03T18:28:28Z</time>
					</trkpt>
					<trkpt lat="48.967120" lon="2.684750">
						<ele>60</ele>
						<time>2024-11-03T18:28:38Z</time>
					</trkpt>
					<trkpt lat="48.967240" lon="2.685000">
						<ele>59</ele>
						<time>2024-11-03T18:28:42Z</time>
					</trkpt>
					<trkpt lat="48.967630" lon="2.685810">
						<ele>60</ele>
						<time>2024-11-03T18:28:54Z</time>
					</trkpt>
					<trkpt lat="48.967730" lon="2.686020">
						<ele>61</ele>
						<time>2024-11-03T18:28:57Z</time>
					</trkpt>
					<trkpt lat="48.968400" lon="2.687460">
						<ele>61</ele>
						<time>2024-11-03T18:29:17Z</time>
					</trkpt>
					<trkpt lat="48.968560" lon="2.687810">
						<ele>62</ele>
						<time>2024-11-03T18:29:22Z</time>
					</trkpt>
					<trkpt lat="48.968720" lon="2.688180">
						<ele>63</ele>
						<time>2024-11-03T18:29:28Z</time>
					</trkpt>
					<trkpt lat="48.968770" lon="2.688360">
						<ele>63</ele>
						<time>2024-11-03T18:29:30Z</time>
					</trkpt>
					<trkpt lat="48.968800" lon="2.688550">
						<ele>63</ele>
						<time>2024-11-03T18:29:32Z</time>
					</trkpt>
					<trkpt lat="48.968810" lon="2.688830">
						<ele>64</ele>
						<time>2024-11-03T18:29:35Z</time>
					</trkpt>
					<trkpt lat="48.968620" lon="2.692270">
						<ele>70</ele>
						<time>2024-11-03T18:30:16Z</time>
					</trkpt>
					<trkpt lat="48.968600" lon="2.692490">
						<ele>70</ele>
						<time>2024-11-03T18:30:18Z</time>
					</trkpt>
					<trkpt lat="48.968550" lon="2.692670">
						<ele>70</ele>
						<time>2024-11-03T18:30:21Z</time>
					</trkpt>
					<trkpt lat="48.968470" lon="2.692800">
						<ele>71</ele>
						<time>2024-11-03T18:30:23Z</time>
					</trkpt>
					<trkpt lat="48.968250" lon="2.693010">
						<ele>71</ele>
						<time>2024-11-03T18:30:27Z</time>
					</trkpt>
					<trkpt lat="48.967930" lon="2.693180">
						<ele>71</ele>
						<time>2024-11-03T18:30:33Z</time>
					</trkpt>
					<trkpt lat="48.967710" lon="2.693280">
						<ele>70</ele>
						<time>2024-11-03T18:30:37Z</time>
					</trkpt>
					<trkpt lat="48.967470" lon="2.693450">
						<ele>70</ele>
						<time>2024-11-03T18:30:42Z</time>
					</trkpt>
					<trkpt lat="48.967420" lon="2.693530">
						<ele>70</ele>
						<time>2024-11-03T18:30:43Z</time>
					</trkpt>
					<trkpt lat="48.967360" lon="2.693730">
						<ele>70</ele>
						<time>2024-11-03T18:30:46Z</time>
					</trkpt>
					<trkpt lat="48.967330" lon="2.693910">
						<ele>70</ele>
						<time>2024-11-03T18:30:48Z</time>
					</trkpt>
					<trkpt lat="48.967310" lon="2.694860">
						<ele>71</ele>
						<time>2024-11-03T18:30:59Z</time>
					</trkpt>
					<trkpt lat="48.967330" lon="2.695790">
						<ele>73</ele>
						<time>2024-11-03T18:31:10Z</time>
					</trkpt>
					<trkpt lat="48.967340" lon="2.695960">
						<ele>74</ele>
						<time>2024-11-03T18:31:12Z</time>
					</trkpt>
					<trkpt lat="48.967340" lon="2.696010">
						<ele>74</ele>
						<time>2024-11-03T18:31:13Z</time>
					</trkpt>
					<trkpt lat="48.967350" lon="2.696430">
						<ele>74</ele>
						<time>2024-11-03T18:31:18Z</time>
					</trkpt>
					<trkpt lat="48.967320" lon="2.696820">
						<ele>74</ele>
						<time>2024-11-03T18:31:22Z</time>
					</trkpt>
					<trkpt lat="48.967100" lon="2.698850">
						<ele>75</ele>
						<time>2024-11-03T18:31:46Z</time>
					</trkpt>
					<trkpt lat="48.967700" lon="2.698790">
						<ele>76</ele>
						<time>2024-11-03T18:31:57Z</time>
					</trkpt>
					<trkpt lat="48.968500" lon="2.698820">
						<ele>76</ele>
						<time>2024-11-03T18:32:11Z</time>
					</trkpt>
					<trkpt lat="48.968580" lon="2.698810">
						<ele>76</ele>
						<time>2024-11-03T18:32:13Z</time>
					</trkpt>
					<trkpt lat="48.969010" lon="2.698780">
						<ele>76</ele>
						<time>2024-11-03T18:32:20Z</time>
					</trkpt>
					<trkpt lat="48.975240" lon="2.697850">
						<ele>81</ele>
						<time>2024-11-03T18:34:12Z</time>
					</trkpt>
					<trkpt lat="48.976540" lon="2.697290">
						<ele>84</ele>
						<time>2024-11-03T18:34:36Z</time>
					</trkpt>
					<trkpt lat="48.977530" lon="2.696860">
						<ele>85</ele>
						<time>2024-11-03T18:34:54Z</time>
					</trkpt>
					<trkpt lat="48.978070" lon="2.696670">
						<ele>85</ele>
						<time>2024-11-03T18:35:04Z</time>
					</trkpt>
					<trkpt lat="48.978480" lon="2.696610">
						<ele>85</ele>
						<time>2024-11-03T18:35:11Z</time>
					</trkpt>
					<trkpt lat="48.982260" lon="2.696380">
						<ele>88</ele>
						<time>2024-11-03T18:36:18Z</time>
					</trkpt>
					<trkpt lat="48.982320" lon="2.696380">
						<ele>88</ele>
						<time>2024-11-03T18:36:20Z</time>
					</trkpt>
					<trkpt lat="48.983720" lon="2.696300">
						<ele>87</ele>
						<time>2024-11-03T18:36:44Z</time>
					</trkpt>
					<trkpt lat="48.983770" lon="2.696480">
						<ele>87</ele>
						<time>2024-11-03T18:36:47Z</time>
					</trkpt>
					<trkpt lat="48.983870" lon="2.697000">
						<ele>87</ele>
						<time>2024-11-03T18:36:53Z</time>
					</trkpt>
					<trkpt lat="48.983880" lon="2.697150">
						<ele>87</ele>
						<time>2024-11-03T18:36:55Z</time>
					</trkpt>
					<trkpt lat="48.983810" lon="2.697520">
						<ele>87</ele>
						<time>2024-11-03T18:36:59Z</time>
					</trkpt>
					<trkpt lat="48.983620" lon="2.698600">
						<ele>87</ele>
						<time>2024-11-03T18:37:12Z</time>
					</trkpt>
					<trkpt lat="48.983160" lon="2.700980">
						<ele>85</ele>
						<time>2024-11-03T18:37:41Z</time>
					</trkpt>
					<trkpt lat="48.983100" lon="2.701450">
						<ele>85</ele>
						<time>2024-11-03T18:37:47Z</time>
					</trkpt>
					<trkpt lat="48.982850" lon="2.704720">
						<ele>87</ele>
						<time>2024-11-03T18:38:25Z</time>
					</trkpt>
					<trkpt lat="48.982840" lon="2.704820">
						<ele>87</ele>
						<time>2024-11-03T18:38:27Z</time>
					</trkpt>
					<trkpt lat="48.982740" lon="2.706000">
						<ele>87</ele>
						<time>2024-11-03T18:38:40Z</time>
					</trkpt>
					<trkpt lat="48.982600" lon="2.707560">
						<ele>89</ele>
						<time>2024-11-03T18:38:59Z</time>
					</trkpt>
					<trkpt lat="48.982600" lon="2.708040">
						<ele>89</ele>
						<time>2024-11-03T18:39:04Z</time>
					</trkpt>
					<trkpt lat="48.982640" lon="2.709460">
						<ele>88</ele>
						<time>2024-11-03T18:39:21Z</time>
					</trkpt>
					<trkpt lat="48.982700" lon="2.711500">
						<ele>90</ele>
						<time>2024-11-03T18:39:45Z</time>
					</trkpt>
					<trkpt lat="48.982810" lon="2.715590">
						<ele>89</ele>
						<time>2024-11-03T18:40:33Z</time>
					</trkpt>
					<trkpt lat="48.982810" lon="2.716080">
						<ele>89</ele>
						<time>2024-11-03T18:40:38Z</time>
					</trkpt>
					<trkpt lat="48.982380" lon="2.726070">
						<ele>91</ele>
						<time>2024-11-03T18:42:35Z</time>
					</trkpt>
					<trkpt lat="48.982090" lon="2.733110">
						<ele>100</ele>
						<time>2024-11-03T18:43:58Z</time>
					</trkpt>
					<trkpt lat="48.982000" lon="2.734430">
						<ele>102</ele>
						<time>2024-11-03T18:44:13Z</time>
					</trkpt>
					<trkpt lat="48.981880" lon="2.735640">
						<ele>104</ele>
						<time>2024-11-03T18:44:28Z</time>
					</trkpt>
					<trkpt lat="48.981830" lon="2.736360">
						<ele>105</ele>
						<time>2024-11-03T18:44:36Z</time>
					</trkpt>
					<trkpt lat="48.981860" lon="2.736750">
						<ele>105</ele>
						<time>2024-11-03T18:44:41Z</time>
					</trkpt>
					<trkpt lat="48.982220" lon="2.738510">
						<ele>108</ele>
						<time>2024-11-03T18:45:02Z</time>
					</trkpt>
					<trkpt lat="48.982250" lon="2.738970">
						<ele>108</ele>
						<time>2024-11-03T18:45:07Z</time>
					</trkpt>
					<trkpt lat="48.982030" lon="2.742750">
						<ele>110</ele>
						<time>2024-11-03T18:45:52Z</time>
					</trkpt>
					<trkpt lat="48.981940" lon="2.743210">
						<ele>109</ele>
						<time>2024-11-03T18:45:57Z</time>
					</trkpt>
					<trkpt lat="48.980680" lon="2.747240">
						<ele>107</ele>
						<time>2024-11-03T18:46:50Z</time>
					</trkpt>
					<trkpt lat="48.980330" lon="2.748360">
						<ele>105</ele>
						<time>2024-11-03T18:47:04Z</time>
					</trkpt>
					<trkpt lat="48.980260" lon="2.748590">
						<ele>105</ele>
						<time>2024-11-03T18:47:07Z</time>
					</trkpt>
					<trkpt lat="48.979920" lon="2.749650">
						<ele>105</ele>
						<time>2024-11-03T18:47:21Z</time>
					</trkpt>
					<trkpt lat="48.979590" lon="2.750550">
						<ele>105</ele>
						<time>2024-11-03T18:47:33Z</time>
					</trkpt>
					<trkpt lat="48.978430" lon="2.753620">
						<ele>107</ele>
						<time>2024-11-03T18:48:14Z</time>
					</trkpt>
					<trkpt lat="48.978290" lon="2.754030">
						<ele>108</ele>
						<time>2024-11-03T18:48:20Z</time>
					</trkpt>
					<trkpt lat="48.978190" lon="2.754470">
						<ele>108</ele>
						<time>2024-11-03T18:48:25Z</time>
					</trkpt>
					<trkpt lat="48.978040" lon="2.755300">
						<ele>109</ele>
						<time>2024-11-03T18:48:35Z</time>
					</trkpt>
					<trkpt lat="48.977700" lon="2.757370">
						<ele>111</ele>
						<time>2024-11-03T18:49:00Z</time>
					</trkpt>
					<trkpt lat="48.977580" lon="2.757950">
						<ele>111</ele>
						<time>2024-11-03T18:49:07Z</time>
					</trkpt>
					<trkpt lat="48.976990" lon="2.760190">
						<ele>111</ele>
						<time>2024-11-03T18:49:35Z</time>
					</trkpt>
					<trkpt lat="48.980910" lon="2.762150">
						<ele>110</ele>
						<time>2024-11-03T18:50:49Z</time>
					</trkpt>
					<trkpt lat="48.985480" lon="2.764460">
						<ele>106</ele>
						<time>2024-11-03T18:52:14Z</time>
					</trkpt>
					<trkpt lat="48.986560" lon="2.765000">
						<ele>109</ele>
						<time>2024-11-03T18:52:35Z</time>
					</trkpt>
					<trkpt lat="48.986750" lon="2.765100">
						<ele>109</ele>
						<time>2024-11-03T18:52:38Z</time>
					</trkpt>
					<trkpt lat="48.988110" lon="2.765800">
						<ele>108</ele>
						<time>2024-11-03T18:53:04Z</time>
					</trkpt>
					<trkpt lat="48.991570" lon="2.767500">
						<ele>108</ele>
						<time>2024-11-03T18:54:08Z</time>
					</trkpt>
					<trkpt lat="48.992110" lon="2.767780">
						<ele>108</ele>
						<time>2024-11-03T18:54:19Z</time>
					</trkpt>
					<trkpt lat="48.992710" lon="2.768160">
						<ele>108</ele>
						<time>2024-11-03T18:54:30Z</time>
					</trkpt>
					<trkpt lat="48.993310" lon="2.768250">
						<ele>109</ele>
						<time>2024-11-03T18:54:41Z</time>
					</trkpt>
					<trkpt lat="48.993930" lon="2.768080">
						<ele>110</ele>
						<time>2024-11-03T18:54:52Z</time>
					</trkpt>
					<trkpt lat="48.996180" lon="2.767340">
						<ele>117</ele>
						<time>2024-11-03T18:55:33Z</time>
					</trkpt>
					<trkpt lat="48.996170" lon="2.768550">
						<ele>117</ele>
						<time>2024-11-03T18:55:47Z</time>
					</trkpt>
					<trkpt lat="48.996240" lon="2.769000">
						<ele>117</ele>
						<time>2024-11-03T18:55:52Z</time>
					</trkpt>
					<trkpt lat="48.996640" lon="2.770820">
						<ele>119</ele>
						<time>2024-11-03T18:56:15Z</time>
					</trkpt>
					<trkpt lat="48.997250" lon="2.772520">
						<ele>125</ele>
						<time>2024-11-03T18:56:38Z</time>
					</trkpt>
					<trkpt lat="48.997310" lon="2.773090">
						<ele>127</ele>
						<time>2024-11-03T18:56:44Z</time>
					</trkpt>
					<trkpt lat="48.997300" lon="2.773690">
						<ele>129</ele>
						<time>2024-11-03T18:56:51Z</time>
					</trkpt>
					<trkpt lat="48.997270" lon="2.774800">
						<ele>133</ele>
						<time>2024-11-03T18:57:04Z</time>
					</trkpt>
					<trkpt lat="48.997270" lon="2.775210">
						<ele>134</ele>
						<time>2024-11-03T18:57:09Z</time>
					</trkpt>
					<trkpt lat="48.997410" lon="2.777240">
						<ele>128</ele>
						<time>2024-11-03T18:57:33Z</time>
					</trkpt>
					<trkpt lat="48.997500" lon="2.777940">
						<ele>127</ele>
						<time>2024-11-03T18:57:41Z</time>
					</trkpt>
					<trkpt lat="48.997580" lon="2.778280">
						<ele>127</ele>
						<time>2024-11-03T18:57:45Z</time>
					</trkpt>
					<trkpt lat="48.997610" lon="2.778410">
						<ele>126</ele>
						<time>2024-11-03T18:57:47Z</time>
					</trkpt>
					<trkpt lat="48.997740" lon="2.779110">
						<ele>125</ele>
						<time>2024-11-03T18:57:55Z</time>
					</trkpt>
					<trkpt lat="48.998210" lon="2.782920">
						<ele>120</ele>
						<time>2024-11-03T18:58:41Z</time>
					</trkpt>
					<trkpt lat="48.998240" lon="2.783180">
						<ele>120</ele>
						<time>2024-11-03T18:58:44Z</time>
					</trkpt>
					<trkpt lat="48.998510" lon="2.785240">
						<ele>120</ele>
						<time>2024-11-03T18:59:08Z</time>
					</trkpt>
					<trkpt lat="48.998580" lon="2.785580">
						<ele>120</ele>
						<time>2024-11-03T18:59:13Z</time>
					</trkpt>
					<trkpt lat="48.998750" lon="2.786090">
						<ele>121</ele>
						<time>2024-11-03T18:59:19Z</time>
					</trkpt>
					<trkpt lat="48.999490" lon="2.788100">
						<ele>120</ele>
						<time>2024-11-03T18:59:46Z</time>
					</trkpt>
					<trkpt lat="48.999550" lon="2.788200">
						<ele>120</ele>
						<time>2024-11-03T18:59:48Z</time>
					</trkpt>
					<trkpt lat="49.000110" lon="2.788590">
						<ele>119</ele>
						<time>2024-11-03T18:59:59Z</time>
					</trkpt>
					<trkpt lat="49.000220" lon="2.788490">
						<ele>119</ele>
						<time>2024-11-03T19:00:01Z</time>
					</trkpt>
					<trkpt lat="49.000520" lon="2.788290">
						<ele>119</ele>
						<time>2024-11-03T19:00:07Z</time>
					</trkpt>
					<trkpt lat="49.000670" lon="2.788280">
						<ele>119</ele>
						<time>2024-11-03T19:00:09Z</time>
					</trkpt>
					<trkpt lat="49.000950" lon="2.788300">
						<ele>119</ele>
						<time>2024-11-03T19:00:14Z</time>
					</trkpt>
					<trkpt lat="49.001330" lon="2.788480">
						<ele>119</ele>
						<time>2024-11-03T19:00:21Z</time>
					</trkpt>
					<trkpt lat="49.001840" lon="2.788880">
						<ele>119</ele>
						<time>2024-11-03T19:00:32Z</time>
					</trkpt>
					<trkpt lat="49.002110" lon="2.788940">
						<ele>118</ele>
						<time>2024-11-03T19:00:37Z</time>
					</trkpt>
					<trkpt lat="49.001390" lon="2.790140">
						<ele>117</ele>
						<time>2024-11-03T19:00:56Z</time>
					</trkpt>
					<trkpt lat="49.000890" lon="2.790960">
						<ele>116</ele>
						<time>2024-11-03T19:01:09Z</time>
					</trkpt>
					<trkpt lat="49.000810" lon="2.791090">
						<ele>116</ele>
						<time>2024-11-03T19:01:11Z</time>
					</trkpt>
					<trkpt lat="49.000520" lon="2.791700">
						<ele>115</ele>
						<time>2024-11-03T19:01:19Z</time>
					</trkpt>
					<trkpt lat="49.000230" lon="2.792230">
						<ele>114</ele>
						<time>2024-11-03T19:01:28Z</time>
					</trkpt>
					<trkpt lat="49.000110" lon="2.792260">
						<ele>114</ele>
						<time>2024-11-03T19:01:30Z</time>
					</trkpt>
					<trkpt lat="48.999210" lon="2.792740">
						<ele>114</ele>
						<time>2024-11-03T19:01:47Z</time>
					</trkpt>
					<trkpt lat="48.998630" lon="2.793040">
						<ele>112</ele>
						<time>2024-11-03T19:01:58Z</time>
					</trkpt>
					<trkpt lat="48.998230" lon="2.793250">
						<ele>111</ele>
						<time>2024-11-03T19:02:05Z</time>
					</trkpt>
					<trkpt lat="48.997970" lon="2.793330">
						<ele>111</ele>
						<time>2024-11-03T19:02:10Z</time>
					</trkpt>
					<trkpt lat="48.998070" lon="2.793450">
						<ele>111</ele>
						<time>2024-11-03T19:02:12Z</time>
					</trkpt>
					<trkpt lat="48.998390" lon="2.794160">
						<ele>110</ele>
						<time>2024-11-03T19:02:22Z</time>
					</trkpt>
					<trkpt lat="48.998620" lon="2.794780">
						<ele>110</ele>
						<time>2024-11-03T19:02:30Z</time>
					</trkpt>
					<trkpt lat="48.998900" lon="2.795640">
						<ele>109</ele>
						<time>2024-11-03T19:02:42Z</time>
					</trkpt>
					<trkpt lat="48.999160" lon="2.796820">
						<ele>107</ele>
						<time>2024-11-03T19:02:56Z</time>
					</trkpt>
					<trkpt lat="48.999390" lon="2.797970">
						<ele>105</ele>
						<time>2024-11-03T19:03:10Z</time>
					</trkpt>
					<trkpt lat="48.999590" lon="2.799190">
						<ele>103</ele>
						<time>2024-11-03T19:03:25Z</time>
					</trkpt>
					<trkpt lat="48.999660" lon="2.799920">
						<ele>103</ele>
						<time>2024-11-03T19:03:33Z</time>
					</trkpt>
					<trkpt lat="48.999670" lon="2.800750">
						<ele>102</ele>
						<time>2024-11-03T19:03:43Z</time>
					</trkpt>
					<trkpt lat="48.999610" lon="2.801590">
						<ele>101</ele>
						<time>2024-11-03T19:03:53Z</time>
					</trkpt>
					<trkpt lat="48.999420" lon="2.803480">
						<ele>98</ele>
						<time>2024-11-03T19:04:15Z</time>
					</trkpt>
					<trkpt lat="48.999290" lon="2.804930">
						<ele>98</ele>
						<time>2024-11-03T19:04:32Z</time>
					</trkpt>
					<trkpt lat="48.999300" lon="2.805760">
						<ele>101</ele>
						<time>2024-11-03T19:04:42Z</time>
					</trkpt>
					<trkpt lat="48.999350" lon="2.806340">
						<ele>102</ele>
						<time>2024-11-03T19:04:49Z</time>
					</trkpt>
					<trkpt lat="48.999620" lon="2.808180">
						<ele>107</ele>
						<time>2024-11-03T19:05:11Z</time>
					</trkpt>
					<trkpt lat="48.999670" lon="2.808530">
						<ele>107</ele>
						<time>2024-11-03T19:05:15Z</time>
					</trkpt>
					<trkpt lat="48.999780" lon="2.809480">
						<ele>107</ele>
						<time>2024-11-03T19:05:26Z</time>
					</trkpt>
					<trkpt lat="48.999820" lon="2.810170">
						<ele>106</ele>
						<time>2024-11-03T19:05:34Z</time>
					</trkpt>
					<trkpt lat="48.999830" lon="2.810850">
						<ele>105</ele>
						<time>2024-11-03T19:05:42Z</time>
					</trkpt>
					<trkpt lat="48.999810" lon="2.811560">
						<ele>104</ele>
						<time>2024-11-03T19:05:51Z</time>
					</trkpt>
					<trkpt lat="48.999580" lon="2.814360">
						<ele>98</ele>
						<time>2024-11-03T19:06:24Z</time>
					</trkpt>
					<trkpt lat="48.999460" lon="2.815520">
						<ele>97</ele>
						<time>2024-11-03T19:06:37Z</time>
					</trkpt>
					<trkpt lat="48.999050" lon="2.818330">
						<ele>100</ele>
						<time>2024-11-03T19:07:11Z</time>
					</trkpt>
					<trkpt lat="48.999000" lon="2.819160">
						<ele>102</ele>
						<time>2024-11-03T19:07:21Z</time>
					</trkpt>
					<trkpt lat="48.998990" lon="2.819890">
						<ele>105</ele>
						<time>2024-11-03T19:07:29Z</time>
					</trkpt>
					<trkpt lat="48.999020" lon="2.821270">
						<ele>109</ele>
						<time>2024-11-03T19:07:45Z</time>
					</trkpt>
					<trkpt lat="48.999030" lon="2.822500">
						<ele>110</ele>
						<time>2024-11-03T19:08:00Z</time>
					</trkpt>
					<trkpt lat="48.999060" lon="2.822930">
						<ele>110</ele>
						<time>2024-11-03T19:08:05Z</time>
					</trkpt>
					<trkpt lat="48.999110" lon="2.823390">
						<ele>110</ele>
						<time>2024-11-03T19:08:10Z</time>
					</trkpt>
					<trkpt lat="48.999260" lon="2.824340">
						<ele>109</ele>
						<time>2024-11-03T19:08:22Z</time>
					</trkpt>
					<trkpt lat="48.999480" lon="2.825120">
						<ele>109</ele>
						<time>2024-11-03T19:08:32Z</time>
					</trkpt>
					<trkpt lat="48.999740" lon="2.825790">
						<ele>111</ele>
						<time>2024-11-03T19:08:41Z</time>
					</trkpt>
					<trkpt lat="49.000020" lon="2.826380">
						<ele>113</ele>
						<time>2024-11-03T19:08:49Z</time>
					</trkpt>
					<trkpt lat="49.000330" lon="2.826920">
						<ele>114</ele>
						<time>2024-11-03T19:08:57Z</time>
					</trkpt>
					<trkpt lat="49.000820" lon="2.827570">
						<ele>116</ele>
						<time>2024-11-03T19:09:09Z</time>
					</trkpt>
					<trkpt lat="49.001400" lon="2.828140">
						<ele>120</ele>
						<time>2024-11-03T19:09:21Z</time>
					</trkpt>
					<trkpt lat="49.001680" lon="2.828340">
						<ele>121</ele>
						<time>2024-11-03T19:09:27Z</time>
					</trkpt>
					<trkpt lat="49.002710" lon="2.828900">
						<ele>125</ele>
						<time>2024-11-03T19:09:46Z</time>
					</trkpt>
					<trkpt lat="49.003290" lon="2.829290">
						<ele>127</ele>
						<time>2024-11-03T19:09:58Z</time>
					</trkpt>
					<trkpt lat="49.003560" lon="2.829540">
						<ele>128</ele>
						<time>2024-11-03T19:10:03Z</time>
					</trkpt>
					<trkpt lat="49.003780" lon="2.829870">
						<ele>129</ele>
						<time>2024-11-03T19:10:09Z</time>
					</trkpt>
					<trkpt lat="49.004070" lon="2.830260">
						<ele>129</ele>
						<time>2024-11-03T19:10:16Z</time>
					</trkpt>
					<trkpt lat="49.004680" lon="2.831030">
						<ele>129</ele>
						<time>2024-11-03T19:10:30Z</time>
					</trkpt>
					<trkpt lat="49.005240" lon="2.832200">
						<ele>126</ele>
						<time>2024-11-03T19:10:47Z</time>
					</trkpt>
					<trkpt lat="49.005390" lon="2.832470">
						<ele>125</ele>
						<time>2024-11-03T19:10:51Z</time>
					</trkpt>
					<trkpt lat="49.005790" lon="2.832920">
						<ele>124</ele>
						<time>2024-11-03T19:11:00Z</time>
					</trkpt>
					<trkpt lat="49.006130" lon="2.833250">
						<ele>124</ele>
						<time>2024-11-03T19:11:07Z</time>
					</trkpt>
					<trkpt lat="49.007130" lon="2.834250">
						<ele>127</ele>
						<time>2024-11-03T19:11:28Z</time>
					</trkpt>
					<trkpt lat="49.008410" lon="2.835550">
						<ele>132</ele>
						<time>2024-11-03T19:11:55Z</time>
					</trkpt>
					<trkpt lat="49.009400" lon="2.836570">
						<ele>130</ele>
						<time>2024-11-03T19:12:17Z</time>
					</trkpt>
					<trkpt lat="49.009590" lon="2.836660">
						<ele>130</ele>
						<time>2024-11-03T19:12:20Z</time>
					</trkpt>
					<trkpt lat="49.009730" lon="2.836950">
						<ele>130</ele>
						<time>2024-11-03T19:12:24Z</time>
					</trkpt>
					<trkpt lat="49.009840" lon="2.837160">
						<ele>129</ele>
						<time>2024-11-03T19:12:27Z</time>
					</trkpt>
					<trkpt lat="49.009840" lon="2.837330">
						<ele>129</ele>
						<time>2024-11-03T19:12:29Z</time>
					</trkpt>
					<trkpt lat="49.009660" lon="2.837670">
						<ele>129</ele>
						<time>2024-11-03T19:12:35Z</time>
					</trkpt>
					<trkpt lat="49.009520" lon="2.838160">
						<ele>129</ele>
						<time>2024-11-03T19:12:41Z</time>
					</trkpt>
					<trkpt lat="49.009150" lon="2.841860">
						<ele>126</ele>
						<time>2024-11-03T19:13:24Z</time>
					</trkpt>
					<trkpt lat="49.008990" lon="2.843380">
						<ele>124</ele>
						<time>2024-11-03T19:13:42Z</time>
					</trkpt>
					<trkpt lat="49.008960" lon="2.843690">
						<ele>124</ele>
						<time>2024-11-03T19:13:46Z</time>
					</trkpt>
					<trkpt lat="49.008850" lon="2.844870">
						<ele>122</ele>
						<time>2024-11-03T19:14:00Z</time>
					</trkpt>
					<trkpt lat="49.008850" lon="2.845490">
						<ele>122</ele>
						<time>2024-11-03T19:14:07Z</time>
					</trkpt>
					<trkpt lat="49.008950" lon="2.846230">
						<ele>122</ele>
						<time>2024-11-03T19:14:16Z</time>
					</trkpt>
					<trkpt lat="49.009280" lon="2.848340">
						<ele>124</ele>
						<time>2024-11-03T19:14:41Z</time>
					</trkpt>
					<trkpt lat="49.009920" lon="2.852680">
						<ele>125</ele>
						<time>2024-11-03T19:15:33Z</time>
					</trkpt>
					<trkpt lat="49.009950" lon="2.852960">
						<ele>125</ele>
						<time>2024-11-03T19:15:37Z</time>
					</trkpt>
					<trkpt lat="49.009950" lon="2.853230">
						<ele>125</ele>
						<time>2024-11-03T19:15:40Z</time>
					</trkpt>
					<trkpt lat="49.009940" lon="2.853500">
						<ele>125</ele>
						<time>2024-11-03T19:15:43Z</time>
					</trkpt>
					<trkpt lat="49.009880" lon="2.853880">
						<ele>125</ele>
						<time>2024-11-03T19:15:47Z</time>
					</trkpt>
					<trkpt lat="49.009620" lon="2.855690">
						<ele>121</ele>
						<time>2024-11-03T19:16:09Z</time>
					</trkpt>
					<trkpt lat="49.009590" lon="2.856050">
						<ele>121</ele>
						<time>2024-11-03T19:16:13Z</time>
					</trkpt>
					<trkpt lat="49.009620" lon="2.856390">
						<ele>120</ele>
						<time>2024-11-03T19:16:17Z</time>
					</trkpt>
					<trkpt lat="49.009740" lon="2.856790">
						<ele>120</ele>
						<time>2024-11-03T19:16:22Z</time>
					</trkpt>
					<trkpt lat="49.009900" lon="2.857130">
						<ele>119</ele>
						<time>2024-11-03T19:16:27Z</time>
					</trkpt>
					<trkpt lat="49.010330" lon="2.857660">
						<ele>118</ele>
						<time>2024-11-03T19:16:37Z</time>
					</trkpt>
					<trkpt lat="49.010650" lon="2.858100">
						<ele>117</ele>
						<time>2024-11-03T19:16:45Z</time>
					</trkpt>
					<trkpt lat="49.010790" lon="2.858380">
						<ele>117</ele>
						<time>2024-11-03T19:16:49Z</time>
					</trkpt>
					<trkpt lat="49.010910" lon="2.858690">
						<ele>117</ele>
						<time>2024-11-03T19:16:53Z</time>
					</trkpt>
					<trkpt lat="49.011540" lon="2.860340">
						<ele>114</ele>
						<time>2024-11-03T19:17:15Z</time>
					</trkpt>
					<trkpt lat="49.011590" lon="2.860510">
						<ele>114</ele>
						<time>2024-11-03T19:17:18Z</time>
					</trkpt>
					<trkpt lat="49.011610" lon="2.860680">
						<ele>113</ele>
						<time>2024-11-03T19:17:20Z</time>
					</trkpt>
					<trkpt lat="49.011610" lon="2.860820">
						<ele>113</ele>
						<time>2024-11-03T19:17:21Z</time>
					</trkpt>
					<trkpt lat="49.011590" lon="2.861010">
						<ele>112</ele>
						<time>2024-11-03T19:17:24Z</time>
					</trkpt>
					<trkpt lat="49.011540" lon="2.861190">
						<ele>112</ele>
						<time>2024-11-03T19:17:26Z</time>
					</trkpt>
					<trkpt lat="49.011480" lon="2.861340">
						<ele>111</ele>
						<time>2024-11-03T19:17:28Z</time>
					</trkpt>
					<trkpt lat="49.011250" lon="2.861730">
						<ele>110</ele>
						<time>2024-11-03T19:17:34Z</time>
					</trkpt>
					<trkpt lat="49.011140" lon="2.862030">
						<ele>110</ele>
						<time>2024-11-03T19:17:38Z</time>
					</trkpt>
					<trkpt lat="49.011110" lon="2.862200">
						<ele>110</ele>
						<time>2024-11-03T19:17:40Z</time>
					</trkpt>
					<trkpt lat="49.011090" lon="2.862550">
						<ele>109</ele>
						<time>2024-11-03T19:17:44Z</time>
					</trkpt>
					<trkpt lat="49.011120" lon="2.862890">
						<ele>109</ele>
						<time>2024-11-03T19:17:48Z</time>
					</trkpt>
					<trkpt lat="49.011520" lon="2.865450">
						<ele>117</ele>
						<time>2024-11-03T19:18:19Z</time>
					</trkpt>
					<trkpt lat="49.011680" lon="2.867190">
						<ele>118</ele>
						<time>2024-11-03T19:18:39Z</time>
					</trkpt>
					<trkpt lat="49.011750" lon="2.867520">
						<ele>118</ele>
						<time>2024-11-03T19:18:43Z</time>
					</trkpt>
					<trkpt lat="49.011850" lon="2.867840">
						<ele>117</ele>
						<time>2024-11-03T19:18:48Z</time>
					</trkpt>
					<trkpt lat="49.012070" lon="2.868240">
						<ele>116</ele>
						<time>2024-11-03T19:18:54Z</time>
					</trkpt>
					<trkpt lat="49.013300" lon="2.870070">
						<ele>111</ele>
						<time>2024-11-03T19:19:24Z</time>
					</trkpt>
					<trkpt lat="49.013960" lon="2.871270">
						<ele>107</ele>
						<time>2024-11-03T19:19:43Z</time>
					</trkpt>
					<trkpt lat="49.014910" lon="2.872770">
						<ele>104</ele>
						<time>2024-11-03T19:20:07Z</time>
					</trkpt>
					<trkpt lat="49.014980" lon="2.872910">
						<ele>104</ele>
						<time>2024-11-03T19:20:09Z</time>
					</trkpt>
					<trkpt lat="49.015040" lon="2.873070">
						<ele>104</ele>
						<time>2024-11-03T19:20:11Z</time>
					</trkpt>
					<trkpt lat="49.015230" lon="2.873930">
						<ele>106</ele>
						<time>2024-11-03T19:20:22Z</time>
					</trkpt>
					<trkpt lat="49.015710" lon="2.876020">
						<ele>108</ele>
						<time>2024-11-03T19:20:47Z</time>
					</trkpt>
					<trkpt lat="49.015780" lon="2.876270">
						<ele>109</ele>
						<time>2024-11-03T19:20:51Z</time>
					</trkpt>
					<trkpt lat="49.015860" lon="2.876480">
						<ele>110</ele>
						<time>2024-11-03T19:20:53Z</time>
					</trkpt>
					<trkpt lat="49.015970" lon="2.876740">
						<ele>110</ele>
						<time>2024-11-03T19:20:57Z</time>
					</trkpt>
					<trkpt lat="49.016570" lon="2.877840">
						<ele>112</ele>
						<time>2024-11-03T19:21:14Z</time>
					</trkpt>
					<trkpt lat="49.017060" lon="2.879240">
						<ele>116</ele>
						<time>2024-11-03T19:21:32Z</time>
					</trkpt>
					<trkpt lat="49.017360" lon="2.880300">
						<ele>117</ele>
						<time>2024-11-03T19:21:46Z</time>
					</trkpt>
					<trkpt lat="49.017530" lon="2.880530">
						<ele>118</ele>
						<time>2024-11-03T19:21:50Z</time>
					</trkpt>
					<trkpt lat="49.017820" lon="2.880880">
						<ele>118</ele>
						<time>2024-11-03T19:21:56Z</time>
					</trkpt>
					<trkpt lat="49.017880" lon="2.881040">
						<ele>118</ele>
						<time>2024-11-03T19:21:59Z</time>
					</trkpt>
					<trkpt lat="49.017860" lon="2.881160">
						<ele>118</ele>
						<time>2024-11-03T19:22:00Z</time>
					</trkpt>
					<trkpt lat="49.017660" lon="2.881400">
						<ele>118</ele>
						<time>2024-11-03T19:22:05Z</time>
					</trkpt>
					<trkpt lat="49.017270" lon="2.881830">
						<ele>119</ele>
						<time>2024-11-03T19:22:13Z</time>
					</trkpt>
					<trkpt lat="49.016600" lon="2.882410">
						<ele>120</ele>
						<time>2024-11-03T19:22:27Z</time>
					</trkpt>
					<trkpt lat="49.016440" lon="2.882640">
						<ele>120</ele>
						<time>2024-11-03T19:22:31Z</time>
					</trkpt>
					<trkpt lat="49.016360" lon="2.882890">
						<ele>120</ele>
						<time>2024-11-03T19:22:34Z</time>
					</trkpt>
					<trkpt lat="49.015860" lon="2.885070">
						<ele>122</ele>
						<time>2024-11-03T19:23:01Z</time>
					</trkpt>
					<trkpt lat="49.014080" lon="2.892700">
						<ele>124</ele>
						<time>2024-11-03T19:24:35Z</time>
					</trkpt>
					<trkpt lat="49.014050" lon="2.892970">
						<ele>124</ele>
						<time>2024-11-03T19:24:39Z</time>
					</trkpt>
					<trkpt lat="49.014050" lon="2.893740">
						<ele>125</ele>
						<time>2024-11-03T19:24:48Z</time>
					</trkpt>
					<trkpt lat="49.014060" lon="2.896300">
						<ele>125</ele>
						<time>2024-11-03T19:25:17Z</time>
					</trkpt>
					<trkpt lat="49.014070" lon="2.897880">
						<ele>124</ele>
						<time>2024-11-03T19:25:36Z</time>
					</trkpt>
					<trkpt lat="49.014060" lon="2.898350">
						<ele>125</ele>
						<time>2024-11-03T19:25:41Z</time>
					</trkpt>
					<trkpt lat="49.014040" lon="2.898530">
						<ele>125</ele>
						<time>2024-11-03T19:25:44Z</time>
					</trkpt>
					<trkpt lat="49.013960" lon="2.899000">
						<ele>124</ele>
						<time>2024-11-03T19:25:49Z</time>
					</trkpt>
					<trkpt lat="49.013100" lon="2.902130">
						<ele>122</ele>
						<time>2024-11-03T19:26:29Z</time>
					</trkpt>
					<trkpt lat="49.013010" lon="2.902430">
						<ele>122</ele>
						<time>2024-11-03T19:26:33Z</time>
					</trkpt>
					<trkpt lat="49.012790" lon="2.902950">
						<ele>121</ele>
						<time>2024-11-03T19:26:40Z</time>
					</trkpt>
					<trkpt lat="49.012630" lon="2.903270">
						<ele>121</ele>
						<time>2024-11-03T19:26:45Z</time>
					</trkpt>
					<trkpt lat="49.012210" lon="2.903950">
						<ele>121</ele>
						<time>2024-11-03T19:26:55Z</time>
					</trkpt>
					<trkpt lat="49.011990" lon="2.904360">
						<ele>120</ele>
						<time>2024-11-03T19:27:02Z</time>
					</trkpt>
					<trkpt lat="49.011890" lon="2.904540">
						<ele>120</ele>
						<time>2024-11-03T19:27:04Z</time>
					</trkpt>
					<trkpt lat="49.011490" lon="2.905310">
						<ele>120</ele>
						<time>2024-11-03T19:27:16Z</time>
					</trkpt>
					<trkpt lat="49.011380" lon="2.905510">
						<ele>120</ele>
						<time>2024-11-03T19:27:19Z</time>
					</trkpt>
					<trkpt lat="49.011010" lon="2.906150">
						<ele>119</ele>
						<time>2024-11-03T19:27:29Z</time>
					</trkpt>
					<trkpt lat="49.010960" lon="2.906280">
						<ele>119</ele>
						<time>2024-11-03T19:27:31Z</time>
					</trkpt>
					<trkpt lat="49.010910" lon="2.906360">
						<ele>119</ele>
						<time>2024-11-03T19:27:32Z</time>
					</trkpt>
					<trkpt lat="49.010160" lon="2.907820">
						<ele>116</ele>
						<time>2024-11-03T19:27:54Z</time>
					</trkpt>
					<trkpt lat="49.009320" lon="2.909410">
						<ele>112</ele>
						<time>2024-11-03T19:28:17Z</time>
					</trkpt>
					<trkpt lat="49.009180" lon="2.909780">
						<ele>112</ele>
						<time>2024-11-03T19:28:22Z</time>
					</trkpt>
					<trkpt lat="49.008950" lon="2.910640">
						<ele>111</ele>
						<time>2024-11-03T19:28:33Z</time>
					</trkpt>
					<trkpt lat="49.008830" lon="2.911130">
						<ele>112</ele>
						<time>2024-11-03T19:28:39Z</time>
					</trkpt>
					<trkpt lat="49.008810" lon="2.911180">
						<ele>112</ele>
						<time>2024-11-03T19:28:40Z</time>
					</trkpt>
					<trkpt lat="49.008490" lon="2.912440">
						<ele>112</ele>
						<time>2024-11-03T19:28:56Z</time>
					</trkpt>
					<trkpt lat="49.008430" lon="2.912710">
						<ele>112</ele>
						<time>2024-11-03T19:28:59Z</time>
					</trkpt>
					<trkpt lat="49.008410" lon="2.912950">
						<ele>112</ele>
						<time>2024-11-03T19:29:02Z</time>
					</trkpt>
					<trkpt lat="49.008410" lon="2.913040">
						<ele>112</ele>
						<time>2024-11-03T19:29:03Z</time>
					</trkpt>
					<trkpt lat="49.008580" lon="2.914120">
						<ele>109</ele>
						<time>2024-11-03T19:29:16Z</time>
					</trkpt>
					<trkpt lat="49.008580" lon="2.914290">
						<ele>108</ele>
						<time>2024-11-03T19:29:18Z</time>
					</trkpt>
					<trkpt lat="49.008550" lon="2.914370">
						<ele>108</ele>
						<time>2024-11-03T19:29:19Z</time>
					</trkpt>
					<trkpt lat="49.008530" lon="2.914430">
						<ele>107</ele>
						<time>2024-11-03T19:29:20Z</time>
					</trkpt>
					<trkpt lat="49.008430" lon="2.914550">
						<ele>106</ele>
						<time>2024-11-03T19:29:22Z</time>
					</trkpt>
					<trkpt lat="49.008280" lon="2.914590">
						<ele>105</ele>
						<time>2024-11-03T19:29:25Z</time>
					</trkpt>
					<trkpt lat="49.008120" lon="2.914510">
						<ele>104</ele>
						<time>2024-11-03T19:29:28Z</time>
					</trkpt>
					<trkpt lat="49.007720" lon="2.914200">
						<ele>106</ele>
						<time>2024-11-03T19:29:36Z</time>
					</trkpt>
					<trkpt lat="49.007480" lon="2.914150">
						<ele>106</ele>
						<time>2024-11-03T19:29:40Z</time>
					</trkpt>
					<trkpt lat="49.006780" lon="2.914130">
						<ele>100</ele>
						<time>2024-11-03T19:29:52Z</time>
					</trkpt>
					<trkpt lat="49.006480" lon="2.914180">
						<ele>99</ele>
						<time>2024-11-03T19:29:58Z</time>
					</trkpt>
					<trkpt lat="49.006270" lon="2.914250">
						<ele>97</ele>
						<time>2024-11-03T19:30:02Z</time>
					</trkpt>
					<trkpt lat="49.006000" lon="2.914430">
						<ele>94</ele>
						<time>2024-11-03T19:30:07Z</time>
					</trkpt>
					<trkpt lat="49.005960" lon="2.914500">
						<ele>92</ele>
						<time>2024-11-03T19:30:08Z</time>
					</trkpt>
					<trkpt lat="49.005980" lon="2.914650">
						<ele>90</ele>
						<time>2024-11-03T19:30:10Z</time>
					</trkpt>
					<trkpt lat="49.006020" lon="2.914690">
						<ele>89</ele>
						<time>2024-11-03T19:30:11Z</time>
					</trkpt>
					<trkpt lat="49.006160" lon="2.914790">
						<ele>88</ele>
						<time>2024-11-03T19:30:13Z</time>
					</trkpt>
					<trkpt lat="49.006610" lon="2.915010">
						<ele>84</ele>
						<time>2024-11-03T19:30:22Z</time>
					</trkpt>
					<trkpt lat="49.006860" lon="2.915190">
						<ele>84</ele>
						<time>2024-11-03T19:30:27Z</time>
					</trkpt>
					<trkpt lat="49.007030" lon="2.915360">
						<ele>84</ele>
						<time>2024-11-03T19:30:30Z</time>
					</trkpt>
					<trkpt lat="49.007180" lon="2.915590">
						<ele>83</ele>
						<time>2024-11-03T19:30:34Z</time>
					</trkpt>
					<trkpt lat="49.007210" lon="2.915740">
						<ele>82</ele>
						<time>2024-11-03T19:30:36Z</time>
					</trkpt>
					<trkpt lat="49.007240" lon="2.915910">
						<ele>80</ele>
						<time>2024-11-03T19:30:38Z</time>
					</trkpt>
					<trkpt lat="49.007230" lon="2.916180">
						<ele>78</ele>
						<time>2024-11-03T19:30:41Z</time>
					</trkpt>
					<trkpt lat="49.007190" lon="2.916430">
						<ele>76</ele>
						<time>2024-11-03T19:30:44Z</time>
					</trkpt>
					<trkpt lat="49.006950" lon="2.917440">
						<ele>66</ele>
						<time>2024-11-03T19:30:57Z</time>
					</trkpt>
					<trkpt lat="49.006930" lon="2.917500">
						<ele>65</ele>
						<time>2024-11-03T19:30:58Z</time>
					</trkpt>
					<trkpt lat="49.006860" lon="2.917770">
						<ele>64</ele>
						<time>2024-11-03T19:31:01Z</time>
					</trkpt>
					<trkpt lat="49.006830" lon="2.917900">
						<ele>63</ele>
						<time>2024-11-03T19:31:02Z</time>
					</trkpt>
					<trkpt lat="49.006020" lon="2.920820">
						<ele>53</ele>
						<time>2024-11-03T19:31:40Z</time>
					</trkpt>
					<trkpt lat="49.005890" lon="2.921180">
						<ele>53</ele>
						<time>2024-11-03T19:31:44Z</time>
					</trkpt>
					<trkpt lat="49.005660" lon="2.921670">
						<ele>53</ele>
						<time>2024-11-03T19:31:51Z</time>
					</trkpt>
					<trkpt lat="49.005630" lon="2.921790">
						<ele>53</ele>
						<time>2024-11-03T19:31:53Z</time>
					</trkpt>
					<trkpt lat="49.005620" lon="2.921890">
						<ele>53</ele>
						<time>2024-11-03T19:31:54Z</time>
					</trkpt>
					<trkpt lat="49.005630" lon="2.922100">
						<ele>52</ele>
						<time>2024-11-03T19:31:56Z</time>
					</trkpt>
					<trkpt lat="49.005770" lon="2.922960">
						<ele>52</ele>
						<time>2024-11-03T19:32:07Z</time>
					</trkpt>
					<trkpt lat="49.005810" lon="2.923190">
						<ele>52</ele>
						<time>2024-11-03T19:32:10Z</time>
					</trkpt>
					<trkpt lat="49.005840" lon="2.923570">
						<ele>52</ele>
						<time>2024-11-03T19:32:14Z</time>
					</trkpt>
					<trkpt lat="49.005810" lon="2.923880">
						<ele>53</ele>
						<time>2024-11-03T19:32:18Z</time>
					</trkpt>
					<trkpt lat="49.005760" lon="2.924160">
						<ele>53</ele>
						<time>2024-11-03T19:32:21Z</time>
					</trkpt>
					<trkpt lat="49.005680" lon="2.924380">
						<ele>53</ele>
						<time>2024-11-03T19:32:24Z</time>
					</trkpt>
					<trkpt lat="49.005300" lon="2.925190">
						<ele>54</ele>
						<time>2024-11-03T19:32:36Z</time>
					</trkpt>
					<trkpt lat="49.005140" lon="2.925470">
						<ele>55</ele>
						<time>2024-11-03T19:32:40Z</time>
					</trkpt>
					<trkpt lat="49.004550" lon="2.926090">
						<ele>54</ele>
						<time>2024-11-03T19:32:53Z</time>
					</trkpt>
					<trkpt lat="49.004120" lon="2.926570">
						<ele>53</ele>
						<time>2024-11-03T19:33:02Z</time>
					</trkpt>
					<trkpt lat="49.003890" lon="2.926820">
						<ele>53</ele>
						<time>2024-11-03T19:33:07Z</time>
					</trkpt>
					<trkpt lat="49.003750" lon="2.926970">
						<ele>52</ele>
						<time>2024-11-03T19:33:10Z</time>
					</trkpt>
					<trkpt lat="49.003870" lon="2.927250">
						<ele>52</ele>
						<time>2024-11-03T19:33:14Z</time>
					</trkpt>
					<trkpt lat="49.003660" lon="2.927550">
						<ele>52</ele>
						<time>2024-11-03T19:33:19Z</time>
					</trkpt>
					<trkpt lat="49.002610" lon="2.928470">
						<ele>52</ele>
						<time>2024-11-03T19:33:41Z</time>
					</trkpt>
					<trkpt lat="49.002430" lon="2.928690">
						<ele>52</ele>
						<time>2024-11-03T19:33:45Z</time>
					</trkpt>
					<trkpt lat="49.002220" lon="2.928850">
						<ele>52</ele>
						<time>2024-11-03T19:33:49Z</time>
					</trkpt>
					<trkpt lat="49.001820" lon="2.928970">
						<ele>52</ele>
						<time>2024-11-03T19:33:56Z</time>
					</trkpt>
					<trkpt lat="49.000560" lon="2.928920">
						<ele>53</ele>
						<time>2024-11-03T19:34:19Z</time>
					</trkpt>
					<trkpt lat="49.000530" lon="2.928940">
						<ele>53</ele>
						<time>2024-11-03T19:34:19Z</time>
					</trkpt>
					<trkpt lat="49.000460" lon="2.929360">
						<ele>53</ele>
						<time>2024-11-03T19:34:24Z</time>
					</trkpt>
					<trkpt lat="49.000440" lon="2.929780">
						<ele>53</ele>
						<time>2024-11-03T19:34:29Z</time>
					</trkpt>
					<trkpt lat="49.000450" lon="2.929880">
						<ele>53</ele>
						<time>2024-11-03T19:34:31Z</time>
					</trkpt>
					<trkpt lat="49.000570" lon="2.930320">
						<ele>53</ele>
						<time>2024-11-03T19:34:36Z</time>
					</trkpt>
					<trkpt lat="49.000700" lon="2.930930">
						<ele>52</ele>
						<time>2024-11-03T19:34:44Z</time>
					</trkpt>
					<trkpt lat="49.000610" lon="2.931020">
						<ele>53</ele>
						<time>2024-11-03T19:34:46Z</time>
					</trkpt>
					<trkpt lat="49.000460" lon="2.931370">
						<ele>53</ele>
						<time>2024-11-03T19:34:50Z</time>
					</trkpt>
					<trkpt lat="49.000170" lon="2.932100">
						<ele>54</ele>
						<time>2024-11-03T19:35:00Z</time>
					</trkpt>
					<trkpt lat="49.000410" lon="2.932370">
						<ele>54</ele>
						<time>2024-11-03T19:35:06Z</time>
					</trkpt>
					<trkpt lat="49.000490" lon="2.932500">
						<ele>55</ele>
						<time>2024-11-03T19:35:08Z</time>
					</trkpt>
					<trkpt lat="49.000850" lon="2.933360">
						<ele>55</ele>
						<time>2024-11-03T19:35:20Z</time>
					</trkpt>
					<trkpt lat="49.001440" lon="2.934750">
						<ele>54</ele>
						<time>2024-11-03T19:35:39Z</time>
					</trkpt>
					<trkpt lat="49.001750" lon="2.935440">
						<ele>54</ele>
						<time>2024-11-03T19:35:49Z</time>
					</trkpt>
					<trkpt lat="49.002000" lon="2.936040">
						<ele>54</ele>
						<time>2024-11-03T19:35:57Z</time>
					</trkpt>
					<trkpt lat="49.002860" lon="2.938040">
						<ele>56</ele>
						<time>2024-11-03T19:36:25Z</time>
					</trkpt>
					<trkpt lat="49.002980" lon="2.938400">
						<ele>57</ele>
						<time>2024-11-03T19:36:30Z</time>
					</trkpt>
					<trkpt lat="49.003030" lon="2.938920">
						<ele>57</ele>
						<time>2024-11-03T19:36:36Z</time>
					</trkpt>
					<trkpt lat="49.003060" lon="2.940800">
						<ele>60</ele>
						<time>2024-11-03T19:36:58Z</time>
					</trkpt>
					<trkpt lat="49.003080" lon="2.941320">
						<ele>60</ele>
						<time>2024-11-03T19:37:04Z</time>
					</trkpt>
					<trkpt lat="49.003110" lon="2.942070">
						<ele>59</ele>
						<time>2024-11-03T19:37:13Z</time>
					</trkpt>
					<trkpt lat="49.003210" lon="2.942770">
						<ele>60</ele>
						<time>2024-11-03T19:37:21Z</time>
					</trkpt>
					<trkpt lat="49.003390" lon="2.943460">
						<ele>60</ele>
						<time>2024-11-03T19:37:30Z</time>
					</trkpt>
					<trkpt lat="49.003600" lon="2.944040">
						<ele>58</ele>
						<time>2024-11-03T19:37:37Z</time>
					</trkpt>
					<trkpt lat="49.003890" lon="2.944600">
						<ele>56</ele>
						<time>2024-11-03T19:37:46Z</time>
					</trkpt>
					<trkpt lat="49.004240" lon="2.944920">
						<ele>56</ele>
						<time>2024-11-03T19:37:53Z</time>
					</trkpt>
					<trkpt lat="49.004680" lon="2.945310">
						<ele>56</ele>
						<time>2024-11-03T19:38:02Z</time>
					</trkpt>
					<trkpt lat="49.005190" lon="2.945540">
						<ele>56</ele>
						<time>2024-11-03T19:38:11Z</time>
					</trkpt>
					<trkpt lat="49.005610" lon="2.945660">
						<ele>55</ele>
						<time>2024-11-03T19:38:19Z</time>
					</trkpt>
					<trkpt lat="49.005860" lon="2.945730">
						<ele>55</ele>
						<time>2024-11-03T19:38:24Z</time>
					</trkpt>
					<trkpt lat="49.006870" lon="2.945940">
						<ele>59</ele>
						<time>2024-11-03T19:38:42Z</time>
					</trkpt>
					<trkpt lat="49.007930" lon="2.946120">
						<ele>59</ele>
						<time>2024-11-03T19:39:01Z</time>
					</trkpt>
					<trkpt lat="49.008400" lon="2.946140">
						<ele>57</ele>
						<time>2024-11-03T19:39:09Z</time>
					</trkpt>
					<trkpt lat="49.008990" lon="2.946040">
						<ele>57</ele>
						<time>2024-11-03T19:39:20Z</time>
					</trkpt>
					<trkpt lat="49.009700" lon="2.945830">
						<ele>58</ele>
						<time>2024-11-03T19:39:33Z</time>
					</trkpt>
					<trkpt lat="49.010120" lon="2.945790">
						<ele>59</ele>
						<time>2024-11-03T19:39:40Z</time>
					</trkpt>
					<trkpt lat="49.011440" lon="2.946030">
						<ele>62</ele>
						<time>2024-11-03T19:40:04Z</time>
					</trkpt>
					<trkpt lat="49.011880" lon="2.946220">
						<ele>62</ele>
						<time>2024-11-03T19:40:12Z</time>
					</trkpt>
					<trkpt lat="49.012530" lon="2.946680">
						<ele>59</ele>
						<time>2024-11-03T19:40:25Z</time>
					</trkpt>
					<trkpt lat="49.012670" lon="2.946840">
						<ele>60</ele>
						<time>2024-11-03T19:40:28Z</time>
					</trkpt>
					<trkpt lat="49.012950" lon="2.947330">
						<ele>60</ele>
						<time>2024-11-03T19:40:35Z</time>
					</trkpt>
					<trkpt lat="49.013570" lon="2.948510">
						<ele>60</ele>
						<time>2024-11-03T19:40:53Z</time>
					</trkpt>
					<trkpt lat="49.013990" lon="2.949490">
						<ele>62</ele>
						<time>2024-11-03T19:41:07Z</time>
					</trkpt>
					<trkpt lat="49.014290" lon="2.950660">
						<ele>58</ele>
						<time>2024-11-03T19:41:21Z</time>
					</trkpt>
					<trkpt lat="49.014390" lon="2.951460">
						<ele>57</ele>
						<time>2024-11-03T19:41:31Z</time>
					</trkpt>
					<trkpt lat="49.014440" lon="2.952100">
						<ele>57</ele>
						<time>2024-11-03T19:41:38Z</time>
					</trkpt>
					<trkpt lat="49.014420" lon="2.952900">
						<ele>55</ele>
						<time>2024-11-03T19:41:48Z</time>
					</trkpt>
					<trkpt lat="49.014320" lon="2.954090">
						<ele>55</ele>
						<time>2024-11-03T19:42:02Z</time>
					</trkpt>
					<trkpt lat="49.014210" lon="2.954930">
						<ele>55</ele>
						<time>2024-11-03T19:42:12Z</time>
					</trkpt>
					<trkpt lat="49.012980" lon="2.959790">
						<ele>56</ele>
						<time>2024-11-03T19:43:12Z</time>
					</trkpt>
					<trkpt lat="49.012930" lon="2.960000">
						<ele>56</ele>
						<time>2024-11-03T19:43:15Z</time>
					</trkpt>
					<trkpt lat="49.012620" lon="2.961210">
						<ele>56</ele>
						<time>2024-11-03T19:43:30Z</time>
					</trkpt>
					<trkpt lat="49.012000" lon="2.963290">
						<ele>56</ele>
						<time>2024-11-03T19:43:57Z</time>
					</trkpt>
					<trkpt lat="49.011880" lon="2.963830">
						<ele>56</ele>
						<time>2024-11-03T19:44:03Z</time>
					</trkpt>
					<trkpt lat="49.011600" lon="2.965450">
						<ele>57</ele>
						<time>2024-11-03T19:44:23Z</time>
					</trkpt>
					<trkpt lat="49.011170" lon="2.967810">
						<ele>57</ele>
						<time>2024-11-03T19:44:52Z</time>
					</trkpt>
					<trkpt lat="49.010870" lon="2.969370">
						<ele>57</ele>
						<time>2024-11-03T19:45:11Z</time>
					</trkpt>
					<trkpt lat="49.010810" lon="2.969670">
						<ele>57</ele>
						<time>2024-11-03T19:45:14Z</time>
					</trkpt>
					<trkpt lat="49.010710" lon="2.969960">
						<ele>57</ele>
						<time>2024-11-03T19:45:18Z</time>
					</trkpt>
					<trkpt lat="49.010600" lon="2.970230">
						<ele>57</ele>
						<time>2024-11-03T19:45:22Z</time>
					</trkpt>
					<trkpt lat="49.010430" lon="2.970500">
						<ele>56</ele>
						<time>2024-11-03T19:45:26Z</time>
					</trkpt>
					<trkpt lat="49.009790" lon="2.971380">
						<ele>53</ele>
						<time>2024-11-03T19:45:41Z</time>
					</trkpt>
					<trkpt lat="49.009730" lon="2.971520">
						<ele>53</ele>
						<time>2024-11-03T19:45:43Z</time>
					</trkpt>
					<trkpt lat="49.009690" lon="2.971610">
						<ele>53</ele>
						<time>2024-11-03T19:45:45Z</time>
					</trkpt>
					<trkpt lat="49.009380" lon="2.972800">
						<ele>53</ele>
						<time>2024-11-03T19:46:00Z</time>
					</trkpt>
					<trkpt lat="49.008840" lon="2.974570">
						<ele>53</ele>
						<time>2024-11-03T19:46:22Z</time>
					</trkpt>
					<trkpt lat="49.008750" lon="2.975040">
						<ele>53</ele>
						<time>2024-11-03T19:46:28Z</time>
					</trkpt>
					<trkpt lat="49.008680" lon="2.975630">
						<ele>53</ele>
						<time>2024-11-03T19:46:35Z</time>
					</trkpt>
					<trkpt lat="49.008680" lon="2.976010">
						<ele>53</ele>
						<time>2024-11-03T19:46:40Z</time>
					</trkpt>
					<trkpt lat="49.008730" lon="2.976060">
						<ele>54</ele>
						<time>2024-11-03T19:46:41Z</time>
					</trkpt>
					<trkpt lat="49.008800" lon="2.976340">
						<ele>54</ele>
						<time>2024-11-03T19:46:44Z</time>
					</trkpt>
					<trkpt lat="49.008910" lon="2.976860">
						<ele>54</ele>
						<time>2024-11-03T19:46:50Z</time>
					</trkpt>
					<trkpt lat="49.009040" lon="2.977530">
						<ele>54</ele>
						<time>2024-11-03T19:46:59Z</time>
					</trkpt>
					<trkpt lat="49.009090" lon="2.978240">
						<ele>54</ele>
						<time>2024-11-03T19:47:07Z</time>
					</trkpt>
					<trkpt lat="49.009090" lon="2.979950">
						<ele>52</ele>
						<time>2024-11-03T19:47:27Z</time>
					</trkpt>
					<trkpt lat="49.009080" lon="2.980150">
						<ele>52</ele>
						<time>2024-11-03T19:47:29Z</time>
					</trkpt>
					<trkpt lat="49.009050" lon="2.980260">
						<ele>52</ele>
						<time>2024-11-03T19:47:31Z</time>
					</trkpt>
					<trkpt lat="49.009040" lon="2.980290">
						<ele>52</ele>
						<time>2024-11-03T19:47:31Z</time>
					</trkpt>
					<trkpt lat="49.008950" lon="2.980410">
						<ele>52</ele>
						<time>2024-11-03T19:47:33Z</time>
					</trkpt>
					<trkpt lat="49.008530" lon="2.980860">
						<ele>52</ele>
						<time>2024-11-03T19:47:42Z</time>
					</trkpt>
					<trkpt lat="49.008510" lon="2.980930">
						<ele>52</ele>
						<time>2024-11-03T19:47:43Z</time>
					</trkpt>
					<trkpt lat="49.008010" lon="2.981550">
						<ele>53</ele>
						<time>2024-11-03T19:47:55Z</time>
					</trkpt>
					<trkpt lat="49.007880" lon="2.981770">
						<ele>53</ele>
						<time>2024-11-03T19:47:58Z</time>
					</trkpt>
					<trkpt lat="49.007790" lon="2.982060">
						<ele>54</ele>
						<time>2024-11-03T19:48:02Z</time>
					</trkpt>
					<trkpt lat="49.007750" lon="2.982380">
						<ele>55</ele>
						<time>2024-11-03T19:48:06Z</time>
					</trkpt>
					<trkpt lat="49.007750" lon="2.982730">
						<ele>56</ele>
						<time>2024-11-03T19:48:10Z</time>
					</trkpt>
					<trkpt lat="49.007760" lon="2.982760">
						<ele>56</ele>
						<time>2024-11-03T19:48:10Z</time>
					</trkpt>
					<trkpt lat="49.007810" lon="2.983040">
						<ele>58</ele>
						<time>2024-11-03T19:48:14Z</time>
					</trkpt>
					<trkpt lat="49.007890" lon="2.983310">
						<ele>59</ele>
						<time>2024-11-03T19:48:17Z</time>
					</trkpt>
					<trkpt lat="49.007960" lon="2.983520">
						<ele>60</ele>
						<time>2024-11-03T19:48:20Z</time>
					</trkpt>
					<trkpt lat="49.008010" lon="2.983690">
						<ele>61</ele>
						<time>2024-11-03T19:48:22Z</time>
					</trkpt>
					<trkpt lat="49.009490" lon="2.988110">
						<ele>71</ele>
						<time>2024-11-03T19:49:20Z</time>
					</trkpt>
					<trkpt lat="49.009620" lon="2.988470">
						<ele>73</ele>
						<time>2024-11-03T19:49:25Z</time>
					</trkpt>
					<trkpt lat="49.009830" lon="2.988840">
						<ele>74</ele>
						<time>2024-11-03T19:49:30Z</time>
					</trkpt>
					<trkpt lat="49.010050" lon="2.989000">
						<ele>76</ele>
						<time>2024-11-03T19:49:35Z</time>
					</trkpt>
					<trkpt lat="49.010280" lon="2.989100">
						<ele>77</ele>
						<time>2024-11-03T19:49:39Z</time>
					</trkpt>
					<trkpt lat="49.011210" lon="2.989320">
						<ele>81</ele>
						<time>2024-11-03T19:49:56Z</time>
					</trkpt>
					<trkpt lat="49.011430" lon="2.989440">
						<ele>82</ele>
						<time>2024-11-03T19:50:00Z</time>
					</trkpt>
					<trkpt lat="49.011570" lon="2.989580">
						<ele>83</ele>
						<time>2024-11-03T19:50:03Z</time>
					</trkpt>
					<trkpt lat="49.011670" lon="2.989740">
						<ele>84</ele>
						<time>2024-11-03T19:50:05Z</time>
					</trkpt>
					<trkpt lat="49.011770" lon="2.989990">
						<ele>85</ele>
						<time>2024-11-03T19:50:09Z</time>
					</trkpt>
					<trkpt lat="49.012030" lon="2.991070">
						<ele>88</ele>
						<time>2024-11-03T19:50:22Z</time>
					</trkpt>
					<trkpt lat="49.012200" lon="2.991560">
						<ele>89</ele>
						<time>2024-11-03T19:50:29Z</time>
					</trkpt>
					<trkpt lat="49.012430" lon="2.991930">
						<ele>89</ele>
						<time>2024-11-03T19:50:35Z</time>
					</trkpt>
					<trkpt lat="49.013030" lon="2.992740">
						<ele>89</ele>
						<time>2024-11-03T19:50:49Z</time>
					</trkpt>
					<trkpt lat="49.013780" lon="2.993940">
						<ele>91</ele>
						<time>2024-11-03T19:51:08Z</time>
					</trkpt>
					<trkpt lat="49.014060" lon="2.994310">
						<ele>91</ele>
						<time>2024-11-03T19:51:15Z</time>
					</trkpt>
					<trkpt lat="49.014680" lon="2.994980">
						<ele>93</ele>
						<time>2024-11-03T19:51:28Z</time>
					</trkpt>
					<trkpt lat="49.014930" lon="2.995300">
						<ele>94</ele>
						<time>2024-11-03T19:51:34Z</time>
					</trkpt>
					<trkpt lat="49.017490" lon="2.999000">
						<ele>93</ele>
						<time>2024-11-03T19:52:37Z</time>
					</trkpt>
					<trkpt lat="49.018950" lon="3.001070">
						<ele>93</ele>
						<time>2024-11-03T19:53:12Z</time>
					</trkpt>
					<trkpt lat="49.019870" lon="3.002410">
						<ele>94</ele>
						<time>2024-11-03T19:53:35Z</time>
					</trkpt>
					<trkpt lat="49.020860" lon="3.003780">
						<ele>96</ele>
						<time>2024-11-03T19:53:59Z</time>
					</trkpt>
					<trkpt lat="49.021360" lon="3.004520">
						<ele>96</ele>
						<time>2024-11-03T19:54:11Z</time>
					</trkpt>
					<trkpt lat="49.022850" lon="3.006670">
						<ele>99</ele>
						<time>2024-11-03T19:54:48Z</time>
					</trkpt>
					<trkpt lat="49.024100" lon="3.008460">
						<ele>100</ele>
						<time>2024-11-03T19:55:18Z</time>
					</trkpt>
					<trkpt lat="49.024350" lon="3.008780">
						<ele>98</ele>
						<time>2024-11-03T19:55:24Z</time>
					</trkpt>
					<trkpt lat="49.024910" lon="3.009250">
						<ele>95</ele>
						<time>2024-11-03T19:55:35Z</time>
					</trkpt>
					<trkpt lat="49.025440" lon="3.009580">
						<ele>94</ele>
						<time>2024-11-03T19:55:46Z</time>
					</trkpt>
					<trkpt lat="49.025720" lon="3.009820">
						<ele>95</ele>
						<time>2024-11-03T19:55:51Z</time>
					</trkpt>
					<trkpt lat="49.026070" lon="3.010200">
						<ele>94</ele>
						<time>2024-11-03T19:55:59Z</time>
					</trkpt>
					<trkpt lat="49.026570" lon="3.010870">
						<ele>93</ele>
						<time>2024-11-03T19:56:11Z</time>
					</trkpt>
					<trkpt lat="49.026980" lon="3.011600">
						<ele>89</ele>
						<time>2024-11-03T19:56:22Z</time>
					</trkpt>
					<trkpt lat="49.027330" lon="3.012420">
						<ele>86</ele>
						<time>2024-11-03T19:56:33Z</time>
					</trkpt>
					<trkpt lat="49.027500" lon="3.013110">
						<ele>83</ele>
						<time>2024-11-03T19:56:42Z</time>
					</trkpt>
					<trkpt lat="49.027680" lon="3.013450">
						<ele>83</ele>
						<time>2024-11-03T19:56:47Z</time>
					</trkpt>
					<trkpt lat="49.027950" lon="3.014070">
						<ele>84</ele>
						<time>2024-11-03T19:56:56Z</time>
					</trkpt>
					<trkpt lat="49.028010" lon="3.014400">
						<ele>83</ele>
						<time>2024-11-03T19:57:00Z</time>
					</trkpt>
					<trkpt lat="49.028030" lon="3.014790">
						<ele>80</ele>
						<time>2024-11-03T19:57:04Z</time>
					</trkpt>
					<trkpt lat="49.028010" lon="3.015140">
						<ele>78</ele>
						<time>2024-11-03T19:57:09Z</time>
					</trkpt>
					<trkpt lat="49.027940" lon="3.015450">
						<ele>75</ele>
						<time>2024-11-03T19:57:12Z</time>
					</trkpt>
					<trkpt lat="49.027810" lon="3.015890">
						<ele>72</ele>
						<time>2024-11-03T19:57:18Z</time>
					</trkpt>
					<trkpt lat="49.027420" lon="3.017200">
						<ele>69</ele>
						<time>2024-11-03T19:57:35Z</time>
					</trkpt>
					<trkpt lat="49.027140" lon="3.018150">
						<ele>68</ele>
						<time>2024-11-03T19:57:47Z</time>
					</trkpt>
					<trkpt lat="49.027170" lon="3.018250">
						<ele>68</ele>
						<time>2024-11-03T19:57:48Z</time>
					</trkpt>
					<trkpt lat="49.027060" lon="3.018470">
						<ele>67</ele>
						<time>2024-11-03T19:57:51Z</time>
					</trkpt>
					<trkpt lat="49.026890" lon="3.018850">
						<ele>66</ele>
						<time>2024-11-03T19:57:57Z</time>
					</trkpt>
					<trkpt lat="49.026770" lon="3.018800">
						<ele>64</ele>
						<time>2024-11-03T19:57:59Z</time>
					</trkpt>
					<trkpt lat="49.026640" lon="3.018760">
						<ele>63</ele>
						<time>2024-11-03T19:58:01Z</time>
					</trkpt>
					<trkpt lat="49.026480" lon="3.018710">
						<ele>62</ele>
						<time>2024-11-03T19:58:04Z</time>
					</trkpt>
					<trkpt lat="49.026380" lon="3.018670">
						<ele>61</ele>
						<time>2024-11-03T19:58:06Z</time>
					</trkpt>
					<trkpt lat="49.026350" lon="3.018820">
						<ele>61</ele>
						<time>2024-11-03T19:58:08Z</time>
					</trkpt>
					<trkpt lat="49.026070" lon="3.020760">
						<ele>65</ele>
						<time>2024-11-03T19:58:31Z</time>
					</trkpt>
					<trkpt lat="49.026050" lon="3.020920">
						<ele>65</ele>
						<time>2024-11-03T19:58:33Z</time>
					</trkpt>
					<trkpt lat="49.025950" lon="3.021640">
						<ele>65</ele>
						<time>2024-11-03T19:58:42Z</time>
					</trkpt>
					<trkpt lat="49.025880" lon="3.022220">
						<ele>62</ele>
						<time>2024-11-03T19:58:48Z</time>
					</trkpt>
					<trkpt lat="49.025840" lon="3.022460">
						<ele>61</ele>
						<time>2024-11-03T19:58:51Z</time>
					</trkpt>
					<trkpt lat="49.025690" lon="3.023700">
						<ele>62</ele>
						<time>2024-11-03T19:59:06Z</time>
					</trkpt>
					<trkpt lat="49.025720" lon="3.024080">
						<ele>62</ele>
						<time>2024-11-03T19:59:11Z</time>
					</trkpt>
					<trkpt lat="49.025770" lon="3.024540">
						<ele>61</ele>
						<time>2024-11-03T19:59:16Z</time>
					</trkpt>
					<trkpt lat="49.025930" lon="3.025140">
						<ele>60</ele>
						<time>2024-11-03T19:59:24Z</time>
					</trkpt>
					<trkpt lat="49.026050" lon="3.025450">
						<ele>60</ele>
						<time>2024-11-03T19:59:28Z</time>
					</trkpt>
					<trkpt lat="49.026050" lon="3.025550">
						<ele>59</ele>
						<time>2024-11-03T19:59:29Z</time>
					</trkpt>
					<trkpt lat="49.025850" lon="3.025850">
						<ele>56</ele>
						<time>2024-11-03T19:59:34Z</time>
					</trkpt>
					<trkpt lat="49.025440" lon="3.026210">
						<ele>56</ele>
						<time>2024-11-03T19:59:42Z</time>
					</trkpt>
					<trkpt lat="49.025410" lon="3.026220">
						<ele>56</ele>
						<time>2024-11-03T19:59:43Z</time>
					</trkpt>
					<trkpt lat="49.025350" lon="3.026130">
						<ele>56</ele>
						<time>2024-11-03T19:59:44Z</time>
					</trkpt>
					<trkpt lat="49.025280" lon="3.026140">
						<ele>56</ele>
						<time>2024-11-03T19:59:46Z</time>
					</trkpt>
					<trkpt lat="49.025260" lon="3.026170">
						<ele>56</ele>
						<time>2024-11-03T19:59:46Z</time>
					</trkpt>
					<trkpt lat="49.025240" lon="3.026250">
						<ele>56</ele>
						<time>2024-11-03T19:59:47Z</time>
					</trkpt>
					<trkpt lat="49.025250" lon="3.026320">
						<ele>56</ele>
						<time>2024-11-03T19:59:48Z</time>
					</trkpt>
					<trkpt lat="49.025310" lon="3.026390">
						<ele>56</ele>
						<time>2024-11-03T19:59:49Z</time>
					</trkpt>
					<trkpt lat="49.025380" lon="3.026360">
						<ele>56</ele>
						<time>2024-11-03T19:59:51Z</time>
					</trkpt>
					<trkpt lat="49.025470" lon="3.026340">
						<ele>56</ele>
						<time>2024-11-03T19:59:52Z</time>
					</trkpt>
					<trkpt lat="49.025540" lon="3.026290">
						<ele>56</ele>
						<time>2024-11-03T19:59:54Z</time>
					</trkpt>
					<trkpt lat="49.025560" lon="3.026380">
						<ele>56</ele>
						<time>2024-11-03T19:59:55Z</time>
					</trkpt>
					<trkpt lat="49.025850" lon="3.026680">
						<ele>56</ele>
						<time>2024-11-03T20:00:01Z</time>
					</trkpt>
					<trkpt lat="49.026710" lon="3.027300">
						<ele>56</ele>
						<time>2024-11-03T20:00:18Z</time>
					</trkpt>
					<trkpt lat="49.026920" lon="3.027590">
						<ele>56</ele>
						<time>2024-11-03T20:00:23Z</time>
					</trkpt>
					<trkpt lat="49.027070" lon="3.027880">
						<ele>56</ele>
						<time>2024-11-03T20:00:27Z</time>
					</trkpt>
					<trkpt lat="49.027200" lon="3.028240">
						<ele>57</ele>
						<time>2024-11-03T20:00:32Z</time>
					</trkpt>
					<trkpt lat="49.027390" lon="3.029000">
						<ele>55</ele>
						<time>2024-11-03T20:00:41Z</time>
					</trkpt>
					<trkpt lat="49.027540" lon="3.029370">
						<ele>55</ele>
						<time>2024-11-03T20:00:47Z</time>
					</trkpt>
					<trkpt lat="49.027830" lon="3.029970">
						<ele>57</ele>
						<time>2024-11-03T20:00:55Z</time>
					</trkpt>
					<trkpt lat="49.028100" lon="3.030520">
						<ele>59</ele>
						<time>2024-11-03T20:01:03Z</time>
					</trkpt>
					<trkpt lat="49.028240" lon="3.030870">
						<ele>59</ele>
						<time>2024-11-03T20:01:08Z</time>
					</trkpt>
					<trkpt lat="49.028290" lon="3.031060">
						<ele>58</ele>
						<time>2024-11-03T20:01:10Z</time>
					</trkpt>
					<trkpt lat="49.028470" lon="3.031950">
						<ele>56</ele>
						<time>2024-11-03T20:01:21Z</time>
					</trkpt>
					<trkpt lat="49.028510" lon="3.032160">
						<ele>55</ele>
						<time>2024-11-03T20:01:24Z</time>
					</trkpt>
					<trkpt lat="49.029040" lon="3.034910">
						<ele>55</ele>
						<time>2024-11-03T20:01:57Z</time>
					</trkpt>
					<trkpt lat="49.029100" lon="3.035350">
						<ele>55</ele>
						<time>2024-11-03T20:02:03Z</time>
					</trkpt>
					<trkpt lat="49.029160" lon="3.035640">
						<ele>54</ele>
						<time>2024-11-03T20:02:06Z</time>
					</trkpt>
					<trkpt lat="49.029360" lon="3.036620">
						<ele>53</ele>
						<time>2024-11-03T20:02:18Z</time>
					</trkpt>
					<trkpt lat="49.030570" lon="3.040470">
						<ele>55</ele>
						<time>2024-11-03T20:03:08Z</time>
					</trkpt>
					<trkpt lat="49.031190" lon="3.042460">
						<ele>55</ele>
						<time>2024-11-03T20:03:34Z</time>
					</trkpt>
					<trkpt lat="49.032690" lon="3.047270">
						<ele>55</ele>
						<time>2024-11-03T20:04:36Z</time>
					</trkpt>
					<trkpt lat="49.033080" lon="3.048490">
						<ele>55</ele>
						<time>2024-11-03T20:04:52Z</time>
					</trkpt>
					<trkpt lat="49.033120" lon="3.048570">
						<ele>55</ele>
						<time>2024-11-03T20:04:53Z</time>
					</trkpt>
					<trkpt lat="49.033440" lon="3.049270">
						<ele>56</ele>
						<time>2024-11-03T20:05:03Z</time>
					</trkpt>
					<trkpt lat="49.033830" lon="3.049830">
						<ele>58</ele>
						<time>2024-11-03T20:05:12Z</time>
					</trkpt>
					<trkpt lat="49.034640" lon="3.050550">
						<ele>58</ele>
						<time>2024-11-03T20:05:29Z</time>
					</trkpt>
					<trkpt lat="49.034970" lon="3.050840">
						<ele>57</ele>
						<time>2024-11-03T20:05:36Z</time>
					</trkpt>
					<trkpt lat="49.035440" lon="3.051170">
						<ele>57</ele>
						<time>2024-11-03T20:05:45Z</time>
					</trkpt>
					<trkpt lat="49.035780" lon="3.051230">
						<ele>57</ele>
						<time>2024-11-03T20:05:51Z</time>
					</trkpt>
					<trkpt lat="49.036510" lon="3.051300">
						<ele>54</ele>
						<time>2024-11-03T20:06:04Z</time>
					</trkpt>
					<trkpt lat="49.036760" lon="3.051500">
						<ele>53</ele>
						<time>2024-11-03T20:06:09Z</time>
					</trkpt>
					<trkpt lat="49.036890" lon="3.051700">
						<ele>53</ele>
						<time>2024-11-03T20:06:12Z</time>
					</trkpt>
					<trkpt lat="49.037020" lon="3.051860">
						<ele>53</ele>
						<time>2024-11-03T20:06:15Z</time>
					</trkpt>
					<trkpt lat="49.037110" lon="3.051930">
						<ele>53</ele>
						<time>2024-11-03T20:06:17Z</time>
					</trkpt>
					<trkpt lat="49.037250" lon="3.052000">
						<ele>53</ele>
						<time>2024-11-03T20:06:20Z</time>
					</trkpt>
					<trkpt lat="49.037640" lon="3.052110">
						<ele>53</ele>
						<time>2024-11-03T20:06:27Z</time>
					</trkpt>
					<trkpt lat="49.037750" lon="3.052170">
						<ele>53</ele>
						<time>2024-11-03T20:06:29Z</time>
					</trkpt>
					<trkpt lat="49.037890" lon="3.052350">
						<ele>54</ele>
						<time>2024-11-03T20:06:32Z</time>
					</trkpt>
					<trkpt lat="49.037950" lon="3.052490">
						<ele>54</ele>
						<time>2024-11-03T20:06:34Z</time>
					</trkpt>
					<trkpt lat="49.037970" lon="3.052630">
						<ele>54</ele>
						<time>2024-11-03T20:06:36Z</time>
					</trkpt>
					<trkpt lat="49.037960" lon="3.052840">
						<ele>55</ele>
						<time>2024-11-03T20:06:38Z</time>
					</trkpt>
					<trkpt lat="49.037950" lon="3.053190">
						<ele>55</ele>
						<time>2024-11-03T20:06:42Z</time>
					</trkpt>
					<trkpt lat="49.037950" lon="3.053300">
						<ele>55</ele>
						<time>2024-11-03T20:06:43Z</time>
					</trkpt>
					<trkpt lat="49.037950" lon="3.053530">
						<ele>56</ele>
						<time>2024-11-03T20:06:46Z</time>
					</trkpt>
					<trkpt lat="49.037980" lon="3.053710">
						<ele>56</ele>
						<time>2024-11-03T20:06:48Z</time>
					</trkpt>
					<trkpt lat="49.038430" lon="3.055790">
						<ele>58</ele>
						<time>2024-11-03T20:07:14Z</time>
					</trkpt>
					<trkpt lat="49.038440" lon="3.056080">
						<ele>59</ele>
						<time>2024-11-03T20:07:17Z</time>
					</trkpt>
					<trkpt lat="49.038400" lon="3.056270">
						<ele>59</ele>
						<time>2024-11-03T20:07:20Z</time>
					</trkpt>
					<trkpt lat="49.038240" lon="3.056630">
						<ele>59</ele>
						<time>2024-11-03T20:07:25Z</time>
					</trkpt>
					<trkpt lat="49.038190" lon="3.056800">
						<ele>60</ele>
						<time>2024-11-03T20:07:27Z</time>
					</trkpt>
					<trkpt lat="49.038050" lon="3.057550">
						<ele>61</ele>
						<time>2024-11-03T20:07:36Z</time>
					</trkpt>
					<trkpt lat="49.038020" lon="3.057700">
						<ele>62</ele>
						<time>2024-11-03T20:07:38Z</time>
					</trkpt>
					<trkpt lat="49.037930" lon="3.059290">
						<ele>63</ele>
						<time>2024-11-03T20:07:56Z</time>
					</trkpt>
					<trkpt lat="49.037930" lon="3.059490">
						<ele>64</ele>
						<time>2024-11-03T20:07:59Z</time>
					</trkpt>
					<trkpt lat="49.037460" lon="3.063820">
						<ele>63</ele>
						<time>2024-11-03T20:08:50Z</time>
					</trkpt>
					<trkpt lat="49.037290" lon="3.065240">
						<ele>66</ele>
						<time>2024-11-03T20:09:07Z</time>
					</trkpt>
					<trkpt lat="49.037190" lon="3.065990">
						<ele>67</ele>
						<time>2024-11-03T20:09:16Z</time>
					</trkpt>
					<trkpt lat="49.037120" lon="3.066240">
						<ele>66</ele>
						<time>2024-11-03T20:09:19Z</time>
					</trkpt>
					<trkpt lat="49.037190" lon="3.066640">
						<ele>67</ele>
						<time>2024-11-03T20:09:24Z</time>
					</trkpt>
					<trkpt lat="49.037260" lon="3.068090">
						<ele>68</ele>
						<time>2024-11-03T20:09:41Z</time>
					</trkpt>
					<trkpt lat="49.037290" lon="3.068410">
						<ele>68</ele>
						<time>2024-11-03T20:09:44Z</time>
					</trkpt>
					<trkpt lat="49.037330" lon="3.068660">
						<ele>69</ele>
						<time>2024-11-03T20:09:47Z</time>
					</trkpt>
					<trkpt lat="49.037400" lon="3.068960">
						<ele>69</ele>
						<time>2024-11-03T20:09:51Z</time>
					</trkpt>
					<trkpt lat="49.037480" lon="3.069170">
						<ele>70</ele>
						<time>2024-11-03T20:09:54Z</time>
					</trkpt>
					<trkpt lat="49.037640" lon="3.069480">
						<ele>71</ele>
						<time>2024-11-03T20:09:59Z</time>
					</trkpt>
					<trkpt lat="49.037710" lon="3.069700">
						<ele>71</ele>
						<time>2024-11-03T20:10:01Z</time>
					</trkpt>
					<trkpt lat="49.037770" lon="3.069900">
						<ele>72</ele>
						<time>2024-11-03T20:10:04Z</time>
					</trkpt>
					<trkpt lat="49.037820" lon="3.070260">
						<ele>72</ele>
						<time>2024-11-03T20:10:08Z</time>
					</trkpt>
					<trkpt lat="49.037840" lon="3.070570">
						<ele>73</ele>
						<time>2024-11-03T20:10:12Z</time>
					</trkpt>
					<trkpt lat="49.037850" lon="3.071080">
						<ele>74</ele>
						<time>2024-11-03T20:10:18Z</time>
					</trkpt>
					<trkpt lat="49.037830" lon="3.071780">
						<ele>76</ele>
						<time>2024-11-03T20:10:26Z</time>
					</trkpt>
					<trkpt lat="49.037890" lon="3.072350">
						<ele>78</ele>
						<time>2024-11-03T20:10:33Z</time>
					</trkpt>
					<trkpt lat="49.037930" lon="3.072600">
						<ele>79</ele>
						<time>2024-11-03T20:10:36Z</time>
					</trkpt>
					<trkpt lat="49.038110" lon="3.073390">
						<ele>82</ele>
						<time>2024-11-03T20:10:46Z</time>
					</trkpt>
					<trkpt lat="49.038290" lon="3.074270">
						<ele>85</ele>
						<time>2024-11-03T20:10:56Z</time>
					</trkpt>
					<trkpt lat="49.038530" lon="3.075240">
						<ele>87</ele>
						<time>2024-11-03T20:11:08Z</time>
					</trkpt>
					<trkpt lat="49.038650" lon="3.075580">
						<ele>88</ele>
						<time>2024-11-03T20:11:13Z</time>
					</trkpt>
					<trkpt lat="49.038710" lon="3.075730">
						<ele>89</ele>
						<time>2024-11-03T20:11:15Z</time>
					</trkpt>
					<trkpt lat="49.038750" lon="3.075810">
						<ele>89</ele>
						<time>2024-11-03T20:11:16Z</time>
					</trkpt>
					<trkpt lat="49.038980" lon="3.076250">
						<ele>90</ele>
						<time>2024-11-03T20:11:23Z</time>
					</trkpt>
					<trkpt lat="49.040070" lon="3.077770">
						<ele>94</ele>
						<time>2024-11-03T20:11:49Z</time>
					</trkpt>
					<trkpt lat="49.040340" lon="3.078200">
						<ele>94</ele>
						<time>2024-11-03T20:11:56Z</time>
					</trkpt>
					<trkpt lat="49.040460" lon="3.078430">
						<ele>94</ele>
						<time>2024-11-03T20:11:59Z</time>
					</trkpt>
					<trkpt lat="49.040690" lon="3.078960">
						<ele>94</ele>
						<time>2024-11-03T20:12:07Z</time>
					</trkpt>
					<trkpt lat="49.041060" lon="3.080010">
						<ele>95</ele>
						<time>2024-11-03T20:12:21Z</time>
					</trkpt>
					<trkpt lat="49.041240" lon="3.080460">
						<ele>95</ele>
						<time>2024-11-03T20:12:27Z</time>
					</trkpt>
					<trkpt lat="49.041360" lon="3.080700">
						<ele>95</ele>
						<time>2024-11-03T20:12:30Z</time>
					</trkpt>
					<trkpt lat="49.041500" lon="3.080930">
						<ele>95</ele>
						<time>2024-11-03T20:12:34Z</time>
					</trkpt>
					<trkpt lat="49.042840" lon="3.082510">
						<ele>93</ele>
						<time>2024-11-03T20:13:04Z</time>
					</trkpt>
					<trkpt lat="49.043290" lon="3.082930">
						<ele>93</ele>
						<time>2024-11-03T20:13:13Z</time>
					</trkpt>
					<trkpt lat="49.043750" lon="3.083290">
						<ele>94</ele>
						<time>2024-11-03T20:13:23Z</time>
					</trkpt>
					<trkpt lat="49.044620" lon="3.084210">
						<ele>95</ele>
						<time>2024-11-03T20:13:42Z</time>
					</trkpt>
					<trkpt lat="49.045790" lon="3.085560">
						<ele>96</ele>
						<time>2024-11-03T20:14:08Z</time>
					</trkpt>
					<trkpt lat="49.046100" lon="3.085800">
						<ele>96</ele>
						<time>2024-11-03T20:14:14Z</time>
					</trkpt>
					<trkpt lat="49.046160" lon="3.085840">
						<ele>96</ele>
						<time>2024-11-03T20:14:15Z</time>
					</trkpt>
					<trkpt lat="49.046260" lon="3.085890">
						<ele>97</ele>
						<time>2024-11-03T20:14:17Z</time>
					</trkpt>
					<trkpt lat="49.047010" lon="3.086150">
						<ele>99</ele>
						<time>2024-11-03T20:14:31Z</time>
					</trkpt>
					<trkpt lat="49.047350" lon="3.086370">
						<ele>99</ele>
						<time>2024-11-03T20:14:37Z</time>
					</trkpt>
					<trkpt lat="49.047660" lon="3.086640">
						<ele>101</ele>
						<time>2024-11-03T20:14:43Z</time>
					</trkpt>
					<trkpt lat="49.048030" lon="3.087080">
						<ele>101</ele>
						<time>2024-11-03T20:14:52Z</time>
					</trkpt>
					<trkpt lat="49.048240" lon="3.087390">
						<ele>100</ele>
						<time>2024-11-03T20:14:57Z</time>
					</trkpt>
					<trkpt lat="49.049700" lon="3.090150">
						<ele>104</ele>
						<time>2024-11-03T20:15:38Z</time>
					</trkpt>
					<trkpt lat="49.049870" lon="3.090410">
						<ele>104</ele>
						<time>2024-11-03T20:15:43Z</time>
					</trkpt>
					<trkpt lat="49.050080" lon="3.090730">
						<ele>106</ele>
						<time>2024-11-03T20:15:48Z</time>
					</trkpt>
					<trkpt lat="49.050320" lon="3.091050">
						<ele>108</ele>
						<time>2024-11-03T20:15:54Z</time>
					</trkpt>
					<trkpt lat="49.050520" lon="3.091420">
						<ele>108</ele>
						<time>2024-11-03T20:15:59Z</time>
					</trkpt>
					<trkpt lat="49.050800" lon="3.092190">
						<ele>107</ele>
						<time>2024-11-03T20:16:09Z</time>
					</trkpt>
					<trkpt lat="49.051010" lon="3.092810">
						<ele>108</ele>
						<time>2024-11-03T20:16:18Z</time>
					</trkpt>
					<trkpt lat="49.051170" lon="3.093430">
						<ele>108</ele>
						<time>2024-11-03T20:16:25Z</time>
					</trkpt>
					<trkpt lat="49.051180" lon="3.093460">
						<ele>108</ele>
						<time>2024-11-03T20:16:26Z</time>
					</trkpt>
					<trkpt lat="49.051380" lon="3.094370">
						<ele>108</ele>
						<time>2024-11-03T20:16:37Z</time>
					</trkpt>
					<trkpt lat="49.051580" lon="3.095090">
						<ele>109</ele>
						<time>2024-11-03T20:16:46Z</time>
					</trkpt>
					<trkpt lat="49.051990" lon="3.096320">
						<ele>112</ele>
						<time>2024-11-03T20:17:02Z</time>
					</trkpt>
					<trkpt lat="49.052150" lon="3.096830">
						<ele>112</ele>
						<time>2024-11-03T20:17:09Z</time>
					</trkpt>
					<trkpt lat="49.052330" lon="3.097250">
						<ele>113</ele>
						<time>2024-11-03T20:17:15Z</time>
					</trkpt>
					<trkpt lat="49.052620" lon="3.097740">
						<ele>114</ele>
						<time>2024-11-03T20:17:22Z</time>
					</trkpt>
					<trkpt lat="49.052880" lon="3.098180">
						<ele>116</ele>
						<time>2024-11-03T20:17:29Z</time>
					</trkpt>
					<trkpt lat="49.053020" lon="3.098370">
						<ele>118</ele>
						<time>2024-11-03T20:17:33Z</time>
					</trkpt>
					<trkpt lat="49.053150" lon="3.098530">
						<ele>118</ele>
						<time>2024-11-03T20:17:36Z</time>
					</trkpt>
					<trkpt lat="49.053440" lon="3.098820">
						<ele>121</ele>
						<time>2024-11-03T20:17:42Z</time>
					</trkpt>
					<trkpt lat="49.053580" lon="3.099000">
						<ele>123</ele>
						<time>2024-11-03T20:17:45Z</time>
					</trkpt>
					<trkpt lat="49.053720" lon="3.099200">
						<ele>124</ele>
						<time>2024-11-03T20:17:48Z</time>
					</trkpt>
					<trkpt lat="49.054420" lon="3.100410">
						<ele>129</ele>
						<time>2024-11-03T20:18:07Z</time>
					</trkpt>
					<trkpt lat="49.054620" lon="3.100710">
						<ele>131</ele>
						<time>2024-11-03T20:18:12Z</time>
					</trkpt>
					<trkpt lat="49.054710" lon="3.100800">
						<ele>132</ele>
						<time>2024-11-03T20:18:14Z</time>
					</trkpt>
					<trkpt lat="49.054850" lon="3.100880">
						<ele>133</ele>
						<time>2024-11-03T20:18:17Z</time>
					</trkpt>
					<trkpt lat="49.055220" lon="3.100970">
						<ele>134</ele>
						<time>2024-11-03T20:18:23Z</time>
					</trkpt>
					<trkpt lat="49.055310" lon="3.101020">
						<ele>135</ele>
						<time>2024-11-03T20:18:25Z</time>
					</trkpt>
					<trkpt lat="49.055470" lon="3.101160">
						<ele>136</ele>
						<time>2024-11-03T20:18:28Z</time>
					</trkpt>
					<trkpt lat="49.056190" lon="3.101910">
						<ele>138</ele>
						<time>2024-11-03T20:18:44Z</time>
					</trkpt>
					<trkpt lat="49.056720" lon="3.102480">
						<ele>140</ele>
						<time>2024-11-03T20:18:55Z</time>
					</trkpt>
					<trkpt lat="49.056900" lon="3.102700">
						<ele>141</ele>
						<time>2024-11-03T20:19:00Z</time>
					</trkpt>
					<trkpt lat="49.057080" lon="3.102960">
						<ele>143</ele>
						<time>2024-11-03T20:19:04Z</time>
					</trkpt>
					<trkpt lat="49.057320" lon="3.103440">
						<ele>145</ele>
						<time>2024-11-03T20:19:11Z</time>
					</trkpt>
					<trkpt lat="49.057510" lon="3.103990">
						<ele>147</ele>
						<time>2024-11-03T20:19:18Z</time>
					</trkpt>
					<trkpt lat="49.057740" lon="3.104850">
						<ele>150</ele>
						<time>2024-11-03T20:19:29Z</time>
					</trkpt>
					<trkpt lat="49.057900" lon="3.105280">
						<ele>151</ele>
						<time>2024-11-03T20:19:35Z</time>
					</trkpt>
					<trkpt lat="49.058040" lon="3.105570">
						<ele>153</ele>
						<time>2024-11-03T20:19:39Z</time>
					</trkpt>
					<trkpt lat="49.058550" lon="3.106380">
						<ele>156</ele>
						<time>2024-11-03T20:19:52Z</time>
					</trkpt>
					<trkpt lat="49.059150" lon="3.107420">
						<ele>160</ele>
						<time>2024-11-03T20:20:08Z</time>
					</trkpt>
					<trkpt lat="49.059780" lon="3.108660">
						<ele>162</ele>
						<time>2024-11-03T20:20:27Z</time>
					</trkpt>
					<trkpt lat="49.060500" lon="3.110170">
						<ele>160</ele>
						<time>2024-11-03T20:20:48Z</time>
					</trkpt>
					<trkpt lat="49.062150" lon="3.113590">
						<ele>149</ele>
						<time>2024-11-03T20:21:38Z</time>
					</trkpt>
					<trkpt lat="49.062080" lon="3.113690">
						<ele>149</ele>
						<time>2024-11-03T20:21:40Z</time>
					</trkpt>
					<trkpt lat="49.062150" lon="3.113590">
						<ele>149</ele>
						<time>2024-11-03T20:21:41Z</time>
					</trkpt>
					<trkpt lat="49.062480" lon="3.114290">
						<ele>147</ele>
						<time>2024-11-03T20:21:51Z</time>
					</trkpt>
					<trkpt lat="49.062640" lon="3.114700">
						<ele>145</ele>
						<time>2024-11-03T20:21:57Z</time>
					</trkpt>
					<trkpt lat="49.064000" lon="3.118760">
						<ele>133</ele>
						<time>2024-11-03T20:22:50Z</time>
					</trkpt>
					<trkpt lat="49.064150" lon="3.119160">
						<ele>132</ele>
						<time>2024-11-03T20:22:55Z</time>
					</trkpt>
					<trkpt lat="49.064290" lon="3.119340">
						<ele>133</ele>
						<time>2024-11-03T20:22:59Z</time>
					</trkpt>
					<trkpt lat="49.064450" lon="3.119470">
						<ele>134</ele>
						<time>2024-11-03T20:23:02Z</time>
					</trkpt>
					<trkpt lat="49.065910" lon="3.120210">
						<ele>142</ele>
						<time>2024-11-03T20:23:29Z</time>
					</trkpt>
					<trkpt lat="49.066120" lon="3.120340">
						<ele>144</ele>
						<time>2024-11-03T20:23:33Z</time>
					</trkpt>
					<trkpt lat="49.066190" lon="3.120400">
						<ele>144</ele>
						<time>2024-11-03T20:23:35Z</time>
					</trkpt>
					<trkpt lat="49.066270" lon="3.120510">
						<ele>145</ele>
						<time>2024-11-03T20:23:37Z</time>
					</trkpt>
					<trkpt lat="49.066340" lon="3.120640">
						<ele>146</ele>
						<time>2024-11-03T20:23:39Z</time>
					</trkpt>
					<trkpt lat="49.066390" lon="3.120920">
						<ele>147</ele>
						<time>2024-11-03T20:23:42Z</time>
					</trkpt>
					<trkpt lat="49.066540" lon="3.122920">
						<ele>154</ele>
						<time>2024-11-03T20:24:05Z</time>
					</trkpt>
					<trkpt lat="49.066510" lon="3.123290">
						<ele>156</ele>
						<time>2024-11-03T20:24:10Z</time>
					</trkpt>
					<trkpt lat="49.066480" lon="3.123340">
						<ele>156</ele>
						<time>2024-11-03T20:24:11Z</time>
					</trkpt>
					<trkpt lat="49.066480" lon="3.123410">
						<ele>156</ele>
						<time>2024-11-03T20:24:11Z</time>
					</trkpt>
					<trkpt lat="49.066500" lon="3.123480">
						<ele>156</ele>
						<time>2024-11-03T20:24:12Z</time>
					</trkpt>
					<trkpt lat="49.066540" lon="3.123510">
						<ele>157</ele>
						<time>2024-11-03T20:24:13Z</time>
					</trkpt>
					<trkpt lat="49.066600" lon="3.123500">
						<ele>157</ele>
						<time>2024-11-03T20:24:14Z</time>
					</trkpt>
					<trkpt lat="49.066790" lon="3.123640">
						<ele>157</ele>
						<time>2024-11-03T20:24:18Z</time>
					</trkpt>
					<trkpt lat="49.067260" lon="3.124290">
						<ele>158</ele>
						<time>2024-11-03T20:24:29Z</time>
					</trkpt>
					<trkpt lat="49.067490" lon="3.124570">
						<ele>157</ele>
						<time>2024-11-03T20:24:34Z</time>
					</trkpt>
					<trkpt lat="49.067780" lon="3.124820">
						<ele>156</ele>
						<time>2024-11-03T20:24:40Z</time>
					</trkpt>
					<trkpt lat="49.067970" lon="3.125010">
						<ele>155</ele>
						<time>2024-11-03T20:24:44Z</time>
					</trkpt>
					<trkpt lat="49.068460" lon="3.125360">
						<ele>153</ele>
						<time>2024-11-03T20:24:54Z</time>
					</trkpt>
					<trkpt lat="49.069490" lon="3.126100">
						<ele>148</ele>
						<time>2024-11-03T20:25:14Z</time>
					</trkpt>
					<trkpt lat="49.069550" lon="3.126100">
						<ele>148</ele>
						<time>2024-11-03T20:25:15Z</time>
					</trkpt>
					<trkpt lat="49.069670" lon="3.126180">
						<ele>147</ele>
						<time>2024-11-03T20:25:18Z</time>
					</trkpt>
					<trkpt lat="49.069690" lon="3.126240">
						<ele>147</ele>
						<time>2024-11-03T20:25:18Z</time>
					</trkpt>
					<trkpt lat="49.069860" lon="3.126580">
						<ele>147</ele>
						<time>2024-11-03T20:25:23Z</time>
					</trkpt>
					<trkpt lat="49.069960" lon="3.126740">
						<ele>147</ele>
						<time>2024-11-03T20:25:26Z</time>
					</trkpt>
					<trkpt lat="49.070800" lon="3.127610">
						<ele>152</ele>
						<time>2024-11-03T20:25:44Z</time>
					</trkpt>
					<trkpt lat="49.071010" lon="3.127880">
						<ele>153</ele>
						<time>2024-11-03T20:25:49Z</time>
					</trkpt>
					<trkpt lat="49.071400" lon="3.128420">
						<ele>156</ele>
						<time>2024-11-03T20:25:58Z</time>
					</trkpt>
					<trkpt lat="49.071460" lon="3.128530">
						<ele>156</ele>
						<time>2024-11-03T20:26:00Z</time>
					</trkpt>
					<trkpt lat="49.071480" lon="3.128670">
						<ele>156</ele>
						<time>2024-11-03T20:26:02Z</time>
					</trkpt>
					<trkpt lat="49.071490" lon="3.129420">
						<ele>157</ele>
						<time>2024-11-03T20:26:10Z</time>
					</trkpt>
					<trkpt lat="49.071920" lon="3.129490">
						<ele>158</ele>
						<time>2024-11-03T20:26:18Z</time>
					</trkpt>
					<trkpt lat="49.072030" lon="3.129640">
						<ele>158</ele>
						<time>2024-11-03T20:26:21Z</time>
					</trkpt>
					<trkpt lat="49.072880" lon="3.131480">
						<ele>163</ele>
						<time>2024-11-03T20:26:47Z</time>
					</trkpt>
					<trkpt lat="49.073500" lon="3.133040">
						<ele>168</ele>
						<time>2024-11-03T20:27:08Z</time>
					</trkpt>
					<trkpt lat="49.073780" lon="3.133870">
						<ele>170</ele>
						<time>2024-11-03T20:27:19Z</time>
					</trkpt>
					<trkpt lat="49.074100" lon="3.134890">
						<ele>171</ele>
						<time>2024-11-03T20:27:32Z</time>
					</trkpt>
					<trkpt lat="49.074220" lon="3.135030">
						<ele>171</ele>
						<time>2024-11-03T20:27:35Z</time>
					</trkpt>
					<trkpt lat="49.074330" lon="3.135160">
						<ele>170</ele>
						<time>2024-11-03T20:27:38Z</time>
					</trkpt>
					<trkpt lat="49.075540" lon="3.136000">
						<ele>166</ele>
						<time>2024-11-03T20:28:01Z</time>
					</trkpt>
					<trkpt lat="49.075920" lon="3.136280">
						<ele>165</ele>
						<time>2024-11-03T20:28:09Z</time>
					</trkpt>
					<trkpt lat="49.077530" lon="3.137380">
						<ele>158</ele>
						<time>2024-11-03T20:28:40Z</time>
					</trkpt>
					<trkpt lat="49.080840" lon="3.139630">
						<ele>141</ele>
						<time>2024-11-03T20:29:45Z</time>
					</trkpt>
					<trkpt lat="49.081420" lon="3.140030">
						<ele>137</ele>
						<time>2024-11-03T20:29:56Z</time>
					</trkpt>
					<trkpt lat="49.081990" lon="3.140620">
						<ele>135</ele>
						<time>2024-11-03T20:30:08Z</time>
					</trkpt>
					<trkpt lat="49.083010" lon="3.142130">
						<ele>129</ele>
						<time>2024-11-03T20:30:33Z</time>
					</trkpt>
					<trkpt lat="49.083140" lon="3.142290">
						<ele>127</ele>
						<time>2024-11-03T20:30:36Z</time>
					</trkpt>
					<trkpt lat="49.083620" lon="3.142600">
						<ele>123</ele>
						<time>2024-11-03T20:30:46Z</time>
					</trkpt>
					<trkpt lat="49.085180" lon="3.143090">
						<ele>118</ele>
						<time>2024-11-03T20:31:14Z</time>
					</trkpt>
					<trkpt lat="49.085470" lon="3.143250">
						<ele>118</ele>
						<time>2024-11-03T20:31:19Z</time>
					</trkpt>
					<trkpt lat="49.085650" lon="3.143420">
						<ele>118</ele>
						<time>2024-11-03T20:31:23Z</time>
					</trkpt>
					<trkpt lat="49.085790" lon="3.143580">
						<ele>118</ele>
						<time>2024-11-03T20:31:26Z</time>
					</trkpt>
					<trkpt lat="49.085910" lon="3.143770">
						<ele>117</ele>
						<time>2024-11-03T20:31:29Z</time>
					</trkpt>
					<trkpt lat="49.086120" lon="3.144220">
						<ele>116</ele>
						<time>2024-11-03T20:31:36Z</time>
					</trkpt>
					<trkpt lat="49.086490" lon="3.145020">
						<ele>114</ele>
						<time>2024-11-03T20:31:47Z</time>
					</trkpt>
					<trkpt lat="49.088930" lon="3.150390">
						<ele>118</ele>
						<time>2024-11-03T20:33:03Z</time>
					</trkpt>
					<trkpt lat="49.089210" lon="3.150960">
						<ele>118</ele>
						<time>2024-11-03T20:33:12Z</time>
					</trkpt>
					<trkpt lat="49.089410" lon="3.151260">
						<ele>118</ele>
						<time>2024-11-03T20:33:17Z</time>
					</trkpt>
					<trkpt lat="49.089630" lon="3.151520">
						<ele>118</ele>
						<time>2024-11-03T20:33:22Z</time>
					</trkpt>
					<trkpt lat="49.089780" lon="3.151660">
						<ele>119</ele>
						<time>2024-11-03T20:33:25Z</time>
					</trkpt>
					<trkpt lat="49.090300" lon="3.152040">
						<ele>118</ele>
						<time>2024-11-03T20:33:35Z</time>
					</trkpt>
					<trkpt lat="49.093140" lon="3.153890">
						<ele>108</ele>
						<time>2024-11-03T20:34:30Z</time>
					</trkpt>
					<trkpt lat="49.093380" lon="3.154100">
						<ele>107</ele>
						<time>2024-11-03T20:34:35Z</time>
					</trkpt>
					<trkpt lat="49.093430" lon="3.154170">
						<ele>107</ele>
						<time>2024-11-03T20:34:36Z</time>
					</trkpt>
					<trkpt lat="49.093570" lon="3.154400">
						<ele>106</ele>
						<time>2024-11-03T20:34:40Z</time>
					</trkpt>
					<trkpt lat="49.093900" lon="3.154850">
						<ele>105</ele>
						<time>2024-11-03T20:34:48Z</time>
					</trkpt>
					<trkpt lat="49.094510" lon="3.155730">
						<ele>101</ele>
						<time>2024-11-03T20:35:03Z</time>
					</trkpt>
					<trkpt lat="49.094730" lon="3.156140">
						<ele>99</ele>
						<time>2024-11-03T20:35:09Z</time>
					</trkpt>
					<trkpt lat="49.094880" lon="3.156660">
						<ele>95</ele>
						<time>2024-11-03T20:35:15Z</time>
					</trkpt>
					<trkpt lat="49.094960" lon="3.157150">
						<ele>93</ele>
						<time>2024-11-03T20:35:21Z</time>
					</trkpt>
					<trkpt lat="49.095100" lon="3.158350">
						<ele>86</ele>
						<time>2024-11-03T20:35:35Z</time>
					</trkpt>
					<trkpt lat="49.095170" lon="3.158710">
						<ele>84</ele>
						<time>2024-11-03T20:35:40Z</time>
					</trkpt>
					<trkpt lat="49.095250" lon="3.158930">
						<ele>82</ele>
						<time>2024-11-03T20:35:43Z</time>
					</trkpt>
					<trkpt lat="49.095490" lon="3.159300">
						<ele>81</ele>
						<time>2024-11-03T20:35:49Z</time>
					</trkpt>
					<trkpt lat="49.095900" lon="3.159840">
						<ele>78</ele>
						<time>2024-11-03T20:35:58Z</time>
					</trkpt>
					<trkpt lat="49.095960" lon="3.160000">
						<ele>76</ele>
						<time>2024-11-03T20:36:01Z</time>
					</trkpt>
					<trkpt lat="49.095990" lon="3.160290">
						<ele>75</ele>
						<time>2024-11-03T20:36:04Z</time>
					</trkpt>
					<trkpt lat="49.095970" lon="3.160570">
						<ele>74</ele>
						<time>2024-11-03T20:36:07Z</time>
					</trkpt>
					<trkpt lat="49.095920" lon="3.160860">
						<ele>73</ele>
						<time>2024-11-03T20:36:11Z</time>
					</trkpt>
					<trkpt lat="49.095850" lon="3.161480">
						<ele>73</ele>
						<time>2024-11-03T20:36:18Z</time>
					</trkpt>
					<trkpt lat="49.095700" lon="3.163420">
						<ele>74</ele>
						<time>2024-11-03T20:36:41Z</time>
					</trkpt>
					<trkpt lat="49.095690" lon="3.163530">
						<ele>74</ele>
						<time>2024-11-03T20:36:42Z</time>
					</trkpt>
					<trkpt lat="49.095610" lon="3.164820">
						<ele>77</ele>
						<time>2024-11-03T20:36:57Z</time>
					</trkpt>
					<trkpt lat="49.095650" lon="3.165690">
						<ele>79</ele>
						<time>2024-11-03T20:37:07Z</time>
					</trkpt>
					<trkpt lat="49.095740" lon="3.166090">
						<ele>79</ele>
						<time>2024-11-03T20:37:12Z</time>
					</trkpt>
					<trkpt lat="49.095880" lon="3.166690">
						<ele>78</ele>
						<time>2024-11-03T20:37:20Z</time>
					</trkpt>
					<trkpt lat="49.095970" lon="3.167360">
						<ele>76</ele>
						<time>2024-11-03T20:37:28Z</time>
					</trkpt>
					<trkpt lat="49.099010" lon="3.168520">
						<ele>72</ele>
						<time>2024-11-03T20:38:24Z</time>
					</trkpt>
					<trkpt lat="49.099120" lon="3.168570">
						<ele>72</ele>
						<time>2024-11-03T20:38:26Z</time>
					</trkpt>
					<trkpt lat="49.100710" lon="3.169200">
						<ele>74</ele>
						<time>2024-11-03T20:38:55Z</time>
					</trkpt>
					<trkpt lat="49.102320" lon="3.169810">
						<ele>85</ele>
						<time>2024-11-03T20:39:24Z</time>
					</trkpt>
					<trkpt lat="49.102950" lon="3.170240">
						<ele>90</ele>
						<time>2024-11-03T20:39:37Z</time>
					</trkpt>
					<trkpt lat="49.103780" lon="3.170790">
						<ele>96</ele>
						<time>2024-11-03T20:39:53Z</time>
					</trkpt>
					<trkpt lat="49.106090" lon="3.172220">
						<ele>106</ele>
						<time>2024-11-03T20:40:37Z</time>
					</trkpt>
					<trkpt lat="49.106580" lon="3.172520">
						<ele>109</ele>
						<time>2024-11-03T20:40:46Z</time>
					</trkpt>
					<trkpt lat="49.107700" lon="3.172900">
						<ele>120</ele>
						<time>2024-11-03T20:41:07Z</time>
					</trkpt>
					<trkpt lat="49.108260" lon="3.172920">
						<ele>121</ele>
						<time>2024-11-03T20:41:17Z</time>
					</trkpt>
					<trkpt lat="49.108490" lon="3.172670">
						<ele>121</ele>
						<time>2024-11-03T20:41:22Z</time>
					</trkpt>
					<trkpt lat="49.108970" lon="3.171110">
						<ele>123</ele>
						<time>2024-11-03T20:41:42Z</time>
					</trkpt>
					<trkpt lat="49.109190" lon="3.170520">
						<ele>125</ele>
						<time>2024-11-03T20:41:50Z</time>
					</trkpt>
					<trkpt lat="49.109330" lon="3.170240">
						<ele>126</ele>
						<time>2024-11-03T20:41:54Z</time>
					</trkpt>
					<trkpt lat="49.109530" lon="3.169930">
						<ele>128</ele>
						<time>2024-11-03T20:41:59Z</time>
					</trkpt>
					<trkpt lat="49.109690" lon="3.169740">
						<ele>130</ele>
						<time>2024-11-03T20:42:03Z</time>
					</trkpt>
					<trkpt lat="49.109800" lon="3.169530">
						<ele>130</ele>
						<time>2024-11-03T20:42:06Z</time>
					</trkpt>
					<trkpt lat="49.109940" lon="3.169110">
						<ele>131</ele>
						<time>2024-11-03T20:42:11Z</time>
					</trkpt>
					<trkpt lat="49.110280" lon="3.167900">
						<ele>135</ele>
						<time>2024-11-03T20:42:27Z</time>
					</trkpt>
					<trkpt lat="49.110370" lon="3.167240">
						<ele>137</ele>
						<time>2024-11-03T20:42:34Z</time>
					</trkpt>
					<trkpt lat="49.110420" lon="3.166940">
						<ele>139</ele>
						<time>2024-11-03T20:42:38Z</time>
					</trkpt>
					<trkpt lat="49.110580" lon="3.166690">
						<ele>140</ele>
						<time>2024-11-03T20:42:42Z</time>
					</trkpt>
					<trkpt lat="49.110700" lon="3.166640">
						<ele>141</ele>
						<time>2024-11-03T20:42:44Z</time>
					</trkpt>
					<trkpt lat="49.110830" lon="3.166660">
						<ele>141</ele>
						<time>2024-11-03T20:42:47Z</time>
					</trkpt>
					<trkpt lat="49.111140" lon="3.166870">
						<ele>142</ele>
						<time>2024-11-03T20:42:53Z</time>
					</trkpt>
					<trkpt lat="49.111960" lon="3.167560">
						<ele>147</ele>
						<time>2024-11-03T20:43:09Z</time>
					</trkpt>
					<trkpt lat="49.113320" lon="3.168760">
						<ele>153</ele>
						<time>2024-11-03T20:43:37Z</time>
					</trkpt>
					<trkpt lat="49.113680" lon="3.169120">
						<ele>155</ele>
						<time>2024-11-03T20:43:45Z</time>
					</trkpt>
					<trkpt lat="49.114800" lon="3.170410">
						<ele>158</ele>
						<time>2024-11-03T20:44:10Z</time>
					</trkpt>
					<trkpt lat="49.115590" lon="3.171270">
						<ele>157</ele>
						<time>2024-11-03T20:44:27Z</time>
					</trkpt>
					<trkpt lat="49.117650" lon="3.173970">
						<ele>147</ele>
						<time>2024-11-03T20:45:15Z</time>
					</trkpt>
					<trkpt lat="49.117780" lon="3.174100">
						<ele>147</ele>
						<time>2024-11-03T20:45:18Z</time>
					</trkpt>
					<trkpt lat="49.118080" lon="3.174360">
						<ele>146</ele>
						<time>2024-11-03T20:45:24Z</time>
					</trkpt>
					<trkpt lat="49.118280" lon="3.174470">
						<ele>146</ele>
						<time>2024-11-03T20:45:28Z</time>
					</trkpt>
					<trkpt lat="49.119440" lon="3.174970">
						<ele>145</ele>
						<time>2024-11-03T20:45:50Z</time>
					</trkpt>
					<trkpt lat="49.119680" lon="3.175130">
						<ele>144</ele>
						<time>2024-11-03T20:45:54Z</time>
					</trkpt>
					<trkpt lat="49.119890" lon="3.175310">
						<ele>143</ele>
						<time>2024-11-03T20:45:58Z</time>
					</trkpt>
					<trkpt lat="49.121150" lon="3.176680">
						<ele>140</ele>
						<time>2024-11-03T20:46:26Z</time>
					</trkpt>
					<trkpt lat="49.121750" lon="3.177130">
						<ele>139</ele>
						<time>2024-11-03T20:46:38Z</time>
					</trkpt>
					<trkpt lat="49.122380" lon="3.177920">
						<ele>136</ele>
						<time>2024-11-03T20:46:52Z</time>
					</trkpt>
					<trkpt lat="49.122510" lon="3.178130">
						<ele>136</ele>
						<time>2024-11-03T20:46:56Z</time>
					</trkpt>
					<trkpt lat="49.122560" lon="3.178320">
						<ele>135</ele>
						<time>2024-11-03T20:46:58Z</time>
					</trkpt>
					<trkpt lat="49.122570" lon="3.178590">
						<ele>134</ele>
						<time>2024-11-03T20:47:01Z</time>
					</trkpt>
					<trkpt lat="49.122500" lon="3.179460">
						<ele>132</ele>
						<time>2024-11-03T20:47:11Z</time>
					</trkpt>
					<trkpt lat="49.122520" lon="3.179670">
						<ele>132</ele>
						<time>2024-11-03T20:47:14Z</time>
					</trkpt>
					<trkpt lat="49.122780" lon="3.180120">
						<ele>131</ele>
						<time>2024-11-03T20:47:21Z</time>
					</trkpt>
					<trkpt lat="49.122820" lon="3.180290">
						<ele>131</ele>
						<time>2024-11-03T20:47:23Z</time>
					</trkpt>
					<trkpt lat="49.122870" lon="3.180650">
						<ele>130</ele>
						<time>2024-11-03T20:47:27Z</time>
					</trkpt>
					<trkpt lat="49.123070" lon="3.181230">
						<ele>129</ele>
						<time>2024-11-03T20:47:35Z</time>
					</trkpt>
					<trkpt lat="49.123440" lon="3.181740">
						<ele>127</ele>
						<time>2024-11-03T20:47:44Z</time>
					</trkpt>
					<trkpt lat="49.123650" lon="3.181960">
						<ele>127</ele>
						<time>2024-11-03T20:47:48Z</time>
					</trkpt>
					<trkpt lat="49.123660" lon="3.181920">
						<ele>127</ele>
						<time>2024-11-03T20:47:49Z</time>
					</trkpt>
					<trkpt lat="49.123930" lon="3.181340">
						<ele>129</ele>
						<time>2024-11-03T20:47:57Z</time>
					</trkpt>
					<trkpt lat="49.124160" lon="3.180790">
						<ele>131</ele>
						<time>2024-11-03T20:48:05Z</time>
					</trkpt>
					<trkpt lat="49.124390" lon="3.180130">
						<ele>134</ele>
						<time>2024-11-03T20:48:13Z</time>
					</trkpt>
					<trkpt lat="49.124610" lon="3.179610">
						<ele>135</ele>
						<time>2024-11-03T20:48:21Z</time>
					</trkpt>
					<trkpt lat="49.124750" lon="3.179150">
						<ele>135</ele>
						<time>2024-11-03T20:48:27Z</time>
					</trkpt>
					<trkpt lat="49.124980" lon="3.178530">
						<ele>136</ele>
						<time>2024-11-03T20:48:35Z</time>
					</trkpt>
					<trkpt lat="49.125240" lon="3.177760">
						<ele>136</ele>
						<time>2024-11-03T20:48:45Z</time>
					</trkpt>
					<trkpt lat="49.125830" lon="3.176950">
						<ele>136</ele>
						<time>2024-11-03T20:48:59Z</time>
					</trkpt>
					<trkpt lat="49.126200" lon="3.176480">
						<ele>136</ele>
						<time>2024-11-03T20:49:08Z</time>
					</trkpt>
					<trkpt lat="49.126530" lon="3.175800">
						<ele>137</ele>
						<time>2024-11-03T20:49:18Z</time>
					</trkpt>
					<trkpt lat="49.126710" lon="3.175330">
						<ele>139</ele>
						<time>2024-11-03T20:49:24Z</time>
					</trkpt>
					<trkpt lat="49.127010" lon="3.174730">
						<ele>141</ele>
						<time>2024-11-03T20:49:33Z</time>
					</trkpt>
					<trkpt lat="49.127130" lon="3.174460">
						<ele>142</ele>
						<time>2024-11-03T20:49:36Z</time>
					</trkpt>
					<trkpt lat="49.127270" lon="3.173810">
						<ele>143</ele>
						<time>2024-11-03T20:49:44Z</time>
					</trkpt>
					<trkpt lat="49.127630" lon="3.172720">
						<ele>145</ele>
						<time>2024-11-03T20:49:59Z</time>
					</trkpt>
					<trkpt lat="49.128510" lon="3.170500">
						<ele>145</ele>
						<time>2024-11-03T20:50:29Z</time>
					</trkpt>
					<trkpt lat="49.128930" lon="3.169340">
						<ele>143</ele>
						<time>2024-11-03T20:50:44Z</time>
					</trkpt>
					<trkpt lat="49.129810" lon="3.166860">
						<ele>138</ele>
						<time>2024-11-03T20:51:17Z</time>
					</trkpt>
					<trkpt lat="49.130200" lon="3.165890">
						<ele>136</ele>
						<time>2024-11-03T20:51:30Z</time>
					</trkpt>
					<trkpt lat="49.130650" lon="3.164280">
						<ele>130</ele>
						<time>2024-11-03T20:51:51Z</time>
					</trkpt>
					<trkpt lat="49.131210" lon="3.162950">
						<ele>128</ele>
						<time>2024-11-03T20:52:09Z</time>
					</trkpt>
					<trkpt lat="49.131380" lon="3.162390">
						<ele>127</ele>
						<time>2024-11-03T20:52:16Z</time>
					</trkpt>
					<trkpt lat="49.131470" lon="3.161820">
						<ele>126</ele>
						<time>2024-11-03T20:52:23Z</time>
					</trkpt>
					<trkpt lat="49.131660" lon="3.160360">
						<ele>121</ele>
						<time>2024-11-03T20:52:41Z</time>
					</trkpt>
					<trkpt lat="49.131730" lon="3.159930">
						<ele>120</ele>
						<time>2024-11-03T20:52:46Z</time>
					</trkpt>
					<trkpt lat="49.131910" lon="3.159280">
						<ele>118</ele>
						<time>2024-11-03T20:52:54Z</time>
					</trkpt>
					<trkpt lat="49.132140" lon="3.158850">
						<ele>116</ele>
						<time>2024-11-03T20:53:00Z</time>
					</trkpt>
					<trkpt lat="49.132470" lon="3.158280">
						<ele>112</ele>
						<time>2024-11-03T20:53:09Z</time>
					</trkpt>
					<trkpt lat="49.132530" lon="3.158140">
						<ele>111</ele>
						<time>2024-11-03T20:53:11Z</time>
					</trkpt>
					<trkpt lat="49.132700" lon="3.157120">
						<ele>109</ele>
						<time>2024-11-03T20:53:23Z</time>
					</trkpt>
					<trkpt lat="49.132690" lon="3.156940">
						<ele>110</ele>
						<time>2024-11-03T20:53:26Z</time>
					</trkpt>
					<trkpt lat="49.132610" lon="3.156690">
						<ele>111</ele>
						<time>2024-11-03T20:53:29Z</time>
					</trkpt>
					<trkpt lat="49.132500" lon="3.156560">
						<ele>112</ele>
						<time>2024-11-03T20:53:31Z</time>
					</trkpt>
					<trkpt lat="49.131970" lon="3.156290">
						<ele>114</ele>
						<time>2024-11-03T20:53:41Z</time>
					</trkpt>
					<trkpt lat="49.131370" lon="3.155480">
						<ele>119</ele>
						<time>2024-11-03T20:53:55Z</time>
					</trkpt>
					<trkpt lat="49.131210" lon="3.155230">
						<ele>120</ele>
						<time>2024-11-03T20:53:59Z</time>
					</trkpt>
					<trkpt lat="49.131070" lon="3.154970">
						<ele>121</ele>
						<time>2024-11-03T20:54:03Z</time>
					</trkpt>
					<trkpt lat="49.131020" lon="3.154590">
						<ele>123</ele>
						<time>2024-11-03T20:54:08Z</time>
					</trkpt>
					<trkpt lat="49.130960" lon="3.153460">
						<ele>126</ele>
						<time>2024-11-03T20:54:21Z</time>
					</trkpt>
					<trkpt lat="49.130910" lon="3.153240">
						<ele>126</ele>
						<time>2024-11-03T20:54:24Z</time>
					</trkpt>
					<trkpt lat="49.130760" lon="3.152490">
						<ele>128</ele>
						<time>2024-11-03T20:54:33Z</time>
					</trkpt>
					<trkpt lat="49.130760" lon="3.152220">
						<ele>129</ele>
						<time>2024-11-03T20:54:36Z</time>
					</trkpt>
					<trkpt lat="49.130820" lon="3.152020">
						<ele>129</ele>
						<time>2024-11-03T20:54:39Z</time>
					</trkpt>
					<trkpt lat="49.131040" lon="3.151580">
						<ele>130</ele>
						<time>2024-11-03T20:54:45Z</time>
					</trkpt>
					<trkpt lat="49.132220" lon="3.149380">
						<ele>136</ele>
						<time>2024-11-03T20:55:18Z</time>
					</trkpt>
					<trkpt lat="49.132500" lon="3.148950">
						<ele>136</ele>
						<time>2024-11-03T20:55:25Z</time>
					</trkpt>
					<trkpt lat="49.134550" lon="3.146380">
						<ele>130</ele>
						<time>2024-11-03T20:56:12Z</time>
					</trkpt>
					<trkpt lat="49.134680" lon="3.146150">
						<ele>130</ele>
						<time>2024-11-03T20:56:16Z</time>
					</trkpt>
					<trkpt lat="49.135070" lon="3.145360">
						<ele>130</ele>
						<time>2024-11-03T20:56:28Z</time>
					</trkpt>
					<trkpt lat="49.135850" lon="3.143710">
						<ele>135</ele>
						<time>2024-11-03T20:56:51Z</time>
					</trkpt>
					<trkpt lat="49.136040" lon="3.143390">
						<ele>135</ele>
						<time>2024-11-03T20:56:56Z</time>
					</trkpt>
					<trkpt lat="49.136830" lon="3.142230">
						<ele>135</ele>
						<time>2024-11-03T20:57:16Z</time>
					</trkpt>
					<trkpt lat="49.137260" lon="3.141640">
						<ele>131</ele>
						<time>2024-11-03T20:57:26Z</time>
					</trkpt>
					<trkpt lat="49.137410" lon="3.141540">
						<ele>129</ele>
						<time>2024-11-03T20:57:29Z</time>
					</trkpt>
					<trkpt lat="49.137960" lon="3.141180">
						<ele>125</ele>
						<time>2024-11-03T20:57:40Z</time>
					</trkpt>
					<trkpt lat="49.138170" lon="3.141040">
						<ele>125</ele>
						<time>2024-11-03T20:57:44Z</time>
					</trkpt>
					<trkpt lat="49.139440" lon="3.140700">
						<ele>116</ele>
						<time>2024-11-03T20:58:07Z</time>
					</trkpt>
					<trkpt lat="49.139590" lon="3.140510">
						<ele>115</ele>
						<time>2024-11-03T20:58:10Z</time>
					</trkpt>
					<trkpt lat="49.139740" lon="3.140020">
						<ele>117</ele>
						<time>2024-11-03T20:58:16Z</time>
					</trkpt>
					<trkpt lat="49.139820" lon="3.139940">
						<ele>117</ele>
						<time>2024-11-03T20:58:18Z</time>
					</trkpt>
					<trkpt lat="49.139930" lon="3.139910">
						<ele>116</ele>
						<time>2024-11-03T20:58:20Z</time>
					</trkpt>
					<trkpt lat="49.140310" lon="3.140090">
						<ele>110</ele>
						<time>2024-11-03T20:58:27Z</time>
					</trkpt>
					<trkpt lat="49.140500" lon="3.139990">
						<ele>108</ele>
						<time>2024-11-03T20:58:31Z</time>
					</trkpt>
					<trkpt lat="49.141320" lon="3.139130">
						<ele>101</ele>
						<time>2024-11-03T20:58:48Z</time>
					</trkpt>
					<trkpt lat="49.141410" lon="3.138770">
						<ele>99</ele>
						<time>2024-11-03T20:58:53Z</time>
					</trkpt>
					<trkpt lat="49.141400" lon="3.138350">
						<ele>99</ele>
						<time>2024-11-03T20:58:58Z</time>
					</trkpt>
					<trkpt lat="49.141100" lon="3.137700">
						<ele>102</ele>
						<time>2024-11-03T20:59:07Z</time>
					</trkpt>
					<trkpt lat="49.141100" lon="3.137040">
						<ele>99</ele>
						<time>2024-11-03T20:59:15Z</time>
					</trkpt>
					<trkpt lat="49.141160" lon="3.136420">
						<ele>94</ele>
						<time>2024-11-03T20:59:22Z</time>
					</trkpt>
					<trkpt lat="49.141280" lon="3.136260">
						<ele>91</ele>
						<time>2024-11-03T20:59:25Z</time>
					</trkpt>
					<trkpt lat="49.141370" lon="3.136180">
						<ele>89</ele>
						<time>2024-11-03T20:59:27Z</time>
					</trkpt>
					<trkpt lat="49.141470" lon="3.136160">
						<ele>88</ele>
						<time>2024-11-03T20:59:29Z</time>
					</trkpt>
					<trkpt lat="49.141600" lon="3.136180">
						<ele>86</ele>
						<time>2024-11-03T20:59:31Z</time>
					</trkpt>
					<trkpt lat="49.141720" lon="3.136250">
						<ele>85</ele>
						<time>2024-11-03T20:59:33Z</time>
					</trkpt>
					<trkpt lat="49.142360" lon="3.136930">
						<ele>82</ele>
						<time>2024-11-03T20:59:47Z</time>
					</trkpt>
					<trkpt lat="49.142610" lon="3.137260">
						<ele>81</ele>
						<time>2024-11-03T20:59:53Z</time>
					</trkpt>
					<trkpt lat="49.142910" lon="3.137900">
						<ele>79</ele>
						<time>2024-11-03T21:00:02Z</time>
					</trkpt>
					<trkpt lat="49.143010" lon="3.138040">
						<ele>79</ele>
						<time>2024-11-03T21:00:04Z</time>
					</trkpt>
					<trkpt lat="49.143080" lon="3.138110">
						<ele>78</ele>
						<time>2024-11-03T21:00:06Z</time>
					</trkpt>
					<trkpt lat="49.143140" lon="3.138150">
						<ele>78</ele>
						<time>2024-11-03T21:00:07Z</time>
					</trkpt>
					<trkpt lat="49.143570" lon="3.138480">
						<ele>78</ele>
						<time>2024-11-03T21:00:16Z</time>
					</trkpt>
					<trkpt lat="49.143750" lon="3.138580">
						<ele>79</ele>
						<time>2024-11-03T21:00:19Z</time>
					</trkpt>
					<trkpt lat="49.144190" lon="3.138870">
						<ele>81</ele>
						<time>2024-11-03T21:00:28Z</time>
					</trkpt>
					<trkpt lat="49.144560" lon="3.138980">
						<ele>83</ele>
						<time>2024-11-03T21:00:34Z</time>
					</trkpt>
					<trkpt lat="49.144520" lon="3.139550">
						<ele>84</ele>
						<time>2024-11-03T21:00:41Z</time>
					</trkpt>
					<trkpt lat="49.144600" lon="3.139530">
						<ele>84</ele>
						<time>2024-11-03T21:00:42Z</time>
					</trkpt>
					<trkpt lat="49.145330" lon="3.138940">
						<ele>89</ele>
						<time>2024-11-03T21:00:57Z</time>
					</trkpt>
					<trkpt lat="49.145430" lon="3.138900">
						<ele>90</ele>
						<time>2024-11-03T21:00:59Z</time>
					</trkpt>
					<trkpt lat="49.145550" lon="3.138900">
						<ele>91</ele>
						<time>2024-11-03T21:01:01Z</time>
					</trkpt>
					<trkpt lat="49.145750" lon="3.138970">
						<ele>93</ele>
						<time>2024-11-03T21:01:05Z</time>
					</trkpt>
					<trkpt lat="49.145820" lon="3.139040">
						<ele>94</ele>
						<time>2024-11-03T21:01:06Z</time>
					</trkpt>
					<trkpt lat="49.145960" lon="3.139220">
						<ele>97</ele>
						<time>2024-11-03T21:01:09Z</time>
					</trkpt>
					<trkpt lat="49.146030" lon="3.139390">
						<ele>98</ele>
						<time>2024-11-03T21:01:12Z</time>
					</trkpt>
					<trkpt lat="49.146420" lon="3.140690">
						<ele>107</ele>
						<time>2024-11-03T21:01:28Z</time>
					</trkpt>
					<trkpt lat="49.146460" lon="3.140940">
						<ele>108</ele>
						<time>2024-11-03T21:01:31Z</time>
					</trkpt>
					<trkpt lat="49.146500" lon="3.141860">
						<ele>109</ele>
						<time>2024-11-03T21:01:42Z</time>
					</trkpt>
					<trkpt lat="49.146600" lon="3.142370">
						<ele>109</ele>
						<time>2024-11-03T21:01:48Z</time>
					</trkpt>
					<trkpt lat="49.146660" lon="3.142510">
						<ele>110</ele>
						<time>2024-11-03T21:01:50Z</time>
					</trkpt>
					<trkpt lat="49.146750" lon="3.142650">
						<ele>110</ele>
						<time>2024-11-03T21:01:53Z</time>
					</trkpt>
					<trkpt lat="49.146920" lon="3.142830">
						<ele>110</ele>
						<time>2024-11-03T21:01:56Z</time>
					</trkpt>
					<trkpt lat="49.147150" lon="3.142940">
						<ele>113</ele>
						<time>2024-11-03T21:02:01Z</time>
					</trkpt>
					<trkpt lat="49.147220" lon="3.142940">
						<ele>114</ele>
						<time>2024-11-03T21:02:02Z</time>
					</trkpt>
					<trkpt lat="49.147280" lon="3.142940">
						<ele>114</ele>
						<time>2024-11-03T21:02:03Z</time>
					</trkpt>
					<trkpt lat="49.147460" lon="3.142880">
						<ele>117</ele>
						<time>2024-11-03T21:02:06Z</time>
					</trkpt>
					<trkpt lat="49.147700" lon="3.142670">
						<ele>120</ele>
						<time>2024-11-03T21:02:11Z</time>
					</trkpt>
					<trkpt lat="49.148030" lon="3.141860">
						<ele>124</ele>
						<time>2024-11-03T21:02:22Z</time>
					</trkpt>
					<trkpt lat="49.148450" lon="3.141230">
						<ele>129</ele>
						<time>2024-11-03T21:02:33Z</time>
					</trkpt>
					<trkpt lat="49.149560" lon="3.140080">
						<ele>134</ele>
						<time>2024-11-03T21:02:57Z</time>
					</trkpt>
					<trkpt lat="49.150290" lon="3.139520">
						<ele>135</ele>
						<time>2024-11-03T21:03:11Z</time>
					</trkpt>
					<trkpt lat="49.150840" lon="3.139120">
						<ele>133</ele>
						<time>2024-11-03T21:03:22Z</time>
					</trkpt>
					<trkpt lat="49.151660" lon="3.138520">
						<ele>134</ele>
						<time>2024-11-03T21:03:38Z</time>
					</trkpt>
					<trkpt lat="49.152530" lon="3.137840">
						<ele>132</ele>
						<time>2024-11-03T21:03:55Z</time>
					</trkpt>
					<trkpt lat="49.152800" lon="3.137680">
						<ele>132</ele>
						<time>2024-11-03T21:04:01Z</time>
					</trkpt>
					<trkpt lat="49.155110" lon="3.136700">
						<ele>134</ele>
						<time>2024-11-03T21:04:43Z</time>
					</trkpt>
					<trkpt lat="49.155210" lon="3.136630">
						<ele>134</ele>
						<time>2024-11-03T21:04:45Z</time>
					</trkpt>
					<trkpt lat="49.157060" lon="3.135960">
						<ele>136</ele>
						<time>2024-11-03T21:05:19Z</time>
					</trkpt>
					<trkpt lat="49.157550" lon="3.135810">
						<ele>136</ele>
						<time>2024-11-03T21:05:28Z</time>
					</trkpt>
					<trkpt lat="49.157990" lon="3.135730">
						<ele>137</ele>
						<time>2024-11-03T21:05:36Z</time>
					</trkpt>
					<trkpt lat="49.158480" lon="3.135670">
						<ele>138</ele>
						<time>2024-11-03T21:05:45Z</time>
					</trkpt>
					<trkpt lat="49.160560" lon="3.135630">
						<ele>139</ele>
						<time>2024-11-03T21:06:22Z</time>
					</trkpt>
					<trkpt lat="49.160860" lon="3.135600">
						<ele>139</ele>
						<time>2024-11-03T21:06:27Z</time>
					</trkpt>
					<trkpt lat="49.161190" lon="3.135530">
						<ele>140</ele>
						<time>2024-11-03T21:06:33Z</time>
					</trkpt>
					<trkpt lat="49.161810" lon="3.135270">
						<ele>141</ele>
						<time>2024-11-03T21:06:44Z</time>
					</trkpt>
					<trkpt lat="49.162020" lon="3.135200">
						<ele>141</ele>
						<time>2024-11-03T21:06:48Z</time>
					</trkpt>
					<trkpt lat="49.162120" lon="3.135170">
						<ele>141</ele>
						<time>2024-11-03T21:06:50Z</time>
					</trkpt>
					<trkpt lat="49.162300" lon="3.135160">
						<ele>142</ele>
						<time>2024-11-03T21:06:53Z</time>
					</trkpt>
					<trkpt lat="49.164110" lon="3.135210">
						<ele>140</ele>
						<time>2024-11-03T21:07:25Z</time>
					</trkpt>
					<trkpt lat="49.165320" lon="3.135030">
						<ele>139</ele>
						<time>2024-11-03T21:07:47Z</time>
					</trkpt>
					<trkpt lat="49.165890" lon="3.134930">
						<ele>138</ele>
						<time>2024-11-03T21:07:57Z</time>
					</trkpt>
					<trkpt lat="49.166350" lon="3.134780">
						<ele>139</ele>
						<time>2024-11-03T21:08:06Z</time>
					</trkpt>
					<trkpt lat="49.168110" lon="3.134090">
						<ele>140</ele>
						<time>2024-11-03T21:08:38Z</time>
					</trkpt>
					<trkpt lat="49.168380" lon="3.133900">
						<ele>140</ele>
						<time>2024-11-03T21:08:43Z</time>
					</trkpt>
					<trkpt lat="49.168940" lon="3.133290">
						<ele>139</ele>
						<time>2024-11-03T21:08:55Z</time>
					</trkpt>
					<trkpt lat="49.169510" lon="3.132880">
						<ele>138</ele>
						<time>2024-11-03T21:09:07Z</time>
					</trkpt>
					<trkpt lat="49.169630" lon="3.132770">
						<ele>137</ele>
						<time>2024-11-03T21:09:09Z</time>
					</trkpt>
					<trkpt lat="49.170220" lon="3.132010">
						<ele>135</ele>
						<time>2024-11-03T21:09:23Z</time>
					</trkpt>
					<trkpt lat="49.170670" lon="3.131600">
						<ele>132</ele>
						<time>2024-11-03T21:09:32Z</time>
					</trkpt>
					<trkpt lat="49.171470" lon="3.130890">
						<ele>125</ele>
						<time>2024-11-03T21:09:49Z</time>
					</trkpt>
					<trkpt lat="49.171880" lon="3.130570">
						<ele>120</ele>
						<time>2024-11-03T21:09:57Z</time>
					</trkpt>
					<trkpt lat="49.172260" lon="3.130070">
						<ele>115</ele>
						<time>2024-11-03T21:10:06Z</time>
					</trkpt>
					<trkpt lat="49.172800" lon="3.129500">
						<ele>109</ele>
						<time>2024-11-03T21:10:17Z</time>
					</trkpt>
					<trkpt lat="49.172950" lon="3.129380">
						<ele>108</ele>
						<time>2024-11-03T21:10:20Z</time>
					</trkpt>
					<trkpt lat="49.173140" lon="3.129200">
						<ele>107</ele>
						<time>2024-11-03T21:10:24Z</time>
					</trkpt>
					<trkpt lat="49.173460" lon="3.128770">
						<ele>104</ele>
						<time>2024-11-03T21:10:32Z</time>
					</trkpt>
					<trkpt lat="49.173630" lon="3.128440">
						<ele>101</ele>
						<time>2024-11-03T21:10:37Z</time>
					</trkpt>
					<trkpt lat="49.173760" lon="3.128270">
						<ele>100</ele>
						<time>2024-11-03T21:10:40Z</time>
					</trkpt>
					<trkpt lat="49.173860" lon="3.128210">
						<ele>99</ele>
						<time>2024-11-03T21:10:42Z</time>
					</trkpt>
					<trkpt lat="49.173710" lon="3.127500">
						<ele>96</ele>
						<time>2024-11-03T21:10:50Z</time>
					</trkpt>
					<trkpt lat="49.173770" lon="3.127150">
						<ele>97</ele>
						<time>2024-11-03T21:10:55Z</time>
					</trkpt>
					<trkpt lat="49.173850" lon="3.127070">
						<ele>96</ele>
						<time>2024-11-03T21:10:56Z</time>
					</trkpt>
					<trkpt lat="49.173910" lon="3.127010">
						<ele>96</ele>
						<time>2024-11-03T21:10:58Z</time>
					</trkpt>
					<trkpt lat="49.174010" lon="3.126810">
						<ele>96</ele>
						<time>2024-11-03T21:11:01Z</time>
					</trkpt>
					<trkpt lat="49.174120" lon="3.126700">
						<ele>95</ele>
						<time>2024-11-03T21:11:03Z</time>
					</trkpt>
					<trkpt lat="49.174190" lon="3.126680">
						<ele>95</ele>
						<time>2024-11-03T21:11:04Z</time>
					</trkpt>
					<trkpt lat="49.174300" lon="3.126690">
						<ele>93</ele>
						<time>2024-11-03T21:11:06Z</time>
					</trkpt>
					<trkpt lat="49.174310" lon="3.127180">
						<ele>91</ele>
						<time>2024-11-03T21:11:12Z</time>
					</trkpt>
					<trkpt lat="49.174340" lon="3.127260">
						<ele>90</ele>
						<time>2024-11-03T21:11:13Z</time>
					</trkpt>
					<trkpt lat="49.174360" lon="3.127330">
						<ele>89</ele>
						<time>2024-11-03T21:11:14Z</time>
					</trkpt>
					<trkpt lat="49.174450" lon="3.127370">
						<ele>87</ele>
						<time>2024-11-03T21:11:15Z</time>
					</trkpt>
					<trkpt lat="49.174560" lon="3.127420">
						<ele>85</ele>
						<time>2024-11-03T21:11:18Z</time>
					</trkpt>
					<trkpt lat="49.174820" lon="3.127580">
						<ele>81</ele>
						<time>2024-11-03T21:11:23Z</time>
					</trkpt>
					<trkpt lat="49.174940" lon="3.127710">
						<ele>79</ele>
						<time>2024-11-03T21:11:25Z</time>
					</trkpt>
					<trkpt lat="49.175100" lon="3.127850">
						<ele>77</ele>
						<time>2024-11-03T21:11:28Z</time>
					</trkpt>
					<trkpt lat="49.175200" lon="3.127850">
						<ele>76</ele>
						<time>2024-11-03T21:11:30Z</time>
					</trkpt>
					<trkpt lat="49.175210" lon="3.127300">
						<ele>76</ele>
						<time>2024-11-03T21:11:37Z</time>
					</trkpt>
					<trkpt lat="49.175250" lon="3.126800">
						<ele>77</ele>
						<time>2024-11-03T21:11:42Z</time>
					</trkpt>
					<trkpt lat="49.175320" lon="3.126340">
						<ele>77</ele>
						<time>2024-11-03T21:11:48Z</time>
					</trkpt>
					<trkpt lat="49.175490" lon="3.126260">
						<ele>75</ele>
						<time>2024-11-03T21:11:51Z</time>
					</trkpt>
					<trkpt lat="49.175740" lon="3.126110">
						<ele>71</ele>
						<time>2024-11-03T21:11:56Z</time>
					</trkpt>
					<trkpt lat="49.175900" lon="3.126020">
						<ele>70</ele>
						<time>2024-11-03T21:11:59Z</time>
					</trkpt>
					<trkpt lat="49.175970" lon="3.126000">
						<ele>70</ele>
						<time>2024-11-03T21:12:00Z</time>
					</trkpt>
					<trkpt lat="49.176040" lon="3.125980">
						<ele>70</ele>
						<time>2024-11-03T21:12:01Z</time>
					</trkpt>
					<trkpt lat="49.176200" lon="3.125930">
						<ele>69</ele>
						<time>2024-11-03T21:12:04Z</time>
					</trkpt>
					<trkpt lat="49.176270" lon="3.125920">
						<ele>69</ele>
						<time>2024-11-03T21:12:06Z</time>
					</trkpt>
					<trkpt lat="49.176620" lon="3.125850">
						<ele>68</ele>
						<time>2024-11-03T21:12:12Z</time>
					</trkpt>
					<trkpt lat="49.176760" lon="3.125810">
						<ele>68</ele>
						<time>2024-11-03T21:12:14Z</time>
					</trkpt>
					<trkpt lat="49.176910" lon="3.125730">
						<ele>67</ele>
						<time>2024-11-03T21:12:17Z</time>
					</trkpt>
					<trkpt lat="49.177350" lon="3.125530">
						<ele>66</ele>
						<time>2024-11-03T21:12:25Z</time>
					</trkpt>
					<trkpt lat="49.177410" lon="3.125500">
						<ele>66</ele>
						<time>2024-11-03T21:12:27Z</time>
					</trkpt>
					<trkpt lat="49.177500" lon="3.125470">
						<ele>66</ele>
						<time>2024-11-03T21:12:28Z</time>
					</trkpt>
					<trkpt lat="49.177730" lon="3.125360">
						<ele>66</ele>
						<time>2024-11-03T21:12:32Z</time>
					</trkpt>
					<trkpt lat="49.178340" lon="3.125080">
						<ele>66</ele>
						<time>2024-11-03T21:12:44Z</time>
					</trkpt>
					<trkpt lat="49.178400" lon="3.125050">
						<ele>66</ele>
						<time>2024-11-03T21:12:45Z</time>
					</trkpt>
					<trkpt lat="49.178670" lon="3.124930">
						<ele>67</ele>
						<time>2024-11-03T21:12:50Z</time>
					</trkpt>
					<trkpt lat="49.179120" lon="3.124740">
						<ele>68</ele>
						<time>2024-11-03T21:12:58Z</time>
					</trkpt>
					<trkpt lat="49.179630" lon="3.124500">
						<ele>68</ele>
						<time>2024-11-03T21:13:08Z</time>
					</trkpt>
					<trkpt lat="49.179800" lon="3.124450">
						<ele>68</ele>
						<time>2024-11-03T21:13:11Z</time>
					</trkpt>
					<trkpt lat="49.180190" lon="3.124350">
						<ele>70</ele>
						<time>2024-11-03T21:13:18Z</time>
					</trkpt>
					<trkpt lat="49.180560" lon="3.124340">
						<ele>73</ele>
						<time>2024-11-03T21:13:24Z</time>
					</trkpt>
					<trkpt lat="49.180880" lon="3.124340">
						<ele>75</ele>
						<time>2024-11-03T21:13:30Z</time>
					</trkpt>
					<trkpt lat="49.180930" lon="3.124330">
						<ele>76</ele>
						<time>2024-11-03T21:13:31Z</time>
					</trkpt>
					<trkpt lat="49.180960" lon="3.124310">
						<ele>76</ele>
						<time>2024-11-03T21:13:32Z</time>
					</trkpt>
					<trkpt lat="49.181020" lon="3.124270">
						<ele>76</ele>
						<time>2024-11-03T21:13:33Z</time>
					</trkpt>
					<trkpt lat="49.181110" lon="3.124190">
						<ele>77</ele>
						<time>2024-11-03T21:13:35Z</time>
					</trkpt>
					<trkpt lat="49.181210" lon="3.124020">
						<ele>78</ele>
						<time>2024-11-03T21:13:37Z</time>
					</trkpt>
					<trkpt lat="49.181270" lon="3.123850">
						<ele>79</ele>
						<time>2024-11-03T21:13:40Z</time>
					</trkpt>
					<trkpt lat="49.181300" lon="3.123740">
						<ele>79</ele>
						<time>2024-11-03T21:13:41Z</time>
					</trkpt>
					<trkpt lat="49.181310" lon="3.123170">
						<ele>80</ele>
						<time>2024-11-03T21:13:48Z</time>
					</trkpt>
					<trkpt lat="49.181300" lon="3.122270">
						<ele>80</ele>
						<time>2024-11-03T21:13:58Z</time>
					</trkpt>
					<trkpt lat="49.181260" lon="3.121200">
						<ele>78</ele>
						<time>2024-11-03T21:14:10Z</time>
					</trkpt>
					<trkpt lat="49.181280" lon="3.120850">
						<ele>78</ele>
						<time>2024-11-03T21:14:15Z</time>
					</trkpt>
					<trkpt lat="49.181320" lon="3.120470">
						<ele>78</ele>
						<time>2024-11-03T21:14:19Z</time>
					</trkpt>
					<trkpt lat="49.181160" lon="3.119280">
						<ele>76</ele>
						<time>2024-11-03T21:14:33Z</time>
					</trkpt>
					<trkpt lat="49.181130" lon="3.118770">
						<ele>75</ele>
						<time>2024-11-03T21:14:39Z</time>
					</trkpt>
					<trkpt lat="49.181110" lon="3.118080">
						<ele>75</ele>
						<time>2024-11-03T21:14:47Z</time>
					</trkpt>
					<trkpt lat="49.181120" lon="3.117670">
						<ele>75</ele>
						<time>2024-11-03T21:14:52Z</time>
					</trkpt>
					<trkpt lat="49.180990" lon="3.117330">
						<ele>74</ele>
						<time>2024-11-03T21:14:57Z</time>
					</trkpt>
					<trkpt lat="49.180140" lon="3.116180">
						<ele>75</ele>
						<time>2024-11-03T21:15:17Z</time>
					</trkpt>
					<trkpt lat="49.179990" lon="3.115880">
						<ele>76</ele>
						<time>2024-11-03T21:15:21Z</time>
					</trkpt>
					<trkpt lat="49.179760" lon="3.115420">
						<ele>76</ele>
						<time>2024-11-03T21:15:28Z</time>
					</trkpt>
					<trkpt lat="49.179680" lon="3.115230">
						<ele>76</ele>
						<time>2024-11-03T21:15:30Z</time>
					</trkpt>
					<trkpt lat="49.179300" lon="3.113920">
						<ele>79</ele>
						<time>2024-11-03T21:15:47Z</time>
					</trkpt>
					<trkpt lat="49.179200" lon="3.113300">
						<ele>81</ele>
						<time>2024-11-03T21:15:55Z</time>
					</trkpt>
					<trkpt lat="49.179190" lon="3.112980">
						<ele>82</ele>
						<time>2024-11-03T21:15:58Z</time>
					</trkpt>
					<trkpt lat="49.179220" lon="3.112640">
						<ele>85</ele>
						<time>2024-11-03T21:16:02Z</time>
					</trkpt>
					<trkpt lat="49.179270" lon="3.112290">
						<ele>87</ele>
						<time>2024-11-03T21:16:06Z</time>
					</trkpt>
					<trkpt lat="49.179860" lon="3.108930">
						<ele>103</ele>
						<time>2024-11-03T21:16:47Z</time>
					</trkpt>
					<trkpt lat="49.179920" lon="3.108720">
						<ele>104</ele>
						<time>2024-11-03T21:16:50Z</time>
					</trkpt>
					<trkpt lat="49.179980" lon="3.108570">
						<ele>105</ele>
						<time>2024-11-03T21:16:52Z</time>
					</trkpt>
					<trkpt lat="49.180300" lon="3.108120">
						<ele>108</ele>
						<time>2024-11-03T21:16:59Z</time>
					</trkpt>
					<trkpt lat="49.179670" lon="3.108030">
						<ele>103</ele>
						<time>2024-11-03T21:17:11Z</time>
					</trkpt>
					<trkpt lat="49.179280" lon="3.107920">
						<ele>100</ele>
						<time>2024-11-03T21:17:18Z</time>
					</trkpt>
					<trkpt lat="49.179080" lon="3.107790">
						<ele>99</ele>
						<time>2024-11-03T21:17:22Z</time>
					</trkpt>
					<trkpt lat="49.178200" lon="3.106950">
						<ele>94</ele>
						<time>2024-11-03T21:17:40Z</time>
					</trkpt>
					<trkpt lat="49.178130" lon="3.106850">
						<ele>92</ele>
						<time>2024-11-03T21:17:42Z</time>
					</trkpt>
					<trkpt lat="49.177960" lon="3.106630">
						<ele>90</ele>
						<time>2024-11-03T21:17:46Z</time>
					</trkpt>
					<trkpt lat="49.177810" lon="3.106500">
						<ele>90</ele>
						<time>2024-11-03T21:17:49Z</time>
					</trkpt>
					<trkpt lat="49.176460" lon="3.105750">
						<ele>91</ele>
						<time>2024-11-03T21:18:14Z</time>
					</trkpt>
					<trkpt lat="49.176120" lon="3.105680">
						<ele>92</ele>
						<time>2024-11-03T21:18:20Z</time>
					</trkpt>
					<trkpt lat="49.175540" lon="3.105850">
						<ele>92</ele>
						<time>2024-11-03T21:18:31Z</time>
					</trkpt>
					<trkpt lat="49.175280" lon="3.105900">
						<ele>93</ele>
						<time>2024-11-03T21:18:36Z</time>
					</trkpt>
					<trkpt lat="49.175030" lon="3.105880">
						<ele>95</ele>
						<time>2024-11-03T21:18:40Z</time>
					</trkpt>
					<trkpt lat="49.174790" lon="3.105780">
						<ele>95</ele>
						<time>2024-11-03T21:18:44Z</time>
					</trkpt>
					<trkpt lat="49.174370" lon="3.105470">
						<ele>95</ele>
						<time>2024-11-03T21:18:53Z</time>
					</trkpt>
					<trkpt lat="49.174170" lon="3.105300">
						<ele>95</ele>
						<time>2024-11-03T21:18:57Z</time>
					</trkpt>
					<trkpt lat="49.173070" lon="3.104050">
						<ele>92</ele>
						<time>2024-11-03T21:19:21Z</time>
					</trkpt>
					<trkpt lat="49.172740" lon="3.103640">
						<ele>92</ele>
						<time>2024-11-03T21:19:29Z</time>
					</trkpt>
					<trkpt lat="49.172100" lon="3.104590">
						<ele>90</ele>
						<time>2024-11-03T21:19:45Z</time>
					</trkpt>
					<trkpt lat="49.171920" lon="3.104850">
						<ele>90</ele>
						<time>2024-11-03T21:19:49Z</time>
					</trkpt>
					<trkpt lat="49.171600" lon="3.105310">
						<ele>88</ele>
						<time>2024-11-03T21:19:57Z</time>
					</trkpt>
					<trkpt lat="49.170980" lon="3.104410">
						<ele>86</ele>
						<time>2024-11-03T21:20:12Z</time>
					</trkpt>
					<trkpt lat="49.170870" lon="3.104210">
						<ele>86</ele>
						<time>2024-11-03T21:20:15Z</time>
					</trkpt>
					<trkpt lat="49.170680" lon="3.103920">
						<ele>85</ele>
						<time>2024-11-03T21:20:20Z</time>
					</trkpt>
					<trkpt lat="49.170510" lon="3.103720">
						<ele>84</ele>
						<time>2024-11-03T21:20:24Z</time>
					</trkpt>
					<trkpt lat="49.170470" lon="3.103680">
						<ele>84</ele>
						<time>2024-11-03T21:20:25Z</time>
					</trkpt>
					<trkpt lat="49.170090" lon="3.104170">
						<ele>82</ele>
						<time>2024-11-03T21:20:33Z</time>
					</trkpt>
					<trkpt lat="49.169890" lon="3.104370">
						<ele>80</ele>
						<time>2024-11-03T21:20:38Z</time>
					</trkpt>
					<trkpt lat="49.169720" lon="3.104490">
						<ele>78</ele>
						<time>2024-11-03T21:20:41Z</time>
					</trkpt>
					<trkpt lat="49.169630" lon="3.104570">
						<ele>77</ele>
						<time>2024-11-03T21:20:43Z</time>
					</trkpt>
					<trkpt lat="49.169590" lon="3.104600">
						<ele>77</ele>
						<time>2024-11-03T21:20:44Z</time>
					</trkpt>
					<trkpt lat="49.169410" lon="3.104750">
						<ele>75</ele>
						<time>2024-11-03T21:20:47Z</time>
					</trkpt>
					<trkpt lat="49.169280" lon="3.104770">
						<ele>74</ele>
						<time>2024-11-03T21:20:50Z</time>
					</trkpt>
					<trkpt lat="49.168900" lon="3.104730">
						<ele>71</ele>
						<time>2024-11-03T21:20:56Z</time>
					</trkpt>
					<trkpt lat="49.168680" lon="3.104440">
						<ele>70</ele>
						<time>2024-11-03T21:21:02Z</time>
					</trkpt>
					<trkpt lat="49.168300" lon="3.103940">
						<ele>69</ele>
						<time>2024-11-03T21:21:10Z</time>
					</trkpt>
					<trkpt lat="49.167770" lon="3.103410">
						<ele>68</ele>
						<time>2024-11-03T21:21:22Z</time>
					</trkpt>
					<trkpt lat="49.167750" lon="3.103390">
						<ele>68</ele>
						<time>2024-11-03T21:21:22Z</time>
					</trkpt>
					<trkpt lat="49.167590" lon="3.103240">
						<ele>68</ele>
						<time>2024-11-03T21:21:25Z</time>
					</trkpt>
					<trkpt lat="49.167110" lon="3.102760">
						<ele>68</ele>
						<time>2024-11-03T21:21:36Z</time>
					</trkpt>
					<trkpt lat="49.167000" lon="3.102590">
						<ele>67</ele>
						<time>2024-11-03T21:21:38Z</time>
					</trkpt>
					<trkpt lat="49.166720" lon="3.102160">
						<ele>67</ele>
						<time>2024-11-03T21:21:46Z</time>
					</trkpt>
					<trkpt lat="49.166630" lon="3.101930">
						<ele>68</ele>
						<time>2024-11-03T21:21:49Z</time>
					</trkpt>
					<trkpt lat="49.166250" lon="3.101020">
						<ele>69</ele>
						<time>2024-11-03T21:22:01Z</time>
					</trkpt>
					<trkpt lat="49.166160" lon="3.100730">
						<ele>69</ele>
						<time>2024-11-03T21:22:05Z</time>
					</trkpt>
					<trkpt lat="49.166090" lon="3.100480">
						<ele>69</ele>
						<time>2024-11-03T21:22:08Z</time>
					</trkpt>
					<trkpt lat="49.166020" lon="3.100120">
						<ele>69</ele>
						<time>2024-11-03T21:22:12Z</time>
					</trkpt>
					<trkpt lat="49.165830" lon="3.098200">
						<ele>72</ele>
						<time>2024-11-03T21:22:35Z</time>
					</trkpt>
					<trkpt lat="49.165840" lon="3.098090">
						<ele>72</ele>
						<time>2024-11-03T21:22:36Z</time>
					</trkpt>
					<trkpt lat="49.165860" lon="3.097920">
						<ele>72</ele>
						<time>2024-11-03T21:22:38Z</time>
					</trkpt>
					<trkpt lat="49.166010" lon="3.097530">
						<ele>73</ele>
						<time>2024-11-03T21:22:44Z</time>
					</trkpt>
					<trkpt lat="49.166030" lon="3.097420">
						<ele>74</ele>
						<time>2024-11-03T21:22:45Z</time>
					</trkpt>
					<trkpt lat="49.166020" lon="3.097290">
						<ele>74</ele>
						<time>2024-11-03T21:22:46Z</time>
					</trkpt>
					<trkpt lat="49.165950" lon="3.097080">
						<ele>74</ele>
						<time>2024-11-03T21:22:49Z</time>
					</trkpt>
					<trkpt lat="49.165710" lon="3.096740">
						<ele>72</ele>
						<time>2024-11-03T21:22:55Z</time>
					</trkpt>
					<trkpt lat="49.165160" lon="3.095910">
						<ele>73</ele>
						<time>2024-11-03T21:23:09Z</time>
					</trkpt>
					<trkpt lat="49.164990" lon="3.095610">
						<ele>74</ele>
						<time>2024-11-03T21:23:13Z</time>
					</trkpt>
					<trkpt lat="49.164860" lon="3.095310">
						<ele>75</ele>
						<time>2024-11-03T21:23:18Z</time>
					</trkpt>
					<trkpt lat="49.164330" lon="3.093860">
						<ele>80</ele>
						<time>2024-11-03T21:23:37Z</time>
					</trkpt>
					<trkpt lat="49.164170" lon="3.093490">
						<ele>81</ele>
						<time>2024-11-03T21:23:42Z</time>
					</trkpt>
					<trkpt lat="49.164100" lon="3.093360">
						<ele>81</ele>
						<time>2024-11-03T21:23:44Z</time>
					</trkpt>
					<trkpt lat="49.163940" lon="3.093130">
						<ele>82</ele>
						<time>2024-11-03T21:23:48Z</time>
					</trkpt>
					<trkpt lat="49.163690" lon="3.092840">
						<ele>83</ele>
						<time>2024-11-03T21:23:54Z</time>
					</trkpt>
					<trkpt lat="49.162690" lon="3.091820">
						<ele>90</ele>
						<time>2024-11-03T21:24:15Z</time>
					</trkpt>
					<trkpt lat="49.162370" lon="3.091560">
						<ele>93</ele>
						<time>2024-11-03T21:24:21Z</time>
					</trkpt>
					<trkpt lat="49.162190" lon="3.091470">
						<ele>95</ele>
						<time>2024-11-03T21:24:25Z</time>
					</trkpt>
					<trkpt lat="49.161950" lon="3.091400">
						<ele>96</ele>
						<time>2024-11-03T21:24:29Z</time>
					</trkpt>
					<trkpt lat="49.161730" lon="3.091360">
						<ele>98</ele>
						<time>2024-11-03T21:24:33Z</time>
					</trkpt>
					<trkpt lat="49.160290" lon="3.091250">
						<ele>110</ele>
						<time>2024-11-03T21:24:59Z</time>
					</trkpt>
					<trkpt lat="49.159400" lon="3.090910">
						<ele>111</ele>
						<time>2024-11-03T21:25:15Z</time>
					</trkpt>
					<trkpt lat="49.158430" lon="3.090480">
						<ele>104</ele>
						<time>2024-11-03T21:25:33Z</time>
					</trkpt>
					<trkpt lat="49.158270" lon="3.090520">
						<ele>103</ele>
						<time>2024-11-03T21:25:36Z</time>
					</trkpt>
					<trkpt lat="49.157950" lon="3.090720">
						<ele>103</ele>
						<time>2024-11-03T21:25:42Z</time>
					</trkpt>
					<trkpt lat="49.157770" lon="3.090770">
						<ele>102</ele>
						<time>2024-11-03T21:25:45Z</time>
					</trkpt>
					<trkpt lat="49.157040" lon="3.090800">
						<ele>98</ele>
						<time>2024-11-03T21:25:58Z</time>
					</trkpt>
					<trkpt lat="49.156910" lon="3.090760">
						<ele>96</ele>
						<time>2024-11-03T21:26:01Z</time>
					</trkpt>
					<trkpt lat="49.156870" lon="3.090710">
						<ele>95</ele>
						<time>2024-11-03T21:26:02Z</time>
					</trkpt>
					<trkpt lat="49.156840" lon="3.090610">
						<ele>93</ele>
						<time>2024-11-03T21:26:03Z</time>
					</trkpt>
					<trkpt lat="49.156860" lon="3.090440">
						<ele>90</ele>
						<time>2024-11-03T21:26:05Z</time>
					</trkpt>
					<trkpt lat="49.157080" lon="3.090130">
						<ele>88</ele>
						<time>2024-11-03T21:26:10Z</time>
					</trkpt>
					<trkpt lat="49.157150" lon="3.089930">
						<ele>85</ele>
						<time>2024-11-03T21:26:13Z</time>
					</trkpt>
					<trkpt lat="49.157240" lon="3.089650">
						<ele>83</ele>
						<time>2024-11-03T21:26:16Z</time>
					</trkpt>
					<trkpt lat="49.157310" lon="3.089450">
						<ele>81</ele>
						<time>2024-11-03T21:26:19Z</time>
					</trkpt>
					<trkpt lat="49.157350" lon="3.089390">
						<ele>81</ele>
						<time>2024-11-03T21:26:20Z</time>
					</trkpt>
					<trkpt lat="49.157440" lon="3.089310">
						<ele>80</ele>
						<time>2024-11-03T21:26:22Z</time>
					</trkpt>
					<trkpt lat="49.157700" lon="3.089130">
						<ele>81</ele>
						<time>2024-11-03T21:26:27Z</time>
					</trkpt>
					<trkpt lat="49.157780" lon="3.089020">
						<ele>81</ele>
						<time>2024-11-03T21:26:29Z</time>
					</trkpt>
					<trkpt lat="49.157880" lon="3.088710">
						<ele>80</ele>
						<time>2024-11-03T21:26:33Z</time>
					</trkpt>
					<trkpt lat="49.158030" lon="3.088230">
						<ele>78</ele>
						<time>2024-11-03T21:26:39Z</time>
					</trkpt>
					<trkpt lat="49.158240" lon="3.087510">
						<ele>75</ele>
						<time>2024-11-03T21:26:48Z</time>
					</trkpt>
					<trkpt lat="49.158460" lon="3.086950">
						<ele>74</ele>
						<time>2024-11-03T21:26:56Z</time>
					</trkpt>
					<trkpt lat="49.158580" lon="3.086760">
						<ele>74</ele>
						<time>2024-11-03T21:26:59Z</time>
					</trkpt>
					<trkpt lat="49.159490" lon="3.085630">
						<ele>73</ele>
						<time>2024-11-03T21:27:20Z</time>
					</trkpt>
					<trkpt lat="49.159540" lon="3.085500">
						<ele>73</ele>
						<time>2024-11-03T21:27:22Z</time>
					</trkpt>
					<trkpt lat="49.159530" lon="3.085330">
						<ele>72</ele>
						<time>2024-11-03T21:27:24Z</time>
					</trkpt>
					<trkpt lat="49.159400" lon="3.084860">
						<ele>70</ele>
						<time>2024-11-03T21:27:29Z</time>
					</trkpt>
					<trkpt lat="49.159320" lon="3.084540">
						<ele>70</ele>
						<time>2024-11-03T21:27:33Z</time>
					</trkpt>
					<trkpt lat="49.159090" lon="3.083690">
						<ele>73</ele>
						<time>2024-11-03T21:27:44Z</time>
					</trkpt>
					<trkpt lat="49.158770" lon="3.083460">
						<ele>76</ele>
						<time>2024-11-03T21:27:50Z</time>
					</trkpt>
					<trkpt lat="49.158650" lon="3.083450">
						<ele>77</ele>
						<time>2024-11-03T21:27:53Z</time>
					</trkpt>
					<trkpt lat="49.158460" lon="3.083440">
						<ele>78</ele>
						<time>2024-11-03T21:27:56Z</time>
					</trkpt>
					<trkpt lat="49.157700" lon="3.083580">
						<ele>78</ele>
						<time>2024-11-03T21:28:10Z</time>
					</trkpt>
					<trkpt lat="49.157560" lon="3.083560">
						<ele>78</ele>
						<time>2024-11-03T21:28:12Z</time>
					</trkpt>
					<trkpt lat="49.157400" lon="3.083400">
						<ele>79</ele>
						<time>2024-11-03T21:28:16Z</time>
					</trkpt>
					<trkpt lat="49.157280" lon="3.083210">
						<ele>80</ele>
						<time>2024-11-03T21:28:19Z</time>
					</trkpt>
					<trkpt lat="49.157220" lon="3.082960">
						<ele>81</ele>
						<time>2024-11-03T21:28:22Z</time>
					</trkpt>
					<trkpt lat="49.157220" lon="3.082760">
						<ele>82</ele>
						<time>2024-11-03T21:28:24Z</time>
					</trkpt>
					<trkpt lat="49.157310" lon="3.082570">
						<ele>83</ele>
						<time>2024-11-03T21:28:27Z</time>
					</trkpt>
					<trkpt lat="49.157510" lon="3.082390">
						<ele>86</ele>
						<time>2024-11-03T21:28:31Z</time>
					</trkpt>
					<trkpt lat="49.157960" lon="3.082280">
						<ele>87</ele>
						<time>2024-11-03T21:28:39Z</time>
					</trkpt>
					<trkpt lat="49.158250" lon="3.082160">
						<ele>88</ele>
						<time>2024-11-03T21:28:44Z</time>
					</trkpt>
					<trkpt lat="49.158570" lon="3.081850">
						<ele>89</ele>
						<time>2024-11-03T21:28:51Z</time>
					</trkpt>
					<trkpt lat="49.158750" lon="3.081550">
						<ele>91</ele>
						<time>2024-11-03T21:28:56Z</time>
					</trkpt>
					<trkpt lat="49.158900" lon="3.081140">
						<ele>92</ele>
						<time>2024-11-03T21:29:01Z</time>
					</trkpt>
					<trkpt lat="49.158970" lon="3.080730">
						<ele>94</ele>
						<time>2024-11-03T21:29:06Z</time>
					</trkpt>
					<trkpt lat="49.158980" lon="3.080420">
						<ele>95</ele>
						<time>2024-11-03T21:29:10Z</time>
					</trkpt>
					<trkpt lat="49.158950" lon="3.079970">
						<ele>96</ele>
						<time>2024-11-03T21:29:15Z</time>
					</trkpt>
					<trkpt lat="49.158600" lon="3.078090">
						<ele>103</ele>
						<time>2024-11-03T21:29:38Z</time>
					</trkpt>
					<trkpt lat="49.158570" lon="3.077780">
						<ele>104</ele>
						<time>2024-11-03T21:29:41Z</time>
					</trkpt>
					<trkpt lat="49.158610" lon="3.077380">
						<ele>105</ele>
						<time>2024-11-03T21:29:46Z</time>
					</trkpt>
					<trkpt lat="49.158800" lon="3.076640">
						<ele>109</ele>
						<time>2024-11-03T21:29:55Z</time>
					</trkpt>
					<trkpt lat="49.158950" lon="3.076240">
						<ele>111</ele>
						<time>2024-11-03T21:30:01Z</time>
					</trkpt>
					<trkpt lat="49.159210" lon="3.075730">
						<ele>113</ele>
						<time>2024-11-03T21:30:08Z</time>
					</trkpt>
					<trkpt lat="49.159310" lon="3.075400">
						<ele>113</ele>
						<time>2024-11-03T21:30:13Z</time>
					</trkpt>
					<trkpt lat="49.159360" lon="3.075080">
						<ele>114</ele>
						<time>2024-11-03T21:30:16Z</time>
					</trkpt>
					<trkpt lat="49.159340" lon="3.074780">
						<ele>114</ele>
						<time>2024-11-03T21:30:20Z</time>
					</trkpt>
					<trkpt lat="49.159060" lon="3.073530">
						<ele>117</ele>
						<time>2024-11-03T21:30:35Z</time>
					</trkpt>
					<trkpt lat="49.158950" lon="3.073170">
						<ele>118</ele>
						<time>2024-11-03T21:30:40Z</time>
					</trkpt>
					<trkpt lat="49.158460" lon="3.071950">
						<ele>123</ele>
						<time>2024-11-03T21:30:57Z</time>
					</trkpt>
					<trkpt lat="49.158070" lon="3.071050">
						<ele>127</ele>
						<time>2024-11-03T21:31:09Z</time>
					</trkpt>
					<trkpt lat="49.157930" lon="3.070430">
						<ele>128</ele>
						<time>2024-11-03T21:31:17Z</time>
					</trkpt>
					<trkpt lat="49.157900" lon="3.070110">
						<ele>128</ele>
						<time>2024-11-03T21:31:20Z</time>
					</trkpt>
					<trkpt lat="49.157900" lon="3.069670">
						<ele>129</ele>
						<time>2024-11-03T21:31:26Z</time>
					</trkpt>
					<trkpt lat="49.158020" lon="3.067070">
						<ele>130</ele>
						<time>2024-11-03T21:31:56Z</time>
					</trkpt>
					<trkpt lat="49.158000" lon="3.066500">
						<ele>131</ele>
						<time>2024-11-03T21:32:03Z</time>
					</trkpt>
					<trkpt lat="49.157670" lon="3.064750">
						<ele>130</ele>
						<time>2024-11-03T21:32:24Z</time>
					</trkpt>
					<trkpt lat="49.157620" lon="3.064520">
						<ele>130</ele>
						<time>2024-11-03T21:32:27Z</time>
					</trkpt>
					<trkpt lat="49.157550" lon="3.064150">
						<ele>130</ele>
						<time>2024-11-03T21:32:31Z</time>
					</trkpt>
					<trkpt lat="49.157420" lon="3.063750">
						<ele>130</ele>
						<time>2024-11-03T21:32:36Z</time>
					</trkpt>
					<trkpt lat="49.156920" lon="3.062560">
						<ele>132</ele>
						<time>2024-11-03T21:32:53Z</time>
					</trkpt>
					<trkpt lat="49.156890" lon="3.062390">
						<ele>132</ele>
						<time>2024-11-03T21:32:55Z</time>
					</trkpt>
					<trkpt lat="49.156620" lon="3.061390">
						<ele>132</ele>
						<time>2024-11-03T21:33:07Z</time>
					</trkpt>
					<trkpt lat="49.156520" lon="3.060760">
						<ele>132</ele>
						<time>2024-11-03T21:33:15Z</time>
					</trkpt>
					<trkpt lat="49.156430" lon="3.059790">
						<ele>131</ele>
						<time>2024-11-03T21:33:26Z</time>
					</trkpt>
					<trkpt lat="49.156340" lon="3.058960">
						<ele>131</ele>
						<time>2024-11-03T21:33:36Z</time>
					</trkpt>
					<trkpt lat="49.156230" lon="3.058660">
						<ele>131</ele>
						<time>2024-11-03T21:33:40Z</time>
					</trkpt>
					<trkpt lat="49.156050" lon="3.058290">
						<ele>131</ele>
						<time>2024-11-03T21:33:45Z</time>
					</trkpt>
					<trkpt lat="49.155940" lon="3.058010">
						<ele>131</ele>
						<time>2024-11-03T21:33:49Z</time>
					</trkpt>
					<trkpt lat="49.155860" lon="3.057640">
						<ele>131</ele>
						<time>2024-11-03T21:33:54Z</time>
					</trkpt>
					<trkpt lat="49.155840" lon="3.057420">
						<ele>131</ele>
						<time>2024-11-03T21:33:56Z</time>
					</trkpt>
					<trkpt lat="49.155870" lon="3.056700">
						<ele>130</ele>
						<time>2024-11-03T21:34:05Z</time>
					</trkpt>
					<trkpt lat="49.156640" lon="3.042940">
						<ele>126</ele>
						<time>2024-11-03T21:36:45Z</time>
					</trkpt>
					<trkpt lat="49.157190" lon="3.032520">
						<ele>132</ele>
						<time>2024-11-03T21:38:47Z</time>
					</trkpt>
					<trkpt lat="49.157260" lon="3.031510">
						<ele>133</ele>
						<time>2024-11-03T21:38:59Z</time>
					</trkpt>
					<trkpt lat="49.157290" lon="3.030700">
						<ele>133</ele>
						<time>2024-11-03T21:39:08Z</time>
					</trkpt>
					<trkpt lat="49.157270" lon="3.030350">
						<ele>134</ele>
						<time>2024-11-03T21:39:12Z</time>
					</trkpt>
					<trkpt lat="49.157110" lon="3.029620">
						<ele>135</ele>
						<time>2024-11-03T21:39:21Z</time>
					</trkpt>
					<trkpt lat="49.156840" lon="3.028620">
						<ele>137</ele>
						<time>2024-11-03T21:39:34Z</time>
					</trkpt>
					<trkpt lat="49.156820" lon="3.028160">
						<ele>138</ele>
						<time>2024-11-03T21:39:39Z</time>
					</trkpt>
					<trkpt lat="49.156990" lon="3.027600">
						<ele>138</ele>
						<time>2024-11-03T21:39:47Z</time>
					</trkpt>
					<trkpt lat="49.157160" lon="3.027130">
						<ele>139</ele>
						<time>2024-11-03T21:39:53Z</time>
					</trkpt>
					<trkpt lat="49.157450" lon="3.026420">
						<ele>139</ele>
						<time>2024-11-03T21:40:03Z</time>
					</trkpt>
					<trkpt lat="49.157500" lon="3.026310">
						<ele>139</ele>
						<time>2024-11-03T21:40:04Z</time>
					</trkpt>
					<trkpt lat="49.156610" lon="3.025810">
						<ele>140</ele>
						<time>2024-11-03T21:40:21Z</time>
					</trkpt>
					<trkpt lat="49.156450" lon="3.025690">
						<ele>140</ele>
						<time>2024-11-03T21:40:24Z</time>
					</trkpt>
					<trkpt lat="49.156290" lon="3.025530">
						<ele>140</ele>
						<time>2024-11-03T21:40:28Z</time>
					</trkpt>
					<trkpt lat="49.156050" lon="3.025330">
						<ele>140</ele>
						<time>2024-11-03T21:40:32Z</time>
					</trkpt>
					<trkpt lat="49.153910" lon="3.024030">
						<ele>137</ele>
						<time>2024-11-03T21:41:13Z</time>
					</trkpt>
					<trkpt lat="49.153870" lon="3.024530">
						<ele>137</ele>
						<time>2024-11-03T21:41:19Z</time>
					</trkpt>
					<trkpt lat="49.153710" lon="3.025600">
						<ele>136</ele>
						<time>2024-11-03T21:41:32Z</time>
					</trkpt>
					<trkpt lat="49.153670" lon="3.025750">
						<ele>136</ele>
						<time>2024-11-03T21:41:34Z</time>
					</trkpt>
					<trkpt lat="49.152400" lon="3.025050">
						<ele>135</ele>
						<time>2024-11-03T21:41:58Z</time>
					</trkpt>
					<trkpt lat="49.152060" lon="3.024850">
						<ele>134</ele>
						<time>2024-11-03T21:42:04Z</time>
					</trkpt>
					<trkpt lat="49.151570" lon="3.024480">
						<ele>132</ele>
						<time>2024-11-03T21:42:14Z</time>
					</trkpt>
					<trkpt lat="49.151330" lon="3.024340">
						<ele>131</ele>
						<time>2024-11-03T21:42:19Z</time>
					</trkpt>
					<trkpt lat="49.151200" lon="3.024300">
						<ele>131</ele>
						<time>2024-11-03T21:42:21Z</time>
					</trkpt>
					<trkpt lat="49.150590" lon="3.024360">
						<ele>128</ele>
						<time>2024-11-03T21:42:32Z</time>
					</trkpt>
					<trkpt lat="49.149750" lon="3.024390">
						<ele>125</ele>
						<time>2024-11-03T21:42:47Z</time>
					</trkpt>
					<trkpt lat="49.149480" lon="3.024460">
						<ele>124</ele>
						<time>2024-11-03T21:42:52Z</time>
					</trkpt>
					<trkpt lat="49.148870" lon="3.024720">
						<ele>121</ele>
						<time>2024-11-03T21:43:03Z</time>
					</trkpt>
					<trkpt lat="49.148650" lon="3.024790">
						<ele>120</ele>
						<time>2024-11-03T21:43:07Z</time>
					</trkpt>
					<trkpt lat="49.148480" lon="3.024810">
						<ele>119</ele>
						<time>2024-11-03T21:43:10Z</time>
					</trkpt>
					<trkpt lat="49.148340" lon="3.024810">
						<ele>119</ele>
						<time>2024-11-03T21:43:13Z</time>
					</trkpt>
					<trkpt lat="49.147720" lon="3.024670">
						<ele>118</ele>
						<time>2024-11-03T21:43:24Z</time>
					</trkpt>
					<trkpt lat="49.147310" lon="3.024650">
						<ele>117</ele>
						<time>2024-11-03T21:43:31Z</time>
					</trkpt>
					<trkpt lat="49.146890" lon="3.024730">
						<ele>117</ele>
						<time>2024-11-03T21:43:39Z</time>
					</trkpt>
					<trkpt lat="49.146490" lon="3.024730">
						<ele>115</ele>
						<time>2024-11-03T21:43:46Z</time>
					</trkpt>
					<trkpt lat="49.146290" lon="3.024610">
						<ele>114</ele>
						<time>2024-11-03T21:43:49Z</time>
					</trkpt>
					<trkpt lat="49.146170" lon="3.024420">
						<ele>113</ele>
						<time>2024-11-03T21:43:53Z</time>
					</trkpt>
					<trkpt lat="49.145920" lon="3.024090">
						<ele>111</ele>
						<time>2024-11-03T21:43:58Z</time>
					</trkpt>
					<trkpt lat="49.145480" lon="3.023810">
						<ele>108</ele>
						<time>2024-11-03T21:44:07Z</time>
					</trkpt>
					<trkpt lat="49.144170" lon="3.023120">
						<ele>100</ele>
						<time>2024-11-03T21:44:32Z</time>
					</trkpt>
					<trkpt lat="49.143310" lon="3.023160">
						<ele>91</ele>
						<time>2024-11-03T21:44:47Z</time>
					</trkpt>
					<trkpt lat="49.142950" lon="3.023110">
						<ele>86</ele>
						<time>2024-11-03T21:44:53Z</time>
					</trkpt>
					<trkpt lat="49.142660" lon="3.022950">
						<ele>82</ele>
						<time>2024-11-03T21:44:59Z</time>
					</trkpt>
					<trkpt lat="49.142410" lon="3.022880">
						<ele>79</ele>
						<time>2024-11-03T21:45:03Z</time>
					</trkpt>
					<trkpt lat="49.142180" lon="3.022930">
						<ele>77</ele>
						<time>2024-11-03T21:45:07Z</time>
					</trkpt>
					<trkpt lat="49.142070" lon="3.022980">
						<ele>76</ele>
						<time>2024-11-03T21:45:10Z</time>
					</trkpt>
					<trkpt lat="49.141690" lon="3.023200">
						<ele>74</ele>
						<time>2024-11-03T21:45:17Z</time>
					</trkpt>
					<trkpt lat="49.140610" lon="3.023990">
						<ele>73</ele>
						<time>2024-11-03T21:45:38Z</time>
					</trkpt>
					<trkpt lat="49.140440" lon="3.024110">
						<ele>73</ele>
						<time>2024-11-03T21:45:41Z</time>
					</trkpt>
					<trkpt lat="49.139820" lon="3.024540">
						<ele>77</ele>
						<time>2024-11-03T21:45:53Z</time>
					</trkpt>
					<trkpt lat="49.139730" lon="3.024560">
						<ele>79</ele>
						<time>2024-11-03T21:45:55Z</time>
					</trkpt>
					<trkpt lat="49.139630" lon="3.024580">
						<ele>81</ele>
						<time>2024-11-03T21:45:57Z</time>
					</trkpt>
					<trkpt lat="49.139510" lon="3.024490">
						<ele>83</ele>
						<time>2024-11-03T21:45:59Z</time>
					</trkpt>
					<trkpt lat="49.139400" lon="3.024300">
						<ele>85</ele>
						<time>2024-11-03T21:46:02Z</time>
					</trkpt>
					<trkpt lat="49.139310" lon="3.023930">
						<ele>85</ele>
						<time>2024-11-03T21:46:07Z</time>
					</trkpt>
					<trkpt lat="49.139210" lon="3.022730">
						<ele>80</ele>
						<time>2024-11-03T21:46:21Z</time>
					</trkpt>
					<trkpt lat="49.139220" lon="3.021220">
						<ele>81</ele>
						<time>2024-11-03T21:46:38Z</time>
					</trkpt>
					<trkpt lat="49.139430" lon="3.020570">
						<ele>87</ele>
						<time>2024-11-03T21:46:47Z</time>
					</trkpt>
					<trkpt lat="49.139420" lon="3.020280">
						<ele>88</ele>
						<time>2024-11-03T21:46:50Z</time>
					</trkpt>
					<trkpt lat="49.139340" lon="3.020040">
						<ele>89</ele>
						<time>2024-11-03T21:46:53Z</time>
					</trkpt>
					<trkpt lat="49.139100" lon="3.019630">
						<ele>91</ele>
						<time>2024-11-03T21:47:00Z</time>
					</trkpt>
					<trkpt lat="49.138770" lon="3.019250">
						<ele>92</ele>
						<time>2024-11-03T21:47:07Z</time>
					</trkpt>
					<trkpt lat="49.138240" lon="3.018250">
						<ele>90</ele>
						<time>2024-11-03T21:47:22Z</time>
					</trkpt>
					<trkpt lat="49.138220" lon="3.017870">
						<ele>90</ele>
						<time>2024-11-03T21:47:27Z</time>
					</trkpt>
					<trkpt lat="49.138240" lon="3.016390">
						<ele>97</ele>
						<time>2024-11-03T21:47:44Z</time>
					</trkpt>
					<trkpt lat="49.138200" lon="3.016020">
						<ele>99</ele>
						<time>2024-11-03T21:47:48Z</time>
					</trkpt>
					<trkpt lat="49.137980" lon="3.015250">
						<ele>101</ele>
						<time>2024-11-03T21:47:58Z</time>
					</trkpt>
					<trkpt lat="49.137710" lon="3.014590">
						<ele>100</ele>
						<time>2024-11-03T21:48:07Z</time>
					</trkpt>
					<trkpt lat="49.137360" lon="3.013900">
						<ele>100</ele>
						<time>2024-11-03T21:48:17Z</time>
					</trkpt>
					<trkpt lat="49.137010" lon="3.012950">
						<ele>102</ele>
						<time>2024-11-03T21:48:30Z</time>
					</trkpt>
					<trkpt lat="49.136660" lon="3.012300">
						<ele>97</ele>
						<time>2024-11-03T21:48:40Z</time>
					</trkpt>
					<trkpt lat="49.136410" lon="3.011940">
						<ele>97</ele>
						<time>2024-11-03T21:48:46Z</time>
					</trkpt>
					<trkpt lat="49.135700" lon="3.011310">
						<ele>93</ele>
						<time>2024-11-03T21:49:00Z</time>
					</trkpt>
					<trkpt lat="49.135480" lon="3.011080">
						<ele>94</ele>
						<time>2024-11-03T21:49:05Z</time>
					</trkpt>
					<trkpt lat="49.135190" lon="3.010630">
						<ele>95</ele>
						<time>2024-11-03T21:49:13Z</time>
					</trkpt>
					<trkpt lat="49.134480" lon="3.009820">
						<ele>101</ele>
						<time>2024-11-03T21:49:28Z</time>
					</trkpt>
					<trkpt lat="49.134220" lon="3.009630">
						<ele>101</ele>
						<time>2024-11-03T21:49:33Z</time>
					</trkpt>
					<trkpt lat="49.133970" lon="3.009530">
						<ele>101</ele>
						<time>2024-11-03T21:49:38Z</time>
					</trkpt>
					<trkpt lat="49.133670" lon="3.009470">
						<ele>102</ele>
						<time>2024-11-03T21:49:43Z</time>
					</trkpt>
					<trkpt lat="49.133450" lon="3.009390">
						<ele>102</ele>
						<time>2024-11-03T21:49:47Z</time>
					</trkpt>
					<trkpt lat="49.133120" lon="3.009150">
						<ele>102</ele>
						<time>2024-11-03T21:49:54Z</time>
					</trkpt>
					<trkpt lat="49.132830" lon="3.008890">
						<ele>104</ele>
						<time>2024-11-03T21:50:00Z</time>
					</trkpt>
					<trkpt lat="49.132560" lon="3.008600">
						<ele>106</ele>
						<time>2024-11-03T21:50:06Z</time>
					</trkpt>
					<trkpt lat="49.132300" lon="3.008270">
						<ele>109</ele>
						<time>2024-11-03T21:50:12Z</time>
					</trkpt>
					<trkpt lat="49.132210" lon="3.008100">
						<ele>110</ele>
						<time>2024-11-03T21:50:14Z</time>
					</trkpt>
					<trkpt lat="49.132010" lon="3.007490">
						<ele>115</ele>
						<time>2024-11-03T21:50:22Z</time>
					</trkpt>
					<trkpt lat="49.131900" lon="3.007270">
						<ele>116</ele>
						<time>2024-11-03T21:50:26Z</time>
					</trkpt>
					<trkpt lat="49.131730" lon="3.007080">
						<ele>117</ele>
						<time>2024-11-03T21:50:29Z</time>
					</trkpt>
					<trkpt lat="49.131530" lon="3.006910">
						<ele>118</ele>
						<time>2024-11-03T21:50:33Z</time>
					</trkpt>
					<trkpt lat="49.131280" lon="3.006640">
						<ele>120</ele>
						<time>2024-11-03T21:50:39Z</time>
					</trkpt>
					<trkpt lat="49.131060" lon="3.006370">
						<ele>121</ele>
						<time>2024-11-03T21:50:44Z</time>
					</trkpt>
					<trkpt lat="49.130730" lon="3.005970">
						<ele>124</ele>
						<time>2024-11-03T21:50:51Z</time>
					</trkpt>
					<trkpt lat="49.130390" lon="3.005600">
						<ele>125</ele>
						<time>2024-11-03T21:50:59Z</time>
					</trkpt>
					<trkpt lat="49.130310" lon="3.005480">
						<ele>125</ele>
						<time>2024-11-03T21:51:01Z</time>
					</trkpt>
					<trkpt lat="49.130310" lon="3.004970">
						<ele>127</ele>
						<time>2024-11-03T21:51:07Z</time>
					</trkpt>
					<trkpt lat="49.129980" lon="3.004880">
						<ele>127</ele>
						<time>2024-11-03T21:51:13Z</time>
					</trkpt>
					<trkpt lat="49.129730" lon="3.004760">
						<ele>126</ele>
						<time>2024-11-03T21:51:17Z</time>
					</trkpt>
					<trkpt lat="49.129880" lon="3.004320">
						<ele>128</ele>
						<time>2024-11-03T21:51:23Z</time>
					</trkpt>
					<trkpt lat="49.129900" lon="3.004230">
						<ele>128</ele>
						<time>2024-11-03T21:51:24Z</time>
					</trkpt>
					<trkpt lat="49.129880" lon="3.004110">
						<ele>128</ele>
						<time>2024-11-03T21:51:26Z</time>
					</trkpt>
					<trkpt lat="49.129900" lon="3.003950">
						<ele>128</ele>
						<time>2024-11-03T21:51:27Z</time>
					</trkpt>
					<trkpt lat="49.130020" lon="3.003290">
						<ele>129</ele>
						<time>2024-11-03T21:51:35Z</time>
					</trkpt>
					<trkpt lat="49.130050" lon="3.003050">
						<ele>129</ele>
						<time>2024-11-03T21:51:38Z</time>
					</trkpt>
					<trkpt lat="49.130050" lon="3.002730">
						<ele>129</ele>
						<time>2024-11-03T21:51:42Z</time>
					</trkpt>
					<trkpt lat="49.130070" lon="3.000020">
						<ele>134</ele>
						<time>2024-11-03T21:52:14Z</time>
					</trkpt>
					<trkpt lat="49.130050" lon="2.999750">
						<ele>135</ele>
						<time>2024-11-03T21:52:17Z</time>
					</trkpt>
					<trkpt lat="49.129970" lon="2.999430">
						<ele>135</ele>
						<time>2024-11-03T21:52:21Z</time>
					</trkpt>
					<trkpt lat="49.129870" lon="2.999240">
						<ele>136</ele>
						<time>2024-11-03T21:52:24Z</time>
					</trkpt>
					<trkpt lat="49.128260" lon="2.996810">
						<ele>138</ele>
						<time>2024-11-03T21:53:04Z</time>
					</trkpt>
					<trkpt lat="49.128030" lon="2.996410">
						<ele>139</ele>
						<time>2024-11-03T21:53:10Z</time>
					</trkpt>
					<trkpt lat="49.127000" lon="2.994370">
						<ele>140</ele>
						<time>2024-11-03T21:53:40Z</time>
					</trkpt>
					<trkpt lat="49.124600" lon="2.989840">
						<ele>142</ele>
						<time>2024-11-03T21:54:48Z</time>
					</trkpt>
					<trkpt lat="49.124190" lon="2.988960">
						<ele>143</ele>
						<time>2024-11-03T21:55:00Z</time>
					</trkpt>
					<trkpt lat="49.123900" lon="2.988250">
						<ele>143</ele>
						<time>2024-11-03T21:55:10Z</time>
					</trkpt>
					<trkpt lat="49.123830" lon="2.988010">
						<ele>143</ele>
						<time>2024-11-03T21:55:13Z</time>
					</trkpt>
					<trkpt lat="49.122350" lon="2.982420">
						<ele>140</ele>
						<time>2024-11-03T21:56:24Z</time>
					</trkpt>
					<trkpt lat="49.122320" lon="2.982290">
						<ele>140</ele>
						<time>2024-11-03T21:56:25Z</time>
					</trkpt>
					<trkpt lat="49.122190" lon="2.982100">
						<ele>140</ele>
						<time>2024-11-03T21:56:28Z</time>
					</trkpt>
					<trkpt lat="49.121750" lon="2.981790">
						<ele>139</ele>
						<time>2024-11-03T21:56:37Z</time>
					</trkpt>
					<trkpt lat="49.121460" lon="2.981630">
						<ele>139</ele>
						<time>2024-11-03T21:56:42Z</time>
					</trkpt>
					<trkpt lat="49.121270" lon="2.981510">
						<ele>139</ele>
						<time>2024-11-03T21:56:46Z</time>
					</trkpt>
					<trkpt lat="49.121000" lon="2.981260">
						<ele>139</ele>
						<time>2024-11-03T21:56:52Z</time>
					</trkpt>
					<trkpt lat="49.120880" lon="2.981140">
						<ele>139</ele>
						<time>2024-11-03T21:56:54Z</time>
					</trkpt>
					<trkpt lat="49.120710" lon="2.981010">
						<ele>138</ele>
						<time>2024-11-03T21:56:58Z</time>
					</trkpt>
					<trkpt lat="49.120620" lon="2.980940">
						<ele>138</ele>
						<time>2024-11-03T21:56:59Z</time>
					</trkpt>
					<trkpt lat="49.119850" lon="2.980530">
						<ele>136</ele>
						<time>2024-11-03T21:57:14Z</time>
					</trkpt>
					<trkpt lat="49.119550" lon="2.980300">
						<ele>136</ele>
						<time>2024-11-03T21:57:20Z</time>
					</trkpt>
					<trkpt lat="49.119200" lon="2.980080">
						<ele>135</ele>
						<time>2024-11-03T21:57:27Z</time>
					</trkpt>
					<trkpt lat="49.118920" lon="2.979950">
						<ele>134</ele>
						<time>2024-11-03T21:57:32Z</time>
					</trkpt>
					<trkpt lat="49.118690" lon="2.979880">
						<ele>133</ele>
						<time>2024-11-03T21:57:36Z</time>
					</trkpt>
					<trkpt lat="49.118300" lon="2.979820">
						<ele>132</ele>
						<time>2024-11-03T21:57:43Z</time>
					</trkpt>
					<trkpt lat="49.117940" lon="2.979840">
						<ele>131</ele>
						<time>2024-11-03T21:57:49Z</time>
					</trkpt>
					<trkpt lat="49.117400" lon="2.979700">
						<ele>130</ele>
						<time>2024-11-03T21:57:59Z</time>
					</trkpt>
					<trkpt lat="49.116750" lon="2.979480">
						<ele>129</ele>
						<time>2024-11-03T21:58:11Z</time>
					</trkpt>
					<trkpt lat="49.116480" lon="2.979400">
						<ele>129</ele>
						<time>2024-11-03T21:58:16Z</time>
					</trkpt>
					<trkpt lat="49.116080" lon="2.979170">
						<ele>127</ele>
						<time>2024-11-03T21:58:23Z</time>
					</trkpt>
					<trkpt lat="49.115800" lon="2.978920">
						<ele>126</ele>
						<time>2024-11-03T21:58:29Z</time>
					</trkpt>
					<trkpt lat="49.115430" lon="2.978340">
						<ele>126</ele>
						<time>2024-11-03T21:58:39Z</time>
					</trkpt>
					<trkpt lat="49.115200" lon="2.977980">
						<ele>125</ele>
						<time>2024-11-03T21:58:45Z</time>
					</trkpt>
					<trkpt lat="49.115050" lon="2.977660">
						<ele>125</ele>
						<time>2024-11-03T21:58:49Z</time>
					</trkpt>
					<trkpt lat="49.114760" lon="2.976700">
						<ele>124</ele>
						<time>2024-11-03T21:59:01Z</time>
					</trkpt>
					<trkpt lat="49.114520" lon="2.976070">
						<ele>125</ele>
						<time>2024-11-03T21:59:10Z</time>
					</trkpt>
					<trkpt lat="49.113920" lon="2.974670">
						<ele>124</ele>
						<time>2024-11-03T21:59:29Z</time>
					</trkpt>
					<trkpt lat="49.113740" lon="2.974190">
						<ele>124</ele>
						<time>2024-11-03T21:59:36Z</time>
					</trkpt>
					<trkpt lat="49.113010" lon="2.972060">
						<ele>123</ele>
						<time>2024-11-03T22:00:04Z</time>
					</trkpt>
					<trkpt lat="49.112480" lon="2.971270">
						<ele>123</ele>
						<time>2024-11-03T22:00:17Z</time>
					</trkpt>
					<trkpt lat="49.112270" lon="2.970900">
						<ele>125</ele>
						<time>2024-11-03T22:00:23Z</time>
					</trkpt>
					<trkpt lat="49.112060" lon="2.970450">
						<ele>126</ele>
						<time>2024-11-03T22:00:29Z</time>
					</trkpt>
					<trkpt lat="49.111890" lon="2.969890">
						<ele>127</ele>
						<time>2024-11-03T22:00:36Z</time>
					</trkpt>
					<trkpt lat="49.111820" lon="2.969620">
						<ele>127</ele>
						<time>2024-11-03T22:00:40Z</time>
					</trkpt>
					<trkpt lat="49.111740" lon="2.969290">
						<ele>128</ele>
						<time>2024-11-03T22:00:44Z</time>
					</trkpt>
					<trkpt lat="49.111650" lon="2.968830">
						<ele>129</ele>
						<time>2024-11-03T22:00:49Z</time>
					</trkpt>
					<trkpt lat="49.111580" lon="2.968370">
						<ele>131</ele>
						<time>2024-11-03T22:00:55Z</time>
					</trkpt>
					<trkpt lat="49.111510" lon="2.967400">
						<ele>131</ele>
						<time>2024-11-03T22:01:06Z</time>
					</trkpt>
					<trkpt lat="49.111470" lon="2.967170">
						<ele>132</ele>
						<time>2024-11-03T22:01:09Z</time>
					</trkpt>
					<trkpt lat="49.111400" lon="2.966970">
						<ele>132</ele>
						<time>2024-11-03T22:01:12Z</time>
					</trkpt>
					<trkpt lat="49.110720" lon="2.965860">
						<ele>132</ele>
						<time>2024-11-03T22:01:29Z</time>
					</trkpt>
					<trkpt lat="49.110580" lon="2.965640">
						<ele>132</ele>
						<time>2024-11-03T22:01:33Z</time>
					</trkpt>
					<trkpt lat="49.110180" lon="2.964690">
						<ele>132</ele>
						<time>2024-11-03T22:01:46Z</time>
					</trkpt>
					<trkpt lat="49.110000" lon="2.964150">
						<ele>131</ele>
						<time>2024-11-03T22:01:53Z</time>
					</trkpt>
					<trkpt lat="49.109790" lon="2.963590">
						<ele>130</ele>
						<time>2024-11-03T22:02:01Z</time>
					</trkpt>
					<trkpt lat="49.109320" lon="2.962580">
						<ele>129</ele>
						<time>2024-11-03T22:02:15Z</time>
					</trkpt>
					<trkpt lat="49.108990" lon="2.961590">
						<ele>129</ele>
						<time>2024-11-03T22:02:28Z</time>
					</trkpt>
					<trkpt lat="49.108940" lon="2.961440">
						<ele>129</ele>
						<time>2024-11-03T22:02:30Z</time>
					</trkpt>
					<trkpt lat="49.108840" lon="2.961290">
						<ele>129</ele>
						<time>2024-11-03T22:02:33Z</time>
					</trkpt>
					<trkpt lat="49.108720" lon="2.961200">
						<ele>128</ele>
						<time>2024-11-03T22:02:35Z</time>
					</trkpt>
					<trkpt lat="49.108370" lon="2.961020">
						<ele>128</ele>
						<time>2024-11-03T22:02:42Z</time>
					</trkpt>
					<trkpt lat="49.107910" lon="2.960840">
						<ele>127</ele>
						<time>2024-11-03T22:02:50Z</time>
					</trkpt>
					<trkpt lat="49.107660" lon="2.960660">
						<ele>127</ele>
						<time>2024-11-03T22:02:55Z</time>
					</trkpt>
					<trkpt lat="49.107410" lon="2.960430">
						<ele>126</ele>
						<time>2024-11-03T22:03:00Z</time>
					</trkpt>
					<trkpt lat="49.107060" lon="2.960060">
						<ele>126</ele>
						<time>2024-11-03T22:03:08Z</time>
					</trkpt>
					<trkpt lat="49.106010" lon="2.959410">
						<ele>118</ele>
						<time>2024-11-03T22:03:28Z</time>
					</trkpt>
					<trkpt lat="49.105710" lon="2.959340">
						<ele>116</ele>
						<time>2024-11-03T22:03:33Z</time>
					</trkpt>
					<trkpt lat="49.105420" lon="2.959350">
						<ele>114</ele>
						<time>2024-11-03T22:03:38Z</time>
					</trkpt>
					<trkpt lat="49.104310" lon="2.959500">
						<ele>111</ele>
						<time>2024-11-03T22:03:58Z</time>
					</trkpt>
					<trkpt lat="49.104150" lon="2.959440">
						<ele>111</ele>
						<time>2024-11-03T22:04:01Z</time>
					</trkpt>
					<trkpt lat="49.104060" lon="2.959360">
						<ele>110</ele>
						<time>2024-11-03T22:04:03Z</time>
					</trkpt>
					<trkpt lat="49.104020" lon="2.959220">
						<ele>109</ele>
						<time>2024-11-03T22:04:05Z</time>
					</trkpt>
					<trkpt lat="49.104010" lon="2.959040">
						<ele>107</ele>
						<time>2024-11-03T22:04:07Z</time>
					</trkpt>
					<trkpt lat="49.104070" lon="2.958910">
						<ele>106</ele>
						<time>2024-11-03T22:04:09Z</time>
					</trkpt>
					<trkpt lat="49.104190" lon="2.958830">
						<ele>105</ele>
						<time>2024-11-03T22:04:11Z</time>
					</trkpt>
					<trkpt lat="49.104700" lon="2.958710">
						<ele>104</ele>
						<time>2024-11-03T22:04:20Z</time>
					</trkpt>
					<trkpt lat="49.105180" lon="2.958460">
						<ele>101</ele>
						<time>2024-11-03T22:04:29Z</time>
					</trkpt>
					<trkpt lat="49.105720" lon="2.958170">
						<ele>99</ele>
						<time>2024-11-03T22:04:39Z</time>
					</trkpt>
					<trkpt lat="49.105980" lon="2.958000">
						<ele>98</ele>
						<time>2024-11-03T22:04:44Z</time>
					</trkpt>
					<trkpt lat="49.106110" lon="2.957820">
						<ele>96</ele>
						<time>2024-11-03T22:04:48Z</time>
					</trkpt>
					<trkpt lat="49.106170" lon="2.957630">
						<ele>94</ele>
						<time>2024-11-03T22:04:50Z</time>
					</trkpt>
					<trkpt lat="49.106150" lon="2.957330">
						<ele>92</ele>
						<time>2024-11-03T22:04:54Z</time>
					</trkpt>
					<trkpt lat="49.106110" lon="2.957150">
						<ele>91</ele>
						<time>2024-11-03T22:04:56Z</time>
					</trkpt>
					<trkpt lat="49.106010" lon="2.956960">
						<ele>90</ele>
						<time>2024-11-03T22:04:59Z</time>
					</trkpt>
					<trkpt lat="49.105680" lon="2.956650">
						<ele>88</ele>
						<time>2024-11-03T22:05:06Z</time>
					</trkpt>
					<trkpt lat="49.105140" lon="2.956120">
						<ele>88</ele>
						<time>2024-11-03T22:05:17Z</time>
					</trkpt>
					<trkpt lat="49.104640" lon="2.955820">
						<ele>88</ele>
						<time>2024-11-03T22:05:26Z</time>
					</trkpt>
					<trkpt lat="49.104340" lon="2.955610">
						<ele>88</ele>
						<time>2024-11-03T22:05:32Z</time>
					</trkpt>
					<trkpt lat="49.104090" lon="2.955250">
						<ele>89</ele>
						<time>2024-11-03T22:05:38Z</time>
					</trkpt>
					<trkpt lat="49.103870" lon="2.954850">
						<ele>90</ele>
						<time>2024-11-03T22:05:45Z</time>
					</trkpt>
					<trkpt lat="49.103810" lon="2.954750">
						<ele>91</ele>
						<time>2024-11-03T22:05:46Z</time>
					</trkpt>
					<trkpt lat="49.103640" lon="2.954690">
						<ele>91</ele>
						<time>2024-11-03T22:05:49Z</time>
					</trkpt>
					<trkpt lat="49.103530" lon="2.954650">
						<ele>91</ele>
						<time>2024-11-03T22:05:51Z</time>
					</trkpt>
					<trkpt lat="49.103310" lon="2.954540">
						<ele>90</ele>
						<time>2024-11-03T22:05:55Z</time>
					</trkpt>
					<trkpt lat="49.103290" lon="2.954530">
						<ele>90</ele>
						<time>2024-11-03T22:05:56Z</time>
					</trkpt>
					<trkpt lat="49.102950" lon="2.954430">
						<ele>90</ele>
						<time>2024-11-03T22:06:02Z</time>
					</trkpt>
					<trkpt lat="49.103160" lon="2.954220">
						<ele>90</ele>
						<time>2024-11-03T22:06:06Z</time>
					</trkpt>
					<trkpt lat="49.103160" lon="2.954210">
						<ele>90</ele>
						<time>2024-11-03T22:06:06Z</time>
					</trkpt>
					<trkpt lat="49.103410" lon="2.953870">
						<ele>91</ele>
						<time>2024-11-03T22:06:12Z</time>
					</trkpt>
					<trkpt lat="49.103760" lon="2.953870">
						<ele>91</ele>
						<time>2024-11-03T22:06:19Z</time>
					</trkpt>
					<trkpt lat="49.104140" lon="2.953580">
						<ele>92</ele>
						<time>2024-11-03T22:06:26Z</time>
					</trkpt>
					<trkpt lat="49.104360" lon="2.953250">
						<ele>92</ele>
						<time>2024-11-03T22:06:32Z</time>
					</trkpt>
					<trkpt lat="49.104560" lon="2.952870">
						<ele>92</ele>
						<time>2024-11-03T22:06:37Z</time>
					</trkpt>
					<trkpt lat="49.104710" lon="2.952700">
						<ele>92</ele>
						<time>2024-11-03T22:06:41Z</time>
					</trkpt>
					<trkpt lat="49.104790" lon="2.952430">
						<ele>92</ele>
						<time>2024-11-03T22:06:44Z</time>
					</trkpt>
					<trkpt lat="49.105300" lon="2.951000">
						<ele>93</ele>
						<time>2024-11-03T22:07:03Z</time>
					</trkpt>
					<trkpt lat="49.105390" lon="2.950730">
						<ele>94</ele>
						<time>2024-11-03T22:07:07Z</time>
					</trkpt>
					<trkpt lat="49.105500" lon="2.950260">
						<ele>94</ele>
						<time>2024-11-03T22:07:12Z</time>
					</trkpt>
					<trkpt lat="49.105440" lon="2.949640">
						<ele>93</ele>
						<time>2024-11-03T22:07:20Z</time>
					</trkpt>
					<trkpt lat="49.104960" lon="2.946200">
						<ele>95</ele>
						<time>2024-11-03T22:08:01Z</time>
					</trkpt>
					<trkpt lat="49.104850" lon="2.945560">
						<ele>100</ele>
						<time>2024-11-03T22:08:08Z</time>
					</trkpt>
					<trkpt lat="49.104610" lon="2.943610">
						<ele>105</ele>
						<time>2024-11-03T22:08:32Z</time>
					</trkpt>
					<trkpt lat="49.104490" lon="2.942360">
						<ele>105</ele>
						<time>2024-11-03T22:08:46Z</time>
					</trkpt>
					<trkpt lat="49.104360" lon="2.941210">
						<ele>104</ele>
						<time>2024-11-03T22:09:00Z</time>
					</trkpt>
					<trkpt lat="49.104330" lon="2.940650">
						<ele>102</ele>
						<time>2024-11-03T22:09:06Z</time>
					</trkpt>
					<trkpt lat="49.104350" lon="2.940250">
						<ele>101</ele>
						<time>2024-11-03T22:09:11Z</time>
					</trkpt>
					<trkpt lat="49.104420" lon="2.939900">
						<ele>101</ele>
						<time>2024-11-03T22:09:15Z</time>
					</trkpt>
					<trkpt lat="49.104800" lon="2.938410">
						<ele>95</ele>
						<time>2024-11-03T22:09:34Z</time>
					</trkpt>
					<trkpt lat="49.105070" lon="2.937290">
						<ele>98</ele>
						<time>2024-11-03T22:09:48Z</time>
					</trkpt>
					<trkpt lat="49.105290" lon="2.935870">
						<ele>101</ele>
						<time>2024-11-03T22:10:05Z</time>
					</trkpt>
					<trkpt lat="49.105640" lon="2.934830">
						<ele>101</ele>
						<time>2024-11-03T22:10:19Z</time>
					</trkpt>
					<trkpt lat="49.105810" lon="2.934400">
						<ele>98</ele>
						<time>2024-11-03T22:10:24Z</time>
					</trkpt>
					<trkpt lat="49.106030" lon="2.933940">
						<ele>97</ele>
						<time>2024-11-03T22:10:31Z</time>
					</trkpt>
					<trkpt lat="49.106290" lon="2.933690">
						<ele>96</ele>
						<time>2024-11-03T22:10:36Z</time>
					</trkpt>
					<trkpt lat="49.106620" lon="2.933510">
						<ele>96</ele>
						<time>2024-11-03T22:10:43Z</time>
					</trkpt>
					<trkpt lat="49.107120" lon="2.933370">
						<ele>97</ele>
						<time>2024-11-03T22:10:52Z</time>
					</trkpt>
					<trkpt lat="49.107610" lon="2.933350">
						<ele>98</ele>
						<time>2024-11-03T22:11:00Z</time>
					</trkpt>
					<trkpt lat="49.107880" lon="2.933270">
						<ele>97</ele>
						<time>2024-11-03T22:11:05Z</time>
					</trkpt>
					<trkpt lat="49.108530" lon="2.933030">
						<ele>95</ele>
						<time>2024-11-03T22:11:17Z</time>
					</trkpt>
					<trkpt lat="49.108580" lon="2.933010">
						<ele>95</ele>
						<time>2024-11-03T22:11:18Z</time>
					</trkpt>
					<trkpt lat="49.108800" lon="2.932950">
						<ele>94</ele>
						<time>2024-11-03T22:11:22Z</time>
					</trkpt>
					<trkpt lat="49.109060" lon="2.932820">
						<ele>94</ele>
						<time>2024-11-03T22:11:27Z</time>
					</trkpt>
					<trkpt lat="49.109730" lon="2.932280">
						<ele>95</ele>
						<time>2024-11-03T22:11:41Z</time>
					</trkpt>
					<trkpt lat="49.110200" lon="2.932030">
						<ele>97</ele>
						<time>2024-11-03T22:11:49Z</time>
					</trkpt>
					<trkpt lat="49.111020" lon="2.931670">
						<ele>98</ele>
						<time>2024-11-03T22:12:05Z</time>
					</trkpt>
					<trkpt lat="49.112440" lon="2.930980">
						<ele>97</ele>
						<time>2024-11-03T22:12:31Z</time>
					</trkpt>
					<trkpt lat="49.114190" lon="2.930190">
						<ele>97</ele>
						<time>2024-11-03T22:13:04Z</time>
					</trkpt>
					<trkpt lat="49.114390" lon="2.930070">
						<ele>96</ele>
						<time>2024-11-03T22:13:07Z</time>
					</trkpt>
					<trkpt lat="49.114470" lon="2.929990">
						<ele>96</ele>
						<time>2024-11-03T22:13:09Z</time>
					</trkpt>
					<trkpt lat="49.114540" lon="2.929840">
						<ele>96</ele>
						<time>2024-11-03T22:13:11Z</time>
					</trkpt>
					<trkpt lat="49.114590" lon="2.929670">
						<ele>96</ele>
						<time>2024-11-03T22:13:13Z</time>
					</trkpt>
					<trkpt lat="49.114600" lon="2.929550">
						<ele>96</ele>
						<time>2024-11-03T22:13:15Z</time>
					</trkpt>
					<trkpt lat="49.114690" lon="2.928820">
						<ele>95</ele>
						<time>2024-11-03T22:13:23Z</time>
					</trkpt>
					<trkpt lat="49.114770" lon="2.928260">
						<ele>95</ele>
						<time>2024-11-03T22:13:30Z</time>
					</trkpt>
					<trkpt lat="49.114780" lon="2.927790">
						<ele>96</ele>
						<time>2024-11-03T22:13:36Z</time>
					</trkpt>
					<trkpt lat="49.114710" lon="2.927360">
						<ele>98</ele>
						<time>2024-11-03T22:13:41Z</time>
					</trkpt>
					<trkpt lat="49.114550" lon="2.926730">
						<ele>101</ele>
						<time>2024-11-03T22:13:49Z</time>
					</trkpt>
					<trkpt lat="49.114500" lon="2.926370">
						<ele>103</ele>
						<time>2024-11-03T22:13:53Z</time>
					</trkpt>
					<trkpt lat="49.114510" lon="2.926230">
						<ele>104</ele>
						<time>2024-11-03T22:13:55Z</time>
					</trkpt>
					<trkpt lat="49.114550" lon="2.926030">
						<ele>105</ele>
						<time>2024-11-03T22:13:57Z</time>
					</trkpt>
					<trkpt lat="49.114650" lon="2.925790">
						<ele>106</ele>
						<time>2024-11-03T22:14:00Z</time>
					</trkpt>
					<trkpt lat="49.114940" lon="2.925300">
						<ele>108</ele>
						<time>2024-11-03T22:14:08Z</time>
					</trkpt>
					<trkpt lat="49.115230" lon="2.924560">
						<ele>111</ele>
						<time>2024-11-03T22:14:18Z</time>
					</trkpt>
					<trkpt lat="49.115330" lon="2.924270">
						<ele>111</ele>
						<time>2024-11-03T22:14:22Z</time>
					</trkpt>
					<trkpt lat="49.115430" lon="2.923770">
						<ele>113</ele>
						<time>2024-11-03T22:14:28Z</time>
					</trkpt>
					<trkpt lat="49.115630" lon="2.921940">
						<ele>121</ele>
						<time>2024-11-03T22:14:50Z</time>
					</trkpt>
					<trkpt lat="49.115710" lon="2.921190">
						<ele>122</ele>
						<time>2024-11-03T22:14:58Z</time>
					</trkpt>
					<trkpt lat="49.115810" lon="2.919320">
						<ele>124</ele>
						<time>2024-11-03T22:15:20Z</time>
					</trkpt>
					<trkpt lat="49.115850" lon="2.918310">
						<ele>123</ele>
						<time>2024-11-03T22:15:32Z</time>
					</trkpt>
					<trkpt lat="49.115840" lon="2.918080">
						<ele>124</ele>
						<time>2024-11-03T22:15:35Z</time>
					</trkpt>
					<trkpt lat="49.115810" lon="2.917880">
						<ele>124</ele>
						<time>2024-11-03T22:15:37Z</time>
					</trkpt>
					<trkpt lat="49.115720" lon="2.917470">
						<ele>125</ele>
						<time>2024-11-03T22:15:42Z</time>
					</trkpt>
					<trkpt lat="49.115420" lon="2.916560">
						<ele>125</ele>
						<time>2024-11-03T22:15:54Z</time>
					</trkpt>
					<trkpt lat="49.115350" lon="2.916240">
						<ele>126</ele>
						<time>2024-11-03T22:15:58Z</time>
					</trkpt>
					<trkpt lat="49.115290" lon="2.915830">
						<ele>126</ele>
						<time>2024-11-03T22:16:03Z</time>
					</trkpt>
					<trkpt lat="49.115010" lon="2.912720">
						<ele>124</ele>
						<time>2024-11-03T22:16:39Z</time>
					</trkpt>
					<trkpt lat="49.115010" lon="2.912530">
						<ele>123</ele>
						<time>2024-11-03T22:16:42Z</time>
					</trkpt>
					<trkpt lat="49.115320" lon="2.908770">
						<ele>116</ele>
						<time>2024-11-03T22:17:26Z</time>
					</trkpt>
					<trkpt lat="49.115580" lon="2.906720">
						<ele>114</ele>
						<time>2024-11-03T22:17:50Z</time>
					</trkpt>
					<trkpt lat="49.115820" lon="2.905050">
						<ele>113</ele>
						<time>2024-11-03T22:18:10Z</time>
					</trkpt>
					<trkpt lat="49.116140" lon="2.903490">
						<ele>114</ele>
						<time>2024-11-03T22:18:29Z</time>
					</trkpt>
					<trkpt lat="49.116390" lon="2.902560">
						<ele>116</ele>
						<time>2024-11-03T22:18:41Z</time>
					</trkpt>
					<trkpt lat="49.116450" lon="2.902360">
						<ele>116</ele>
						<time>2024-11-03T22:18:43Z</time>
					</trkpt>
					<trkpt lat="49.116660" lon="2.900960">
						<ele>115</ele>
						<time>2024-11-03T22:19:00Z</time>
					</trkpt>
					<trkpt lat="49.116650" lon="2.899290">
						<ele>116</ele>
						<time>2024-11-03T22:19:19Z</time>
					</trkpt>
					<trkpt lat="49.116570" lon="2.897720">
						<ele>119</ele>
						<time>2024-11-03T22:19:38Z</time>
					</trkpt>
					<trkpt lat="49.116730" lon="2.896700">
						<ele>119</ele>
						<time>2024-11-03T22:19:50Z</time>
					</trkpt>
					<trkpt lat="49.117060" lon="2.894790">
						<ele>121</ele>
						<time>2024-11-03T22:20:13Z</time>
					</trkpt>
					<trkpt lat="49.117140" lon="2.892060">
						<ele>123</ele>
						<time>2024-11-03T22:20:45Z</time>
					</trkpt>
					<trkpt lat="49.117170" lon="2.889840">
						<ele>125</ele>
						<time>2024-11-03T22:21:11Z</time>
					</trkpt>
					<trkpt lat="49.117280" lon="2.888490">
						<ele>126</ele>
						<time>2024-11-03T22:21:27Z</time>
					</trkpt>
					<trkpt lat="49.117410" lon="2.887730">
						<ele>127</ele>
						<time>2024-11-03T22:21:36Z</time>
					</trkpt>
					<trkpt lat="49.117630" lon="2.886950">
						<ele>126</ele>
						<time>2024-11-03T22:21:46Z</time>
					</trkpt>
					<trkpt lat="49.118190" lon="2.885210">
						<ele>125</ele>
						<time>2024-11-03T22:22:08Z</time>
					</trkpt>
					<trkpt lat="49.118340" lon="2.884580">
						<ele>125</ele>
						<time>2024-11-03T22:22:16Z</time>
					</trkpt>
					<trkpt lat="49.118490" lon="2.883890">
						<ele>125</ele>
						<time>2024-11-03T22:22:24Z</time>
					</trkpt>
					<trkpt lat="49.118620" lon="2.882650">
						<ele>126</ele>
						<time>2024-11-03T22:22:39Z</time>
					</trkpt>
					<trkpt lat="49.118750" lon="2.882090">
						<ele>126</ele>
						<time>2024-11-03T22:22:46Z</time>
					</trkpt>
					<trkpt lat="49.118940" lon="2.881550">
						<ele>126</ele>
						<time>2024-11-03T22:22:53Z</time>
					</trkpt>
					<trkpt lat="49.119110" lon="2.880730">
						<ele>125</ele>
						<time>2024-11-03T22:23:03Z</time>
					</trkpt>
					<trkpt lat="49.119210" lon="2.877760">
						<ele>126</ele>
						<time>2024-11-03T22:23:38Z</time>
					</trkpt>
					<trkpt lat="49.119300" lon="2.877070">
						<ele>126</ele>
						<time>2024-11-03T22:23:46Z</time>
					</trkpt>
					<trkpt lat="49.119970" lon="2.873340">
						<ele>126</ele>
						<time>2024-11-03T22:24:31Z</time>
					</trkpt>
					<trkpt lat="49.120040" lon="2.872660">
						<ele>126</ele>
						<time>2024-11-03T22:24:39Z</time>
					</trkpt>
					<trkpt lat="49.120060" lon="2.870950">
						<ele>126</ele>
						<time>2024-11-03T22:24:59Z</time>
					</trkpt>
					<trkpt lat="49.120070" lon="2.870580">
						<ele>126</ele>
						<time>2024-11-03T22:25:03Z</time>
					</trkpt>
					<trkpt lat="49.120190" lon="2.869950">
						<ele>127</ele>
						<time>2024-11-03T22:25:11Z</time>
					</trkpt>
					<trkpt lat="49.120240" lon="2.869750">
						<ele>127</ele>
						<time>2024-11-03T22:25:13Z</time>
					</trkpt>
					<trkpt lat="49.120670" lon="2.868170">
						<ele>125</ele>
						<time>2024-11-03T22:25:33Z</time>
					</trkpt>
					<trkpt lat="49.121280" lon="2.865160">
						<ele>127</ele>
						<time>2024-11-03T22:26:10Z</time>
					</trkpt>
					<trkpt lat="49.121480" lon="2.863890">
						<ele>128</ele>
						<time>2024-11-03T22:26:25Z</time>
					</trkpt>
					<trkpt lat="49.121500" lon="2.863670">
						<ele>128</ele>
						<time>2024-11-03T22:26:28Z</time>
					</trkpt>
					<trkpt lat="49.121520" lon="2.863290">
						<ele>128</ele>
						<time>2024-11-03T22:26:32Z</time>
					</trkpt>
					<trkpt lat="49.121530" lon="2.861900">
						<ele>127</ele>
						<time>2024-11-03T22:26:48Z</time>
					</trkpt>
					<trkpt lat="49.121540" lon="2.860950">
						<ele>126</ele>
						<time>2024-11-03T22:26:59Z</time>
					</trkpt>
					<trkpt lat="49.121530" lon="2.860530">
						<ele>126</ele>
						<time>2024-11-03T22:27:04Z</time>
					</trkpt>
					<trkpt lat="49.121510" lon="2.860230">
						<ele>127</ele>
						<time>2024-11-03T22:27:08Z</time>
					</trkpt>
					<trkpt lat="49.121500" lon="2.859580">
						<ele>127</ele>
						<time>2024-11-03T22:27:15Z</time>
					</trkpt>
					<trkpt lat="49.121410" lon="2.858800">
						<ele>126</ele>
						<time>2024-11-03T22:27:25Z</time>
					</trkpt>
					<trkpt lat="49.121390" lon="2.858490">
						<ele>126</ele>
						<time>2024-11-03T22:27:28Z</time>
					</trkpt>
					<trkpt lat="49.121410" lon="2.858240">
						<ele>126</ele>
						<time>2024-11-03T22:27:31Z</time>
					</trkpt>
					<trkpt lat="49.121630" lon="2.857130">
						<ele>124</ele>
						<time>2024-11-03T22:27:45Z</time>
					</trkpt>
					<trkpt lat="49.121980" lon="2.856290">
						<ele>122</ele>
						<time>2024-11-03T22:27:56Z</time>
					</trkpt>
					<trkpt lat="49.122200" lon="2.855820">
						<ele>121</ele>
						<time>2024-11-03T22:28:03Z</time>
					</trkpt>
					<trkpt lat="49.122300" lon="2.855640">
						<ele>121</ele>
						<time>2024-11-03T22:28:06Z</time>
					</trkpt>
					<trkpt lat="49.122460" lon="2.855290">
						<ele>121</ele>
						<time>2024-11-03T22:28:11Z</time>
					</trkpt>
					<trkpt lat="49.122650" lon="2.854710">
						<ele>122</ele>
						<time>2024-11-03T22:28:18Z</time>
					</trkpt>
					<trkpt lat="49.122870" lon="2.854020">
						<ele>122</ele>
						<time>2024-11-03T22:28:27Z</time>
					</trkpt>
					<trkpt lat="49.122890" lon="2.853930">
						<ele>122</ele>
						<time>2024-11-03T22:28:28Z</time>
					</trkpt>
					<trkpt lat="49.122930" lon="2.853760">
						<ele>122</ele>
						<time>2024-11-03T22:28:30Z</time>
					</trkpt>
					<trkpt lat="49.123490" lon="2.852530">
						<ele>122</ele>
						<time>2024-11-03T22:28:48Z</time>
					</trkpt>
					<trkpt lat="49.123890" lon="2.851880">
						<ele>123</ele>
						<time>2024-11-03T22:28:58Z</time>
					</trkpt>
					<trkpt lat="49.124410" lon="2.851070">
						<ele>123</ele>
						<time>2024-11-03T22:29:12Z</time>
					</trkpt>
					<trkpt lat="49.124690" lon="2.850530">
						<ele>122</ele>
						<time>2024-11-03T22:29:20Z</time>
					</trkpt>
					<trkpt lat="49.125170" lon="2.849630">
						<ele>122</ele>
						<time>2024-11-03T22:29:33Z</time>
					</trkpt>
					<trkpt lat="49.127140" lon="2.845410">
						<ele>121</ele>
						<time>2024-11-03T22:30:33Z</time>
					</trkpt>
					<trkpt lat="49.127500" lon="2.844540">
						<ele>121</ele>
						<time>2024-11-03T22:30:45Z</time>
					</trkpt>
					<trkpt lat="49.127850" lon="2.843520">
						<ele>121</ele>
						<time>2024-11-03T22:30:59Z</time>
					</trkpt>
					<trkpt lat="49.128110" lon="2.842580">
						<ele>122</ele>
						<time>2024-11-03T22:31:11Z</time>
					</trkpt>
					<trkpt lat="49.128630" lon="2.839960">
						<ele>122</ele>
						<time>2024-11-03T22:31:43Z</time>
					</trkpt>
					<trkpt lat="49.128820" lon="2.838910">
						<ele>122</ele>
						<time>2024-11-03T22:31:55Z</time>
					</trkpt>
					<trkpt lat="49.129360" lon="2.835240">
						<ele>122</ele>
						<time>2024-11-03T22:32:39Z</time>
					</trkpt>
					<trkpt lat="49.129550" lon="2.834230">
						<ele>121</ele>
						<time>2024-11-03T22:32:51Z</time>
					</trkpt>
					<trkpt lat="49.129840" lon="2.833150">
						<ele>120</ele>
						<time>2024-11-03T22:33:05Z</time>
					</trkpt>
					<trkpt lat="49.129980" lon="2.832750">
						<ele>120</ele>
						<time>2024-11-03T22:33:10Z</time>
					</trkpt>
					<trkpt lat="49.130140" lon="2.832360">
						<ele>120</ele>
						<time>2024-11-03T22:33:16Z</time>
					</trkpt>
					<trkpt lat="49.130680" lon="2.831180">
						<ele>119</ele>
						<time>2024-11-03T22:33:32Z</time>
					</trkpt>
					<trkpt lat="49.131370" lon="2.829290">
						<ele>118</ele>
						<time>2024-11-03T22:33:58Z</time>
					</trkpt>
					<trkpt lat="49.131580" lon="2.828830">
						<ele>117</ele>
						<time>2024-11-03T22:34:04Z</time>
					</trkpt>
					<trkpt lat="49.132070" lon="2.827920">
						<ele>117</ele>
						<time>2024-11-03T22:34:18Z</time>
					</trkpt>
					<trkpt lat="49.132270" lon="2.827520">
						<ele>117</ele>
						<time>2024-11-03T22:34:24Z</time>
					</trkpt>
					<trkpt lat="49.132750" lon="2.826460">
						<ele>115</ele>
						<time>2024-11-03T22:34:39Z</time>
					</trkpt>
					<trkpt lat="49.133040" lon="2.825750">
						<ele>114</ele>
						<time>2024-11-03T22:34:48Z</time>
					</trkpt>
					<trkpt lat="49.133650" lon="2.824170">
						<ele>114</ele>
						<time>2024-11-03T22:35:10Z</time>
					</trkpt>
					<trkpt lat="49.133880" lon="2.823100">
						<ele>113</ele>
						<time>2024-11-03T22:35:23Z</time>
					</trkpt>
					<trkpt lat="49.133980" lon="2.822740">
						<ele>113</ele>
						<time>2024-11-03T22:35:27Z</time>
					</trkpt>
					<trkpt lat="49.134070" lon="2.822550">
						<ele>112</ele>
						<time>2024-11-03T22:35:30Z</time>
					</trkpt>
					<trkpt lat="49.134160" lon="2.822420">
						<ele>112</ele>
						<time>2024-11-03T22:35:32Z</time>
					</trkpt>
					<trkpt lat="49.134350" lon="2.822290">
						<ele>111</ele>
						<time>2024-11-03T22:35:36Z</time>
					</trkpt>
					<trkpt lat="49.135410" lon="2.821930">
						<ele>107</ele>
						<time>2024-11-03T22:35:55Z</time>
					</trkpt>
					<trkpt lat="49.135430" lon="2.821930">
						<ele>107</ele>
						<time>2024-11-03T22:35:56Z</time>
					</trkpt>
					<trkpt lat="49.135710" lon="2.821850">
						<ele>106</ele>
						<time>2024-11-03T22:36:01Z</time>
					</trkpt>
					<trkpt lat="49.135980" lon="2.821700">
						<ele>105</ele>
						<time>2024-11-03T22:36:06Z</time>
					</trkpt>
					<trkpt lat="49.136250" lon="2.821390">
						<ele>104</ele>
						<time>2024-11-03T22:36:12Z</time>
					</trkpt>
					<trkpt lat="49.136290" lon="2.821320">
						<ele>104</ele>
						<time>2024-11-03T22:36:13Z</time>
					</trkpt>
					<trkpt lat="49.136420" lon="2.820970">
						<ele>103</ele>
						<time>2024-11-03T22:36:18Z</time>
					</trkpt>
					<trkpt lat="49.136770" lon="2.819660">
						<ele>102</ele>
						<time>2024-11-03T22:36:34Z</time>
					</trkpt>
					<trkpt lat="49.136940" lon="2.819280">
						<ele>101</ele>
						<time>2024-11-03T22:36:39Z</time>
					</trkpt>
					<trkpt lat="49.137180" lon="2.819010">
						<ele>100</ele>
						<time>2024-11-03T22:36:45Z</time>
					</trkpt>
					<trkpt lat="49.137590" lon="2.818820">
						<ele>97</ele>
						<time>2024-11-03T22:36:52Z</time>
					</trkpt>
					<trkpt lat="49.137690" lon="2.818670">
						<ele>97</ele>
						<time>2024-11-03T22:36:55Z</time>
					</trkpt>
					<trkpt lat="49.138180" lon="2.817330">
						<ele>97</ele>
						<time>2024-11-03T22:37:13Z</time>
					</trkpt>
					<trkpt lat="49.138440" lon="2.816700">
						<ele>97</ele>
						<time>2024-11-03T22:37:21Z</time>
					</trkpt>
					<trkpt lat="49.138530" lon="2.816370">
						<ele>98</ele>
						<time>2024-11-03T22:37:26Z</time>
					</trkpt>
					<trkpt lat="49.138920" lon="2.814950">
						<ele>97</ele>
						<time>2024-11-03T22:37:44Z</time>
					</trkpt>
					<trkpt lat="49.139030" lon="2.814110">
						<ele>96</ele>
						<time>2024-11-03T22:37:54Z</time>
					</trkpt>
					<trkpt lat="49.139160" lon="2.813420">
						<ele>96</ele>
						<time>2024-11-03T22:38:02Z</time>
					</trkpt>
					<trkpt lat="49.139330" lon="2.812520">
						<ele>97</ele>
						<time>2024-11-03T22:38:13Z</time>
					</trkpt>
					<trkpt lat="49.139220" lon="2.811830">
						<ele>97</ele>
						<time>2024-11-03T22:38:21Z</time>
					</trkpt>
					<trkpt lat="49.139210" lon="2.811660">
						<ele>97</ele>
						<time>2024-11-03T22:38:23Z</time>
					</trkpt>
					<trkpt lat="49.139230" lon="2.811350">
						<ele>96</ele>
						<time>2024-11-03T22:38:27Z</time>
					</trkpt>
					<trkpt lat="49.139250" lon="2.810660">
						<ele>96</ele>
						<time>2024-11-03T22:38:35Z</time>
					</trkpt>
					<trkpt lat="49.139180" lon="2.810190">
						<ele>95</ele>
						<time>2024-11-03T22:38:40Z</time>
					</trkpt>
					<trkpt lat="49.138980" lon="2.809610">
						<ele>96</ele>
						<time>2024-11-03T22:38:48Z</time>
					</trkpt>
					<trkpt lat="49.139210" lon="2.809500">
						<ele>96</ele>
						<time>2024-11-03T22:38:52Z</time>
					</trkpt>
					<trkpt lat="49.139570" lon="2.809440">
						<ele>97</ele>
						<time>2024-11-03T22:38:59Z</time>
					</trkpt>
					<trkpt lat="49.139640" lon="2.809420">
						<ele>97</ele>
						<time>2024-11-03T22:39:00Z</time>
					</trkpt>
					<trkpt lat="49.139870" lon="2.809380">
						<ele>98</ele>
						<time>2024-11-03T22:39:04Z</time>
					</trkpt>
					<trkpt lat="49.140310" lon="2.809340">
						<ele>99</ele>
						<time>2024-11-03T22:39:12Z</time>
					</trkpt>
					<trkpt lat="49.140690" lon="2.809300">
						<ele>101</ele>
						<time>2024-11-03T22:39:19Z</time>
					</trkpt>
					<trkpt lat="49.140850" lon="2.809280">
						<ele>102</ele>
						<time>2024-11-03T22:39:22Z</time>
					</trkpt>
					<trkpt lat="49.141080" lon="2.809210">
						<ele>102</ele>
						<time>2024-11-03T22:39:26Z</time>
					</trkpt>
					<trkpt lat="49.141640" lon="2.809200">
						<ele>101</ele>
						<time>2024-11-03T22:39:36Z</time>
					</trkpt>
					<trkpt lat="49.141690" lon="2.809180">
						<ele>101</ele>
						<time>2024-11-03T22:39:37Z</time>
					</trkpt>
					<trkpt lat="49.142520" lon="2.808450">
						<ele>99</ele>
						<time>2024-11-03T22:39:54Z</time>
					</trkpt>
					<trkpt lat="49.142950" lon="2.806680">
						<ele>102</ele>
						<time>2024-11-03T22:40:16Z</time>
					</trkpt>
					<trkpt lat="49.143100" lon="2.806050">
						<ele>101</ele>
						<time>2024-11-03T22:40:23Z</time>
					</trkpt>
					<trkpt lat="49.143160" lon="2.805650">
						<ele>101</ele>
						<time>2024-11-03T22:40:28Z</time>
					</trkpt>
					<trkpt lat="49.143180" lon="2.805270">
						<ele>101</ele>
						<time>2024-11-03T22:40:33Z</time>
					</trkpt>
					<trkpt lat="49.143150" lon="2.804670">
						<ele>102</ele>
						<time>2024-11-03T22:40:40Z</time>
					</trkpt>
					<trkpt lat="49.143130" lon="2.804220">
						<ele>103</ele>
						<time>2024-11-03T22:40:45Z</time>
					</trkpt>
					<trkpt lat="49.143160" lon="2.803700">
						<ele>103</ele>
						<time>2024-11-03T22:40:51Z</time>
					</trkpt>
					<trkpt lat="49.143410" lon="2.801940">
						<ele>101</ele>
						<time>2024-11-03T22:41:12Z</time>
					</trkpt>
					<trkpt lat="49.143400" lon="2.801800">
						<ele>101</ele>
						<time>2024-11-03T22:41:14Z</time>
					</trkpt>
					<trkpt lat="49.143420" lon="2.801050">
						<ele>102</ele>
						<time>2024-11-03T22:41:22Z</time>
					</trkpt>
					<trkpt lat="49.143410" lon="2.800820">
						<ele>102</ele>
						<time>2024-11-03T22:41:25Z</time>
					</trkpt>
					<trkpt lat="49.143400" lon="2.800730">
						<ele>102</ele>
						<time>2024-11-03T22:41:26Z</time>
					</trkpt>
					<trkpt lat="49.143370" lon="2.800590">
						<ele>103</ele>
						<time>2024-11-03T22:41:28Z</time>
					</trkpt>
					<trkpt lat="49.143220" lon="2.800190">
						<ele>104</ele>
						<time>2024-11-03T22:41:33Z</time>
					</trkpt>
					<trkpt lat="49.143180" lon="2.800000">
						<ele>104</ele>
						<time>2024-11-03T22:41:35Z</time>
					</trkpt>
					<trkpt lat="49.143160" lon="2.799770">
						<ele>105</ele>
						<time>2024-11-03T22:41:38Z</time>
					</trkpt>
					<trkpt lat="49.143180" lon="2.798690">
						<ele>105</ele>
						<time>2024-11-03T22:41:51Z</time>
					</trkpt>
					<trkpt lat="49.143180" lon="2.798310">
						<ele>105</ele>
						<time>2024-11-03T22:41:55Z</time>
					</trkpt>
					<trkpt lat="49.143190" lon="2.797640">
						<ele>105</ele>
						<time>2024-11-03T22:42:03Z</time>
					</trkpt>
					<trkpt lat="49.143230" lon="2.797090">
						<ele>105</ele>
						<time>2024-11-03T22:42:09Z</time>
					</trkpt>
					<trkpt lat="49.143270" lon="2.796820">
						<ele>105</ele>
						<time>2024-11-03T22:42:13Z</time>
					</trkpt>
					<trkpt lat="49.143420" lon="2.796320">
						<ele>104</ele>
						<time>2024-11-03T22:42:19Z</time>
					</trkpt>
					<trkpt lat="49.143710" lon="2.795660">
						<ele>104</ele>
						<time>2024-11-03T22:42:28Z</time>
					</trkpt>
					<trkpt lat="49.143950" lon="2.795140">
						<ele>104</ele>
						<time>2024-11-03T22:42:36Z</time>
					</trkpt>
					<trkpt lat="49.144100" lon="2.794780">
						<ele>104</ele>
						<time>2024-11-03T22:42:41Z</time>
					</trkpt>
					<trkpt lat="49.144310" lon="2.794460">
						<ele>103</ele>
						<time>2024-11-03T22:42:46Z</time>
					</trkpt>
					<trkpt lat="49.144510" lon="2.794190">
						<ele>103</ele>
						<time>2024-11-03T22:42:51Z</time>
					</trkpt>
					<trkpt lat="49.147880" lon="2.790650">
						<ele>106</ele>
						<time>2024-11-03T22:44:03Z</time>
					</trkpt>
					<trkpt lat="49.148420" lon="2.790080">
						<ele>105</ele>
						<time>2024-11-03T22:44:15Z</time>
					</trkpt>
					<trkpt lat="49.148790" lon="2.789610">
						<ele>103</ele>
						<time>2024-11-03T22:44:24Z</time>
					</trkpt>
					<trkpt lat="49.149360" lon="2.788710">
						<ele>99</ele>
						<time>2024-11-03T22:44:38Z</time>
					</trkpt>
					<trkpt lat="49.149830" lon="2.787160">
						<ele>93</ele>
						<time>2024-11-03T22:44:58Z</time>
					</trkpt>
					<trkpt lat="49.150320" lon="2.785420">
						<ele>90</ele>
						<time>2024-11-03T22:45:20Z</time>
					</trkpt>
					<trkpt lat="49.150580" lon="2.784710">
						<ele>90</ele>
						<time>2024-11-03T22:45:30Z</time>
					</trkpt>
					<trkpt lat="49.151120" lon="2.783360">
						<ele>88</ele>
						<time>2024-11-03T22:45:48Z</time>
					</trkpt>
					<trkpt lat="49.151470" lon="2.782340">
						<ele>87</ele>
						<time>2024-11-03T22:46:01Z</time>
					</trkpt>
					<trkpt lat="49.151560" lon="2.781940">
						<ele>87</ele>
						<time>2024-11-03T22:46:06Z</time>
					</trkpt>
					<trkpt lat="49.151880" lon="2.782090">
						<ele>84</ele>
						<time>2024-11-03T22:46:12Z</time>
					</trkpt>
					<trkpt lat="49.152050" lon="2.782270">
						<ele>82</ele>
						<time>2024-11-03T22:46:16Z</time>
					</trkpt>
					<trkpt lat="49.152170" lon="2.782440">
						<ele>82</ele>
						<time>2024-11-03T22:46:19Z</time>
					</trkpt>
					<trkpt lat="49.152230" lon="2.782570">
						<ele>82</ele>
						<time>2024-11-03T22:46:21Z</time>
					</trkpt>
					<trkpt lat="49.152430" lon="2.783190">
						<ele>81</ele>
						<time>2024-11-03T22:46:29Z</time>
					</trkpt>
					<trkpt lat="49.152600" lon="2.783440">
						<ele>81</ele>
						<time>2024-11-03T22:46:33Z</time>
					</trkpt>
					<trkpt lat="49.152780" lon="2.783600">
						<ele>82</ele>
						<time>2024-11-03T22:46:37Z</time>
					</trkpt>
					<trkpt lat="49.154860" lon="2.785180">
						<ele>79</ele>
						<time>2024-11-03T22:47:18Z</time>
					</trkpt>
					<trkpt lat="49.154980" lon="2.785210">
						<ele>79</ele>
						<time>2024-11-03T22:47:20Z</time>
					</trkpt>
					<trkpt lat="49.155190" lon="2.785190">
						<ele>79</ele>
						<time>2024-11-03T22:47:24Z</time>
					</trkpt>
					<trkpt lat="49.155350" lon="2.785240">
						<ele>78</ele>
						<time>2024-11-03T22:47:27Z</time>
					</trkpt>
					<trkpt lat="49.155480" lon="2.785330">
						<ele>78</ele>
						<time>2024-11-03T22:47:29Z</time>
					</trkpt>
					<trkpt lat="49.155670" lon="2.785540">
						<ele>78</ele>
						<time>2024-11-03T22:47:34Z</time>
					</trkpt>
					<trkpt lat="49.155860" lon="2.785900">
						<ele>78</ele>
						<time>2024-11-03T22:47:39Z</time>
					</trkpt>
					<trkpt lat="49.156140" lon="2.786150">
						<ele>79</ele>
						<time>2024-11-03T22:47:45Z</time>
					</trkpt>
					<trkpt lat="49.156380" lon="2.786260">
						<ele>79</ele>
						<time>2024-11-03T22:47:49Z</time>
					</trkpt>
					<trkpt lat="49.156410" lon="2.786280">
						<ele>79</ele>
						<time>2024-11-03T22:47:50Z</time>
					</trkpt>
					<trkpt lat="49.156980" lon="2.787310">
						<ele>80</ele>
						<time>2024-11-03T22:48:05Z</time>
					</trkpt>
					<trkpt lat="49.156870" lon="2.788000">
						<ele>80</ele>
						<time>2024-11-03T22:48:14Z</time>
					</trkpt>
					<trkpt lat="49.156910" lon="2.788090">
						<ele>80</ele>
						<time>2024-11-03T22:48:15Z</time>
					</trkpt>
					<trkpt lat="49.157050" lon="2.788210">
						<ele>80</ele>
						<time>2024-11-03T22:48:18Z</time>
					</trkpt>
					<trkpt lat="49.157370" lon="2.788440">
						<ele>80</ele>
						<time>2024-11-03T22:48:24Z</time>
					</trkpt>
					<trkpt lat="49.157900" lon="2.789280">
						<ele>83</ele>
						<time>2024-11-03T22:48:38Z</time>
					</trkpt>
					<trkpt lat="49.158000" lon="2.789360">
						<ele>84</ele>
						<time>2024-11-03T22:48:40Z</time>
					</trkpt>
					<trkpt lat="49.158270" lon="2.789510">
						<ele>85</ele>
						<time>2024-11-03T22:48:45Z</time>
					</trkpt>
					<trkpt lat="49.158400" lon="2.789710">
						<ele>85</ele>
						<time>2024-11-03T22:48:48Z</time>
					</trkpt>
					<trkpt lat="49.158540" lon="2.790010">
						<ele>86</ele>
						<time>2024-11-03T22:48:52Z</time>
					</trkpt>
					<trkpt lat="49.159270" lon="2.788930">
						<ele>87</ele>
						<time>2024-11-03T22:49:10Z</time>
					</trkpt>
					<trkpt lat="49.160130" lon="2.788110">
						<ele>86</ele>
						<time>2024-11-03T22:49:29Z</time>
					</trkpt>
					<trkpt lat="49.160360" lon="2.788170">
						<ele>86</ele>
						<time>2024-11-03T22:49:33Z</time>
					</trkpt>
					<trkpt lat="49.160570" lon="2.788140">
						<ele>86</ele>
						<time>2024-11-03T22:49:36Z</time>
					</trkpt>
					<trkpt lat="49.161000" lon="2.788010">
						<ele>85</ele>
						<time>2024-11-03T22:49:44Z</time>
					</trkpt>
					<trkpt lat="49.161100" lon="2.787940">
						<ele>85</ele>
						<time>2024-11-03T22:49:46Z</time>
					</trkpt>
					<trkpt lat="49.161500" lon="2.787670">
						<ele>84</ele>
						<time>2024-11-03T22:49:54Z</time>
					</trkpt>
					<trkpt lat="49.161600" lon="2.787630">
						<ele>84</ele>
						<time>2024-11-03T22:49:56Z</time>
					</trkpt>
					<trkpt lat="49.161860" lon="2.787820">
						<ele>84</ele>
						<time>2024-11-03T22:50:01Z</time>
					</trkpt>
					<trkpt lat="49.162230" lon="2.787460">
						<ele>83</ele>
						<time>2024-11-03T22:50:09Z</time>
					</trkpt>
					<trkpt lat="49.162670" lon="2.786910">
						<ele>82</ele>
						<time>2024-11-03T22:50:19Z</time>
					</trkpt>
					<trkpt lat="49.163220" lon="2.786310">
						<ele>84</ele>
						<time>2024-11-03T22:50:31Z</time>
					</trkpt>
					<trkpt lat="49.163390" lon="2.786270">
						<ele>84</ele>
						<time>2024-11-03T22:50:34Z</time>
					</trkpt>
					<trkpt lat="49.164190" lon="2.786270">
						<ele>84</ele>
						<time>2024-11-03T22:50:48Z</time>
					</trkpt>
					<trkpt lat="49.165010" lon="2.786250">
						<ele>87</ele>
						<time>2024-11-03T22:51:03Z</time>
					</trkpt>
					<trkpt lat="49.165310" lon="2.786160">
						<ele>87</ele>
						<time>2024-11-03T22:51:08Z</time>
					</trkpt>
					<trkpt lat="49.165920" lon="2.785940">
						<ele>88</ele>
						<time>2024-11-03T22:51:19Z</time>
					</trkpt>
					<trkpt lat="49.166770" lon="2.785540">
						<ele>87</ele>
						<time>2024-11-03T22:51:35Z</time>
					</trkpt>
					<trkpt lat="49.167610" lon="2.784760">
						<ele>89</ele>
						<time>2024-11-03T22:51:53Z</time>
					</trkpt>
					<trkpt lat="49.168510" lon="2.784120">
						<ele>89</ele>
						<time>2024-11-03T22:52:10Z</time>
					</trkpt>
					<trkpt lat="49.168910" lon="2.783890">
						<ele>88</ele>
						<time>2024-11-03T22:52:18Z</time>
					</trkpt>
					<trkpt lat="49.169190" lon="2.783810">
						<ele>87</ele>
						<time>2024-11-03T22:52:23Z</time>
					</trkpt>
					<trkpt lat="49.169290" lon="2.783760">
						<ele>87</ele>
						<time>2024-11-03T22:52:25Z</time>
					</trkpt>
					<trkpt lat="49.169750" lon="2.783640">
						<ele>87</ele>
						<time>2024-11-03T22:52:33Z</time>
					</trkpt>
					<trkpt lat="49.170070" lon="2.783630">
						<ele>87</ele>
						<time>2024-11-03T22:52:39Z</time>
					</trkpt>
					<trkpt lat="49.171940" lon="2.783770">
						<ele>86</ele>
						<time>2024-11-03T22:53:12Z</time>
					</trkpt>
					<trkpt lat="49.172410" lon="2.783770">
						<ele>86</ele>
						<time>2024-11-03T22:53:21Z</time>
					</trkpt>
					<trkpt lat="49.172840" lon="2.783720">
						<ele>86</ele>
						<time>2024-11-03T22:53:28Z</time>
					</trkpt>
					<trkpt lat="49.173500" lon="2.783590">
						<ele>87</ele>
						<time>2024-11-03T22:53:40Z</time>
					</trkpt>
					<trkpt lat="49.174040" lon="2.783400">
						<ele>87</ele>
						<time>2024-11-03T22:53:50Z</time>
					</trkpt>
					<trkpt lat="49.174730" lon="2.783100">
						<ele>89</ele>
						<time>2024-11-03T22:54:03Z</time>
					</trkpt>
					<trkpt lat="49.174930" lon="2.783040">
						<ele>89</ele>
						<time>2024-11-03T22:54:06Z</time>
					</trkpt>
					<trkpt lat="49.176110" lon="2.782850">
						<ele>92</ele>
						<time>2024-11-03T22:54:27Z</time>
					</trkpt>
					<trkpt lat="49.176590" lon="2.782800">
						<ele>93</ele>
						<time>2024-11-03T22:54:36Z</time>
					</trkpt>
					<trkpt lat="49.176770" lon="2.782810">
						<ele>94</ele>
						<time>2024-11-03T22:54:39Z</time>
					</trkpt>
					<trkpt lat="49.176960" lon="2.782900">
						<ele>95</ele>
						<time>2024-11-03T22:54:43Z</time>
					</trkpt>
					<trkpt lat="49.178310" lon="2.783990">
						<ele>102</ele>
						<time>2024-11-03T22:55:10Z</time>
					</trkpt>
					<trkpt lat="49.178460" lon="2.784160">
						<ele>105</ele>
						<time>2024-11-03T22:55:13Z</time>
					</trkpt>
					<trkpt lat="49.178560" lon="2.784350">
						<ele>107</ele>
						<time>2024-11-03T22:55:16Z</time>
					</trkpt>
					<trkpt lat="49.178590" lon="2.784570">
						<ele>108</ele>
						<time>2024-11-03T22:55:19Z</time>
					</trkpt>
					<trkpt lat="49.178690" lon="2.785500">
						<ele>114</ele>
						<time>2024-11-03T22:55:30Z</time>
					</trkpt>
					<trkpt lat="49.178800" lon="2.785800">
						<ele>117</ele>
						<time>2024-11-03T22:55:34Z</time>
					</trkpt>
					<trkpt lat="49.178880" lon="2.785920">
						<ele>118</ele>
						<time>2024-11-03T22:55:36Z</time>
					</trkpt>
					<trkpt lat="49.179050" lon="2.786000">
						<ele>121</ele>
						<time>2024-11-03T22:55:39Z</time>
					</trkpt>
					<trkpt lat="49.179180" lon="2.785980">
						<ele>123</ele>
						<time>2024-11-03T22:55:41Z</time>
					</trkpt>
					<trkpt lat="49.179300" lon="2.785890">
						<ele>124</ele>
						<time>2024-11-03T22:55:43Z</time>
					</trkpt>
					<trkpt lat="49.179430" lon="2.785670">
						<ele>125</ele>
						<time>2024-11-03T22:55:47Z</time>
					</trkpt>
					<trkpt lat="49.179510" lon="2.785340">
						<ele>124</ele>
						<time>2024-11-03T22:55:51Z</time>
					</trkpt>
					<trkpt lat="49.179690" lon="2.784820">
						<ele>123</ele>
						<time>2024-11-03T22:55:58Z</time>
					</trkpt>
					<trkpt lat="49.179740" lon="2.784710">
						<ele>123</ele>
						<time>2024-11-03T22:55:59Z</time>
					</trkpt>
					<trkpt lat="49.179880" lon="2.784590">
						<ele>124</ele>
						<time>2024-11-03T22:56:02Z</time>
					</trkpt>
					<trkpt lat="49.180200" lon="2.784440">
						<ele>127</ele>
						<time>2024-11-03T22:56:08Z</time>
					</trkpt>
					<trkpt lat="49.180670" lon="2.784300">
						<ele>131</ele>
						<time>2024-11-03T22:56:17Z</time>
					</trkpt>
					<trkpt lat="49.181530" lon="2.784180">
						<ele>132</ele>
						<time>2024-11-03T22:56:32Z</time>
					</trkpt>
					<trkpt lat="49.182230" lon="2.783970">
						<ele>134</ele>
						<time>2024-11-03T22:56:45Z</time>
					</trkpt>
					<trkpt lat="49.183260" lon="2.783190">
						<ele>140</ele>
						<time>2024-11-03T22:57:05Z</time>
					</trkpt>
					<trkpt lat="49.183580" lon="2.783030">
						<ele>141</ele>
						<time>2024-11-03T22:57:11Z</time>
					</trkpt>
					<trkpt lat="49.183870" lon="2.783000">
						<ele>142</ele>
						<time>2024-11-03T22:57:16Z</time>
					</trkpt>
					<trkpt lat="49.185070" lon="2.782950">
						<ele>145</ele>
						<time>2024-11-03T22:57:38Z</time>
					</trkpt>
					<trkpt lat="49.185270" lon="2.782900">
						<ele>145</ele>
						<time>2024-11-03T22:57:41Z</time>
					</trkpt>
					<trkpt lat="49.185580" lon="2.782780">
						<ele>145</ele>
						<time>2024-11-03T22:57:47Z</time>
					</trkpt>
					<trkpt lat="49.186090" lon="2.782560">
						<ele>146</ele>
						<time>2024-11-03T22:57:56Z</time>
					</trkpt>
					<trkpt lat="49.186760" lon="2.782300">
						<ele>147</ele>
						<time>2024-11-03T22:58:09Z</time>
					</trkpt>
					<trkpt lat="49.186970" lon="2.782230">
						<ele>147</ele>
						<time>2024-11-03T22:58:13Z</time>
					</trkpt>
					<trkpt lat="49.187280" lon="2.782130">
						<ele>148</ele>
						<time>2024-11-03T22:58:18Z</time>
					</trkpt>
					<trkpt lat="49.188510" lon="2.781910">
						<ele>150</ele>
						<time>2024-11-03T22:58:40Z</time>
					</trkpt>
					<trkpt lat="49.188500" lon="2.780080">
						<ele>153</ele>
						<time>2024-11-03T22:59:02Z</time>
					</trkpt>
					<trkpt lat="49.188570" lon="2.779790">
						<ele>154</ele>
						<time>2024-11-03T22:59:05Z</time>
					</trkpt>
					<trkpt lat="49.188700" lon="2.779120">
						<ele>156</ele>
						<time>2024-11-03T22:59:13Z</time>
					</trkpt>
					<trkpt lat="49.188670" lon="2.778520">
						<ele>157</ele>
						<time>2024-11-03T22:59:20Z</time>
					</trkpt>
					<trkpt lat="49.188670" lon="2.778290">
						<ele>158</ele>
						<time>2024-11-03T22:59:23Z</time>
					</trkpt>
					<trkpt lat="49.188840" lon="2.777080">
						<ele>162</ele>
						<time>2024-11-03T22:59:37Z</time>
					</trkpt>
					<trkpt lat="49.188860" lon="2.776880">
						<ele>162</ele>
						<time>2024-11-03T22:59:40Z</time>
					</trkpt>
					<trkpt lat="49.188880" lon="2.776620">
						<ele>163</ele>
						<time>2024-11-03T22:59:43Z</time>
					</trkpt>
					<trkpt lat="49.188880" lon="2.776410">
						<ele>162</ele>
						<time>2024-11-03T22:59:45Z</time>
					</trkpt>
					<trkpt lat="49.188830" lon="2.776200">
						<ele>162</ele>
						<time>2024-11-03T22:59:48Z</time>
					</trkpt>
					<trkpt lat="49.188680" lon="2.775820">
						<ele>160</ele>
						<time>2024-11-03T22:59:53Z</time>
					</trkpt>
					<trkpt lat="49.188660" lon="2.775640">
						<ele>160</ele>
						<time>2024-11-03T22:59:55Z</time>
					</trkpt>
					<trkpt lat="49.188680" lon="2.775510">
						<ele>159</ele>
						<time>2024-11-03T22:59:57Z</time>
					</trkpt>
					<trkpt lat="49.189060" lon="2.774410">
						<ele>158</ele>
						<time>2024-11-03T23:00:11Z</time>
					</trkpt>
					<trkpt lat="49.189190" lon="2.773830">
						<ele>156</ele>
						<time>2024-11-03T23:00:18Z</time>
					</trkpt>
					<trkpt lat="49.189300" lon="2.773380">
						<ele>154</ele>
						<time>2024-11-03T23:00:24Z</time>
					</trkpt>
					<trkpt lat="49.189420" lon="2.772540">
						<ele>151</ele>
						<time>2024-11-03T23:00:34Z</time>
					</trkpt>
					<trkpt lat="49.189510" lon="2.771840">
						<ele>149</ele>
						<time>2024-11-03T23:00:42Z</time>
					</trkpt>
					<trkpt lat="49.189450" lon="2.771200">
						<ele>148</ele>
						<time>2024-11-03T23:00:50Z</time>
					</trkpt>
					<trkpt lat="49.189040" lon="2.768120">
						<ele>144</ele>
						<time>2024-11-03T23:01:26Z</time>
					</trkpt>
					<trkpt lat="49.189000" lon="2.767630">
						<ele>143</ele>
						<time>2024-11-03T23:01:32Z</time>
					</trkpt>
					<trkpt lat="49.189020" lon="2.767360">
						<ele>143</ele>
						<time>2024-11-03T23:01:35Z</time>
					</trkpt>
					<trkpt lat="49.189150" lon="2.766980">
						<ele>142</ele>
						<time>2024-11-03T23:01:40Z</time>
					</trkpt>
					<trkpt lat="49.189250" lon="2.766610">
						<ele>142</ele>
						<time>2024-11-03T23:01:45Z</time>
					</trkpt>
					<trkpt lat="49.189290" lon="2.766400">
						<ele>141</ele>
						<time>2024-11-03T23:01:47Z</time>
					</trkpt>
					<trkpt lat="49.189290" lon="2.766250">
						<ele>141</ele>
						<time>2024-11-03T23:01:49Z</time>
					</trkpt>
					<trkpt lat="49.189240" lon="2.766000">
						<ele>140</ele>
						<time>2024-11-03T23:01:52Z</time>
					</trkpt>
					<trkpt lat="49.189150" lon="2.765630">
						<ele>139</ele>
						<time>2024-11-03T23:01:57Z</time>
					</trkpt>
					<trkpt lat="49.188950" lon="2.765210">
						<ele>137</ele>
						<time>2024-11-03T23:02:03Z</time>
					</trkpt>
					<trkpt lat="49.188600" lon="2.764620">
						<ele>135</ele>
						<time>2024-11-03T23:02:12Z</time>
					</trkpt>
					<trkpt lat="49.188530" lon="2.764420">
						<ele>134</ele>
						<time>2024-11-03T23:02:15Z</time>
					</trkpt>
					<trkpt lat="49.188460" lon="2.764150">
						<ele>133</ele>
						<time>2024-11-03T23:02:18Z</time>
					</trkpt>
					<trkpt lat="49.188090" lon="2.762420">
						<ele>132</ele>
						<time>2024-11-03T23:02:39Z</time>
					</trkpt>
					<trkpt lat="49.187500" lon="2.760080">
						<ele>131</ele>
						<time>2024-11-03T23:03:08Z</time>
					</trkpt>
					<trkpt lat="49.187330" lon="2.759500">
						<ele>129</ele>
						<time>2024-11-03T23:03:16Z</time>
					</trkpt>
					<trkpt lat="49.187130" lon="2.758890">
						<ele>127</ele>
						<time>2024-11-03T23:03:24Z</time>
					</trkpt>
					<trkpt lat="49.186950" lon="2.758440">
						<ele>125</ele>
						<time>2024-11-03T23:03:30Z</time>
					</trkpt>
					<trkpt lat="49.186730" lon="2.757940">
						<ele>125</ele>
						<time>2024-11-03T23:03:37Z</time>
					</trkpt>
					<trkpt lat="49.186490" lon="2.757530">
						<ele>124</ele>
						<time>2024-11-03T23:03:43Z</time>
					</trkpt>
					<trkpt lat="49.186350" lon="2.757320">
						<ele>124</ele>
						<time>2024-11-03T23:03:47Z</time>
					</trkpt>
					<trkpt lat="49.184750" lon="2.755550">
						<ele>117</ele>
						<time>2024-11-03T23:04:22Z</time>
					</trkpt>
					<trkpt lat="49.184570" lon="2.755110">
						<ele>114</ele>
						<time>2024-11-03T23:04:28Z</time>
					</trkpt>
					<trkpt lat="49.184520" lon="2.754840">
						<ele>113</ele>
						<time>2024-11-03T23:04:31Z</time>
					</trkpt>
					<trkpt lat="49.184430" lon="2.753830">
						<ele>109</ele>
						<time>2024-11-03T23:04:43Z</time>
					</trkpt>
					<trkpt lat="49.184310" lon="2.753160">
						<ele>107</ele>
						<time>2024-11-03T23:04:51Z</time>
					</trkpt>
					<trkpt lat="49.184100" lon="2.752510">
						<ele>104</ele>
						<time>2024-11-03T23:04:59Z</time>
					</trkpt>
					<trkpt lat="49.184070" lon="2.752420">
						<ele>103</ele>
						<time>2024-11-03T23:05:01Z</time>
					</trkpt>
					<trkpt lat="49.183820" lon="2.751660">
						<ele>98</ele>
						<time>2024-11-03T23:05:11Z</time>
					</trkpt>
					<trkpt lat="49.183750" lon="2.751430">
						<ele>97</ele>
						<time>2024-11-03T23:05:13Z</time>
					</trkpt>
					<trkpt lat="49.183490" lon="2.750670">
						<ele>95</ele>
						<time>2024-11-03T23:05:23Z</time>
					</trkpt>
					<trkpt lat="49.183280" lon="2.750220">
						<ele>94</ele>
						<time>2024-11-03T23:05:30Z</time>
					</trkpt>
					<trkpt lat="49.183090" lon="2.749890">
						<ele>93</ele>
						<time>2024-11-03T23:05:35Z</time>
					</trkpt>
					<trkpt lat="49.181190" lon="2.747120">
						<ele>87</ele>
						<time>2024-11-03T23:06:22Z</time>
					</trkpt>
					<trkpt lat="49.180880" lon="2.746610">
						<ele>88</ele>
						<time>2024-11-03T23:06:30Z</time>
					</trkpt>
					<trkpt lat="49.180150" lon="2.744340">
						<ele>85</ele>
						<time>2024-11-03T23:06:59Z</time>
					</trkpt>
					<trkpt lat="49.179870" lon="2.743610">
						<ele>85</ele>
						<time>2024-11-03T23:07:09Z</time>
					</trkpt>
					<trkpt lat="49.178650" lon="2.741440">
						<ele>83</ele>
						<time>2024-11-03T23:07:42Z</time>
					</trkpt>
					<trkpt lat="49.178050" lon="2.740290">
						<ele>83</ele>
						<time>2024-11-03T23:07:59Z</time>
					</trkpt>
					<trkpt lat="49.177480" lon="2.739180">
						<ele>82</ele>
						<time>2024-11-03T23:08:16Z</time>
					</trkpt>
					<trkpt lat="49.176930" lon="2.738240">
						<ele>84</ele>
						<time>2024-11-03T23:08:31Z</time>
					</trkpt>
					<trkpt lat="49.175980" lon="2.736850">
						<ele>82</ele>
						<time>2024-11-03T23:08:54Z</time>
					</trkpt>
					<trkpt lat="49.175960" lon="2.736650">
						<ele>82</ele>
						<time>2024-11-03T23:08:56Z</time>
					</trkpt>
					<trkpt lat="49.174990" lon="2.736500">
						<ele>83</ele>
						<time>2024-11-03T23:09:14Z</time>
					</trkpt>
					<trkpt lat="49.174720" lon="2.736450">
						<ele>83</ele>
						<time>2024-11-03T23:09:18Z</time>
					</trkpt>
					<trkpt lat="49.174070" lon="2.736330">
						<ele>82</ele>
						<time>2024-11-03T23:09:30Z</time>
					</trkpt>
					<trkpt lat="49.173510" lon="2.736180">
						<ele>83</ele>
						<time>2024-11-03T23:09:40Z</time>
					</trkpt>
					<trkpt lat="49.173340" lon="2.736110">
						<ele>83</ele>
						<time>2024-11-03T23:09:43Z</time>
					</trkpt>
					<trkpt lat="49.172660" lon="2.735620">
						<ele>82</ele>
						<time>2024-11-03T23:09:57Z</time>
					</trkpt>
					<trkpt lat="49.171710" lon="2.735010">
						<ele>78</ele>
						<time>2024-11-03T23:10:15Z</time>
					</trkpt>
					<trkpt lat="49.171830" lon="2.734740">
						<ele>79</ele>
						<time>2024-11-03T23:10:19Z</time>
					</trkpt>
					<trkpt lat="49.171960" lon="2.734530">
						<ele>79</ele>
						<time>2024-11-03T23:10:22Z</time>
					</trkpt>
					<trkpt lat="49.171910" lon="2.734360">
						<ele>79</ele>
						<time>2024-11-03T23:10:24Z</time>
					</trkpt>
					<trkpt lat="49.171860" lon="2.734190">
						<ele>79</ele>
						<time>2024-11-03T23:10:27Z</time>
					</trkpt>
					<trkpt lat="49.171850" lon="2.734140">
						<ele>79</ele>
						<time>2024-11-03T23:10:27Z</time>
					</trkpt>
					<trkpt lat="49.171810" lon="2.733990">
						<ele>78</ele>
						<time>2024-11-03T23:10:29Z</time>
					</trkpt>
					<trkpt lat="49.171720" lon="2.733620">
						<ele>78</ele>
						<time>2024-11-03T23:10:34Z</time>
					</trkpt>
					<trkpt lat="49.171450" lon="2.732790">
						<ele>75</ele>
						<time>2024-11-03T23:10:44Z</time>
					</trkpt>
					<trkpt lat="49.171300" lon="2.732240">
						<ele>74</ele>
						<time>2024-11-03T23:10:51Z</time>
					</trkpt>
					<trkpt lat="49.171190" lon="2.731990">
						<ele>73</ele>
						<time>2024-11-03T23:10:55Z</time>
					</trkpt>
					<trkpt lat="49.171070" lon="2.731760">
						<ele>72</ele>
						<time>2024-11-03T23:10:58Z</time>
					</trkpt>
					<trkpt lat="49.171020" lon="2.731750">
						<ele>72</ele>
						<time>2024-11-03T23:10:59Z</time>
					</trkpt>
					<trkpt lat="49.170800" lon="2.731690">
						<ele>72</ele>
						<time>2024-11-03T23:11:03Z</time>
					</trkpt>
					<trkpt lat="49.170630" lon="2.731630">
						<ele>72</ele>
						<time>2024-11-03T23:11:06Z</time>
					</trkpt>
					<trkpt lat="49.170090" lon="2.731480">
						<ele>71</ele>
						<time>2024-11-03T23:11:16Z</time>
					</trkpt>
					<trkpt lat="49.169820" lon="2.731460">
						<ele>71</ele>
						<time>2024-11-03T23:11:21Z</time>
					</trkpt>
					<trkpt lat="49.169450" lon="2.731430">
						<ele>72</ele>
						<time>2024-11-03T23:11:27Z</time>
					</trkpt>
					<trkpt lat="49.169240" lon="2.731270">
						<ele>72</ele>
						<time>2024-11-03T23:11:32Z</time>
					</trkpt>
					<trkpt lat="49.168440" lon="2.730320">
						<ele>75</ele>
						<time>2024-11-03T23:11:50Z</time>
					</trkpt>
					<trkpt lat="49.167530" lon="2.729800">
						<ele>77</ele>
						<time>2024-11-03T23:12:07Z</time>
					</trkpt>
					<trkpt lat="49.167450" lon="2.729800">
						<ele>77</ele>
						<time>2024-11-03T23:12:08Z</time>
					</trkpt>
					<trkpt lat="49.165570" lon="2.729940">
						<ele>79</ele>
						<time>2024-11-03T23:12:42Z</time>
					</trkpt>
					<trkpt lat="49.164940" lon="2.729930">
						<ele>80</ele>
						<time>2024-11-03T23:12:53Z</time>
					</trkpt>
					<trkpt lat="49.164170" lon="2.729790">
						<ele>80</ele>
						<time>2024-11-03T23:13:07Z</time>
					</trkpt>
					<trkpt lat="49.163030" lon="2.729730">
						<ele>81</ele>
						<time>2024-11-03T23:13:27Z</time>
					</trkpt>
					<trkpt lat="49.162540" lon="2.729570">
						<ele>81</ele>
						<time>2024-11-03T23:13:36Z</time>
					</trkpt>
					<trkpt lat="49.162040" lon="2.729350">
						<ele>81</ele>
						<time>2024-11-03T23:13:45Z</time>
					</trkpt>
					<trkpt lat="49.161860" lon="2.729290">
						<ele>80</ele>
						<time>2024-11-03T23:13:49Z</time>
					</trkpt>
					<trkpt lat="49.161630" lon="2.729310">
						<ele>80</ele>
						<time>2024-11-03T23:13:53Z</time>
					</trkpt>
					<trkpt lat="49.157590" lon="2.729940">
						<ele>79</ele>
						<time>2024-11-03T23:15:05Z</time>
					</trkpt>
					<trkpt lat="49.155670" lon="2.730330">
						<ele>81</ele>
						<time>2024-11-03T23:15:39Z</time>
					</trkpt>
					<trkpt lat="49.155380" lon="2.730450">
						<ele>81</ele>
						<time>2024-11-03T23:15:45Z</time>
					</trkpt>
					<trkpt lat="49.154870" lon="2.730750">
						<ele>81</ele>
						<time>2024-11-03T23:15:54Z</time>
					</trkpt>
					<trkpt lat="49.154510" lon="2.730960">
						<ele>80</ele>
						<time>2024-11-03T23:16:01Z</time>
					</trkpt>
					<trkpt lat="49.153330" lon="2.731610">
						<ele>83</ele>
						<time>2024-11-03T23:16:24Z</time>
					</trkpt>
					<trkpt lat="49.152150" lon="2.731960">
						<ele>88</ele>
						<time>2024-11-03T23:16:45Z</time>
					</trkpt>
					<trkpt lat="49.151300" lon="2.732180">
						<ele>90</ele>
						<time>2024-11-03T23:17:00Z</time>
					</trkpt>
					<trkpt lat="49.151050" lon="2.732340">
						<ele>90</ele>
						<time>2024-11-03T23:17:05Z</time>
					</trkpt>
					<trkpt lat="49.148750" lon="2.734550">
						<ele>117</ele>
						<time>2024-11-03T23:17:54Z</time>
					</trkpt>
					<trkpt lat="49.147980" lon="2.735080">
						<ele>119</ele>
						<time>2024-11-03T23:18:09Z</time>
					</trkpt>
					<trkpt lat="49.146060" lon="2.735890">
						<ele>118</ele>
						<time>2024-11-03T23:18:44Z</time>
					</trkpt>
					<trkpt lat="49.145450" lon="2.736160">
						<ele>117</ele>
						<time>2024-11-03T23:18:55Z</time>
					</trkpt>
					<trkpt lat="49.143750" lon="2.736870">
						<ele>122</ele>
						<time>2024-11-03T23:19:27Z</time>
					</trkpt>
					<trkpt lat="49.142140" lon="2.737550">
						<ele>117</ele>
						<time>2024-11-03T23:19:56Z</time>
					</trkpt>
					<trkpt lat="49.141390" lon="2.737810">
						<ele>114</ele>
						<time>2024-11-03T23:20:10Z</time>
					</trkpt>
					<trkpt lat="49.139720" lon="2.738450">
						<ele>111</ele>
						<time>2024-11-03T23:20:41Z</time>
					</trkpt>
					<trkpt lat="49.139570" lon="2.738500">
						<ele>111</ele>
						<time>2024-11-03T23:20:43Z</time>
					</trkpt>
					<trkpt lat="49.138970" lon="2.738740">
						<ele>111</ele>
						<time>2024-11-03T23:20:54Z</time>
					</trkpt>
					<trkpt lat="49.138710" lon="2.738820">
						<ele>111</ele>
						<time>2024-11-03T23:20:59Z</time>
					</trkpt>
					<trkpt lat="49.137500" lon="2.739000">
						<ele>113</ele>
						<time>2024-11-03T23:21:21Z</time>
					</trkpt>
					<trkpt lat="49.136560" lon="2.739120">
						<ele>113</ele>
						<time>2024-11-03T23:21:38Z</time>
					</trkpt>
					<trkpt lat="49.136260" lon="2.739100">
						<ele>112</ele>
						<time>2024-11-03T23:21:43Z</time>
					</trkpt>
					<trkpt lat="49.135480" lon="2.738850">
						<ele>110</ele>
						<time>2024-11-03T23:21:57Z</time>
					</trkpt>
					<trkpt lat="49.135220" lon="2.738800">
						<ele>110</ele>
						<time>2024-11-03T23:22:02Z</time>
					</trkpt>
					<trkpt lat="49.134980" lon="2.738810">
						<ele>110</ele>
						<time>2024-11-03T23:22:06Z</time>
					</trkpt>
					<trkpt lat="49.134710" lon="2.738860">
						<ele>110</ele>
						<time>2024-11-03T23:22:11Z</time>
					</trkpt>
					<trkpt lat="49.134030" lon="2.739120">
						<ele>111</ele>
						<time>2024-11-03T23:22:23Z</time>
					</trkpt>
					<trkpt lat="49.133730" lon="2.739240">
						<ele>112</ele>
						<time>2024-11-03T23:22:29Z</time>
					</trkpt>
					<trkpt lat="49.132690" lon="2.739320">
						<ele>111</ele>
						<time>2024-11-03T23:22:47Z</time>
					</trkpt>
					<trkpt lat="49.132590" lon="2.739330">
						<ele>111</ele>
						<time>2024-11-03T23:22:49Z</time>
					</trkpt>
					<trkpt lat="49.132060" lon="2.739540">
						<ele>111</ele>
						<time>2024-11-03T23:22:59Z</time>
					</trkpt>
					<trkpt lat="49.131870" lon="2.739590">
						<ele>111</ele>
						<time>2024-11-03T23:23:02Z</time>
					</trkpt>
					<trkpt lat="49.131640" lon="2.739600">
						<ele>110</ele>
						<time>2024-11-03T23:23:06Z</time>
					</trkpt>
					<trkpt lat="49.131300" lon="2.739520">
						<ele>110</ele>
						<time>2024-11-03T23:23:13Z</time>
					</trkpt>
					<trkpt lat="49.130890" lon="2.739410">
						<ele>110</ele>
						<time>2024-11-03T23:23:20Z</time>
					</trkpt>
					<trkpt lat="49.130700" lon="2.739300">
						<ele>110</ele>
						<time>2024-11-03T23:23:24Z</time>
					</trkpt>
					<trkpt lat="49.130550" lon="2.739130">
						<ele>110</ele>
						<time>2024-11-03T23:23:27Z</time>
					</trkpt>
					<trkpt lat="49.130190" lon="2.738530">
						<ele>110</ele>
						<time>2024-11-03T23:23:36Z</time>
					</trkpt>
					<trkpt lat="49.129800" lon="2.737820">
						<ele>109</ele>
						<time>2024-11-03T23:23:47Z</time>
					</trkpt>
					<trkpt lat="49.129650" lon="2.737510">
						<ele>109</ele>
						<time>2024-11-03T23:23:52Z</time>
					</trkpt>
					<trkpt lat="49.129490" lon="2.737630">
						<ele>109</ele>
						<time>2024-11-03T23:23:55Z</time>
					</trkpt>
					<trkpt lat="49.129280" lon="2.737650">
						<ele>109</ele>
						<time>2024-11-03T23:23:59Z</time>
					</trkpt>
					<trkpt lat="49.129120" lon="2.737580">
						<ele>109</ele>
						<time>2024-11-03T23:24:02Z</time>
					</trkpt>
					<trkpt lat="49.128460" lon="2.736430">
						<ele>108</ele>
						<time>2024-11-03T23:24:19Z</time>
					</trkpt>
					<trkpt lat="49.128140" lon="2.735770">
						<ele>107</ele>
						<time>2024-11-03T23:24:29Z</time>
					</trkpt>
					<trkpt lat="49.127980" lon="2.735350">
						<ele>107</ele>
						<time>2024-11-03T23:24:35Z</time>
					</trkpt>
					<trkpt lat="49.127970" lon="2.735310">
						<ele>107</ele>
						<time>2024-11-03T23:24:35Z</time>
					</trkpt>
					<trkpt lat="49.127920" lon="2.735150">
						<ele>107</ele>
						<time>2024-11-03T23:24:37Z</time>
					</trkpt>
					<trkpt lat="49.127840" lon="2.734610">
						<ele>108</ele>
						<time>2024-11-03T23:24:44Z</time>
					</trkpt>
					<trkpt lat="49.127860" lon="2.734490">
						<ele>108</ele>
						<time>2024-11-03T23:24:45Z</time>
					</trkpt>
					<trkpt lat="49.127840" lon="2.734430">
						<ele>108</ele>
						<time>2024-11-03T23:24:46Z</time>
					</trkpt>
					<trkpt lat="49.127780" lon="2.734360">
						<ele>108</ele>
						<time>2024-11-03T23:24:47Z</time>
					</trkpt>
					<trkpt lat="49.127500" lon="2.733830">
						<ele>107</ele>
						<time>2024-11-03T23:24:55Z</time>
					</trkpt>
					<trkpt lat="49.127480" lon="2.733770">
						<ele>107</ele>
						<time>2024-11-03T23:24:56Z</time>
					</trkpt>
					<trkpt lat="49.126530" lon="2.730910">
						<ele>106</ele>
						<time>2024-11-03T23:25:33Z</time>
					</trkpt>
					<trkpt lat="49.126290" lon="2.730060">
						<ele>106</ele>
						<time>2024-11-03T23:25:44Z</time>
					</trkpt>
					<trkpt lat="49.126220" lon="2.729770">
						<ele>106</ele>
						<time>2024-11-03T23:25:48Z</time>
					</trkpt>
					<trkpt lat="49.126150" lon="2.729380">
						<ele>105</ele>
						<time>2024-11-03T23:25:52Z</time>
					</trkpt>
					<trkpt lat="49.126110" lon="2.728760">
						<ele>105</ele>
						<time>2024-11-03T23:26:00Z</time>
					</trkpt>
					<trkpt lat="49.126110" lon="2.728350">
						<ele>105</ele>
						<time>2024-11-03T23:26:04Z</time>
					</trkpt>
					<trkpt lat="49.126150" lon="2.727840">
						<ele>106</ele>
						<time>2024-11-03T23:26:10Z</time>
					</trkpt>
					<trkpt lat="49.126200" lon="2.727290">
						<ele>105</ele>
						<time>2024-11-03T23:26:17Z</time>
					</trkpt>
					<trkpt lat="49.126350" lon="2.725880">
						<ele>103</ele>
						<time>2024-11-03T23:26:33Z</time>
					</trkpt>
					<trkpt lat="49.126650" lon="2.723070">
						<ele>98</ele>
						<time>2024-11-03T23:27:07Z</time>
					</trkpt>
					<trkpt lat="49.126780" lon="2.721730">
						<ele>97</ele>
						<time>2024-11-03T23:27:22Z</time>
					</trkpt>
					<trkpt lat="49.126810" lon="2.720530">
						<ele>95</ele>
						<time>2024-11-03T23:27:36Z</time>
					</trkpt>
					<trkpt lat="49.126820" lon="2.719430">
						<ele>95</ele>
						<time>2024-11-03T23:27:49Z</time>
					</trkpt>
					<trkpt lat="49.126750" lon="2.718720">
						<ele>97</ele>
						<time>2024-11-03T23:27:58Z</time>
					</trkpt>
					<trkpt lat="49.126680" lon="2.718330">
						<ele>99</ele>
						<time>2024-11-03T23:28:02Z</time>
					</trkpt>
					<trkpt lat="49.126150" lon="2.716160">
						<ele>107</ele>
						<time>2024-11-03T23:28:29Z</time>
					</trkpt>
					<trkpt lat="49.126050" lon="2.715310">
						<ele>109</ele>
						<time>2024-11-03T23:28:39Z</time>
					</trkpt>
					<trkpt lat="49.125560" lon="2.709730">
						<ele>112</ele>
						<time>2024-11-03T23:29:45Z</time>
					</trkpt>
					<trkpt lat="49.125120" lon="2.704630">
						<ele>110</ele>
						<time>2024-11-03T23:30:45Z</time>
					</trkpt>
					<trkpt lat="49.125060" lon="2.702590">
						<ele>105</ele>
						<time>2024-11-03T23:31:08Z</time>
					</trkpt>
					<trkpt lat="49.125040" lon="2.702280">
						<ele>104</ele>
						<time>2024-11-03T23:31:12Z</time>
					</trkpt>
					<trkpt lat="49.125000" lon="2.702070">
						<ele>104</ele>
						<time>2024-11-03T23:31:15Z</time>
					</trkpt>
					<trkpt lat="49.124950" lon="2.701930">
						<ele>104</ele>
						<time>2024-11-03T23:31:17Z</time>
					</trkpt>
					<trkpt lat="49.124810" lon="2.701780">
						<ele>104</ele>
						<time>2024-11-03T23:31:20Z</time>
					</trkpt>
					<trkpt lat="49.124650" lon="2.701650">
						<ele>104</ele>
						<time>2024-11-03T23:31:23Z</time>
					</trkpt>
					<trkpt lat="49.124760" lon="2.701070">
						<ele>103</ele>
						<time>2024-11-03T23:31:30Z</time>
					</trkpt>
					<trkpt lat="49.124810" lon="2.700720">
						<ele>103</ele>
						<time>2024-11-03T23:31:34Z</time>
					</trkpt>
					<trkpt lat="49.124840" lon="2.700310">
						<ele>103</ele>
						<time>2024-11-03T23:31:39Z</time>
					</trkpt>
					<trkpt lat="49.124840" lon="2.700010">
						<ele>102</ele>
						<time>2024-11-03T23:31:42Z</time>
					</trkpt>
					<trkpt lat="49.124920" lon="2.699180">
						<ele>102</ele>
						<time>2024-11-03T23:31:52Z</time>
					</trkpt>
					<trkpt lat="49.124960" lon="2.698940">
						<ele>102</ele>
						<time>2024-11-03T23:31:55Z</time>
					</trkpt>
					<trkpt lat="49.125040" lon="2.698800">
						<ele>102</ele>
						<time>2024-11-03T23:31:57Z</time>
					</trkpt>
					<trkpt lat="49.125140" lon="2.698720">
						<ele>101</ele>
						<time>2024-11-03T23:31:59Z</time>
					</trkpt>
					<trkpt lat="49.125710" lon="2.698400">
						<ele>100</ele>
						<time>2024-11-03T23:32:10Z</time>
					</trkpt>
					<trkpt lat="49.126260" lon="2.698210">
						<ele>97</ele>
						<time>2024-11-03T23:32:20Z</time>
					</trkpt>
					<trkpt lat="49.126390" lon="2.698110">
						<ele>96</ele>
						<time>2024-11-03T23:32:23Z</time>
					</trkpt>
					<trkpt lat="49.126570" lon="2.697870">
						<ele>94</ele>
						<time>2024-11-03T23:32:27Z</time>
					</trkpt>
					<trkpt lat="49.126640" lon="2.697680">
						<ele>93</ele>
						<time>2024-11-03T23:32:29Z</time>
					</trkpt>
					<trkpt lat="49.126680" lon="2.697460">
						<ele>92</ele>
						<time>2024-11-03T23:32:32Z</time>
					</trkpt>
					<trkpt lat="49.126690" lon="2.697230">
						<ele>91</ele>
						<time>2024-11-03T23:32:35Z</time>
					</trkpt>
					<trkpt lat="49.126660" lon="2.697020">
						<ele>91</ele>
						<time>2024-11-03T23:32:37Z</time>
					</trkpt>
					<trkpt lat="49.126540" lon="2.696660">
						<ele>92</ele>
						<time>2024-11-03T23:32:42Z</time>
					</trkpt>
					<trkpt lat="49.126400" lon="2.696400">
						<ele>92</ele>
						<time>2024-11-03T23:32:46Z</time>
					</trkpt>
					<trkpt lat="49.126250" lon="2.696240">
						<ele>92</ele>
						<time>2024-11-03T23:32:49Z</time>
					</trkpt>
					<trkpt lat="49.126170" lon="2.696180">
						<ele>92</ele>
						<time>2024-11-03T23:32:51Z</time>
					</trkpt>
					<trkpt lat="49.126100" lon="2.696140">
						<ele>93</ele>
						<time>2024-11-03T23:32:52Z</time>
					</trkpt>
					<trkpt lat="49.125950" lon="2.696110">
						<ele>94</ele>
						<time>2024-11-03T23:32:55Z</time>
					</trkpt>
					<trkpt lat="49.125700" lon="2.696130">
						<ele>94</ele>
						<time>2024-11-03T23:32:59Z</time>
					</trkpt>
					<trkpt lat="49.125520" lon="2.696180">
						<ele>94</ele>
						<time>2024-11-03T23:33:02Z</time>
					</trkpt>
					<trkpt lat="49.125390" lon="2.696180">
						<ele>94</ele>
						<time>2024-11-03T23:33:05Z</time>
					</trkpt>
					<trkpt lat="49.125280" lon="2.696120">
						<ele>93</ele>
						<time>2024-11-03T23:33:07Z</time>
					</trkpt>
					<trkpt lat="49.125160" lon="2.696020">
						<ele>92</ele>
						<time>2024-11-03T23:33:09Z</time>
					</trkpt>
					<trkpt lat="49.125110" lon="2.695940">
						<ele>92</ele>
						<time>2024-11-03T23:33:10Z</time>
					</trkpt>
					<trkpt lat="49.125080" lon="2.695880">
						<ele>91</ele>
						<time>2024-11-03T23:33:11Z</time>
					</trkpt>
					<trkpt lat="49.125050" lon="2.695730">
						<ele>91</ele>
						<time>2024-11-03T23:33:13Z</time>
					</trkpt>
					<trkpt lat="49.125230" lon="2.694830">
						<ele>87</ele>
						<time>2024-11-03T23:33:24Z</time>
					</trkpt>
					<trkpt lat="49.125360" lon="2.694350">
						<ele>85</ele>
						<time>2024-11-03T23:33:30Z</time>
					</trkpt>
					<trkpt lat="49.125460" lon="2.694080">
						<ele>83</ele>
						<time>2024-11-03T23:33:34Z</time>
					</trkpt>
					<trkpt lat="49.125500" lon="2.693950">
						<ele>83</ele>
						<time>2024-11-03T23:33:35Z</time>
					</trkpt>
					<trkpt lat="49.125540" lon="2.693790">
						<ele>82</ele>
						<time>2024-11-03T23:33:37Z</time>
					</trkpt>
					<trkpt lat="49.125600" lon="2.693540">
						<ele>82</ele>
						<time>2024-11-03T23:33:41Z</time>
					</trkpt>
					<trkpt lat="49.125610" lon="2.693500">
						<ele>82</ele>
						<time>2024-11-03T23:33:41Z</time>
					</trkpt>
					<trkpt lat="49.125630" lon="2.693300">
						<ele>81</ele>
						<time>2024-11-03T23:33:43Z</time>
					</trkpt>
					<trkpt lat="49.125620" lon="2.693200">
						<ele>81</ele>
						<time>2024-11-03T23:33:45Z</time>
					</trkpt>
					<trkpt lat="49.125590" lon="2.692900">
						<ele>80</ele>
						<time>2024-11-03T23:33:48Z</time>
					</trkpt>
					<trkpt lat="49.125580" lon="2.692650">
						<ele>79</ele>
						<time>2024-11-03T23:33:51Z</time>
					</trkpt>
					<trkpt lat="49.125600" lon="2.692450">
						<ele>79</ele>
						<time>2024-11-03T23:33:53Z</time>
					</trkpt>
					<trkpt lat="49.125640" lon="2.692300">
						<ele>79</ele>
						<time>2024-11-03T23:33:55Z</time>
					</trkpt>
					<trkpt lat="49.125860" lon="2.691980">
						<ele>80</ele>
						<time>2024-11-03T23:34:01Z</time>
					</trkpt>
					<trkpt lat="49.125980" lon="2.691810">
						<ele>81</ele>
						<time>2024-11-03T23:34:04Z</time>
					</trkpt>
					<trkpt lat="49.126410" lon="2.691270">
						<ele>81</ele>
						<time>2024-11-03T23:34:14Z</time>
					</trkpt>
					<trkpt lat="49.126580" lon="2.690820">
						<ele>81</ele>
						<time>2024-11-03T23:34:20Z</time>
					</trkpt>
					<trkpt lat="49.126620" lon="2.690740">
						<ele>81</ele>
						<time>2024-11-03T23:34:21Z</time>
					</trkpt>
					<trkpt lat="49.126720" lon="2.690610">
						<ele>81</ele>
						<time>2024-11-03T23:34:23Z</time>
					</trkpt>
					<trkpt lat="49.126870" lon="2.690490">
						<ele>81</ele>
						<time>2024-11-03T23:34:26Z</time>
					</trkpt>
					<trkpt lat="49.127380" lon="2.690150">
						<ele>81</ele>
						<time>2024-11-03T23:34:36Z</time>
					</trkpt>
					<trkpt lat="49.127860" lon="2.689870">
						<ele>83</ele>
						<time>2024-11-03T23:34:45Z</time>
					</trkpt>
					<trkpt lat="49.128040" lon="2.689850">
						<ele>84</ele>
						<time>2024-11-03T23:34:48Z</time>
					</trkpt>
					<trkpt lat="49.128290" lon="2.689940">
						<ele>84</ele>
						<time>2024-11-03T23:34:53Z</time>
					</trkpt>
					<trkpt lat="49.128490" lon="2.690030">
						<ele>85</ele>
						<time>2024-11-03T23:34:57Z</time>
					</trkpt>
					<trkpt lat="49.128560" lon="2.689980">
						<ele>86</ele>
						<time>2024-11-03T23:34:58Z</time>
					</trkpt>
					<trkpt lat="49.128580" lon="2.689940">
						<ele>86</ele>
						<time>2024-11-03T23:34:59Z</time>
					</trkpt>
					<trkpt lat="49.128560" lon="2.689880">
						<ele>86</ele>
						<time>2024-11-03T23:34:59Z</time>
					</trkpt>
					<trkpt lat="49.128510" lon="2.689730">
						<ele>87</ele>
						<time>2024-11-03T23:35:01Z</time>
					</trkpt>
					<trkpt lat="49.127490" lon="2.689220">
						<ele>84</ele>
						<time>2024-11-03T23:35:20Z</time>
					</trkpt>
					<trkpt lat="49.127120" lon="2.688840">
						<ele>87</ele>
						<time>2024-11-03T23:35:28Z</time>
					</trkpt>
					<trkpt lat="49.126370" lon="2.687450">
						<ele>95</ele>
						<time>2024-11-03T23:35:49Z</time>
					</trkpt>
					<trkpt lat="49.125780" lon="2.686350">
						<ele>99</ele>
						<time>2024-11-03T23:36:06Z</time>
					</trkpt>
					<trkpt lat="49.125640" lon="2.685950">
						<ele>100</ele>
						<time>2024-11-03T23:36:11Z</time>
					</trkpt>
					<trkpt lat="49.125630" lon="2.685820">
						<ele>100</ele>
						<time>2024-11-03T23:36:13Z</time>
					</trkpt>
					<trkpt lat="49.125640" lon="2.685720">
						<ele>100</ele>
						<time>2024-11-03T23:36:14Z</time>
					</trkpt>
					<trkpt lat="49.125690" lon="2.685550">
						<ele>100</ele>
						<time>2024-11-03T23:36:16Z</time>
					</trkpt>
					<trkpt lat="49.125740" lon="2.685430">
						<ele>100</ele>
						<time>2024-11-03T23:36:18Z</time>
					</trkpt>
					<trkpt lat="49.125750" lon="2.685220">
						<ele>100</ele>
						<time>2024-11-03T23:36:20Z</time>
					</trkpt>
					<trkpt lat="49.125710" lon="2.685090">
						<ele>100</ele>
						<time>2024-11-03T23:36:22Z</time>
					</trkpt>
					<trkpt lat="49.125660" lon="2.684990">
						<ele>101</ele>
						<time>2024-11-03T23:36:23Z</time>
					</trkpt>
					<trkpt lat="49.125610" lon="2.684940">
						<ele>101</ele>
						<time>2024-11-03T23:36:24Z</time>
					</trkpt>
					<trkpt lat="49.125470" lon="2.684840">
						<ele>102</ele>
						<time>2024-11-03T23:36:27Z</time>
					</trkpt>
					<trkpt lat="49.125400" lon="2.684750">
						<ele>102</ele>
						<time>2024-11-03T23:36:29Z</time>
					</trkpt>
					<trkpt lat="49.125350" lon="2.684630">
						<ele>103</ele>
						<time>2024-11-03T23:36:30Z</time>
					</trkpt>
					<trkpt lat="49.125210" lon="2.684110">
						<ele>106</ele>
						<time>2024-11-03T23:36:37Z</time>
					</trkpt>
					<trkpt lat="49.125050" lon="2.681500">
						<ele>109</ele>
						<time>2024-11-03T23:37:07Z</time>
					</trkpt>
					<trkpt lat="49.124930" lon="2.680110">
						<ele>110</ele>
						<time>2024-11-03T23:37:24Z</time>
					</trkpt>
					<trkpt lat="49.124530" lon="2.675580">
						<ele>108</ele>
						<time>2024-11-03T23:38:17Z</time>
					</trkpt>
					<trkpt lat="49.124180" lon="2.673750">
						<ele>109</ele>
						<time>2024-11-03T23:38:39Z</time>
					</trkpt>
					<trkpt lat="49.124080" lon="2.672670">
						<ele>108</ele>
						<time>2024-11-03T23:38:52Z</time>
					</trkpt>
					<trkpt lat="49.124050" lon="2.671780">
						<ele>110</ele>
						<time>2024-11-03T23:39:02Z</time>
					</trkpt>
					<trkpt lat="49.124020" lon="2.671510">
						<ele>110</ele>
						<time>2024-11-03T23:39:05Z</time>
					</trkpt>
					<trkpt lat="49.123920" lon="2.670780">
						<ele>109</ele>
						<time>2024-11-03T23:39:14Z</time>
					</trkpt>
					<trkpt lat="49.123800" lon="2.670000">
						<ele>110</ele>
						<time>2024-11-03T23:39:23Z</time>
					</trkpt>
					<trkpt lat="49.123180" lon="2.667230">
						<ele>115</ele>
						<time>2024-11-03T23:39:58Z</time>
					</trkpt>
					<trkpt lat="49.121890" lon="2.663960">
						<ele>111</ele>
						<time>2024-11-03T23:40:42Z</time>
					</trkpt>
					<trkpt lat="49.120550" lon="2.661220">
						<ele>116</ele>
						<time>2024-11-03T23:41:22Z</time>
					</trkpt>
					<trkpt lat="49.118050" lon="2.656190">
						<ele>113</ele>
						<time>2024-11-03T23:42:35Z</time>
					</trkpt>
					<trkpt lat="49.117850" lon="2.655810">
						<ele>112</ele>
						<time>2024-11-03T23:42:41Z</time>
					</trkpt>
					<trkpt lat="49.117440" lon="2.652030">
						<ele>112</ele>
						<time>2024-11-03T23:43:26Z</time>
					</trkpt>
					<trkpt lat="49.117230" lon="2.650090">
						<ele>108</ele>
						<time>2024-11-03T23:43:49Z</time>
					</trkpt>
					<trkpt lat="49.117060" lon="2.648560">
						<ele>105</ele>
						<time>2024-11-03T23:44:07Z</time>
					</trkpt>
					<trkpt lat="49.117000" lon="2.648090">
						<ele>104</ele>
						<time>2024-11-03T23:44:12Z</time>
					</trkpt>
					<trkpt lat="49.116890" lon="2.647750">
						<ele>104</ele>
						<time>2024-11-03T23:44:17Z</time>
					</trkpt>
					<trkpt lat="49.116360" lon="2.646480">
						<ele>102</ele>
						<time>2024-11-03T23:44:34Z</time>
					</trkpt>
					<trkpt lat="49.116050" lon="2.646100">
						<ele>101</ele>
						<time>2024-11-03T23:44:41Z</time>
					</trkpt>
					<trkpt lat="49.114530" lon="2.644690">
						<ele>96</ele>
						<time>2024-11-03T23:45:13Z</time>
					</trkpt>
					<trkpt lat="49.114300" lon="2.644370">
						<ele>92</ele>
						<time>2024-11-03T23:45:18Z</time>
					</trkpt>
					<trkpt lat="49.114100" lon="2.644020">
						<ele>88</ele>
						<time>2024-11-03T23:45:24Z</time>
					</trkpt>
					<trkpt lat="49.113600" lon="2.642870">
						<ele>88</ele>
						<time>2024-11-03T23:45:40Z</time>
					</trkpt>
					<trkpt lat="49.113550" lon="2.642690">
						<ele>89</ele>
						<time>2024-11-03T23:45:42Z</time>
					</trkpt>
					<trkpt lat="49.113540" lon="2.642560">
						<ele>90</ele>
						<time>2024-11-03T23:45:44Z</time>
					</trkpt>
					<trkpt lat="49.113540" lon="2.642440">
						<ele>90</ele>
						<time>2024-11-03T23:45:45Z</time>
					</trkpt>
					<trkpt lat="49.113680" lon="2.641450">
						<ele>93</ele>
						<time>2024-11-03T23:45:57Z</time>
					</trkpt>
					<trkpt lat="49.113710" lon="2.640970">
						<ele>92</ele>
						<time>2024-11-03T23:46:03Z</time>
					</trkpt>
					<trkpt lat="49.113720" lon="2.640860">
						<ele>92</ele>
						<time>2024-11-03T23:46:04Z</time>
					</trkpt>
					<trkpt lat="49.113710" lon="2.640590">
						<ele>92</ele>
						<time>2024-11-03T23:46:07Z</time>
					</trkpt>
					<trkpt lat="49.113690" lon="2.640420">
						<ele>91</ele>
						<time>2024-11-03T23:46:09Z</time>
					</trkpt>
					<trkpt lat="49.113500" lon="2.639530">
						<ele>90</ele>
						<time>2024-11-03T23:46:20Z</time>
					</trkpt>
					<trkpt lat="49.113330" lon="2.638540">
						<ele>89</ele>
						<time>2024-11-03T23:46:32Z</time>
					</trkpt>
					<trkpt lat="49.113300" lon="2.638230">
						<ele>89</ele>
						<time>2024-11-03T23:46:35Z</time>
					</trkpt>
					<trkpt lat="49.113310" lon="2.638070">
						<ele>89</ele>
						<time>2024-11-03T23:46:37Z</time>
					</trkpt>
					<trkpt lat="49.113340" lon="2.637910">
						<ele>88</ele>
						<time>2024-11-03T23:46:39Z</time>
					</trkpt>
					<trkpt lat="49.113510" lon="2.637320">
						<ele>87</ele>
						<time>2024-11-03T23:46:47Z</time>
					</trkpt>
					<trkpt lat="49.113630" lon="2.636870">
						<ele>87</ele>
						<time>2024-11-03T23:46:52Z</time>
					</trkpt>
					<trkpt lat="49.113660" lon="2.636690">
						<ele>87</ele>
						<time>2024-11-03T23:46:55Z</time>
					</trkpt>
					<trkpt lat="49.113700" lon="2.636410">
						<ele>87</ele>
						<time>2024-11-03T23:46:58Z</time>
					</trkpt>
					<trkpt lat="49.113800" lon="2.635320">
						<ele>89</ele>
						<time>2024-11-03T23:47:11Z</time>
					</trkpt>
					<trkpt lat="49.114280" lon="2.632890">
						<ele>90</ele>
						<time>2024-11-03T23:47:40Z</time>
					</trkpt>
					<trkpt lat="49.114620" lon="2.631410">
						<ele>90</ele>
						<time>2024-11-03T23:47:59Z</time>
					</trkpt>
					<trkpt lat="49.114650" lon="2.631300">
						<ele>90</ele>
						<time>2024-11-03T23:48:00Z</time>
					</trkpt>
					<trkpt lat="49.114670" lon="2.630970">
						<ele>91</ele>
						<time>2024-11-03T23:48:04Z</time>
					</trkpt>
					<trkpt lat="49.114660" lon="2.630150">
						<ele>92</ele>
						<time>2024-11-03T23:48:13Z</time>
					</trkpt>
					<trkpt lat="49.114660" lon="2.629570">
						<ele>93</ele>
						<time>2024-11-03T23:48:20Z</time>
					</trkpt>
					<trkpt lat="49.114660" lon="2.628260">
						<ele>94</ele>
						<time>2024-11-03T23:48:35Z</time>
					</trkpt>
					<trkpt lat="49.114700" lon="2.627710">
						<ele>93</ele>
						<time>2024-11-03T23:48:42Z</time>
					</trkpt>
					<trkpt lat="49.114720" lon="2.627590">
						<ele>93</ele>
						<time>2024-11-03T23:48:43Z</time>
					</trkpt>
					<trkpt lat="49.114800" lon="2.627220">
						<ele>93</ele>
						<time>2024-11-03T23:48:48Z</time>
					</trkpt>
					<trkpt lat="49.114890" lon="2.626880">
						<ele>93</ele>
						<time>2024-11-03T23:48:52Z</time>
					</trkpt>
					<trkpt lat="49.115130" lon="2.626140">
						<ele>93</ele>
						<time>2024-11-03T23:49:02Z</time>
					</trkpt>
					<trkpt lat="49.115530" lon="2.624610">
						<ele>93</ele>
						<time>2024-11-03T23:49:21Z</time>
					</trkpt>
					<trkpt lat="49.116460" lon="2.620910">
						<ele>94</ele>
						<time>2024-11-03T23:50:07Z</time>
					</trkpt>
					<trkpt lat="49.116510" lon="2.620590">
						<ele>95</ele>
						<time>2024-11-03T23:50:11Z</time>
					</trkpt>
					<trkpt lat="49.116520" lon="2.620240">
						<ele>95</ele>
						<time>2024-11-03T23:50:15Z</time>
					</trkpt>
					<trkpt lat="49.116500" lon="2.620090">
						<ele>95</ele>
						<time>2024-11-03T23:50:17Z</time>
					</trkpt>
					<trkpt lat="49.116460" lon="2.619860">
						<ele>96</ele>
						<time>2024-11-03T23:50:20Z</time>
					</trkpt>
					<trkpt lat="49.116290" lon="2.619410">
						<ele>97</ele>
						<time>2024-11-03T23:50:26Z</time>
					</trkpt>
					<trkpt lat="49.116070" lon="2.619000">
						<ele>97</ele>
						<time>2024-11-03T23:50:32Z</time>
					</trkpt>
					<trkpt lat="49.115350" lon="2.617810">
						<ele>99</ele>
						<time>2024-11-03T23:50:51Z</time>
					</trkpt>
					<trkpt lat="49.112440" lon="2.613130">
						<ele>100</ele>
						<time>2024-11-03T23:52:06Z</time>
					</trkpt>
					<trkpt lat="49.112160" lon="2.612750">
						<ele>99</ele>
						<time>2024-11-03T23:52:12Z</time>
					</trkpt>
					<trkpt lat="49.111490" lon="2.612000">
						<ele>100</ele>
						<time>2024-11-03T23:52:27Z</time>
					</trkpt>
					<trkpt lat="49.111400" lon="2.611900">
						<ele>100</ele>
						<time>2024-11-03T23:52:29Z</time>
					</trkpt>
					<trkpt lat="49.111030" lon="2.611470">
						<ele>99</ele>
						<time>2024-11-03T23:52:38Z</time>
					</trkpt>
					<trkpt lat="49.110860" lon="2.611210">
						<ele>98</ele>
						<time>2024-11-03T23:52:42Z</time>
					</trkpt>
					<trkpt lat="49.110700" lon="2.610910">
						<ele>98</ele>
						<time>2024-11-03T23:52:46Z</time>
					</trkpt>
					<trkpt lat="49.110560" lon="2.610490">
						<ele>96</ele>
						<time>2024-11-03T23:52:52Z</time>
					</trkpt>
					<trkpt lat="49.110490" lon="2.609980">
						<ele>95</ele>
						<time>2024-11-03T23:52:58Z</time>
					</trkpt>
					<trkpt lat="49.110510" lon="2.609370">
						<ele>94</ele>
						<time>2024-11-03T23:53:05Z</time>
					</trkpt>
					<trkpt lat="49.110660" lon="2.607230">
						<ele>100</ele>
						<time>2024-11-03T23:53:30Z</time>
					</trkpt>
					<trkpt lat="49.110670" lon="2.607050">
						<ele>101</ele>
						<time>2024-11-03T23:53:32Z</time>
					</trkpt>
					<trkpt lat="49.111120" lon="2.604530">
						<ele>106</ele>
						<time>2024-11-03T23:54:03Z</time>
					</trkpt>
					<trkpt lat="49.111200" lon="2.604090">
						<ele>105</ele>
						<time>2024-11-03T23:54:08Z</time>
					</trkpt>
					<trkpt lat="49.111290" lon="2.603510">
						<ele>106</ele>
						<time>2024-11-03T23:54:15Z</time>
					</trkpt>
					<trkpt lat="49.111300" lon="2.603350">
						<ele>106</ele>
						<time>2024-11-03T23:54:17Z</time>
					</trkpt>
					<trkpt lat="49.111320" lon="2.602960">
						<ele>105</ele>
						<time>2024-11-03T23:54:21Z</time>
					</trkpt>
					<trkpt lat="49.111340" lon="2.602560">
						<ele>105</ele>
						<time>2024-11-03T23:54:26Z</time>
					</trkpt>
					<trkpt lat="49.111330" lon="2.602320">
						<ele>104</ele>
						<time>2024-11-03T23:54:29Z</time>
					</trkpt>
					<trkpt lat="49.111260" lon="2.602170">
						<ele>103</ele>
						<time>2024-11-03T23:54:31Z</time>
					</trkpt>
					<trkpt lat="49.111190" lon="2.602060">
						<ele>103</ele>
						<time>2024-11-03T23:54:33Z</time>
					</trkpt>
					<trkpt lat="49.110990" lon="2.601820">
						<ele>102</ele>
						<time>2024-11-03T23:54:37Z</time>
					</trkpt>
					<trkpt lat="49.108610" lon="2.599590">
						<ele>103</ele>
						<time>2024-11-03T23:55:27Z</time>
					</trkpt>
					<trkpt lat="49.108640" lon="2.599530">
						<ele>102</ele>
						<time>2024-11-03T23:55:28Z</time>
					</trkpt>
					<trkpt lat="49.107310" lon="2.598150">
						<ele>103</ele>
						<time>2024-11-03T23:55:56Z</time>
					</trkpt>
					<trkpt lat="49.107020" lon="2.597730">
						<ele>101</ele>
						<time>2024-11-03T23:56:03Z</time>
					</trkpt>
					<trkpt lat="49.106930" lon="2.597540">
						<ele>101</ele>
						<time>2024-11-03T23:56:06Z</time>
					</trkpt>
					<trkpt lat="49.106770" lon="2.597100">
						<ele>101</ele>
						<time>2024-11-03T23:56:12Z</time>
					</trkpt>
					<trkpt lat="49.106520" lon="2.596200">
						<ele>100</ele>
						<time>2024-11-03T23:56:23Z</time>
					</trkpt>
					<trkpt lat="49.106320" lon="2.595120">
						<ele>101</ele>
						<time>2024-11-03T23:56:37Z</time>
					</trkpt>
					<trkpt lat="49.106070" lon="2.593490">
						<ele>101</ele>
						<time>2024-11-03T23:56:56Z</time>
					</trkpt>
					<trkpt lat="49.106020" lon="2.593540">
						<ele>101</ele>
						<time>2024-11-03T23:56:57Z</time>
					</trkpt>
					<trkpt lat="49.105900" lon="2.592310">
						<ele>101</ele>
						<time>2024-11-03T23:57:12Z</time>
					</trkpt>
					<trkpt lat="49.105700" lon="2.590610">
						<ele>100</ele>
						<time>2024-11-03T23:57:32Z</time>
					</trkpt>
					<trkpt lat="49.105580" lon="2.590050">
						<ele>100</ele>
						<time>2024-11-03T23:57:39Z</time>
					</trkpt>
					<trkpt lat="49.105560" lon="2.589910">
						<ele>100</ele>
						<time>2024-11-03T23:57:40Z</time>
					</trkpt>
					<trkpt lat="49.105440" lon="2.589060">
						<ele>100</ele>
						<time>2024-11-03T23:57:50Z</time>
					</trkpt>
					<trkpt lat="49.105380" lon="2.588840">
						<ele>101</ele>
						<time>2024-11-03T23:57:53Z</time>
					</trkpt>
					<trkpt lat="49.105230" lon="2.588530">
						<ele>101</ele>
						<time>2024-11-03T23:57:58Z</time>
					</trkpt>
					<trkpt lat="49.105110" lon="2.588340">
						<ele>101</ele>
						<time>2024-11-03T23:58:01Z</time>
					</trkpt>
					<trkpt lat="49.104790" lon="2.588040">
						<ele>101</ele>
						<time>2024-11-03T23:58:07Z</time>
					</trkpt>
					<trkpt lat="49.104720" lon="2.587940">
						<ele>101</ele>
						<time>2024-11-03T23:58:09Z</time>
					</trkpt>
					<trkpt lat="49.104080" lon="2.586930">
						<ele>103</ele>
						<time>2024-11-03T23:58:25Z</time>
					</trkpt>
					<trkpt lat="49.103960" lon="2.586690">
						<ele>104</ele>
						<time>2024-11-03T23:58:29Z</time>
					</trkpt>
					<trkpt lat="49.103870" lon="2.586490">
						<ele>104</ele>
						<time>2024-11-03T23:58:32Z</time>
					</trkpt>
					<trkpt lat="49.103700" lon="2.585940">
						<ele>104</ele>
						<time>2024-11-03T23:58:39Z</time>
					</trkpt>
					<trkpt lat="49.103570" lon="2.585630">
						<ele>104</ele>
						<time>2024-11-03T23:58:43Z</time>
					</trkpt>
					<trkpt lat="49.103440" lon="2.585410">
						<ele>104</ele>
						<time>2024-11-03T23:58:47Z</time>
					</trkpt>
					<trkpt lat="49.103230" lon="2.585120">
						<ele>104</ele>
						<time>2024-11-03T23:58:52Z</time>
					</trkpt>
					<trkpt lat="49.103380" lon="2.584620">
						<ele>104</ele>
						<time>2024-11-03T23:58:58Z</time>
					</trkpt>
					<trkpt lat="49.103620" lon="2.584090">
						<ele>103</ele>
						<time>2024-11-03T23:59:06Z</time>
					</trkpt>
					<trkpt lat="49.103790" lon="2.583620">
						<ele>103</ele>
						<time>2024-11-03T23:59:12Z</time>
					</trkpt>
					<trkpt lat="49.103980" lon="2.583030">
						<ele>103</ele>
						<time>2024-11-03T23:59:19Z</time>
					</trkpt>
					<trkpt lat="49.104040" lon="2.582690">
						<ele>104</ele>
						<time>2024-11-03T23:59:24Z</time>
					</trkpt>
					<trkpt lat="49.104060" lon="2.582580">
						<ele>104</ele>
						<time>2024-11-03T23:59:25Z</time>
					</trkpt>
					<trkpt lat="49.104110" lon="2.582280">
						<ele>105</ele>
						<time>2024-11-03T23:59:29Z</time>
					</trkpt>
					<trkpt lat="49.104050" lon="2.581750">
						<ele>106</ele>
						<time>2024-11-03T23:59:35Z</time>
					</trkpt>
					<trkpt lat="49.103930" lon="2.581450">
						<ele>106</ele>
						<time>2024-11-03T23:59:39Z</time>
					</trkpt>
					<trkpt lat="49.103890" lon="2.581390">
						<ele>106</ele>
						<time>2024-11-03T23:59:40Z</time>
					</trkpt>
					<trkpt lat="49.103510" lon="2.580780">
						<ele>108</ele>
						<time>2024-11-03T23:59:50Z</time>
					</trkpt>
					<trkpt lat="49.103290" lon="2.581330">
						<ele>107</ele>
						<time>2024-11-03T23:59:57Z</time>
					</trkpt>
					<trkpt lat="49.103130" lon="2.581620">
						<ele>106</ele>
						<time>2024-11-04T00:00:02Z</time>
					</trkpt>
					<trkpt lat="49.102880" lon="2.582020">
						<ele>105</ele>
						<time>2024-11-04T00:00:08Z</time>
					</trkpt>
					<trkpt lat="49.102650" lon="2.582370">
						<ele>104</ele>
						<time>2024-11-04T00:00:14Z</time>
					</trkpt>
					<trkpt lat="49.102610" lon="2.582490">
						<ele>104</ele>
						<time>2024-11-04T00:00:15Z</time>
					</trkpt>
					<trkpt lat="49.102440" lon="2.582950">
						<ele>104</ele>
						<time>2024-11-04T00:00:22Z</time>
					</trkpt>
					<trkpt lat="49.102430" lon="2.583020">
						<ele>104</ele>
						<time>2024-11-04T00:00:22Z</time>
					</trkpt>
					<trkpt lat="49.102000" lon="2.584240">
						<ele>107</ele>
						<time>2024-11-04T00:00:39Z</time>
					</trkpt>
					<trkpt lat="49.101820" lon="2.584310">
						<ele>108</ele>
						<time>2024-11-04T00:00:42Z</time>
					</trkpt>
					<trkpt lat="49.101730" lon="2.584340">
						<ele>108</ele>
						<time>2024-11-04T00:00:43Z</time>
					</trkpt>
					<trkpt lat="49.101460" lon="2.584380">
						<ele>109</ele>
						<time>2024-11-04T00:00:48Z</time>
					</trkpt>
					<trkpt lat="49.100450" lon="2.584450">
						<ele>113</ele>
						<time>2024-11-04T00:01:06Z</time>
					</trkpt>
					<trkpt lat="49.100310" lon="2.584460">
						<ele>114</ele>
						<time>2024-11-04T00:01:09Z</time>
					</trkpt>
					<trkpt lat="49.099750" lon="2.584850">
						<ele>115</ele>
						<time>2024-11-04T00:01:20Z</time>
					</trkpt>
					<trkpt lat="49.099480" lon="2.584940">
						<ele>116</ele>
						<time>2024-11-04T00:01:25Z</time>
					</trkpt>
					<trkpt lat="49.099240" lon="2.585030">
						<ele>116</ele>
						<time>2024-11-04T00:01:29Z</time>
					</trkpt>
					<trkpt lat="49.099040" lon="2.585160">
						<ele>116</ele>
						<time>2024-11-04T00:01:33Z</time>
					</trkpt>
					<trkpt lat="49.098620" lon="2.585560">
						<ele>115</ele>
						<time>2024-11-04T00:01:42Z</time>
					</trkpt>
					<trkpt lat="49.098500" lon="2.585700">
						<ele>115</ele>
						<time>2024-11-04T00:01:44Z</time>
					</trkpt>
					<trkpt lat="49.097890" lon="2.586800">
						<ele>115</ele>
						<time>2024-11-04T00:02:01Z</time>
					</trkpt>
					<trkpt lat="49.097400" lon="2.587690">
						<ele>116</ele>
						<time>2024-11-04T00:02:15Z</time>
					</trkpt>
					<trkpt lat="49.096690" lon="2.588570">
						<ele>119</ele>
						<time>2024-11-04T00:02:31Z</time>
					</trkpt>
					<trkpt lat="49.095970" lon="2.589120">
						<ele>124</ele>
						<time>2024-11-04T00:02:45Z</time>
					</trkpt>
					<trkpt lat="49.095320" lon="2.589500">
						<ele>127</ele>
						<time>2024-11-04T00:02:58Z</time>
					</trkpt>
					<trkpt lat="49.094620" lon="2.589810">
						<ele>130</ele>
						<time>2024-11-04T00:03:11Z</time>
					</trkpt>
					<trkpt lat="49.094250" lon="2.589900">
						<ele>133</ele>
						<time>2024-11-04T00:03:17Z</time>
					</trkpt>
					<trkpt lat="49.093830" lon="2.589940">
						<ele>135</ele>
						<time>2024-11-04T00:03:25Z</time>
					</trkpt>
					<trkpt lat="49.093250" lon="2.590210">
						<ele>140</ele>
						<time>2024-11-04T00:03:36Z</time>
					</trkpt>
					<trkpt lat="49.092320" lon="2.590920">
						<ele>156</ele>
						<time>2024-11-04T00:03:54Z</time>
					</trkpt>
					<trkpt lat="49.092230" lon="2.590860">
						<ele>157</ele>
						<time>2024-11-04T00:03:56Z</time>
					</trkpt>
					<trkpt lat="49.090880" lon="2.588760">
						<ele>165</ele>
						<time>2024-11-04T00:04:30Z</time>
					</trkpt>
					<trkpt lat="49.090760" lon="2.588630">
						<ele>166</ele>
						<time>2024-11-04T00:04:33Z</time>
					</trkpt>
					<trkpt lat="49.090610" lon="2.588530">
						<ele>166</ele>
						<time>2024-11-04T00:04:36Z</time>
					</trkpt>
					<trkpt lat="49.090350" lon="2.588420">
						<ele>167</ele>
						<time>2024-11-04T00:04:41Z</time>
					</trkpt>
					<trkpt lat="49.090060" lon="2.588350">
						<ele>168</ele>
						<time>2024-11-04T00:04:46Z</time>
					</trkpt>
					<trkpt lat="49.089260" lon="2.588210">
						<ele>166</ele>
						<time>2024-11-04T00:05:00Z</time>
					</trkpt>
					<trkpt lat="49.088710" lon="2.587980">
						<ele>167</ele>
						<time>2024-11-04T00:05:10Z</time>
					</trkpt>
					<trkpt lat="49.088510" lon="2.587920">
						<ele>167</ele>
						<time>2024-11-04T00:05:14Z</time>
					</trkpt>
					<trkpt lat="49.087340" lon="2.587870">
						<ele>163</ele>
						<time>2024-11-04T00:05:35Z</time>
					</trkpt>
					<trkpt lat="49.087130" lon="2.587880">
						<ele>162</ele>
						<time>2024-11-04T00:05:38Z</time>
					</trkpt>
					<trkpt lat="49.086810" lon="2.587950">
						<ele>160</ele>
						<time>2024-11-04T00:05:44Z</time>
					</trkpt>
					<trkpt lat="49.086630" lon="2.588060">
						<ele>159</ele>
						<time>2024-11-04T00:05:48Z</time>
					</trkpt>
					<trkpt lat="49.085600" lon="2.588830">
						<ele>153</ele>
						<time>2024-11-04T00:06:08Z</time>
					</trkpt>
					<trkpt lat="49.085070" lon="2.589180">
						<ele>148</ele>
						<time>2024-11-04T00:06:18Z</time>
					</trkpt>
					<trkpt lat="49.083770" lon="2.589990">
						<ele>141</ele>
						<time>2024-11-04T00:06:43Z</time>
					</trkpt>
					<trkpt lat="49.081890" lon="2.591020">
						<ele>141</ele>
						<time>2024-11-04T00:07:19Z</time>
					</trkpt>
					<trkpt lat="49.081680" lon="2.591040">
						<ele>141</ele>
						<time>2024-11-04T00:07:23Z</time>
					</trkpt>
					<trkpt lat="49.081460" lon="2.590990">
						<ele>142</ele>
						<time>2024-11-04T00:07:27Z</time>
					</trkpt>
					<trkpt lat="49.080540" lon="2.590460">
						<ele>143</ele>
						<time>2024-11-04T00:07:44Z</time>
					</trkpt>
					<trkpt lat="49.080180" lon="2.590340">
						<ele>143</ele>
						<time>2024-11-04T00:07:51Z</time>
					</trkpt>
					<trkpt lat="49.079930" lon="2.590260">
						<ele>143</ele>
						<time>2024-11-04T00:07:55Z</time>
					</trkpt>
					<trkpt lat="49.079730" lon="2.590150">
						<ele>143</ele>
						<time>2024-11-04T00:07:59Z</time>
					</trkpt>
					<trkpt lat="49.079380" lon="2.589880">
						<ele>142</ele>
						<time>2024-11-04T00:08:06Z</time>
					</trkpt>
					<trkpt lat="49.078680" lon="2.589520">
						<ele>140</ele>
						<time>2024-11-04T00:08:19Z</time>
					</trkpt>
					<trkpt lat="49.077530" lon="2.589260">
						<ele>140</ele>
						<time>2024-11-04T00:08:40Z</time>
					</trkpt>
					<trkpt lat="49.077440" lon="2.589240">
						<ele>140</ele>
						<time>2024-11-04T00:08:41Z</time>
					</trkpt>
					<trkpt lat="49.077190" lon="2.588890">
						<ele>139</ele>
						<time>2024-11-04T00:08:47Z</time>
					</trkpt>
					<trkpt lat="49.075960" lon="2.587030">
						<ele>134</ele>
						<time>2024-11-04T00:09:18Z</time>
					</trkpt>
					<trkpt lat="49.075840" lon="2.586730">
						<ele>132</ele>
						<time>2024-11-04T00:09:22Z</time>
					</trkpt>
					<trkpt lat="49.075380" lon="2.584640">
						<ele>121</ele>
						<time>2024-11-04T00:09:48Z</time>
					</trkpt>
					<trkpt lat="49.075250" lon="2.583930">
						<ele>120</ele>
						<time>2024-11-04T00:09:57Z</time>
					</trkpt>
					<trkpt lat="49.074930" lon="2.581490">
						<ele>116</ele>
						<time>2024-11-04T00:10:26Z</time>
					</trkpt>
					<trkpt lat="49.074830" lon="2.580920">
						<ele>117</ele>
						<time>2024-11-04T00:10:32Z</time>
					</trkpt>
					<trkpt lat="49.074780" lon="2.580590">
						<ele>117</ele>
						<time>2024-11-04T00:10:36Z</time>
					</trkpt>
					<trkpt lat="49.074380" lon="2.579040">
						<ele>115</ele>
						<time>2024-11-04T00:10:56Z</time>
					</trkpt>
					<trkpt lat="49.074110" lon="2.577980">
						<ele>115</ele>
						<time>2024-11-04T00:11:09Z</time>
					</trkpt>
					<trkpt lat="49.073790" lon="2.577400">
						<ele>116</ele>
						<time>2024-11-04T00:11:18Z</time>
					</trkpt>
					<trkpt lat="49.073380" lon="2.576730">
						<ele>116</ele>
						<time>2024-11-04T00:11:29Z</time>
					</trkpt>
					<trkpt lat="49.073120" lon="2.576390">
						<ele>116</ele>
						<time>2024-11-04T00:11:35Z</time>
					</trkpt>
					<trkpt lat="49.073000" lon="2.576290">
						<ele>116</ele>
						<time>2024-11-04T00:11:37Z</time>
					</trkpt>
					<trkpt lat="49.072960" lon="2.576130">
						<ele>116</ele>
						<time>2024-11-04T00:11:39Z</time>
					</trkpt>
					<trkpt lat="49.072830" lon="2.575830">
						<ele>116</ele>
						<time>2024-11-04T00:11:43Z</time>
					</trkpt>
					<trkpt lat="49.072670" lon="2.575560">
						<ele>117</ele>
						<time>2024-11-04T00:11:48Z</time>
					</trkpt>
					<trkpt lat="49.072080" lon="2.574630">
						<ele>118</ele>
						<time>2024-11-04T00:12:03Z</time>
					</trkpt>
					<trkpt lat="49.071620" lon="2.574030">
						<ele>116</ele>
						<time>2024-11-04T00:12:13Z</time>
					</trkpt>
					<trkpt lat="49.071430" lon="2.573810">
						<ele>117</ele>
						<time>2024-11-04T00:12:18Z</time>
					</trkpt>
					<trkpt lat="49.070870" lon="2.573140">
						<ele>114</ele>
						<time>2024-11-04T00:12:30Z</time>
					</trkpt>
					<trkpt lat="49.070510" lon="2.572760">
						<ele>115</ele>
						<time>2024-11-04T00:12:38Z</time>
					</trkpt>
					<trkpt lat="49.070490" lon="2.572700">
						<ele>115</ele>
						<time>2024-11-04T00:12:39Z</time>
					</trkpt>
					<trkpt lat="49.070470" lon="2.572650">
						<ele>115</ele>
						<time>2024-11-04T00:12:40Z</time>
					</trkpt>
					<trkpt lat="49.070160" lon="2.571130">
						<ele>115</ele>
						<time>2024-11-04T00:12:58Z</time>
					</trkpt>
					<trkpt lat="49.070020" lon="2.570600">
						<ele>114</ele>
						<time>2024-11-04T00:13:05Z</time>
					</trkpt>
					<trkpt lat="49.069740" lon="2.569960">
						<ele>115</ele>
						<time>2024-11-04T00:13:14Z</time>
					</trkpt>
					<trkpt lat="49.069670" lon="2.569800">
						<ele>115</ele>
						<time>2024-11-04T00:13:16Z</time>
					</trkpt>
					<trkpt lat="49.069490" lon="2.569360">
						<ele>115</ele>
						<time>2024-11-04T00:13:22Z</time>
					</trkpt>
					<trkpt lat="49.069260" lon="2.568810">
						<ele>114</ele>
						<time>2024-11-04T00:13:30Z</time>
					</trkpt>
					<trkpt lat="49.069100" lon="2.568460">
						<ele>113</ele>
						<time>2024-11-04T00:13:35Z</time>
					</trkpt>
					<trkpt lat="49.069050" lon="2.568360">
						<ele>113</ele>
						<time>2024-11-04T00:13:36Z</time>
					</trkpt>
					<trkpt lat="49.068980" lon="2.568200">
						<ele>113</ele>
						<time>2024-11-04T00:13:38Z</time>
					</trkpt>
					<trkpt lat="49.068880" lon="2.567750">
						<ele>113</ele>
						<time>2024-11-04T00:13:44Z</time>
					</trkpt>
					<trkpt lat="49.068830" lon="2.567530">
						<ele>112</ele>
						<time>2024-11-04T00:13:47Z</time>
					</trkpt>
					<trkpt lat="49.068890" lon="2.567320">
						<ele>112</ele>
						<time>2024-11-04T00:13:49Z</time>
					</trkpt>
					<trkpt lat="49.069130" lon="2.566790">
						<ele>111</ele>
						<time>2024-11-04T00:13:57Z</time>
					</trkpt>
					<trkpt lat="49.069240" lon="2.566510">
						<ele>111</ele>
						<time>2024-11-04T00:14:01Z</time>
					</trkpt>
					<trkpt lat="49.069240" lon="2.566420">
						<ele>111</ele>
						<time>2024-11-04T00:14:02Z</time>
					</trkpt>
					<trkpt lat="49.069130" lon="2.565910">
						<ele>110</ele>
						<time>2024-11-04T00:14:08Z</time>
					</trkpt>
					<trkpt lat="49.068920" lon="2.565600">
						<ele>110</ele>
						<time>2024-11-04T00:14:13Z</time>
					</trkpt>
					<trkpt lat="49.068740" lon="2.565230">
						<ele>110</ele>
						<time>2024-11-04T00:14:18Z</time>
					</trkpt>
					<trkpt lat="49.068460" lon="2.564450">
						<ele>109</ele>
						<time>2024-11-04T00:14:29Z</time>
					</trkpt>
					<trkpt lat="49.068230" lon="2.563730">
						<ele>110</ele>
						<time>2024-11-04T00:14:38Z</time>
					</trkpt>
					<trkpt lat="49.068070" lon="2.563240">
						<ele>110</ele>
						<time>2024-11-04T00:14:45Z</time>
					</trkpt>
					<trkpt lat="49.067940" lon="2.562820">
						<ele>109</ele>
						<time>2024-11-04T00:14:50Z</time>
					</trkpt>
					<trkpt lat="49.067870" lon="2.562530">
						<ele>108</ele>
						<time>2024-11-04T00:14:54Z</time>
					</trkpt>
					<trkpt lat="49.067820" lon="2.562220">
						<ele>108</ele>
						<time>2024-11-04T00:14:57Z</time>
					</trkpt>
					<trkpt lat="49.067690" lon="2.560750">
						<ele>107</ele>
						<time>2024-11-04T00:15:15Z</time>
					</trkpt>
					<trkpt lat="49.067590" lon="2.560160">
						<ele>107</ele>
						<time>2024-11-04T00:15:22Z</time>
					</trkpt>
					<trkpt lat="49.067440" lon="2.559730">
						<ele>107</ele>
						<time>2024-11-04T00:15:27Z</time>
					</trkpt>
					<trkpt lat="49.067320" lon="2.559440">
						<ele>107</ele>
						<time>2024-11-04T00:15:31Z</time>
					</trkpt>
					<trkpt lat="49.067210" lon="2.559250">
						<ele>107</ele>
						<time>2024-11-04T00:15:34Z</time>
					</trkpt>
					<trkpt lat="49.067060" lon="2.559040">
						<ele>107</ele>
						<time>2024-11-04T00:15:38Z</time>
					</trkpt>
					<trkpt lat="49.066880" lon="2.558880">
						<ele>107</ele>
						<time>2024-11-04T00:15:42Z</time>
					</trkpt>
					<trkpt lat="49.066570" lon="2.558730">
						<ele>106</ele>
						<time>2024-11-04T00:15:47Z</time>
					</trkpt>
					<trkpt lat="49.065540" lon="2.558250">
						<ele>105</ele>
						<time>2024-11-04T00:16:07Z</time>
					</trkpt>
					<trkpt lat="49.065220" lon="2.558140">
						<ele>104</ele>
						<time>2024-11-04T00:16:12Z</time>
					</trkpt>
					<trkpt lat="49.064900" lon="2.558040">
						<ele>103</ele>
						<time>2024-11-04T00:16:18Z</time>
					</trkpt>
					<trkpt lat="49.064750" lon="2.557960">
						<ele>103</ele>
						<time>2024-11-04T00:16:21Z</time>
					</trkpt>
					<trkpt lat="49.064630" lon="2.557830">
						<ele>103</ele>
						<time>2024-11-04T00:16:24Z</time>
					</trkpt>
					<trkpt lat="49.064500" lon="2.557630">
						<ele>103</ele>
						<time>2024-11-04T00:16:27Z</time>
					</trkpt>
					<trkpt lat="49.064290" lon="2.557220">
						<ele>103</ele>
						<time>2024-11-04T00:16:33Z</time>
					</trkpt>
					<trkpt lat="49.063900" lon="2.556320">
						<ele>105</ele>
						<time>2024-11-04T00:16:46Z</time>
					</trkpt>
					<trkpt lat="49.063720" lon="2.555970">
						<ele>105</ele>
						<time>2024-11-04T00:16:51Z</time>
					</trkpt>
					<trkpt lat="49.063590" lon="2.555800">
						<ele>105</ele>
						<time>2024-11-04T00:16:54Z</time>
					</trkpt>
					<trkpt lat="49.063410" lon="2.555590">
						<ele>105</ele>
						<time>2024-11-04T00:16:58Z</time>
					</trkpt>
					<trkpt lat="49.063200" lon="2.555410">
						<ele>105</ele>
						<time>2024-11-04T00:17:02Z</time>
					</trkpt>
					<trkpt lat="49.062020" lon="2.554620">
						<ele>103</ele>
						<time>2024-11-04T00:17:25Z</time>
					</trkpt>
					<trkpt lat="49.061630" lon="2.554320">
						<ele>102</ele>
						<time>2024-11-04T00:17:33Z</time>
					</trkpt>
					<trkpt lat="49.061440" lon="2.554150">
						<ele>101</ele>
						<time>2024-11-04T00:17:37Z</time>
					</trkpt>
					<trkpt lat="49.061210" lon="2.553910">
						<ele>101</ele>
						<time>2024-11-04T00:17:42Z</time>
					</trkpt>
					<trkpt lat="49.061030" lon="2.553660">
						<ele>100</ele>
						<time>2024-11-04T00:17:46Z</time>
					</trkpt>
					<trkpt lat="49.060730" lon="2.553120">
						<ele>100</ele>
						<time>2024-11-04T00:17:54Z</time>
					</trkpt>
					<trkpt lat="49.060640" lon="2.552910">
						<ele>101</ele>
						<time>2024-11-04T00:17:57Z</time>
					</trkpt>
					<trkpt lat="49.060550" lon="2.552590">
						<ele>101</ele>
						<time>2024-11-04T00:18:01Z</time>
					</trkpt>
					<trkpt lat="49.060490" lon="2.552240">
						<ele>101</ele>
						<time>2024-11-04T00:18:05Z</time>
					</trkpt>
					<trkpt lat="49.060470" lon="2.552010">
						<ele>101</ele>
						<time>2024-11-04T00:18:08Z</time>
					</trkpt>
					<trkpt lat="49.060480" lon="2.551750">
						<ele>101</ele>
						<time>2024-11-04T00:18:11Z</time>
					</trkpt>
					<trkpt lat="49.060510" lon="2.550880">
						<ele>105</ele>
						<time>2024-11-04T00:18:21Z</time>
					</trkpt>
					<trkpt lat="49.060550" lon="2.549100">
						<ele>114</ele>
						<time>2024-11-04T00:18:42Z</time>
					</trkpt>
					<trkpt lat="49.060560" lon="2.547360">
						<ele>118</ele>
						<time>2024-11-04T00:19:02Z</time>
					</trkpt>
					<trkpt lat="49.060540" lon="2.545560">
						<ele>118</ele>
						<time>2024-11-04T00:19:23Z</time>
					</trkpt>
					<trkpt lat="49.060510" lon="2.544930">
						<ele>118</ele>
						<time>2024-11-04T00:19:31Z</time>
					</trkpt>
					<trkpt lat="49.060490" lon="2.544670">
						<ele>119</ele>
						<time>2024-11-04T00:19:34Z</time>
					</trkpt>
					<trkpt lat="49.060410" lon="2.544260">
						<ele>119</ele>
						<time>2024-11-04T00:19:39Z</time>
					</trkpt>
					<trkpt lat="49.060370" lon="2.544010">
						<ele>119</ele>
						<time>2024-11-04T00:19:42Z</time>
					</trkpt>
					<trkpt lat="49.060320" lon="2.543720">
						<ele>117</ele>
						<time>2024-11-04T00:19:45Z</time>
					</trkpt>
					<trkpt lat="49.060250" lon="2.543360">
						<ele>116</ele>
						<time>2024-11-04T00:19:50Z</time>
					</trkpt>
					<trkpt lat="49.060270" lon="2.543150">
						<ele>116</ele>
						<time>2024-11-04T00:19:52Z</time>
					</trkpt>
					<trkpt lat="49.060270" lon="2.543080">
						<ele>116</ele>
						<time>2024-11-04T00:19:53Z</time>
					</trkpt>
					<trkpt lat="49.060240" lon="2.543030">
						<ele>116</ele>
						<time>2024-11-04T00:19:54Z</time>
					</trkpt>
					<trkpt lat="49.060190" lon="2.542810">
						<ele>116</ele>
						<time>2024-11-04T00:19:57Z</time>
					</trkpt>
					<trkpt lat="49.060150" lon="2.542220">
						<ele>116</ele>
						<time>2024-11-04T00:20:03Z</time>
					</trkpt>
					<trkpt lat="49.060080" lon="2.541320">
						<ele>117</ele>
						<time>2024-11-04T00:20:14Z</time>
					</trkpt>
					<trkpt lat="49.060070" lon="2.541110">
						<ele>117</ele>
						<time>2024-11-04T00:20:16Z</time>
					</trkpt>
					<trkpt lat="49.060030" lon="2.540830">
						<ele>117</ele>
						<time>2024-11-04T00:20:20Z</time>
					</trkpt>
					<trkpt lat="49.060010" lon="2.540670">
						<ele>117</ele>
						<time>2024-11-04T00:20:22Z</time>
					</trkpt>
					<trkpt lat="49.059960" lon="2.540370">
						<ele>118</ele>
						<time>2024-11-04T00:20:25Z</time>
					</trkpt>
					<trkpt lat="49.059890" lon="2.539930">
						<ele>118</ele>
						<time>2024-11-04T00:20:31Z</time>
					</trkpt>
					<trkpt lat="49.059870" lon="2.539830">
						<ele>118</ele>
						<time>2024-11-04T00:20:32Z</time>
					</trkpt>
					<trkpt lat="49.059840" lon="2.539350">
						<ele>117</ele>
						<time>2024-11-04T00:20:37Z</time>
					</trkpt>
					<trkpt lat="49.059810" lon="2.538990">
						<ele>117</ele>
						<time>2024-11-04T00:20:42Z</time>
					</trkpt>
					<trkpt lat="49.059800" lon="2.538910">
						<ele>117</ele>
						<time>2024-11-04T00:20:43Z</time>
					</trkpt>
					<trkpt lat="49.059810" lon="2.538780">
						<ele>117</ele>
						<time>2024-11-04T00:20:44Z</time>
					</trkpt>
					<trkpt lat="49.059880" lon="2.538270">
						<ele>118</ele>
						<time>2024-11-04T00:20:50Z</time>
					</trkpt>
					<trkpt lat="49.059960" lon="2.537760">
						<ele>117</ele>
						<time>2024-11-04T00:20:56Z</time>
					</trkpt>
					<trkpt lat="49.059960" lon="2.537640">
						<ele>117</ele>
						<time>2024-11-04T00:20:58Z</time>
					</trkpt>
					<trkpt lat="49.059850" lon="2.536690">
						<ele>117</ele>
						<time>2024-11-04T00:21:09Z</time>
					</trkpt>
					<trkpt lat="49.059870" lon="2.536490">
						<ele>117</ele>
						<time>2024-11-04T00:21:11Z</time>
					</trkpt>
					<trkpt lat="49.059930" lon="2.535950">
						<ele>116</ele>
						<time>2024-11-04T00:21:18Z</time>
					</trkpt>
					<trkpt lat="49.060220" lon="2.533450">
						<ele>115</ele>
						<time>2024-11-04T00:21:47Z</time>
					</trkpt>
					<trkpt lat="49.060220" lon="2.533250">
						<ele>115</ele>
						<time>2024-11-04T00:21:50Z</time>
					</trkpt>
					<trkpt lat="49.060240" lon="2.533070">
						<ele>115</ele>
						<time>2024-11-04T00:21:52Z</time>
					</trkpt>
					<trkpt lat="49.060260" lon="2.532950">
						<ele>115</ele>
						<time>2024-11-04T00:21:53Z</time>
					</trkpt>
					<trkpt lat="49.060260" lon="2.532810">
						<ele>115</ele>
						<time>2024-11-04T00:21:55Z</time>
					</trkpt>
					<trkpt lat="49.060320" lon="2.532570">
						<ele>115</ele>
						<time>2024-11-04T00:21:58Z</time>
					</trkpt>
					<trkpt lat="49.060420" lon="2.532350">
						<ele>115</ele>
						<time>2024-11-04T00:22:01Z</time>
					</trkpt>
					<trkpt lat="49.060650" lon="2.532000">
						<ele>115</ele>
						<time>2024-11-04T00:22:07Z</time>
					</trkpt>
					<trkpt lat="49.060860" lon="2.531740">
						<ele>115</ele>
						<time>2024-11-04T00:22:12Z</time>
					</trkpt>
					<trkpt lat="49.061400" lon="2.530870">
						<ele>116</ele>
						<time>2024-11-04T00:22:26Z</time>
					</trkpt>
					<trkpt lat="49.061670" lon="2.530490">
						<ele>117</ele>
						<time>2024-11-04T00:22:32Z</time>
					</trkpt>
					<trkpt lat="49.062080" lon="2.530000">
						<ele>117</ele>
						<time>2024-11-04T00:22:41Z</time>
					</trkpt>
					<trkpt lat="49.062210" lon="2.529820">
						<ele>118</ele>
						<time>2024-11-04T00:22:44Z</time>
					</trkpt>
					<trkpt lat="49.062390" lon="2.529490">
						<ele>118</ele>
						<time>2024-11-04T00:22:49Z</time>
					</trkpt>
					<trkpt lat="49.062500" lon="2.529120">
						<ele>118</ele>
						<time>2024-11-04T00:22:54Z</time>
					</trkpt>
					<trkpt lat="49.062590" lon="2.528710">
						<ele>118</ele>
						<time>2024-11-04T00:22:59Z</time>
					</trkpt>
					<trkpt lat="49.062620" lon="2.528360">
						<ele>117</ele>
						<time>2024-11-04T00:23:03Z</time>
					</trkpt>
					<trkpt lat="49.062600" lon="2.527290">
						<ele>117</ele>
						<time>2024-11-04T00:23:16Z</time>
					</trkpt>
					<trkpt lat="49.062600" lon="2.526830">
						<ele>117</ele>
						<time>2024-11-04T00:23:21Z</time>
					</trkpt>
					<trkpt lat="49.062620" lon="2.526760">
						<ele>117</ele>
						<time>2024-11-04T00:23:22Z</time>
					</trkpt>
					<trkpt lat="49.062620" lon="2.526680">
						<ele>117</ele>
						<time>2024-11-04T00:23:23Z</time>
					</trkpt>
					<trkpt lat="49.062620" lon="2.526620">
						<ele>117</ele>
						<time>2024-11-04T00:23:24Z</time>
					</trkpt>
					<trkpt lat="49.062680" lon="2.526170">
						<ele>118</ele>
						<time>2024-11-04T00:23:29Z</time>
					</trkpt>
					<trkpt lat="49.062720" lon="2.525900">
						<ele>119</ele>
						<time>2024-11-04T00:23:32Z</time>
					</trkpt>
					<trkpt lat="49.062730" lon="2.525580">
						<ele>119</ele>
						<time>2024-11-04T00:23:36Z</time>
					</trkpt>
					<trkpt lat="49.062690" lon="2.525370">
						<ele>119</ele>
						<time>2024-11-04T00:23:39Z</time>
					</trkpt>
					<trkpt lat="49.062640" lon="2.525220">
						<ele>119</ele>
						<time>2024-11-04T00:23:41Z</time>
					</trkpt>
					<trkpt lat="49.062550" lon="2.525080">
						<ele>119</ele>
						<time>2024-11-04T00:23:43Z</time>
					</trkpt>
					<trkpt lat="49.062460" lon="2.524980">
						<ele>119</ele>
						<time>2024-11-04T00:23:45Z</time>
					</trkpt>
					<trkpt lat="49.061870" lon="2.524500">
						<ele>117</ele>
						<time>2024-11-04T00:23:57Z</time>
					</trkpt>
					<trkpt lat="49.061770" lon="2.524330">
						<ele>117</ele>
						<time>2024-11-04T00:23:59Z</time>
					</trkpt>
					<trkpt lat="49.061720" lon="2.524170">
						<ele>117</ele>
						<time>2024-11-04T00:24:01Z</time>
					</trkpt>
					<trkpt lat="49.061700" lon="2.524060">
						<ele>117</ele>
						<time>2024-11-04T00:24:03Z</time>
					</trkpt>
					<trkpt lat="49.061690" lon="2.523960">
						<ele>117</ele>
						<time>2024-11-04T00:24:04Z</time>
					</trkpt>
					<trkpt lat="49.061690" lon="2.523780">
						<ele>117</ele>
						<time>2024-11-04T00:24:06Z</time>
					</trkpt>
					<trkpt lat="49.061730" lon="2.523530">
						<ele>117</ele>
						<time>2024-11-04T00:24:09Z</time>
					</trkpt>
					<trkpt lat="49.061770" lon="2.523430">
						<ele>117</ele>
						<time>2024-11-04T00:24:10Z</time>
					</trkpt>
					<trkpt lat="49.061910" lon="2.523170">
						<ele>118</ele>
						<time>2024-11-04T00:24:14Z</time>
					</trkpt>
					<trkpt lat="49.061960" lon="2.523110">
						<ele>118</ele>
						<time>2024-11-04T00:24:15Z</time>
					</trkpt>
					<trkpt lat="49.062010" lon="2.523140">
						<ele>118</ele>
						<time>2024-11-04T00:24:16Z</time>
					</trkpt>
					<trkpt lat="49.062070" lon="2.523040">
						<ele>118</ele>
						<time>2024-11-04T00:24:18Z</time>
					</trkpt>
					<trkpt lat="49.062090" lon="2.523030">
						<ele>118</ele>
						<time>2024-11-04T00:24:18Z</time>
					</trkpt>
					<trkpt lat="49.062400" lon="2.522930">
						<ele>119</ele>
						<time>2024-11-04T00:24:24Z</time>
					</trkpt>
					<trkpt lat="49.062420" lon="2.522880">
						<ele>119</ele>
						<time>2024-11-04T00:24:25Z</time>
					</trkpt>
					<trkpt lat="49.062490" lon="2.522670">
						<ele>119</ele>
						<time>2024-11-04T00:24:27Z</time>
					</trkpt>
					<trkpt lat="49.062510" lon="2.522580">
						<ele>119</ele>
						<time>2024-11-04T00:24:29Z</time>
					</trkpt>
					<trkpt lat="49.062440" lon="2.522280">
						<ele>119</ele>
						<time>2024-11-04T00:24:32Z</time>
					</trkpt>
					<trkpt lat="49.062460" lon="2.522150">
						<ele>119</ele>
						<time>2024-11-04T00:24:34Z</time>
					</trkpt>
					<trkpt lat="49.062540" lon="2.522050">
						<ele>119</ele>
						<time>2024-11-04T00:24:36Z</time>
					</trkpt>
					<trkpt lat="49.062590" lon="2.522030">
						<ele>119</ele>
						<time>2024-11-04T00:24:37Z</time>
					</trkpt>
					<trkpt lat="49.062970" lon="2.522040">
						<ele>119</ele>
						<time>2024-11-04T00:24:43Z</time>
					</trkpt>
					<trkpt lat="49.063050" lon="2.522070">
						<ele>119</ele>
						<time>2024-11-04T00:24:45Z</time>
					</trkpt>
					<trkpt lat="49.063080" lon="2.522040">
						<ele>119</ele>
						<time>2024-11-04T00:24:45Z</time>
					</trkpt>
					<trkpt lat="49.063160" lon="2.522070">
						<ele>119</ele>
						<time>2024-11-04T00:24:47Z</time>
					</trkpt>
					<trkpt lat="49.063190" lon="2.522060">
						<ele>119</ele>
						<time>2024-11-04T00:24:47Z</time>
					</trkpt>
					<trkpt lat="49.063250" lon="2.521980">
						<ele>119</ele>
						<time>2024-11-04T00:24:49Z</time>
					</trkpt>
					<trkpt lat="49.063410" lon="2.521690">
						<ele>118</ele>
						<time>2024-11-04T00:24:53Z</time>
					</trkpt>
					<trkpt lat="49.063740" lon="2.521090">
						<ele>116</ele>
						<time>2024-11-04T00:25:02Z</time>
					</trkpt>
					<trkpt lat="49.063850" lon="2.520860">
						<ele>115</ele>
						<time>2024-11-04T00:25:06Z</time>
					</trkpt>
					<trkpt lat="49.064010" lon="2.520500">
						<ele>115</ele>
						<time>2024-11-04T00:25:11Z</time>
					</trkpt>
					<trkpt lat="49.064160" lon="2.520210">
						<ele>116</ele>
						<time>2024-11-04T00:25:15Z</time>
					</trkpt>
					<trkpt lat="49.066520" lon="2.515400">
						<ele>125</ele>
						<time>2024-11-04T00:26:25Z</time>
					</trkpt>
					<trkpt lat="49.070050" lon="2.508220">
						<ele>126</ele>
						<time>2024-11-04T00:28:10Z</time>
					</trkpt>
					<trkpt lat="49.071690" lon="2.504890">
						<ele>126</ele>
						<time>2024-11-04T00:28:58Z</time>
					</trkpt>
					<trkpt lat="49.071750" lon="2.504730">
						<ele>126</ele>
						<time>2024-11-04T00:29:01Z</time>
					</trkpt>
					<trkpt lat="49.071780" lon="2.504620">
						<ele>126</ele>
						<time>2024-11-04T00:29:02Z</time>
					</trkpt>
					<trkpt lat="49.071800" lon="2.504490">
						<ele>126</ele>
						<time>2024-11-04T00:29:03Z</time>
					</trkpt>
					<trkpt lat="49.071790" lon="2.504180">
						<ele>125</ele>
						<time>2024-11-04T00:29:07Z</time>
					</trkpt>
					<trkpt lat="49.071430" lon="2.499290">
						<ele>130</ele>
						<time>2024-11-04T00:30:04Z</time>
					</trkpt>
					<trkpt lat="49.071480" lon="2.499060">
						<ele>130</ele>
						<time>2024-11-04T00:30:07Z</time>
					</trkpt>
					<trkpt lat="49.071500" lon="2.499010">
						<ele>130</ele>
						<time>2024-11-04T00:30:08Z</time>
					</trkpt>
					<trkpt lat="49.071580" lon="2.498970">
						<ele>130</ele>
						<time>2024-11-04T00:30:09Z</time>
					</trkpt>
					<trkpt lat="49.071740" lon="2.498980">
						<ele>131</ele>
						<time>2024-11-04T00:30:12Z</time>
					</trkpt>
					<trkpt lat="49.072200" lon="2.499060">
						<ele>131</ele>
						<time>2024-11-04T00:30:21Z</time>
					</trkpt>
					<trkpt lat="49.072790" lon="2.499050">
						<ele>133</ele>
						<time>2024-11-04T00:30:31Z</time>
					</trkpt>
					<trkpt lat="49.072950" lon="2.499020">
						<ele>133</ele>
						<time>2024-11-04T00:30:34Z</time>
					</trkpt>
					<trkpt lat="49.073040" lon="2.498970">
						<ele>133</ele>
						<time>2024-11-04T00:30:36Z</time>
					</trkpt>
					<trkpt lat="49.073140" lon="2.498870">
						<ele>134</ele>
						<time>2024-11-04T00:30:38Z</time>
					</trkpt>
					<trkpt lat="49.073930" lon="2.498060">
						<ele>135</ele>
						<time>2024-11-04T00:30:55Z</time>
					</trkpt>
					<trkpt lat="49.074140" lon="2.498020">
						<ele>136</ele>
						<time>2024-11-04T00:30:58Z</time>
					</trkpt>
					<trkpt lat="49.074140" lon="2.497930">
						<ele>135</ele>
						<time>2024-11-04T00:30:59Z</time>
					</trkpt>
					<trkpt lat="49.074080" lon="2.496020">
						<ele>135</ele>
						<time>2024-11-04T00:31:22Z</time>
					</trkpt>
					<trkpt lat="49.074050" lon="2.495900">
						<ele>135</ele>
						<time>2024-11-04T00:31:23Z</time>
					</trkpt>
					<trkpt lat="49.074010" lon="2.495780">
						<ele>135</ele>
						<time>2024-11-04T00:31:25Z</time>
					</trkpt>
					<trkpt lat="49.073330" lon="2.494440">
						<ele>135</ele>
						<time>2024-11-04T00:31:45Z</time>
					</trkpt>
					<trkpt lat="49.073170" lon="2.494100">
						<ele>135</ele>
						<time>2024-11-04T00:31:49Z</time>
					</trkpt>
					<trkpt lat="49.071920" lon="2.490710">
						<ele>131</ele>
						<time>2024-11-04T00:32:35Z</time>
					</trkpt>
					<trkpt lat="49.070160" lon="2.485910">
						<ele>132</ele>
						<time>2024-11-04T00:33:39Z</time>
					</trkpt>
					<trkpt lat="49.070110" lon="2.485740">
						<ele>132</ele>
						<time>2024-11-04T00:33:41Z</time>
					</trkpt>
					<trkpt lat="49.070060" lon="2.485380">
						<ele>132</ele>
						<time>2024-11-04T00:33:45Z</time>
					</trkpt>
					<trkpt lat="49.070000" lon="2.484140">
						<ele>129</ele>
						<time>2024-11-04T00:34:00Z</time>
					</trkpt>
					<trkpt lat="49.069930" lon="2.482290">
						<ele>126</ele>
						<time>2024-11-04T00:34:21Z</time>
					</trkpt>
					<trkpt lat="49.069910" lon="2.482190">
						<ele>126</ele>
						<time>2024-11-04T00:34:23Z</time>
					</trkpt>
					<trkpt lat="49.069830" lon="2.482070">
						<ele>125</ele>
						<time>2024-11-04T00:34:25Z</time>
					</trkpt>
					<trkpt lat="49.069890" lon="2.481910">
						<ele>126</ele>
						<time>2024-11-04T00:34:27Z</time>
					</trkpt>
					<trkpt lat="49.069900" lon="2.481770">
						<ele>126</ele>
						<time>2024-11-04T00:34:29Z</time>
					</trkpt>
					<trkpt lat="49.069870" lon="2.481520">
						<ele>126</ele>
						<time>2024-11-04T00:34:31Z</time>
					</trkpt>
					<trkpt lat="49.069780" lon="2.481060">
						<ele>127</ele>
						<time>2024-11-04T00:34:37Z</time>
					</trkpt>
					<trkpt lat="49.069570" lon="2.480470">
						<ele>127</ele>
						<time>2024-11-04T00:34:45Z</time>
					</trkpt>
					<trkpt lat="49.069460" lon="2.480220">
						<ele>127</ele>
						<time>2024-11-04T00:34:48Z</time>
					</trkpt>
					<trkpt lat="49.069280" lon="2.480010">
						<ele>126</ele>
						<time>2024-11-04T00:34:52Z</time>
					</trkpt>
					<trkpt lat="49.068990" lon="2.479720">
						<ele>124</ele>
						<time>2024-11-04T00:34:59Z</time>
					</trkpt>
					<trkpt lat="49.068910" lon="2.479620">
						<ele>123</ele>
						<time>2024-11-04T00:35:00Z</time>
					</trkpt>
					<trkpt lat="49.068870" lon="2.479500">
						<ele>123</ele>
						<time>2024-11-04T00:35:02Z</time>
					</trkpt>
					<trkpt lat="49.068660" lon="2.478000">
						<ele>122</ele>
						<time>2024-11-04T00:35:20Z</time>
					</trkpt>
					<trkpt lat="49.068590" lon="2.477810">
						<ele>123</ele>
						<time>2024-11-04T00:35:22Z</time>
					</trkpt>
					<trkpt lat="49.068530" lon="2.477720">
						<ele>123</ele>
						<time>2024-11-04T00:35:24Z</time>
					</trkpt>
					<trkpt lat="49.068250" lon="2.477480">
						<ele>126</ele>
						<time>2024-11-04T00:35:30Z</time>
					</trkpt>
					<trkpt lat="49.068160" lon="2.477320">
						<ele>127</ele>
						<time>2024-11-04T00:35:32Z</time>
					</trkpt>
					<trkpt lat="49.067970" lon="2.476910">
						<ele>128</ele>
						<time>2024-11-04T00:35:38Z</time>
					</trkpt>
					<trkpt lat="49.067700" lon="2.476330">
						<ele>130</ele>
						<time>2024-11-04T00:35:46Z</time>
					</trkpt>
					<trkpt lat="49.067950" lon="2.475040">
						<ele>130</ele>
						<time>2024-11-04T00:36:02Z</time>
					</trkpt>
					<trkpt lat="49.067980" lon="2.474440">
						<ele>130</ele>
						<time>2024-11-04T00:36:09Z</time>
					</trkpt>
					<trkpt lat="49.067980" lon="2.473980">
						<ele>131</ele>
						<time>2024-11-04T00:36:14Z</time>
					</trkpt>
					<trkpt lat="49.067950" lon="2.472930">
						<ele>131</ele>
						<time>2024-11-04T00:36:27Z</time>
					</trkpt>
					<trkpt lat="49.067860" lon="2.472270">
						<ele>132</ele>
						<time>2024-11-04T00:36:34Z</time>
					</trkpt>
					<trkpt lat="49.067850" lon="2.472140">
						<ele>132</ele>
						<time>2024-11-04T00:36:36Z</time>
					</trkpt>
					<trkpt lat="49.067860" lon="2.472040">
						<ele>131</ele>
						<time>2024-11-04T00:36:37Z</time>
					</trkpt>
					<trkpt lat="49.067960" lon="2.471830">
						<ele>131</ele>
						<time>2024-11-04T00:36:40Z</time>
					</trkpt>
					<trkpt lat="49.067880" lon="2.471740">
						<ele>131</ele>
						<time>2024-11-04T00:36:42Z</time>
					</trkpt>
					<trkpt lat="49.067850" lon="2.471670">
						<ele>131</ele>
						<time>2024-11-04T00:36:43Z</time>
					</trkpt>
					<trkpt lat="49.067800" lon="2.471490">
						<ele>131</ele>
						<time>2024-11-04T00:36:45Z</time>
					</trkpt>
					<trkpt lat="49.067830" lon="2.471400">
						<ele>131</ele>
						<time>2024-11-04T00:36:46Z</time>
					</trkpt>
					<trkpt lat="49.067820" lon="2.471190">
						<ele>131</ele>
						<time>2024-11-04T00:36:49Z</time>
					</trkpt>
					<trkpt lat="49.067770" lon="2.469350">
						<ele>133</ele>
						<time>2024-11-04T00:37:10Z</time>
					</trkpt>
					<trkpt lat="49.067720" lon="2.468610">
						<ele>133</ele>
						<time>2024-11-04T00:37:19Z</time>
					</trkpt>
					<trkpt lat="49.067630" lon="2.468080">
						<ele>133</ele>
						<time>2024-11-04T00:37:25Z</time>
					</trkpt>
					<trkpt lat="49.067300" lon="2.466640">
						<ele>133</ele>
						<time>2024-11-04T00:37:43Z</time>
					</trkpt>
					<trkpt lat="49.067250" lon="2.466340">
						<ele>134</ele>
						<time>2024-11-04T00:37:47Z</time>
					</trkpt>
					<trkpt lat="49.067210" lon="2.465900">
						<ele>135</ele>
						<time>2024-11-04T00:37:52Z</time>
					</trkpt>
					<trkpt lat="49.067220" lon="2.465000">
						<ele>139</ele>
						<time>2024-11-04T00:38:02Z</time>
					</trkpt>
					<trkpt lat="49.067210" lon="2.464710">
						<ele>140</ele>
						<time>2024-11-04T00:38:06Z</time>
					</trkpt>
					<trkpt lat="49.067170" lon="2.464480">
						<ele>141</ele>
						<time>2024-11-04T00:38:09Z</time>
					</trkpt>
					<trkpt lat="49.067080" lon="2.464200">
						<ele>142</ele>
						<time>2024-11-04T00:38:12Z</time>
					</trkpt>
					<trkpt lat="49.066860" lon="2.463710">
						<ele>145</ele>
						<time>2024-11-04T00:38:19Z</time>
					</trkpt>
					<trkpt lat="49.066780" lon="2.463480">
						<ele>147</ele>
						<time>2024-11-04T00:38:22Z</time>
					</trkpt>
					<trkpt lat="49.066590" lon="2.462830">
						<ele>149</ele>
						<time>2024-11-04T00:38:30Z</time>
					</trkpt>
					<trkpt lat="49.066480" lon="2.462380">
						<ele>150</ele>
						<time>2024-11-04T00:38:36Z</time>
					</trkpt>
					<trkpt lat="49.066430" lon="2.462080">
						<ele>150</ele>
						<time>2024-11-04T00:38:40Z</time>
					</trkpt>
					<trkpt lat="49.066370" lon="2.461110">
						<ele>152</ele>
						<time>2024-11-04T00:38:51Z</time>
					</trkpt>
					<trkpt lat="49.066390" lon="2.460850">
						<ele>153</ele>
						<time>2024-11-04T00:38:54Z</time>
					</trkpt>
					<trkpt lat="49.066350" lon="2.460590">
						<ele>154</ele>
						<time>2024-11-04T00:38:57Z</time>
					</trkpt>
					<trkpt lat="49.066280" lon="2.459310">
						<ele>160</ele>
						<time>2024-11-04T00:39:12Z</time>
					</trkpt>
					<trkpt lat="49.066310" lon="2.457590">
						<ele>163</ele>
						<time>2024-11-04T00:39:32Z</time>
					</trkpt>
					<trkpt lat="49.066310" lon="2.457510">
						<ele>164</ele>
						<time>2024-11-04T00:39:33Z</time>
					</trkpt>
					<trkpt lat="49.066310" lon="2.456560">
						<ele>164</ele>
						<time>2024-11-04T00:39:44Z</time>
					</trkpt>
					<trkpt lat="49.066310" lon="2.455750">
						<ele>165</ele>
						<time>2024-11-04T00:39:54Z</time>
					</trkpt>
					<trkpt lat="49.066280" lon="2.454920">
						<ele>166</ele>
						<time>2024-11-04T00:40:03Z</time>
					</trkpt>
					<trkpt lat="49.066220" lon="2.453680">
						<ele>165</ele>
						<time>2024-11-04T00:40:18Z</time>
					</trkpt>
					<trkpt lat="49.066230" lon="2.453320">
						<ele>164</ele>
						<time>2024-11-04T00:40:22Z</time>
					</trkpt>
					<trkpt lat="49.066220" lon="2.453160">
						<ele>163</ele>
						<time>2024-11-04T00:40:24Z</time>
					</trkpt>
					<trkpt lat="49.066190" lon="2.453010">
						<ele>162</ele>
						<time>2024-11-04T00:40:26Z</time>
					</trkpt>
					<trkpt lat="49.066060" lon="2.449950">
						<ele>149</ele>
						<time>2024-11-04T00:41:01Z</time>
					</trkpt>
					<trkpt lat="49.066060" lon="2.449530">
						<ele>146</ele>
						<time>2024-11-04T00:41:06Z</time>
					</trkpt>
					<trkpt lat="49.066120" lon="2.449210">
						<ele>145</ele>
						<time>2024-11-04T00:41:10Z</time>
					</trkpt>
					<trkpt lat="49.066220" lon="2.448810">
						<ele>144</ele>
						<time>2024-11-04T00:41:15Z</time>
					</trkpt>
					<trkpt lat="49.066830" lon="2.446500">
						<ele>135</ele>
						<time>2024-11-04T00:41:44Z</time>
					</trkpt>
					<trkpt lat="49.067460" lon="2.443730">
						<ele>132</ele>
						<time>2024-11-04T00:42:18Z</time>
					</trkpt>
					<trkpt lat="49.067540" lon="2.443040">
						<ele>131</ele>
						<time>2024-11-04T00:42:27Z</time>
					</trkpt>
					<trkpt lat="49.067610" lon="2.441380">
						<ele>125</ele>
						<time>2024-11-04T00:42:46Z</time>
					</trkpt>
					<trkpt lat="49.067670" lon="2.440270">
						<ele>123</ele>
						<time>2024-11-04T00:42:59Z</time>
					</trkpt>
					<trkpt lat="49.067700" lon="2.439960">
						<ele>123</ele>
						<time>2024-11-04T00:43:03Z</time>
					</trkpt>
					<trkpt lat="49.067890" lon="2.438920">
						<ele>124</ele>
						<time>2024-11-04T00:43:15Z</time>
					</trkpt>
					<trkpt lat="49.068630" lon="2.434980">
						<ele>131</ele>
						<time>2024-11-04T00:44:03Z</time>
					</trkpt>
					<trkpt lat="49.068630" lon="2.434890">
						<ele>131</ele>
						<time>2024-11-04T00:44:04Z</time>
					</trkpt>
					<trkpt lat="49.068610" lon="2.434820">
						<ele>131</ele>
						<time>2024-11-04T00:44:05Z</time>
					</trkpt>
					<trkpt lat="49.068550" lon="2.434730">
						<ele>132</ele>
						<time>2024-11-04T00:44:06Z</time>
					</trkpt>
					<trkpt lat="49.066240" lon="2.431720">
						<ele>131</ele>
						<time>2024-11-04T00:45:01Z</time>
					</trkpt>
					<trkpt lat="49.066040" lon="2.431350">
						<ele>132</ele>
						<time>2024-11-04T00:45:06Z</time>
					</trkpt>
					<trkpt lat="49.065990" lon="2.431210">
						<ele>132</ele>
						<time>2024-11-04T00:45:08Z</time>
					</trkpt>
					<trkpt lat="49.065960" lon="2.431160">
						<ele>132</ele>
						<time>2024-11-04T00:45:09Z</time>
					</trkpt>
					<trkpt lat="49.065950" lon="2.431130">
						<ele>132</ele>
						<time>2024-11-04T00:45:09Z</time>
					</trkpt>
					<trkpt lat="49.065920" lon="2.430960">
						<ele>132</ele>
						<time>2024-11-04T00:45:11Z</time>
					</trkpt>
					<trkpt lat="49.065930" lon="2.430710">
						<ele>132</ele>
						<time>2024-11-04T00:45:14Z</time>
					</trkpt>
					<trkpt lat="49.066080" lon="2.430190">
						<ele>132</ele>
						<time>2024-11-04T00:45:21Z</time>
					</trkpt>
					<trkpt lat="49.066140" lon="2.429920">
						<ele>133</ele>
						<time>2024-11-04T00:45:24Z</time>
					</trkpt>
					<trkpt lat="49.066310" lon="2.428880">
						<ele>136</ele>
						<time>2024-11-04T00:45:37Z</time>
					</trkpt>
					<trkpt lat="49.066730" lon="2.426690">
						<ele>139</ele>
						<time>2024-11-04T00:46:03Z</time>
					</trkpt>
					<trkpt lat="49.066880" lon="2.425880">
						<ele>139</ele>
						<time>2024-11-04T00:46:13Z</time>
					</trkpt>
					<trkpt lat="49.066920" lon="2.425400">
						<ele>139</ele>
						<time>2024-11-04T00:46:19Z</time>
					</trkpt>
					<trkpt lat="49.066920" lon="2.424600">
						<ele>138</ele>
						<time>2024-11-04T00:46:28Z</time>
					</trkpt>
					<trkpt lat="49.066950" lon="2.424280">
						<ele>138</ele>
						<time>2024-11-04T00:46:32Z</time>
					</trkpt>
					<trkpt lat="49.067100" lon="2.423310">
						<ele>140</ele>
						<time>2024-11-04T00:46:43Z</time>
					</trkpt>
					<trkpt lat="49.067120" lon="2.423160">
						<ele>140</ele>
						<time>2024-11-04T00:46:45Z</time>
					</trkpt>
					<trkpt lat="49.067350" lon="2.421730">
						<ele>139</ele>
						<time>2024-11-04T00:47:02Z</time>
					</trkpt>
					<trkpt lat="49.067620" lon="2.420050">
						<ele>138</ele>
						<time>2024-11-04T00:47:22Z</time>
					</trkpt>
					<trkpt lat="49.067720" lon="2.419590">
						<ele>136</ele>
						<time>2024-11-04T00:47:28Z</time>
					</trkpt>
					<trkpt lat="49.067860" lon="2.419130">
						<ele>135</ele>
						<time>2024-11-04T00:47:34Z</time>
					</trkpt>
					<trkpt lat="49.067990" lon="2.418800">
						<ele>134</ele>
						<time>2024-11-04T00:47:38Z</time>
					</trkpt>
					<trkpt lat="49.068160" lon="2.418430">
						<ele>133</ele>
						<time>2024-11-04T00:47:44Z</time>
					</trkpt>
					<trkpt lat="49.068550" lon="2.417770">
						<ele>132</ele>
						<time>2024-11-04T00:47:54Z</time>
					</trkpt>
					<trkpt lat="49.068820" lon="2.417380">
						<ele>131</ele>
						<time>2024-11-04T00:48:01Z</time>
					</trkpt>
					<trkpt lat="49.069130" lon="2.416810">
						<ele>131</ele>
						<time>2024-11-04T00:48:09Z</time>
					</trkpt>
					<trkpt lat="49.069200" lon="2.416640">
						<ele>131</ele>
						<time>2024-11-04T00:48:12Z</time>
					</trkpt>
					<trkpt lat="49.069350" lon="2.416250">
						<ele>132</ele>
						<time>2024-11-04T00:48:17Z</time>
					</trkpt>
					<trkpt lat="49.069460" lon="2.415830">
						<ele>133</ele>
						<time>2024-11-04T00:48:22Z</time>
					</trkpt>
					<trkpt lat="49.069580" lon="2.415140">
						<ele>131</ele>
						<time>2024-11-04T00:48:31Z</time>
					</trkpt>
					<trkpt lat="49.069680" lon="2.414330">
						<ele>131</ele>
						<time>2024-11-04T00:48:40Z</time>
					</trkpt>
					<trkpt lat="49.069780" lon="2.413160">
						<ele>130</ele>
						<time>2024-11-04T00:48:54Z</time>
					</trkpt>
					<trkpt lat="49.069790" lon="2.412840">
						<ele>130</ele>
						<time>2024-11-04T00:48:58Z</time>
					</trkpt>
					<trkpt lat="49.070070" lon="2.410250">
						<ele>126</ele>
						<time>2024-11-04T00:49:28Z</time>
					</trkpt>
					<trkpt lat="49.070140" lon="2.409750">
						<ele>126</ele>
						<time>2024-11-04T00:49:34Z</time>
					</trkpt>
					<trkpt lat="49.070210" lon="2.409390">
						<ele>126</ele>
						<time>2024-11-04T00:49:39Z</time>
					</trkpt>
					<trkpt lat="49.070300" lon="2.409100">
						<ele>126</ele>
						<time>2024-11-04T00:49:42Z</time>
					</trkpt>
					<trkpt lat="49.070530" lon="2.408420">
						<ele>125</ele>
						<time>2024-11-04T00:49:51Z</time>
					</trkpt>
					<trkpt lat="49.070930" lon="2.407260">
						<ele>127</ele>
						<time>2024-11-04T00:50:07Z</time>
					</trkpt>
					<trkpt lat="49.071020" lon="2.406890">
						<ele>127</ele>
						<time>2024-11-04T00:50:11Z</time>
					</trkpt>
					<trkpt lat="49.071080" lon="2.406460">
						<ele>127</ele>
						<time>2024-11-04T00:50:16Z</time>
					</trkpt>
					<trkpt lat="49.071100" lon="2.406050">
						<ele>128</ele>
						<time>2024-11-04T00:50:21Z</time>
					</trkpt>
					<trkpt lat="49.071090" lon="2.405650">
						<ele>128</ele>
						<time>2024-11-04T00:50:26Z</time>
					</trkpt>
					<trkpt lat="49.070960" lon="2.404450">
						<ele>128</ele>
						<time>2024-11-04T00:50:40Z</time>
					</trkpt>
					<trkpt lat="49.070930" lon="2.404170">
						<ele>129</ele>
						<time>2024-11-04T00:50:43Z</time>
					</trkpt>
					<trkpt lat="49.070890" lon="2.403620">
						<ele>128</ele>
						<time>2024-11-04T00:50:50Z</time>
					</trkpt>
					<trkpt lat="49.070890" lon="2.403340">
						<ele>128</ele>
						<time>2024-11-04T00:50:53Z</time>
					</trkpt>
					<trkpt lat="49.070920" lon="2.402880">
						<ele>129</ele>
						<time>2024-11-04T00:50:58Z</time>
					</trkpt>
					<trkpt lat="49.071750" lon="2.396100">
						<ele>127</ele>
						<time>2024-11-04T00:52:19Z</time>
					</trkpt>
					<trkpt lat="49.071780" lon="2.395740">
						<ele>127</ele>
						<time>2024-11-04T00:52:23Z</time>
					</trkpt>
					<trkpt lat="49.071840" lon="2.394800">
						<ele>127</ele>
						<time>2024-11-04T00:52:34Z</time>
					</trkpt>
					<trkpt lat="49.071840" lon="2.394040">
						<ele>128</ele>
						<time>2024-11-04T00:52:43Z</time>
					</trkpt>
					<trkpt lat="49.071830" lon="2.393950">
						<ele>128</ele>
						<time>2024-11-04T00:52:44Z</time>
					</trkpt>
					<trkpt lat="49.071780" lon="2.393210">
						<ele>130</ele>
						<time>2024-11-04T00:52:53Z</time>
					</trkpt>
					<trkpt lat="49.071750" lon="2.392950">
						<ele>130</ele>
						<time>2024-11-04T00:52:56Z</time>
					</trkpt>
					<trkpt lat="49.071640" lon="2.392260">
						<ele>129</ele>
						<time>2024-11-04T00:53:04Z</time>
					</trkpt>
					<trkpt lat="49.071530" lon="2.391730">
						<ele>129</ele>
						<time>2024-11-04T00:53:10Z</time>
					</trkpt>
					<trkpt lat="49.071270" lon="2.390810">
						<ele>128</ele>
						<time>2024-11-04T00:53:22Z</time>
					</trkpt>
					<trkpt lat="49.070620" lon="2.389040">
						<ele>129</ele>
						<time>2024-11-04T00:53:46Z</time>
					</trkpt>
					<trkpt lat="49.070550" lon="2.388810">
						<ele>128</ele>
						<time>2024-11-04T00:53:49Z</time>
					</trkpt>
					<trkpt lat="49.070510" lon="2.388590">
						<ele>128</ele>
						<time>2024-11-04T00:53:51Z</time>
					</trkpt>
					<trkpt lat="49.070460" lon="2.388200">
						<ele>128</ele>
						<time>2024-11-04T00:53:56Z</time>
					</trkpt>
					<trkpt lat="49.070450" lon="2.388090">
						<ele>128</ele>
						<time>2024-11-04T00:53:57Z</time>
					</trkpt>
					<trkpt lat="49.070460" lon="2.387630">
						<ele>128</ele>
						<time>2024-11-04T00:54:03Z</time>
					</trkpt>
					<trkpt lat="49.070530" lon="2.387140">
						<ele>128</ele>
						<time>2024-11-04T00:54:08Z</time>
					</trkpt>
					<trkpt lat="49.070600" lon="2.386770">
						<ele>129</ele>
						<time>2024-11-04T00:54:13Z</time>
					</trkpt>
					<trkpt lat="49.070630" lon="2.386450">
						<ele>129</ele>
						<time>2024-11-04T00:54:17Z</time>
					</trkpt>
					<trkpt lat="49.070650" lon="2.386360">
						<ele>129</ele>
						<time>2024-11-04T00:54:18Z</time>
					</trkpt>
					<trkpt lat="49.070700" lon="2.386260">
						<ele>129</ele>
						<time>2024-11-04T00:54:19Z</time>
					</trkpt>
					<trkpt lat="49.070780" lon="2.386140">
						<ele>128</ele>
						<time>2024-11-04T00:54:21Z</time>
					</trkpt>
					<trkpt lat="49.070830" lon="2.385970">
						<ele>128</ele>
						<time>2024-11-04T00:54:23Z</time>
					</trkpt>
					<trkpt lat="49.070830" lon="2.385880">
						<ele>128</ele>
						<time>2024-11-04T00:54:25Z</time>
					</trkpt>
					<trkpt lat="49.070810" lon="2.385700">
						<ele>128</ele>
						<time>2024-11-04T00:54:27Z</time>
					</trkpt>
					<trkpt lat="49.070770" lon="2.385580">
						<ele>128</ele>
						<time>2024-11-04T00:54:28Z</time>
					</trkpt>
					<trkpt lat="49.070750" lon="2.385450">
						<ele>128</ele>
						<time>2024-11-04T00:54:30Z</time>
					</trkpt>
					<trkpt lat="49.070750" lon="2.384880">
						<ele>127</ele>
						<time>2024-11-04T00:54:36Z</time>
					</trkpt>
					<trkpt lat="49.070720" lon="2.384710">
						<ele>127</ele>
						<time>2024-11-04T00:54:38Z</time>
					</trkpt>
					<trkpt lat="49.070660" lon="2.384520">
						<ele>126</ele>
						<time>2024-11-04T00:54:41Z</time>
					</trkpt>
					<trkpt lat="49.070570" lon="2.384300">
						<ele>125</ele>
						<time>2024-11-04T00:54:44Z</time>
					</trkpt>
					<trkpt lat="49.070350" lon="2.383850">
						<ele>124</ele>
						<time>2024-11-04T00:54:51Z</time>
					</trkpt>
					<trkpt lat="49.070270" lon="2.383640">
						<ele>124</ele>
						<time>2024-11-04T00:54:53Z</time>
					</trkpt>
					<trkpt lat="49.070230" lon="2.383470">
						<ele>124</ele>
						<time>2024-11-04T00:54:55Z</time>
					</trkpt>
					<trkpt lat="49.070180" lon="2.383280">
						<ele>124</ele>
						<time>2024-11-04T00:54:58Z</time>
					</trkpt>
					<trkpt lat="49.070160" lon="2.382910">
						<ele>125</ele>
						<time>2024-11-04T00:55:02Z</time>
					</trkpt>
					<trkpt lat="49.070200" lon="2.382450">
						<ele>125</ele>
						<time>2024-11-04T00:55:08Z</time>
					</trkpt>
					<trkpt lat="49.070300" lon="2.381810">
						<ele>126</ele>
						<time>2024-11-04T00:55:15Z</time>
					</trkpt>
					<trkpt lat="49.070510" lon="2.380800">
						<ele>123</ele>
						<time>2024-11-04T00:55:28Z</time>
					</trkpt>
					<trkpt lat="49.070680" lon="2.380070">
						<ele>123</ele>
						<time>2024-11-04T00:55:37Z</time>
					</trkpt>
					<trkpt lat="49.071140" lon="2.378340">
						<ele>123</ele>
						<time>2024-11-04T00:55:58Z</time>
					</trkpt>
					<trkpt lat="49.071260" lon="2.377830">
						<ele>123</ele>
						<time>2024-11-04T00:56:05Z</time>
					</trkpt>
					<trkpt lat="49.071740" lon="2.375550">
						<ele>124</ele>
						<time>2024-11-04T00:56:33Z</time>
					</trkpt>
					<trkpt lat="49.071740" lon="2.375520">
						<ele>124</ele>
						<time>2024-11-04T00:56:33Z</time>
					</trkpt>
					<trkpt lat="49.070550" lon="2.374430">
						<ele>122</ele>
						<time>2024-11-04T00:56:58Z</time>
					</trkpt>
					<trkpt lat="49.070040" lon="2.374000">
						<ele>121</ele>
						<time>2024-11-04T00:57:08Z</time>
					</trkpt>
					<trkpt lat="49.069110" lon="2.373300">
						<ele>119</ele>
						<time>2024-11-04T00:57:26Z</time>
					</trkpt>
					<trkpt lat="49.068890" lon="2.373160">
						<ele>118</ele>
						<time>2024-11-04T00:57:31Z</time>
					</trkpt>
					<trkpt lat="49.068710" lon="2.373090">
						<ele>118</ele>
						<time>2024-11-04T00:57:34Z</time>
					</trkpt>
					<trkpt lat="49.068600" lon="2.373040">
						<ele>118</ele>
						<time>2024-11-04T00:57:36Z</time>
					</trkpt>
					<trkpt lat="49.066730" lon="2.372720">
						<ele>113</ele>
						<time>2024-11-04T00:58:10Z</time>
					</trkpt>
					<trkpt lat="49.066530" lon="2.372640">
						<ele>113</ele>
						<time>2024-11-04T00:58:13Z</time>
					</trkpt>
					<trkpt lat="49.066510" lon="2.372490">
						<ele>113</ele>
						<time>2024-11-04T00:58:15Z</time>
					</trkpt>
					<trkpt lat="49.066450" lon="2.372330">
						<ele>113</ele>
						<time>2024-11-04T00:58:17Z</time>
					</trkpt>
					<trkpt lat="49.066360" lon="2.372190">
						<ele>113</ele>
						<time>2024-11-04T00:58:19Z</time>
					</trkpt>
					<trkpt lat="49.066240" lon="2.372170">
						<ele>114</ele>
						<time>2024-11-04T00:58:22Z</time>
					</trkpt>
					<trkpt lat="49.065860" lon="2.372370">
						<ele>114</ele>
						<time>2024-11-04T00:58:29Z</time>
					</trkpt>
					<trkpt lat="49.065680" lon="2.372300">
						<ele>113</ele>
						<time>2024-11-04T00:58:32Z</time>
					</trkpt>
					<trkpt lat="49.065510" lon="2.371840">
						<ele>112</ele>
						<time>2024-11-04T00:58:38Z</time>
					</trkpt>
					<trkpt lat="49.063960" lon="2.366710">
						<ele>115</ele>
						<time>2024-11-04T00:59:44Z</time>
					</trkpt>
					<trkpt lat="49.061610" lon="2.359240">
						<ele>114</ele>
						<time>2024-11-04T01:01:21Z</time>
					</trkpt>
					<trkpt lat="49.060480" lon="2.355720">
						<ele>110</ele>
						<time>2024-11-04T01:02:06Z</time>
					</trkpt>
					<trkpt lat="49.059930" lon="2.352970">
						<ele>109</ele>
						<time>2024-11-04T01:02:40Z</time>
					</trkpt>
					<trkpt lat="49.059910" lon="2.352400">
						<ele>109</ele>
						<time>2024-11-04T01:02:47Z</time>
					</trkpt>
					<trkpt lat="49.059910" lon="2.352110">
						<ele>109</ele>
						<time>2024-11-04T01:02:50Z</time>
					</trkpt>
					<trkpt lat="49.059950" lon="2.351440">
						<ele>110</ele>
						<time>2024-11-04T01:02:58Z</time>
					</trkpt>
					<trkpt lat="49.060000" lon="2.350980">
						<ele>110</ele>
						<time>2024-11-04T01:03:03Z</time>
					</trkpt>
					<trkpt lat="49.060050" lon="2.350610">
						<ele>110</ele>
						<time>2024-11-04T01:03:08Z</time>
					</trkpt>
					<trkpt lat="49.060130" lon="2.350380">
						<ele>110</ele>
						<time>2024-11-04T01:03:11Z</time>
					</trkpt>
					<trkpt lat="49.060200" lon="2.350300">
						<ele>110</ele>
						<time>2024-11-04T01:03:12Z</time>
					</trkpt>
					<trkpt lat="49.060310" lon="2.350230">
						<ele>110</ele>
						<time>2024-11-04T01:03:14Z</time>
					</trkpt>
					<trkpt lat="49.060390" lon="2.350210">
						<ele>110</ele>
						<time>2024-11-04T01:03:16Z</time>
					</trkpt>
					<trkpt lat="49.060570" lon="2.350240">
						<ele>110</ele>
						<time>2024-11-04T01:03:19Z</time>
					</trkpt>
					<trkpt lat="49.060630" lon="2.350220">
						<ele>111</ele>
						<time>2024-11-04T01:03:20Z</time>
					</trkpt>
					<trkpt lat="49.060690" lon="2.350160">
						<ele>111</ele>
						<time>2024-11-04T01:03:21Z</time>
					</trkpt>
					<trkpt lat="49.060720" lon="2.350030">
						<ele>111</ele>
						<time>2024-11-04T01:03:23Z</time>
					</trkpt>
					<trkpt lat="49.060720" lon="2.349940">
						<ele>111</ele>
						<time>2024-11-04T01:03:24Z</time>
					</trkpt>
					<trkpt lat="49.060700" lon="2.349840">
						<ele>111</ele>
						<time>2024-11-04T01:03:25Z</time>
					</trkpt>
					<trkpt lat="49.060630" lon="2.349670">
						<ele>110</ele>
						<time>2024-11-04T01:03:28Z</time>
					</trkpt>
					<trkpt lat="49.060540" lon="2.349490">
						<ele>110</ele>
						<time>2024-11-04T01:03:30Z</time>
					</trkpt>
					<trkpt lat="49.060520" lon="2.349400">
						<ele>110</ele>
						<time>2024-11-04T01:03:31Z</time>
					</trkpt>
					<trkpt lat="49.060460" lon="2.348880">
						<ele>109</ele>
						<time>2024-11-04T01:03:37Z</time>
					</trkpt>
					<trkpt lat="49.060490" lon="2.348690">
						<ele>108</ele>
						<time>2024-11-04T01:03:40Z</time>
					</trkpt>
					<trkpt lat="49.060640" lon="2.348110">
						<ele>106</ele>
						<time>2024-11-04T01:03:47Z</time>
					</trkpt>
					<trkpt lat="49.060760" lon="2.347790">
						<ele>105</ele>
						<time>2024-11-04T01:03:51Z</time>
					</trkpt>
					<trkpt lat="49.060910" lon="2.347560">
						<ele>104</ele>
						<time>2024-11-04T01:03:55Z</time>
					</trkpt>
					<trkpt lat="49.061190" lon="2.347260">
						<ele>103</ele>
						<time>2024-11-04T01:04:01Z</time>
					</trkpt>
					<trkpt lat="49.061280" lon="2.346970">
						<ele>102</ele>
						<time>2024-11-04T01:04:05Z</time>
					</trkpt>
					<trkpt lat="49.061470" lon="2.346370">
						<ele>102</ele>
						<time>2024-11-04T01:04:13Z</time>
					</trkpt>
					<trkpt lat="49.061460" lon="2.346100">
						<ele>103</ele>
						<time>2024-11-04T01:04:16Z</time>
					</trkpt>
					<trkpt lat="49.061470" lon="2.345960">
						<ele>103</ele>
						<time>2024-11-04T01:04:17Z</time>
					</trkpt>
					<trkpt lat="49.061560" lon="2.345480">
						<ele>103</ele>
						<time>2024-11-04T01:04:23Z</time>
					</trkpt>
					<trkpt lat="49.061850" lon="2.344330">
						<ele>102</ele>
						<time>2024-11-04T01:04:38Z</time>
					</trkpt>
					<trkpt lat="49.061970" lon="2.343520">
						<ele>105</ele>
						<time>2024-11-04T01:04:47Z</time>
					</trkpt>
					<trkpt lat="49.062130" lon="2.343010">
						<ele>107</ele>
						<time>2024-11-04T01:04:54Z</time>
					</trkpt>
					<trkpt lat="49.062140" lon="2.342890">
						<ele>107</ele>
						<time>2024-11-04T01:04:55Z</time>
					</trkpt>
					<trkpt lat="49.062110" lon="2.342580">
						<ele>108</ele>
						<time>2024-11-04T01:04:59Z</time>
					</trkpt>
					<trkpt lat="49.062090" lon="2.342220">
						<ele>109</ele>
						<time>2024-11-04T01:05:03Z</time>
					</trkpt>
					<trkpt lat="49.062100" lon="2.341980">
						<ele>109</ele>
						<time>2024-11-04T01:05:06Z</time>
					</trkpt>
					<trkpt lat="49.062160" lon="2.341620">
						<ele>110</ele>
						<time>2024-11-04T01:05:10Z</time>
					</trkpt>
					<trkpt lat="49.062250" lon="2.341360">
						<ele>110</ele>
						<time>2024-11-04T01:05:14Z</time>
					</trkpt>
					<trkpt lat="49.062390" lon="2.341110">
						<ele>110</ele>
						<time>2024-11-04T01:05:18Z</time>
					</trkpt>
					<trkpt lat="49.062590" lon="2.340890">
						<ele>110</ele>
						<time>2024-11-04T01:05:22Z</time>
					</trkpt>
					<trkpt lat="49.062800" lon="2.340680">
						<ele>110</ele>
						<time>2024-11-04T01:05:26Z</time>
					</trkpt>
					<trkpt lat="49.062910" lon="2.340540">
						<ele>111</ele>
						<time>2024-11-04T01:05:29Z</time>
					</trkpt>
					<trkpt lat="49.063000" lon="2.340370">
						<ele>111</ele>
						<time>2024-11-04T01:05:32Z</time>
					</trkpt>
					<trkpt lat="49.063060" lon="2.340180">
						<ele>111</ele>
						<time>2024-11-04T01:05:34Z</time>
					</trkpt>
					<trkpt lat="49.063140" lon="2.339700">
						<ele>111</ele>
						<time>2024-11-04T01:05:40Z</time>
					</trkpt>
					<trkpt lat="49.063250" lon="2.339170">
						<ele>112</ele>
						<time>2024-11-04T01:05:46Z</time>
					</trkpt>
					<trkpt lat="49.063280" lon="2.338880">
						<ele>112</ele>
						<time>2024-11-04T01:05:50Z</time>
					</trkpt>
					<trkpt lat="49.063100" lon="2.338840">
						<ele>112</ele>
						<time>2024-11-04T01:05:53Z</time>
					</trkpt>
					<trkpt lat="49.063000" lon="2.338790">
						<ele>112</ele>
						<time>2024-11-04T01:05:55Z</time>
					</trkpt>
					<trkpt lat="49.062930" lon="2.338720">
						<ele>112</ele>
						<time>2024-11-04T01:05:56Z</time>
					</trkpt>
					<trkpt lat="49.062870" lon="2.338590">
						<ele>112</ele>
						<time>2024-11-04T01:05:58Z</time>
					</trkpt>
					<trkpt lat="49.062820" lon="2.338540">
						<ele>112</ele>
						<time>2024-11-04T01:05:59Z</time>
					</trkpt>
					<trkpt lat="49.062800" lon="2.338390">
						<ele>112</ele>
						<time>2024-11-04T01:06:01Z</time>
					</trkpt>
					<trkpt lat="49.062710" lon="2.338380">
						<ele>112</ele>
						<time>2024-11-04T01:06:03Z</time>
					</trkpt>
					<trkpt lat="49.062660" lon="2.338370">
						<ele>112</ele>
						<time>2024-11-04T01:06:04Z</time>
					</trkpt>
					<trkpt lat="49.062640" lon="2.338450">
						<ele>112</ele>
						<time>2024-11-04T01:06:05Z</time>
					</trkpt>
					<trkpt lat="49.062560" lon="2.338510">
						<ele>112</ele>
						<time>2024-11-04T01:06:06Z</time>
					</trkpt>
					<trkpt lat="49.062500" lon="2.338660">
						<ele>111</ele>
						<time>2024-11-04T01:06:08Z</time>
					</trkpt>
					<trkpt lat="49.062470" lon="2.338960">
						<ele>110</ele>
						<time>2024-11-04T01:06:12Z</time>
					</trkpt>
					<trkpt lat="49.062430" lon="2.339020">
						<ele>110</ele>
						<time>2024-11-04T01:06:13Z</time>
					</trkpt>
					<trkpt lat="49.062290" lon="2.339090">
						<ele>110</ele>
						<time>2024-11-04T01:06:15Z</time>
					</trkpt>
					<trkpt lat="49.062180" lon="2.339040">
						<ele>110</ele>
						<time>2024-11-04T01:06:17Z</time>
					</trkpt>
					<trkpt lat="49.061800" lon="2.338900">
						<ele>110</ele>
						<time>2024-11-04T01:06:24Z</time>
					</trkpt>
					<trkpt lat="49.061690" lon="2.338910">
						<ele>110</ele>
						<time>2024-11-04T01:06:26Z</time>
					</trkpt>
					<trkpt lat="49.061560" lon="2.338860">
						<ele>110</ele>
						<time>2024-11-04T01:06:29Z</time>
					</trkpt>
					<trkpt lat="49.061280" lon="2.338640">
						<ele>110</ele>
						<time>2024-11-04T01:06:34Z</time>
					</trkpt>
					<trkpt lat="49.061230" lon="2.338460">
						<ele>110</ele>
						<time>2024-11-04T01:06:37Z</time>
					</trkpt>
					<trkpt lat="49.061140" lon="2.338260">
						<ele>110</ele>
						<time>2024-11-04T01:06:39Z</time>
					</trkpt>
					<trkpt lat="49.060970" lon="2.338110">
						<ele>110</ele>
						<time>2024-11-04T01:06:43Z</time>
					</trkpt>
					<trkpt lat="49.060870" lon="2.337960">
						<ele>110</ele>
						<time>2024-11-04T01:06:45Z</time>
					</trkpt>
					<trkpt lat="49.060830" lon="2.338020">
						<ele>110</ele>
						<time>2024-11-04T01:06:46Z</time>
					</trkpt>
					<trkpt lat="49.060720" lon="2.338030">
						<ele>110</ele>
						<time>2024-11-04T01:06:48Z</time>
					</trkpt>
					<trkpt lat="49.060670" lon="2.338010">
						<ele>110</ele>
						<time>2024-11-04T01:06:49Z</time>
					</trkpt>
					<trkpt lat="49.060660" lon="2.337710">
						<ele>110</ele>
						<time>2024-11-04T01:06:53Z</time>
					</trkpt>
					<trkpt lat="49.060520" lon="2.336670">
						<ele>110</ele>
						<time>2024-11-04T01:07:05Z</time>
					</trkpt>
					<trkpt lat="49.060480" lon="2.336180">
						<ele>109</ele>
						<time>2024-11-04T01:07:11Z</time>
					</trkpt>
					<trkpt lat="49.060450" lon="2.335520">
						<ele>109</ele>
						<time>2024-11-04T01:07:19Z</time>
					</trkpt>
					<trkpt lat="49.060470" lon="2.333700">
						<ele>109</ele>
						<time>2024-11-04T01:07:40Z</time>
					</trkpt>
					<trkpt lat="49.060450" lon="2.333190">
						<ele>108</ele>
						<time>2024-11-04T01:07:46Z</time>
					</trkpt>
					<trkpt lat="49.060420" lon="2.333090">
						<ele>108</ele>
						<time>2024-11-04T01:07:47Z</time>
					</trkpt>
					<trkpt lat="49.060380" lon="2.333020">
						<ele>108</ele>
						<time>2024-11-04T01:07:48Z</time>
					</trkpt>
					<trkpt lat="49.060340" lon="2.332980">
						<ele>108</ele>
						<time>2024-11-04T01:07:49Z</time>
					</trkpt>
					<trkpt lat="49.060310" lon="2.332860">
						<ele>108</ele>
						<time>2024-11-04T01:07:50Z</time>
					</trkpt>
					<trkpt lat="49.060250" lon="2.332770">
						<ele>107</ele>
						<time>2024-11-04T01:07:52Z</time>
					</trkpt>
					<trkpt lat="49.060280" lon="2.332710">
						<ele>107</ele>
						<time>2024-11-04T01:07:53Z</time>
					</trkpt>
					<trkpt lat="49.060310" lon="2.332580">
						<ele>107</ele>
						<time>2024-11-04T01:07:54Z</time>
					</trkpt>
					<trkpt lat="49.060270" lon="2.332520">
						<ele>107</ele>
						<time>2024-11-04T01:07:55Z</time>
					</trkpt>
					<trkpt lat="49.060280" lon="2.332460">
						<ele>107</ele>
						<time>2024-11-04T01:07:56Z</time>
					</trkpt>
					<trkpt lat="49.060200" lon="2.332350">
						<ele>107</ele>
						<time>2024-11-04T01:07:58Z</time>
					</trkpt>
					<trkpt lat="49.060180" lon="2.332280">
						<ele>106</ele>
						<time>2024-11-04T01:07:59Z</time>
					</trkpt>
					<trkpt lat="49.060180" lon="2.332090">
						<ele>106</ele>
						<time>2024-11-04T01:08:01Z</time>
					</trkpt>
					<trkpt lat="49.060210" lon="2.332000">
						<ele>106</ele>
						<time>2024-11-04T01:08:02Z</time>
					</trkpt>
					<trkpt lat="49.060260" lon="2.331930">
						<ele>106</ele>
						<time>2024-11-04T01:08:04Z</time>
					</trkpt>
					<trkpt lat="49.060470" lon="2.331750">
						<ele>107</ele>
						<time>2024-11-04T01:08:08Z</time>
					</trkpt>
					<trkpt lat="49.060520" lon="2.331610">
						<ele>107</ele>
						<time>2024-11-04T01:08:10Z</time>
					</trkpt>
					<trkpt lat="49.060540" lon="2.331420">
						<ele>107</ele>
						<time>2024-11-04T01:08:12Z</time>
					</trkpt>
					<trkpt lat="49.060550" lon="2.331020">
						<ele>106</ele>
						<time>2024-11-04T01:08:17Z</time>
					</trkpt>
					<trkpt lat="49.060560" lon="2.330410">
						<ele>105</ele>
						<time>2024-11-04T01:08:24Z</time>
					</trkpt>
					<trkpt lat="49.060650" lon="2.329790">
						<ele>104</ele>
						<time>2024-11-04T01:08:31Z</time>
					</trkpt>
					<trkpt lat="49.060920" lon="2.328490">
						<ele>101</ele>
						<time>2024-11-04T01:08:47Z</time>
					</trkpt>
					<trkpt lat="49.061120" lon="2.327630">
						<ele>99</ele>
						<time>2024-11-04T01:08:58Z</time>
					</trkpt>
					<trkpt lat="49.061210" lon="2.327050">
						<ele>98</ele>
						<time>2024-11-04T01:09:05Z</time>
					</trkpt>
					<trkpt lat="49.061270" lon="2.326120">
						<ele>96</ele>
						<time>2024-11-04T01:09:16Z</time>
					</trkpt>
					<trkpt lat="49.061290" lon="2.325930">
						<ele>95</ele>
						<time>2024-11-04T01:09:18Z</time>
					</trkpt>
					<trkpt lat="49.061590" lon="2.323980">
						<ele>97</ele>
						<time>2024-11-04T01:09:41Z</time>
					</trkpt>
					<trkpt lat="49.061620" lon="2.322600">
						<ele>103</ele>
						<time>2024-11-04T01:09:57Z</time>
					</trkpt>
					<trkpt lat="49.061750" lon="2.320560">
						<ele>105</ele>
						<time>2024-11-04T01:10:21Z</time>
					</trkpt>
					<trkpt lat="49.061760" lon="2.319160">
						<ele>107</ele>
						<time>2024-11-04T01:10:37Z</time>
					</trkpt>
					<trkpt lat="49.061650" lon="2.316390">
						<ele>108</ele>
						<time>2024-11-04T01:11:10Z</time>
					</trkpt>
					<trkpt lat="49.061590" lon="2.315320">
						<ele>109</ele>
						<time>2024-11-04T01:11:22Z</time>
					</trkpt>
					<trkpt lat="49.061480" lon="2.314270">
						<ele>110</ele>
						<time>2024-11-04T01:11:35Z</time>
					</trkpt>
					<trkpt lat="49.061320" lon="2.313180">
						<ele>111</ele>
						<time>2024-11-04T01:11:48Z</time>
					</trkpt>
					<trkpt lat="49.061130" lon="2.312090">
						<ele>110</ele>
						<time>2024-11-04T01:12:01Z</time>
					</trkpt>
					<trkpt lat="49.060940" lon="2.311230">
						<ele>108</ele>
						<time>2024-11-04T01:12:11Z</time>
					</trkpt>
					<trkpt lat="49.060860" lon="2.310980">
						<ele>108</ele>
						<time>2024-11-04T01:12:15Z</time>
					</trkpt>
					<trkpt lat="49.060580" lon="2.310200">
						<ele>105</ele>
						<time>2024-11-04T01:12:25Z</time>
					</trkpt>
					<trkpt lat="49.060390" lon="2.309700">
						<ele>104</ele>
						<time>2024-11-04T01:12:32Z</time>
					</trkpt>
					<trkpt lat="49.060270" lon="2.309020">
						<ele>104</ele>
						<time>2024-11-04T01:12:40Z</time>
					</trkpt>
					<trkpt lat="49.060070" lon="2.308190">
						<ele>103</ele>
						<time>2024-11-04T01:12:50Z</time>
					</trkpt>
					<trkpt lat="49.058890" lon="2.303870">
						<ele>99</ele>
						<time>2024-11-04T01:13:45Z</time>
					</trkpt>
					<trkpt lat="49.058610" lon="2.302900">
						<ele>99</ele>
						<time>2024-11-04T01:13:57Z</time>
					</trkpt>
					<trkpt lat="49.058580" lon="2.302780">
						<ele>99</ele>
						<time>2024-11-04T01:13:59Z</time>
					</trkpt>
					<trkpt lat="49.058260" lon="2.301760">
						<ele>99</ele>
						<time>2024-11-04T01:14:12Z</time>
					</trkpt>
					<trkpt lat="49.058110" lon="2.301090">
						<ele>100</ele>
						<time>2024-11-04T01:14:20Z</time>
					</trkpt>
					<trkpt lat="49.057650" lon="2.299420">
						<ele>101</ele>
						<time>2024-11-04T01:14:41Z</time>
					</trkpt>
					<trkpt lat="49.057530" lon="2.298930">
						<ele>100</ele>
						<time>2024-11-04T01:14:47Z</time>
					</trkpt>
					<trkpt lat="49.057190" lon="2.297170">
						<ele>103</ele>
						<time>2024-11-04T01:15:09Z</time>
					</trkpt>
					<trkpt lat="49.057150" lon="2.297070">
						<ele>103</ele>
						<time>2024-11-04T01:15:10Z</time>
					</trkpt>
					<trkpt lat="49.057180" lon="2.296990">
						<ele>103</ele>
						<time>2024-11-04T01:15:11Z</time>
					</trkpt>
					<trkpt lat="49.057190" lon="2.296810">
						<ele>104</ele>
						<time>2024-11-04T01:15:13Z</time>
					</trkpt>
					<trkpt lat="49.057110" lon="2.296090">
						<ele>105</ele>
						<time>2024-11-04T01:15:22Z</time>
					</trkpt>
					<trkpt lat="49.056870" lon="2.294430">
						<ele>108</ele>
						<time>2024-11-04T01:15:42Z</time>
					</trkpt>
					<trkpt lat="49.056810" lon="2.294040">
						<ele>108</ele>
						<time>2024-11-04T01:15:46Z</time>
					</trkpt>
					<trkpt lat="49.056620" lon="2.293190">
						<ele>107</ele>
						<time>2024-11-04T01:15:57Z</time>
					</trkpt>
					<trkpt lat="49.056460" lon="2.292520">
						<ele>106</ele>
						<time>2024-11-04T01:16:05Z</time>
					</trkpt>
					<trkpt lat="49.056210" lon="2.291250">
						<ele>109</ele>
						<time>2024-11-04T01:16:21Z</time>
					</trkpt>
					<trkpt lat="49.056100" lon="2.290830">
						<ele>109</ele>
						<time>2024-11-04T01:16:26Z</time>
					</trkpt>
					<trkpt lat="49.055970" lon="2.290540">
						<ele>109</ele>
						<time>2024-11-04T01:16:30Z</time>
					</trkpt>
					<trkpt lat="49.055650" lon="2.290060">
						<ele>108</ele>
						<time>2024-11-04T01:16:38Z</time>
					</trkpt>
					<trkpt lat="49.055590" lon="2.289920">
						<ele>108</ele>
						<time>2024-11-04T01:16:40Z</time>
					</trkpt>
					<trkpt lat="49.055580" lon="2.289740">
						<ele>109</ele>
						<time>2024-11-04T01:16:42Z</time>
					</trkpt>
					<trkpt lat="49.055610" lon="2.289580">
						<ele>109</ele>
						<time>2024-11-04T01:16:44Z</time>
					</trkpt>
					<trkpt lat="49.055650" lon="2.289480">
						<ele>109</ele>
						<time>2024-11-04T01:16:45Z</time>
					</trkpt>
					<trkpt lat="49.055700" lon="2.289410">
						<ele>109</ele>
						<time>2024-11-04T01:16:47Z</time>
					</trkpt>
					<trkpt lat="49.055770" lon="2.289360">
						<ele>109</ele>
						<time>2024-11-04T01:16:48Z</time>
					</trkpt>
					<trkpt lat="49.055840" lon="2.289350">
						<ele>109</ele>
						<time>2024-11-04T01:16:49Z</time>
					</trkpt>
					<trkpt lat="49.055940" lon="2.289260">
						<ele>109</ele>
						<time>2024-11-04T01:16:51Z</time>
					</trkpt>
					<trkpt lat="49.055980" lon="2.289170">
						<ele>109</ele>
						<time>2024-11-04T01:16:53Z</time>
					</trkpt>
					<trkpt lat="49.056000" lon="2.289070">
						<ele>109</ele>
						<time>2024-11-04T01:16:54Z</time>
					</trkpt>
					<trkpt lat="49.056010" lon="2.288970">
						<ele>109</ele>
						<time>2024-11-04T01:16:55Z</time>
					</trkpt>
					<trkpt lat="49.055990" lon="2.288870">
						<ele>109</ele>
						<time>2024-11-04T01:16:56Z</time>
					</trkpt>
					<trkpt lat="49.055950" lon="2.288770">
						<ele>109</ele>
						<time>2024-11-04T01:16:58Z</time>
					</trkpt>
					<trkpt lat="49.055900" lon="2.288690">
						<ele>109</ele>
						<time>2024-11-04T01:16:59Z</time>
					</trkpt>
					<trkpt lat="49.055860" lon="2.288670">
						<ele>109</ele>
						<time>2024-11-04T01:17:00Z</time>
					</trkpt>
					<trkpt lat="49.055770" lon="2.288530">
						<ele>109</ele>
						<time>2024-11-04T01:17:02Z</time>
					</trkpt>
					<trkpt lat="49.055730" lon="2.288350">
						<ele>109</ele>
						<time>2024-11-04T01:17:04Z</time>
					</trkpt>
					<trkpt lat="49.055720" lon="2.288090">
						<ele>110</ele>
						<time>2024-11-04T01:17:07Z</time>
					</trkpt>
					<trkpt lat="49.055770" lon="2.287880">
						<ele>110</ele>
						<time>2024-11-04T01:17:10Z</time>
					</trkpt>
					<trkpt lat="49.055860" lon="2.287720">
						<ele>110</ele>
						<time>2024-11-04T01:17:12Z</time>
					</trkpt>
					<trkpt lat="49.056260" lon="2.287340">
						<ele>111</ele>
						<time>2024-11-04T01:17:21Z</time>
					</trkpt>
					<trkpt lat="49.056560" lon="2.286950">
						<ele>112</ele>
						<time>2024-11-04T01:17:28Z</time>
					</trkpt>
					<trkpt lat="49.056790" lon="2.286540">
						<ele>112</ele>
						<time>2024-11-04T01:17:34Z</time>
					</trkpt>
					<trkpt lat="49.057430" lon="2.285360">
						<ele>113</ele>
						<time>2024-11-04T01:17:52Z</time>
					</trkpt>
					<trkpt lat="49.057530" lon="2.285190">
						<ele>113</ele>
						<time>2024-11-04T01:17:54Z</time>
					</trkpt>
					<trkpt lat="49.057570" lon="2.285090">
						<ele>113</ele>
						<time>2024-11-04T01:17:56Z</time>
					</trkpt>
					<trkpt lat="49.057670" lon="2.284750">
						<ele>112</ele>
						<time>2024-11-04T01:18:00Z</time>
					</trkpt>
					<trkpt lat="49.057820" lon="2.283910">
						<ele>112</ele>
						<time>2024-11-04T01:18:10Z</time>
					</trkpt>
					<trkpt lat="49.057900" lon="2.283300">
						<ele>113</ele>
						<time>2024-11-04T01:18:17Z</time>
					</trkpt>
					<trkpt lat="49.057960" lon="2.282580">
						<ele>114</ele>
						<time>2024-11-04T01:18:26Z</time>
					</trkpt>
					<trkpt lat="49.058000" lon="2.280640">
						<ele>110</ele>
						<time>2024-11-04T01:18:49Z</time>
					</trkpt>
					<trkpt lat="49.058010" lon="2.279670">
						<ele>108</ele>
						<time>2024-11-04T01:19:00Z</time>
					</trkpt>
					<trkpt lat="49.058010" lon="2.279410">
						<ele>107</ele>
						<time>2024-11-04T01:19:03Z</time>
					</trkpt>
					<trkpt lat="49.058020" lon="2.278800">
						<ele>107</ele>
						<time>2024-11-04T01:19:10Z</time>
					</trkpt>
					<trkpt lat="49.058080" lon="2.278300">
						<ele>106</ele>
						<time>2024-11-04T01:19:16Z</time>
					</trkpt>
					<trkpt lat="49.058130" lon="2.278000">
						<ele>107</ele>
						<time>2024-11-04T01:19:20Z</time>
					</trkpt>
					<trkpt lat="49.058770" lon="2.274870">
						<ele>113</ele>
						<time>2024-11-04T01:19:58Z</time>
					</trkpt>
					<trkpt lat="49.059360" lon="2.271880">
						<ele>119</ele>
						<time>2024-11-04T01:20:34Z</time>
					</trkpt>
					<trkpt lat="49.059400" lon="2.271740">
						<ele>120</ele>
						<time>2024-11-04T01:20:36Z</time>
					</trkpt>
					<trkpt lat="49.059420" lon="2.271570">
						<ele>120</ele>
						<time>2024-11-04T01:20:38Z</time>
					</trkpt>
					<trkpt lat="49.059580" lon="2.270100">
						<ele>119</ele>
						<time>2024-11-04T01:20:55Z</time>
					</trkpt>
					<trkpt lat="49.059670" lon="2.269160">
						<ele>115</ele>
						<time>2024-11-04T01:21:06Z</time>
					</trkpt>
					<trkpt lat="49.059590" lon="2.269170">
						<ele>115</ele>
						<time>2024-11-04T01:21:08Z</time>
					</trkpt>
					<trkpt lat="49.059340" lon="2.269230">
						<ele>116</ele>
						<time>2024-11-04T01:21:12Z</time>
					</trkpt>
					<trkpt lat="49.056840" lon="2.269770">
						<ele>132</ele>
						<time>2024-11-04T01:21:57Z</time>
					</trkpt>
					<trkpt lat="49.056710" lon="2.269790">
						<ele>133</ele>
						<time>2024-11-04T01:22:00Z</time>
					</trkpt>
					<trkpt lat="49.056580" lon="2.269790">
						<ele>134</ele>
						<time>2024-11-04T01:22:02Z</time>
					</trkpt>
					<trkpt lat="49.056260" lon="2.269640">
						<ele>136</ele>
						<time>2024-11-04T01:22:08Z</time>
					</trkpt>
					<trkpt lat="49.056020" lon="2.269560">
						<ele>138</ele>
						<time>2024-11-04T01:22:12Z</time>
					</trkpt>
					<trkpt lat="49.055590" lon="2.269460">
						<ele>141</ele>
						<time>2024-11-04T01:22:20Z</time>
					</trkpt>
					<trkpt lat="49.055240" lon="2.269460">
						<ele>144</ele>
						<time>2024-11-04T01:22:26Z</time>
					</trkpt>
					<trkpt lat="49.054740" lon="2.269450">
						<ele>146</ele>
						<time>2024-11-04T01:22:35Z</time>
					</trkpt>
					<trkpt lat="49.054340" lon="2.269380">
						<ele>146</ele>
						<time>2024-11-04T01:22:42Z</time>
					</trkpt>
					<trkpt lat="49.054200" lon="2.269300">
						<ele>146</ele>
						<time>2024-11-04T01:22:45Z</time>
					</trkpt>
					<trkpt lat="49.054100" lon="2.269340">
						<ele>146</ele>
						<time>2024-11-04T01:22:47Z</time>
					</trkpt>
					<trkpt lat="49.053550" lon="2.269300">
						<ele>145</ele>
						<time>2024-11-04T01:22:57Z</time>
					</trkpt>
					<trkpt lat="49.053360" lon="2.269260">
						<ele>144</ele>
						<time>2024-11-04T01:23:00Z</time>
					</trkpt>
					<trkpt lat="49.052900" lon="2.269110">
						<ele>143</ele>
						<time>2024-11-04T01:23:08Z</time>
					</trkpt>
					<trkpt lat="49.052810" lon="2.269110">
						<ele>143</ele>
						<time>2024-11-04T01:23:10Z</time>
					</trkpt>
					<trkpt lat="49.052780" lon="2.269060">
						<ele>143</ele>
						<time>2024-11-04T01:23:11Z</time>
					</trkpt>
					<trkpt lat="49.052410" lon="2.268690">
						<ele>143</ele>
						<time>2024-11-04T01:23:19Z</time>
					</trkpt>
					<trkpt lat="49.050270" lon="2.266090">
						<ele>160</ele>
						<time>2024-11-04T01:24:07Z</time>
					</trkpt>
					<trkpt lat="49.049790" lon="2.265280">
						<ele>166</ele>
						<time>2024-11-04T01:24:20Z</time>
					</trkpt>
					<trkpt lat="49.049770" lon="2.265260">
						<ele>167</ele>
						<time>2024-11-04T01:24:20Z</time>
					</trkpt>
					<trkpt lat="49.049040" lon="2.264050">
						<ele>177</ele>
						<time>2024-11-04T01:24:40Z</time>
					</trkpt>
					<trkpt lat="49.048900" lon="2.263890">
						<ele>179</ele>
						<time>2024-11-04T01:24:43Z</time>
					</trkpt>
					<trkpt lat="49.048720" lon="2.263740">
						<ele>182</ele>
						<time>2024-11-04T01:24:46Z</time>
					</trkpt>
					<trkpt lat="49.048600" lon="2.263710">
						<ele>183</ele>
						<time>2024-11-04T01:24:49Z</time>
					</trkpt>
					<trkpt lat="49.048420" lon="2.263720">
						<ele>184</ele>
						<time>2024-11-04T01:24:52Z</time>
					</trkpt>
					<trkpt lat="49.048230" lon="2.263750">
						<ele>185</ele>
						<time>2024-11-04T01:24:55Z</time>
					</trkpt>
					<trkpt lat="49.047880" lon="2.263970">
						<ele>187</ele>
						<time>2024-11-04T01:25:02Z</time>
					</trkpt>
					<trkpt lat="49.047710" lon="2.264030">
						<ele>188</ele>
						<time>2024-11-04T01:25:05Z</time>
					</trkpt>
					<trkpt lat="49.047530" lon="2.264010">
						<ele>189</ele>
						<time>2024-11-04T01:25:08Z</time>
					</trkpt>
					<trkpt lat="49.047220" lon="2.263920">
						<ele>192</ele>
						<time>2024-11-04T01:25:14Z</time>
					</trkpt>
					<trkpt lat="49.046800" lon="2.263760">
						<ele>194</ele>
						<time>2024-11-04T01:25:22Z</time>
					</trkpt>
					<trkpt lat="49.046250" lon="2.263610">
						<ele>196</ele>
						<time>2024-11-04T01:25:31Z</time>
					</trkpt>
					<trkpt lat="49.045140" lon="2.263240">
						<ele>196</ele>
						<time>2024-11-04T01:25:52Z</time>
					</trkpt>
					<trkpt lat="49.044490" lon="2.263040">
						<ele>195</ele>
						<time>2024-11-04T01:26:04Z</time>
					</trkpt>
					<trkpt lat="49.042690" lon="2.262470">
						<ele>192</ele>
						<time>2024-11-04T01:26:36Z</time>
					</trkpt>
					<trkpt lat="49.042340" lon="2.262480">
						<ele>190</ele>
						<time>2024-11-04T01:26:42Z</time>
					</trkpt>
					<trkpt lat="49.042110" lon="2.262540">
						<ele>189</ele>
						<time>2024-11-04T01:26:47Z</time>
					</trkpt>
					<trkpt lat="49.041690" lon="2.262510">
						<ele>187</ele>
						<time>2024-11-04T01:26:54Z</time>
					</trkpt>
					<trkpt lat="49.041090" lon="2.262340">
						<ele>180</ele>
						<time>2024-11-04T01:27:05Z</time>
					</trkpt>
					<trkpt lat="49.040970" lon="2.262320">
						<ele>179</ele>
						<time>2024-11-04T01:27:07Z</time>
					</trkpt>
					<trkpt lat="49.040740" lon="2.262320">
						<ele>177</ele>
						<time>2024-11-04T01:27:11Z</time>
					</trkpt>
					<trkpt lat="49.040600" lon="2.262360">
						<ele>176</ele>
						<time>2024-11-04T01:27:14Z</time>
					</trkpt>
					<trkpt lat="49.040300" lon="2.262540">
						<ele>174</ele>
						<time>2024-11-04T01:27:19Z</time>
					</trkpt>
					<trkpt lat="49.039900" lon="2.262900">
						<ele>169</ele>
						<time>2024-11-04T01:27:28Z</time>
					</trkpt>
					<trkpt lat="49.039700" lon="2.263080">
						<ele>167</ele>
						<time>2024-11-04T01:27:32Z</time>
					</trkpt>
					<trkpt lat="49.039460" lon="2.263290">
						<ele>165</ele>
						<time>2024-11-04T01:27:37Z</time>
					</trkpt>
					<trkpt lat="49.039330" lon="2.263380">
						<ele>164</ele>
						<time>2024-11-04T01:27:39Z</time>
					</trkpt>
					<trkpt lat="49.039190" lon="2.263450">
						<ele>163</ele>
						<time>2024-11-04T01:27:42Z</time>
					</trkpt>
					<trkpt lat="49.039060" lon="2.263480">
						<ele>162</ele>
						<time>2024-11-04T01:27:44Z</time>
					</trkpt>
					<trkpt lat="49.038820" lon="2.263440">
						<ele>162</ele>
						<time>2024-11-04T01:27:49Z</time>
					</trkpt>
					<trkpt lat="49.038670" lon="2.263360">
						<ele>162</ele>
						<time>2024-11-04T01:27:51Z</time>
					</trkpt>
					<trkpt lat="49.038630" lon="2.263340">
						<ele>161</ele>
						<time>2024-11-04T01:27:52Z</time>
					</trkpt>
					<trkpt lat="49.038380" lon="2.263060">
						<ele>162</ele>
						<time>2024-11-04T01:27:58Z</time>
					</trkpt>
					<trkpt lat="49.038090" lon="2.262680">
						<ele>164</ele>
						<time>2024-11-04T01:28:04Z</time>
					</trkpt>
					<trkpt lat="49.037860" lon="2.262380">
						<ele>167</ele>
						<time>2024-11-04T01:28:10Z</time>
					</trkpt>
					<trkpt lat="49.037660" lon="2.262030">
						<ele>169</ele>
						<time>2024-11-04T01:28:15Z</time>
					</trkpt>
					<trkpt lat="49.037330" lon="2.261190">
						<ele>172</ele>
						<time>2024-11-04T01:28:27Z</time>
					</trkpt>
					<trkpt lat="49.036520" lon="2.259060">
						<ele>185</ele>
						<time>2024-11-04T01:28:55Z</time>
					</trkpt>
					<trkpt lat="49.036330" lon="2.258560">
						<ele>186</ele>
						<time>2024-11-04T01:29:02Z</time>
					</trkpt>
					<trkpt lat="49.036020" lon="2.257380">
						<ele>189</ele>
						<time>2024-11-04T01:29:17Z</time>
					</trkpt>
					<trkpt lat="49.035920" lon="2.257070">
						<ele>191</ele>
						<time>2024-11-04T01:29:21Z</time>
					</trkpt>
					<trkpt lat="49.035850" lon="2.256930">
						<ele>192</ele>
						<time>2024-11-04T01:29:23Z</time>
					</trkpt>
					<trkpt lat="49.035450" lon="2.256480">
						<ele>193</ele>
						<time>2024-11-04T01:29:32Z</time>
					</trkpt>
					<trkpt lat="49.033260" lon="2.254220">
						<ele>188</ele>
						<time>2024-11-04T01:30:19Z</time>
					</trkpt>
					<trkpt lat="49.031230" lon="2.252120">
						<ele>183</ele>
						<time>2024-11-04T01:31:03Z</time>
					</trkpt>
					<trkpt lat="49.030970" lon="2.252530">
						<ele>183</ele>
						<time>2024-11-04T01:31:09Z</time>
					</trkpt>
					<trkpt lat="49.030800" lon="2.252820">
						<ele>183</ele>
						<time>2024-11-04T01:31:14Z</time>
					</trkpt>
					<trkpt lat="49.030700" lon="2.252990">
						<ele>184</ele>
						<time>2024-11-04T01:31:16Z</time>
					</trkpt>
					<trkpt lat="49.030460" lon="2.253360">
						<ele>184</ele>
						<time>2024-11-04T01:31:23Z</time>
					</trkpt>
					<trkpt lat="49.030080" lon="2.254110">
						<ele>183</ele>
						<time>2024-11-04T01:31:34Z</time>
					</trkpt>
					<trkpt lat="49.029400" lon="2.255290">
						<ele>178</ele>
						<time>2024-11-04T01:31:52Z</time>
					</trkpt>
					<trkpt lat="49.028440" lon="2.256960">
						<ele>172</ele>
						<time>2024-11-04T01:32:18Z</time>
					</trkpt>
					<trkpt lat="49.027670" lon="2.258240">
						<ele>165</ele>
						<time>2024-11-04T01:32:38Z</time>
					</trkpt>
					<trkpt lat="49.027160" lon="2.259090">
						<ele>163</ele>
						<time>2024-11-04T01:32:52Z</time>
					</trkpt>
					<trkpt lat="49.027020" lon="2.259380">
						<ele>161</ele>
						<time>2024-11-04T01:32:56Z</time>
					</trkpt>
					<trkpt lat="49.026930" lon="2.259670">
						<ele>160</ele>
						<time>2024-11-04T01:32:59Z</time>
					</trkpt>
					<trkpt lat="49.026350" lon="2.261900">
						<ele>158</ele>
						<time>2024-11-04T01:33:27Z</time>
					</trkpt>
					<trkpt lat="49.026340" lon="2.261960">
						<ele>158</ele>
						<time>2024-11-04T01:33:28Z</time>
					</trkpt>
					<trkpt lat="49.026230" lon="2.262370">
						<ele>157</ele>
						<time>2024-11-04T01:33:33Z</time>
					</trkpt>
					<trkpt lat="49.026200" lon="2.262510">
						<ele>157</ele>
						<time>2024-11-04T01:33:35Z</time>
					</trkpt>
					<trkpt lat="49.026190" lon="2.262550">
						<ele>157</ele>
						<time>2024-11-04T01:33:36Z</time>
					</trkpt>
					<trkpt lat="49.026190" lon="2.262550">
						<ele>157</ele>
						<time>2024-11-04T01:33:36Z</time>
					</trkpt>
					<trkpt lat="49.026180" lon="2.262630">
						<ele>157</ele>
						<time>2024-11-04T01:33:37Z</time>
					</trkpt>
					<trkpt lat="49.025040" lon="2.267980">
						<ele>142</ele>
						<time>2024-11-04T01:34:42Z</time>
					</trkpt>
					<trkpt lat="49.024740" lon="2.269400">
						<ele>139</ele>
						<time>2024-11-04T01:35:00Z</time>
					</trkpt>
					<trkpt lat="49.024590" lon="2.269850">
						<ele>137</ele>
						<time>2024-11-04T01:35:05Z</time>
					</trkpt>
					<trkpt lat="49.024400" lon="2.270280">
						<ele>136</ele>
						<time>2024-11-04T01:35:12Z</time>
					</trkpt>
					<trkpt lat="49.024380" lon="2.270320">
						<ele>135</ele>
						<time>2024-11-04T01:35:12Z</time>
					</trkpt>
					<trkpt lat="49.024380" lon="2.270320">
						<ele>135</ele>
						<time>2024-11-04T01:35:12Z</time>
					</trkpt>
					<trkpt lat="49.024360" lon="2.270360">
						<ele>135</ele>
						<time>2024-11-04T01:35:13Z</time>
					</trkpt>
					<trkpt lat="49.024320" lon="2.270450">
						<ele>135</ele>
						<time>2024-11-04T01:35:14Z</time>
					</trkpt>
					<trkpt lat="49.024130" lon="2.270750">
						<ele>133</ele>
						<time>2024-11-04T01:35:19Z</time>
					</trkpt>
					<trkpt lat="49.022720" lon="2.272060">
						<ele>132</ele>
						<time>2024-11-04T01:35:48Z</time>
					</trkpt>
					<trkpt lat="49.022630" lon="2.272160">
						<ele>132</ele>
						<time>2024-11-04T01:35:50Z</time>
					</trkpt>
					<trkpt lat="49.022550" lon="2.272230">
						<ele>133</ele>
						<time>2024-11-04T01:35:52Z</time>
					</trkpt>
					<trkpt lat="49.021540" lon="2.273640">
						<ele>136</ele>
						<time>2024-11-04T01:36:16Z</time>
					</trkpt>
					<trkpt lat="49.021280" lon="2.274000">
						<ele>136</ele>
						<time>2024-11-04T01:36:22Z</time>
					</trkpt>
					<trkpt lat="49.020780" lon="2.275140">
						<ele>134</ele>
						<time>2024-11-04T01:36:38Z</time>
					</trkpt>
					<trkpt lat="49.020210" lon="2.276460">
						<ele>126</ele>
						<time>2024-11-04T01:36:57Z</time>
					</trkpt>
					<trkpt lat="49.020020" lon="2.276970">
						<ele>123</ele>
						<time>2024-11-04T01:37:04Z</time>
					</trkpt>
					<trkpt lat="49.019940" lon="2.277160">
						<ele>121</ele>
						<time>2024-11-04T01:37:06Z</time>
					</trkpt>
					<trkpt lat="49.019560" lon="2.277840">
						<ele>119</ele>
						<time>2024-11-04T01:37:17Z</time>
					</trkpt>
					<trkpt lat="49.018780" lon="2.279100">
						<ele>119</ele>
						<time>2024-11-04T01:37:37Z</time>
					</trkpt>
					<trkpt lat="49.018160" lon="2.279860">
						<ele>120</ele>
						<time>2024-11-04T01:37:51Z</time>
					</trkpt>
					<trkpt lat="49.017720" lon="2.280330">
						<ele>120</ele>
						<time>2024-11-04T01:38:01Z</time>
					</trkpt>
					<trkpt lat="49.017220" lon="2.280760">
						<ele>120</ele>
						<time>2024-11-04T01:38:11Z</time>
					</trkpt>
					<trkpt lat="49.016940" lon="2.281040">
						<ele>119</ele>
						<time>2024-11-04T01:38:17Z</time>
					</trkpt>
					<trkpt lat="49.016890" lon="2.281110">
						<ele>119</ele>
						<time>2024-11-04T01:38:18Z</time>
					</trkpt>
					<trkpt lat="49.015850" lon="2.281090">
						<ele>117</ele>
						<time>2024-11-04T01:38:37Z</time>
					</trkpt>
					<trkpt lat="49.015510" lon="2.281130">
						<ele>113</ele>
						<time>2024-11-04T01:38:43Z</time>
					</trkpt>
					<trkpt lat="49.015280" lon="2.281200">
						<ele>110</ele>
						<time>2024-11-04T01:38:47Z</time>
					</trkpt>
					<trkpt lat="49.014680" lon="2.281510">
						<ele>104</ele>
						<time>2024-11-04T01:38:58Z</time>
					</trkpt>
					<trkpt lat="49.014510" lon="2.281580">
						<ele>104</ele>
						<time>2024-11-04T01:39:01Z</time>
					</trkpt>
					<trkpt lat="49.014200" lon="2.281660">
						<ele>102</ele>
						<time>2024-11-04T01:39:07Z</time>
					</trkpt>
					<trkpt lat="49.012820" lon="2.281590">
						<ele>97</ele>
						<time>2024-11-04T01:39:31Z</time>
					</trkpt>
					<trkpt lat="49.012740" lon="2.281590">
						<ele>97</ele>
						<time>2024-11-04T01:39:33Z</time>
					</trkpt>
					<trkpt lat="49.012600" lon="2.281580">
						<ele>96</ele>
						<time>2024-11-04T01:39:35Z</time>
					</trkpt>
					<trkpt lat="49.012250" lon="2.281580">
						<ele>93</ele>
						<time>2024-11-04T01:39:42Z</time>
					</trkpt>
					<trkpt lat="49.011980" lon="2.281570">
						<ele>90</ele>
						<time>2024-11-04T01:39:46Z</time>
					</trkpt>
					<trkpt lat="49.011850" lon="2.281520">
						<ele>89</ele>
						<time>2024-11-04T01:39:49Z</time>
					</trkpt>
					<trkpt lat="49.011510" lon="2.281310">
						<ele>88</ele>
						<time>2024-11-04T01:39:55Z</time>
					</trkpt>
					<trkpt lat="49.010490" lon="2.280630">
						<ele>87</ele>
						<time>2024-11-04T01:40:15Z</time>
					</trkpt>
					<trkpt lat="49.009940" lon="2.280300">
						<ele>85</ele>
						<time>2024-11-04T01:40:26Z</time>
					</trkpt>
					<trkpt lat="49.009710" lon="2.280220">
						<ele>85</ele>
						<time>2024-11-04T01:40:30Z</time>
					</trkpt>
					<trkpt lat="49.009580" lon="2.280220">
						<ele>84</ele>
						<time>2024-11-04T01:40:32Z</time>
					</trkpt>
					<trkpt lat="49.009500" lon="2.280240">
						<ele>84</ele>
						<time>2024-11-04T01:40:34Z</time>
					</trkpt>
					<trkpt lat="49.009070" lon="2.280410">
						<ele>83</ele>
						<time>2024-11-04T01:40:41Z</time>
					</trkpt>
					<trkpt lat="49.008810" lon="2.280540">
						<ele>83</ele>
						<time>2024-11-04T01:40:46Z</time>
					</trkpt>
					<trkpt lat="49.008680" lon="2.280610">
						<ele>83</ele>
						<time>2024-11-04T01:40:49Z</time>
					</trkpt>
					<trkpt lat="49.008100" lon="2.281010">
						<ele>81</ele>
						<time>2024-11-04T01:41:00Z</time>
					</trkpt>
					<trkpt lat="49.007860" lon="2.281120">
						<ele>80</ele>
						<time>2024-11-04T01:41:05Z</time>
					</trkpt>
					<trkpt lat="49.007510" lon="2.281200">
						<ele>78</ele>
						<time>2024-11-04T01:41:11Z</time>
					</trkpt>
					<trkpt lat="49.007320" lon="2.281230">
						<ele>77</ele>
						<time>2024-11-04T01:41:14Z</time>
					</trkpt>
					<trkpt lat="49.007160" lon="2.281240">
						<ele>76</ele>
						<time>2024-11-04T01:41:17Z</time>
					</trkpt>
					<trkpt lat="49.007050" lon="2.281280">
						<ele>76</ele>
						<time>2024-11-04T01:41:19Z</time>
					</trkpt>
					<trkpt lat="49.006760" lon="2.281510">
						<ele>74</ele>
						<time>2024-11-04T01:41:25Z</time>
					</trkpt>
					<trkpt lat="49.006440" lon="2.281660">
						<ele>72</ele>
						<time>2024-11-04T01:41:31Z</time>
					</trkpt>
					<trkpt lat="49.006220" lon="2.281680">
						<ele>72</ele>
						<time>2024-11-04T01:41:35Z</time>
					</trkpt>
					<trkpt lat="49.005940" lon="2.281650">
						<ele>71</ele>
						<time>2024-11-04T01:41:40Z</time>
					</trkpt>
					<trkpt lat="49.005560" lon="2.281580">
						<ele>70</ele>
						<time>2024-11-04T01:41:47Z</time>
					</trkpt>
					<trkpt lat="49.005280" lon="2.281530">
						<ele>70</ele>
						<time>2024-11-04T01:41:52Z</time>
					</trkpt>
					<trkpt lat="49.005060" lon="2.281520">
						<ele>69</ele>
						<time>2024-11-04T01:41:56Z</time>
					</trkpt>
					<trkpt lat="49.004470" lon="2.281640">
						<ele>67</ele>
						<time>2024-11-04T01:42:06Z</time>
					</trkpt>
					<trkpt lat="49.004320" lon="2.281670">
						<ele>67</ele>
						<time>2024-11-04T01:42:09Z</time>
					</trkpt>
					<trkpt lat="49.004200" lon="2.281680">
						<ele>66</ele>
						<time>2024-11-04T01:42:11Z</time>
					</trkpt>
					<trkpt lat="49.003830" lon="2.281440">
						<ele>65</ele>
						<time>2024-11-04T01:42:18Z</time>
					</trkpt>
					<trkpt lat="49.003640" lon="2.281250">
						<ele>65</ele>
						<time>2024-11-04T01:42:22Z</time>
					</trkpt>
					<trkpt lat="49.003630" lon="2.281190">
						<ele>65</ele>
						<time>2024-11-04T01:42:23Z</time>
					</trkpt>
					<trkpt lat="49.003580" lon="2.281100">
						<ele>65</ele>
						<time>2024-11-04T01:42:24Z</time>
					</trkpt>
					<trkpt lat="49.003530" lon="2.281070">
						<ele>65</ele>
						<time>2024-11-04T01:42:25Z</time>
					</trkpt>
					<trkpt lat="49.003460" lon="2.281080">
						<ele>65</ele>
						<time>2024-11-04T01:42:26Z</time>
					</trkpt>
					<trkpt lat="49.003230" lon="2.280920">
						<ele>65</ele>
						<time>2024-11-04T01:42:31Z</time>
					</trkpt>
					<trkpt lat="49.002900" lon="2.280600">
						<ele>67</ele>
						<time>2024-11-04T01:42:38Z</time>
					</trkpt>
					<trkpt lat="49.001420" lon="2.279360">
						<ele>64</ele>
						<time>2024-11-04T01:43:08Z</time>
					</trkpt>
					<trkpt lat="49.001130" lon="2.279110">
						<ele>62</ele>
						<time>2024-11-04T01:43:14Z</time>
					</trkpt>
					<trkpt lat="49.001070" lon="2.279010">
						<ele>61</ele>
						<time>2024-11-04T01:43:15Z</time>
					</trkpt>
					<trkpt lat="49.000990" lon="2.278880">
						<ele>61</ele>
						<time>2024-11-04T01:43:18Z</time>
					</trkpt>
					<trkpt lat="49.000910" lon="2.278780">
						<ele>60</ele>
						<time>2024-11-04T01:43:19Z</time>
					</trkpt>
					<trkpt lat="49.000730" lon="2.278590">
						<ele>60</ele>
						<time>2024-11-04T01:43:23Z</time>
					</trkpt>
					<trkpt lat="49.000460" lon="2.278310">
						<ele>59</ele>
						<time>2024-11-04T01:43:29Z</time>
					</trkpt>
					<trkpt lat="49.000200" lon="2.278100">
						<ele>58</ele>
						<time>2024-11-04T01:43:34Z</time>
					</trkpt>
					<trkpt lat="49.000030" lon="2.278000">
						<ele>58</ele>
						<time>2024-11-04T01:43:38Z</time>
					</trkpt>
					<trkpt lat="48.999820" lon="2.277850">
						<ele>58</ele>
						<time>2024-11-04T01:43:42Z</time>
					</trkpt>
					<trkpt lat="48.999350" lon="2.277610">
						<ele>58</ele>
						<time>2024-11-04T01:43:51Z</time>
					</trkpt>
					<trkpt lat="48.999040" lon="2.277510">
						<ele>58</ele>
						<time>2024-11-04T01:43:56Z</time>
					</trkpt>
					<trkpt lat="48.998300" lon="2.277230">
						<ele>60</ele>
						<time>2024-11-04T01:44:10Z</time>
					</trkpt>
					<trkpt lat="48.997970" lon="2.277150">
						<ele>60</ele>
						<time>2024-11-04T01:44:16Z</time>
					</trkpt>
					<trkpt lat="48.997540" lon="2.277050">
						<ele>59</ele>
						<time>2024-11-04T01:44:23Z</time>
					</trkpt>
					<trkpt lat="48.997320" lon="2.276960">
						<ele>59</ele>
						<time>2024-11-04T01:44:27Z</time>
					</trkpt>
					<trkpt lat="48.996760" lon="2.276700">
						<ele>60</ele>
						<time>2024-11-04T01:44:38Z</time>
					</trkpt>
					<trkpt lat="48.996710" lon="2.276680">
						<ele>60</ele>
						<time>2024-11-04T01:44:39Z</time>
					</trkpt>
					<trkpt lat="48.996080" lon="2.276380">
						<ele>59</ele>
						<time>2024-11-04T01:44:51Z</time>
					</trkpt>
					<trkpt lat="48.995630" lon="2.276110">
						<ele>58</ele>
						<time>2024-11-04T01:44:59Z</time>
					</trkpt>
					<trkpt lat="48.995270" lon="2.275830">
						<ele>57</ele>
						<time>2024-11-04T01:45:06Z</time>
					</trkpt>
					<trkpt lat="48.995190" lon="2.275760">
						<ele>57</ele>
						<time>2024-11-04T01:45:08Z</time>
					</trkpt>
					<trkpt lat="48.995110" lon="2.275600">
						<ele>56</ele>
						<time>2024-11-04T01:45:10Z</time>
					</trkpt>
					<trkpt lat="48.995090" lon="2.275450">
						<ele>56</ele>
						<time>2024-11-04T01:45:12Z</time>
					</trkpt>
					<trkpt lat="48.994980" lon="2.275340">
						<ele>55</ele>
						<time>2024-11-04T01:45:14Z</time>
					</trkpt>
					<trkpt lat="48.994860" lon="2.275250">
						<ele>55</ele>
						<time>2024-11-04T01:45:17Z</time>
					</trkpt>
					<trkpt lat="48.994760" lon="2.275250">
						<ele>54</ele>
						<time>2024-11-04T01:45:19Z</time>
					</trkpt>
					<trkpt lat="48.994720" lon="2.275270">
						<ele>54</ele>
						<time>2024-11-04T01:45:19Z</time>
					</trkpt>
					<trkpt lat="48.994500" lon="2.275250">
						<ele>53</ele>
						<time>2024-11-04T01:45:23Z</time>
					</trkpt>
					<trkpt lat="48.994180" lon="2.275020">
						<ele>51</ele>
						<time>2024-11-04T01:45:30Z</time>
					</trkpt>
					<trkpt lat="48.993870" lon="2.274800">
						<ele>50</ele>
						<time>2024-11-04T01:45:36Z</time>
					</trkpt>
					<trkpt lat="48.993760" lon="2.274690">
						<ele>50</ele>
						<time>2024-11-04T01:45:38Z</time>
					</trkpt>
					<trkpt lat="48.993690" lon="2.274600">
						<ele>50</ele>
						<time>2024-11-04T01:45:40Z</time>
					</trkpt>
					<trkpt lat="48.993670" lon="2.274530">
						<ele>50</ele>
						<time>2024-11-04T01:45:41Z</time>
					</trkpt>
					<trkpt lat="48.993610" lon="2.274460">
						<ele>50</ele>
						<time>2024-11-04T01:45:42Z</time>
					</trkpt>
					<trkpt lat="48.993550" lon="2.274460">
						<ele>50</ele>
						<time>2024-11-04T01:45:43Z</time>
					</trkpt>
					<trkpt lat="48.993490" lon="2.274500">
						<ele>50</ele>
						<time>2024-11-04T01:45:44Z</time>
					</trkpt>
					<trkpt lat="48.993460" lon="2.274610">
						<ele>49</ele>
						<time>2024-11-04T01:45:46Z</time>
					</trkpt>
					<trkpt lat="48.993380" lon="2.274640">
						<ele>49</ele>
						<time>2024-11-04T01:45:47Z</time>
					</trkpt>
					<trkpt lat="48.993150" lon="2.274680">
						<ele>49</ele>
						<time>2024-11-04T01:45:51Z</time>
					</trkpt>
					<trkpt lat="48.993020" lon="2.274700">
						<ele>50</ele>
						<time>2024-11-04T01:45:53Z</time>
					</trkpt>
					<trkpt lat="48.991890" lon="2.274750">
						<ele>53</ele>
						<time>2024-11-04T01:46:14Z</time>
					</trkpt>
					<trkpt lat="48.991820" lon="2.274750">
						<ele>53</ele>
						<time>2024-11-04T01:46:15Z</time>
					</trkpt>
					<trkpt lat="48.991770" lon="2.274750">
						<ele>53</ele>
						<time>2024-11-04T01:46:16Z</time>
					</trkpt>
					<trkpt lat="48.991640" lon="2.274780">
						<ele>53</ele>
						<time>2024-11-04T01:46:18Z</time>
					</trkpt>
					<trkpt lat="48.991630" lon="2.274770">
						<ele>53</ele>
						<time>2024-11-04T01:46:18Z</time>
					</trkpt>
					<trkpt lat="48.991600" lon="2.274710">
						<ele>53</ele>
						<time>2024-11-04T01:46:19Z</time>
					</trkpt>
					<trkpt lat="48.991530" lon="2.274650">
						<ele>53</ele>
						<time>2024-11-04T01:46:21Z</time>
					</trkpt>
					<trkpt lat="48.991440" lon="2.274660">
						<ele>54</ele>
						<time>2024-11-04T01:46:22Z</time>
					</trkpt>
					<trkpt lat="48.991410" lon="2.274690">
						<ele>53</ele>
						<time>2024-11-04T01:46:23Z</time>
					</trkpt>
					<trkpt lat="48.991370" lon="2.274740">
						<ele>53</ele>
						<time>2024-11-04T01:46:24Z</time>
					</trkpt>
					<trkpt lat="48.991340" lon="2.274850">
						<ele>53</ele>
						<time>2024-11-04T01:46:25Z</time>
					</trkpt>
					<trkpt lat="48.991340" lon="2.274920">
						<ele>53</ele>
						<time>2024-11-04T01:46:26Z</time>
					</trkpt>
					<trkpt lat="48.991380" lon="2.275050">
						<ele>53</ele>
						<time>2024-11-04T01:46:28Z</time>
					</trkpt>
					<trkpt lat="48.991310" lon="2.275120">
						<ele>53</ele>
						<time>2024-11-04T01:46:29Z</time>
					</trkpt>
					<trkpt lat="48.991150" lon="2.275270">
						<ele>53</ele>
						<time>2024-11-04T01:46:32Z</time>
					</trkpt>
					<trkpt lat="48.991080" lon="2.275330">
						<ele>52</ele>
						<time>2024-11-04T01:46:34Z</time>
					</trkpt>
					<trkpt lat="48.990070" lon="2.276300">
						<ele>50</ele>
						<time>2024-11-04T01:46:55Z</time>
					</trkpt>
					<trkpt lat="48.990000" lon="2.276230">
						<ele>50</ele>
						<time>2024-11-04T01:46:57Z</time>
					</trkpt>
					<trkpt lat="48.989930" lon="2.276260">
						<ele>50</ele>
						<time>2024-11-04T01:46:58Z</time>
					</trkpt>
					<trkpt lat="48.989900" lon="2.276290">
						<ele>50</ele>
						<time>2024-11-04T01:46:58Z</time>
					</trkpt>
					<trkpt lat="48.989880" lon="2.276380">
						<ele>50</ele>
						<time>2024-11-04T01:47:00Z</time>
					</trkpt>
					<trkpt lat="48.989890" lon="2.276480">
						<ele>50</ele>
						<time>2024-11-04T01:47:01Z</time>
					</trkpt>
					<trkpt lat="48.989370" lon="2.276990">
						<ele>49</ele>
						<time>2024-11-04T01:47:12Z</time>
					</trkpt>
					<trkpt lat="48.988770" lon="2.277560">
						<ele>47</ele>
						<time>2024-11-04T01:47:24Z</time>
					</trkpt>
					<trkpt lat="48.988160" lon="2.278130">
						<ele>46</ele>
						<time>2024-11-04T01:47:37Z</time>
					</trkpt>
					<trkpt lat="48.987570" lon="2.278700">
						<ele>46</ele>
						<time>2024-11-04T01:47:50Z</time>
					</trkpt>
					<trkpt lat="48.987300" lon="2.278960">
						<ele>45</ele>
						<time>2024-11-04T01:47:55Z</time>
					</trkpt>
					<trkpt lat="48.986830" lon="2.279410">
						<ele>45</ele>
						<time>2024-11-04T01:48:05Z</time>
					</trkpt>
					<trkpt lat="48.986820" lon="2.279430">
						<ele>45</ele>
						<time>2024-11-04T01:48:05Z</time>
					</trkpt>
					<trkpt lat="48.986230" lon="2.279970">
						<ele>46</ele>
						<time>2024-11-04T01:48:18Z</time>
					</trkpt>
					<trkpt lat="48.986170" lon="2.279920">
						<ele>46</ele>
						<time>2024-11-04T01:48:19Z</time>
					</trkpt>
					<trkpt lat="48.986100" lon="2.279970">
						<ele>46</ele>
						<time>2024-11-04T01:48:20Z</time>
					</trkpt>
					<trkpt lat="48.986090" lon="2.280030">
						<ele>46</ele>
						<time>2024-11-04T01:48:21Z</time>
					</trkpt>
					<trkpt lat="48.986100" lon="2.280100">
						<ele>46</ele>
						<time>2024-11-04T01:48:22Z</time>
					</trkpt>
					<trkpt lat="48.985190" lon="2.280970">
						<ele>46</ele>
						<time>2024-11-04T01:48:41Z</time>
					</trkpt>
					<trkpt lat="48.984450" lon="2.281970">
						<ele>45</ele>
						<time>2024-11-04T01:48:58Z</time>
					</trkpt>
					<trkpt lat="48.983790" lon="2.282850">
						<ele>45</ele>
						<time>2024-11-04T01:49:14Z</time>
					</trkpt>
					<trkpt lat="48.983330" lon="2.283470">
						<ele>45</ele>
						<time>2024-11-04T01:49:25Z</time>
					</trkpt>
					<trkpt lat="48.983180" lon="2.283670">
						<ele>45</ele>
						<time>2024-11-04T01:49:29Z</time>
					</trkpt>
					<trkpt lat="48.983080" lon="2.283820">
						<ele>45</ele>
						<time>2024-11-04T01:49:31Z</time>
					</trkpt>
					<trkpt lat="48.982960" lon="2.283980">
						<ele>46</ele>
						<time>2024-11-04T01:49:34Z</time>
					</trkpt>
					<trkpt lat="48.982370" lon="2.284720">
						<ele>47</ele>
						<time>2024-11-04T01:49:48Z</time>
					</trkpt>
					<trkpt lat="48.981840" lon="2.285070">
						<ele>46</ele>
						<time>2024-11-04T01:49:58Z</time>
					</trkpt>
					<trkpt lat="48.981560" lon="2.285250">
						<ele>45</ele>
						<time>2024-11-04T01:50:03Z</time>
					</trkpt>
					<trkpt lat="48.980780" lon="2.286260">
						<ele>43</ele>
						<time>2024-11-04T01:50:21Z</time>
					</trkpt>
					<trkpt lat="48.980630" lon="2.286440">
						<ele>43</ele>
						<time>2024-11-04T01:50:25Z</time>
					</trkpt>
					<trkpt lat="48.980550" lon="2.286610">
						<ele>43</ele>
						<time>2024-11-04T01:50:27Z</time>
					</trkpt>
					<trkpt lat="48.980500" lon="2.286990">
						<ele>44</ele>
						<time>2024-11-04T01:50:32Z</time>
					</trkpt>
					<trkpt lat="48.980470" lon="2.287320">
						<ele>44</ele>
						<time>2024-11-04T01:50:36Z</time>
					</trkpt>
					<trkpt lat="48.980330" lon="2.288400">
						<ele>45</ele>
						<time>2024-11-04T01:50:49Z</time>
					</trkpt>
					<trkpt lat="48.980310" lon="2.288560">
						<ele>45</ele>
						<time>2024-11-04T01:50:50Z</time>
					</trkpt>
					<trkpt lat="48.980280" lon="2.288640">
						<ele>45</ele>
						<time>2024-11-04T01:50:51Z</time>
					</trkpt>
					<trkpt lat="48.980290" lon="2.288720">
						<ele>45</ele>
						<time>2024-11-04T01:50:52Z</time>
					</trkpt>
					<trkpt lat="48.980250" lon="2.288930">
						<ele>45</ele>
						<time>2024-11-04T01:50:55Z</time>
					</trkpt>
					<trkpt lat="48.980280" lon="2.288950">
						<ele>46</ele>
						<time>2024-11-04T01:50:56Z</time>
					</trkpt>
					<trkpt lat="48.980330" lon="2.289000">
						<ele>46</ele>
						<time>2024-11-04T01:50:57Z</time>
					</trkpt>
					<trkpt lat="48.980210" lon="2.289420">
						<ele>45</ele>
						<time>2024-11-04T01:51:02Z</time>
					</trkpt>
					<trkpt lat="48.980020" lon="2.290530">
						<ele>43</ele>
						<time>2024-11-04T01:51:15Z</time>
					</trkpt>
					<trkpt lat="48.979860" lon="2.291530">
						<ele>42</ele>
						<time>2024-11-04T01:51:27Z</time>
					</trkpt>
					<trkpt lat="48.979880" lon="2.291790">
						<ele>42</ele>
						<time>2024-11-04T01:51:30Z</time>
					</trkpt>
					<trkpt lat="48.979920" lon="2.291910">
						<ele>42</ele>
						<time>2024-11-04T01:51:32Z</time>
					</trkpt>
					<trkpt lat="48.979880" lon="2.291920">
						<ele>42</ele>
						<time>2024-11-04T01:51:33Z</time>
					</trkpt>
					<trkpt lat="48.979830" lon="2.291940">
						<ele>42</ele>
						<time>2024-11-04T01:51:34Z</time>
					</trkpt>
					<trkpt lat="48.979800" lon="2.291970">
						<ele>42</ele>
						<time>2024-11-04T01:51:34Z</time>
					</trkpt>
					<trkpt lat="48.979730" lon="2.292060">
						<ele>42</ele>
						<time>2024-11-04T01:51:36Z</time>
					</trkpt>
					<trkpt lat="48.979710" lon="2.292120">
						<ele>42</ele>
						<time>2024-11-04T01:51:37Z</time>
					</trkpt>
					<trkpt lat="48.979680" lon="2.292110">
						<ele>42</ele>
						<time>2024-11-04T01:51:37Z</time>
					</trkpt>
					<trkpt lat="48.979650" lon="2.292090">
						<ele>42</ele>
						<time>2024-11-04T01:51:38Z</time>
					</trkpt>
					<trkpt lat="48.979490" lon="2.292020">
						<ele>42</ele>
						<time>2024-11-04T01:51:41Z</time>
					</trkpt>
					<trkpt lat="48.979420" lon="2.292000">
						<ele>42</ele>
						<time>2024-11-04T01:51:42Z</time>
					</trkpt>
					<trkpt lat="48.979320" lon="2.291950">
						<ele>42</ele>
						<time>2024-11-04T01:51:44Z</time>
					</trkpt>
					<trkpt lat="48.978920" lon="2.291790">
						<ele>41</ele>
						<time>2024-11-04T01:51:51Z</time>
					</trkpt>
					<trkpt lat="48.978800" lon="2.291730">
						<ele>41</ele>
						<time>2024-11-04T01:51:54Z</time>
					</trkpt>
					<trkpt lat="48.978700" lon="2.291690">
						<ele>41</ele>
						<time>2024-11-04T01:51:55Z</time>
					</trkpt>
					<trkpt lat="48.978650" lon="2.291620">
						<ele>41</ele>
						<time>2024-11-04T01:51:57Z</time>
					</trkpt>
					<trkpt lat="48.978610" lon="2.291440">
						<ele>41</ele>
						<time>2024-11-04T01:51:59Z</time>
					</trkpt>
					<trkpt lat="48.978550" lon="2.291360">
						<ele>41</ele>
						<time>2024-11-04T01:52:00Z</time>
					</trkpt>
					<trkpt lat="48.978510" lon="2.291320">
						<ele>41</ele>
						<time>2024-11-04T01:52:01Z</time>
					</trkpt>
					<trkpt lat="48.978470" lon="2.291300">
						<ele>41</ele>
						<time>2024-11-04T01:52:02Z</time>
					</trkpt>
					<trkpt lat="48.978370" lon="2.291300">
						<ele>41</ele>
						<time>2024-11-04T01:52:04Z</time>
					</trkpt>
					<trkpt lat="48.978280" lon="2.291360">
						<ele>40</ele>
						<time>2024-11-04T01:52:05Z</time>
					</trkpt>
					<trkpt lat="48.978210" lon="2.291480">
						<ele>40</ele>
						<time>2024-11-04T01:52:07Z</time>
					</trkpt>
					<trkpt lat="48.978030" lon="2.291540">
						<ele>40</ele>
						<time>2024-11-04T01:52:11Z</time>
					</trkpt>
					<trkpt lat="48.977950" lon="2.291550">
						<ele>40</ele>
						<time>2024-11-04T01:52:12Z</time>
					</trkpt>
					<trkpt lat="48.977630" lon="2.291560">
						<ele>40</ele>
						<time>2024-11-04T01:52:18Z</time>
					</trkpt>
					<trkpt lat="48.977490" lon="2.291560">
						<ele>40</ele>
						<time>2024-11-04T01:52:20Z</time>
					</trkpt>
					<trkpt lat="48.977360" lon="2.291570">
						<ele>40</ele>
						<time>2024-11-04T01:52:22Z</time>
					</trkpt>
					<trkpt lat="48.977070" lon="2.291580">
						<ele>40</ele>
						<time>2024-11-04T01:52:28Z</time>
					</trkpt>
					<trkpt lat="48.976640" lon="2.291590">
						<ele>40</ele>
						<time>2024-11-04T01:52:35Z</time>
					</trkpt>
					<trkpt lat="48.976370" lon="2.291590">
						<ele>41</ele>
						<time>2024-11-04T01:52:40Z</time>
					</trkpt>
					<trkpt lat="48.976100" lon="2.291600">
						<ele>41</ele>
						<time>2024-11-04T01:52:45Z</time>
					</trkpt>
					<trkpt lat="48.975750" lon="2.291580">
						<ele>42</ele>
						<time>2024-11-04T01:52:51Z</time>
					</trkpt>
					<trkpt lat="48.975680" lon="2.291500">
						<ele>43</ele>
						<time>2024-11-04T01:52:53Z</time>
					</trkpt>
					<trkpt lat="48.975660" lon="2.291420">
						<ele>43</ele>
						<time>2024-11-04T01:52:54Z</time>
					</trkpt>
					<trkpt lat="48.975640" lon="2.291390">
						<ele>43</ele>
						<time>2024-11-04T01:52:54Z</time>
					</trkpt>
					<trkpt lat="48.975570" lon="2.291370">
						<ele>43</ele>
						<time>2024-11-04T01:52:55Z</time>
					</trkpt>
					<trkpt lat="48.975420" lon="2.291420">
						<ele>43</ele>
						<time>2024-11-04T01:52:58Z</time>
					</trkpt>
					<trkpt lat="48.975270" lon="2.291390">
						<ele>44</ele>
						<time>2024-11-04T01:53:01Z</time>
					</trkpt>
					<trkpt lat="48.975240" lon="2.291420">
						<ele>44</ele>
						<time>2024-11-04T01:53:02Z</time>
					</trkpt>
					<trkpt lat="48.975210" lon="2.291490">
						<ele>44</ele>
						<time>2024-11-04T01:53:02Z</time>
					</trkpt>
					<trkpt lat="48.975210" lon="2.291590">
						<ele>44</ele>
						<time>2024-11-04T01:53:04Z</time>
					</trkpt>
					<trkpt lat="48.975190" lon="2.291750">
						<ele>44</ele>
						<time>2024-11-04T01:53:06Z</time>
					</trkpt>
					<trkpt lat="48.975160" lon="2.291890">
						<ele>44</ele>
						<time>2024-11-04T01:53:07Z</time>
					</trkpt>
					<trkpt lat="48.974940" lon="2.292550">
						<ele>42</ele>
						<time>2024-11-04T01:53:16Z</time>
					</trkpt>
					<trkpt lat="48.974810" lon="2.292880">
						<ele>43</ele>
						<time>2024-11-04T01:53:20Z</time>
					</trkpt>
					<trkpt lat="48.974570" lon="2.293320">
						<ele>44</ele>
						<time>2024-11-04T01:53:27Z</time>
					</trkpt>
					<trkpt lat="48.974320" lon="2.293670">
						<ele>43</ele>
						<time>2024-11-04T01:53:33Z</time>
					</trkpt>
					<trkpt lat="48.974300" lon="2.293700">
						<ele>43</ele>
						<time>2024-11-04T01:53:34Z</time>
					</trkpt>
					<trkpt lat="48.973750" lon="2.294220">
						<ele>42</ele>
						<time>2024-11-04T01:53:45Z</time>
					</trkpt>
					<trkpt lat="48.973690" lon="2.294270">
						<ele>43</ele>
						<time>2024-11-04T01:53:46Z</time>
					</trkpt>
					<trkpt lat="48.973520" lon="2.294350">
						<ele>43</ele>
						<time>2024-11-04T01:53:50Z</time>
					</trkpt>
					<trkpt lat="48.973080" lon="2.294450">
						<ele>42</ele>
						<time>2024-11-04T01:53:57Z</time>
					</trkpt>
					<trkpt lat="48.972940" lon="2.294460">
						<ele>42</ele>
						<time>2024-11-04T01:54:00Z</time>
					</trkpt>
					<trkpt lat="48.972680" lon="2.294410">
						<ele>41</ele>
						<time>2024-11-04T01:54:05Z</time>
					</trkpt>
					<trkpt lat="48.972550" lon="2.294390">
						<ele>41</ele>
						<time>2024-11-04T01:54:07Z</time>
					</trkpt>
					<trkpt lat="48.972410" lon="2.294370">
						<ele>41</ele>
						<time>2024-11-04T01:54:09Z</time>
					</trkpt>
					<trkpt lat="48.972170" lon="2.294280">
						<ele>42</ele>
						<time>2024-11-04T01:54:14Z</time>
					</trkpt>
					<trkpt lat="48.972070" lon="2.294210">
						<ele>42</ele>
						<time>2024-11-04T01:54:16Z</time>
					</trkpt>
					<trkpt lat="48.971980" lon="2.294120">
						<ele>42</ele>
						<time>2024-11-04T01:54:18Z</time>
					</trkpt>
					<trkpt lat="48.971900" lon="2.293980">
						<ele>42</ele>
						<time>2024-11-04T01:54:20Z</time>
					</trkpt>
					<trkpt lat="48.971670" lon="2.293380">
						<ele>43</ele>
						<time>2024-11-04T01:54:28Z</time>
					</trkpt>
					<trkpt lat="48.971500" lon="2.293080">
						<ele>42</ele>
						<time>2024-11-04T01:54:33Z</time>
					</trkpt>
					<trkpt lat="48.971500" lon="2.293070">
						<ele>42</ele>
						<time>2024-11-04T01:54:33Z</time>
					</trkpt>
					<trkpt lat="48.971490" lon="2.293030">
						<ele>42</ele>
						<time>2024-11-04T01:54:33Z</time>
					</trkpt>
					<trkpt lat="48.971460" lon="2.293020">
						<ele>42</ele>
						<time>2024-11-04T01:54:34Z</time>
					</trkpt>
					<trkpt lat="48.971450" lon="2.293020">
						<ele>42</ele>
						<time>2024-11-04T01:54:34Z</time>
					</trkpt>
					<trkpt lat="48.971340" lon="2.293010">
						<ele>42</ele>
						<time>2024-11-04T01:54:36Z</time>
					</trkpt>
					<trkpt lat="48.971330" lon="2.293010">
						<ele>42</ele>
						<time>2024-11-04T01:54:36Z</time>
					</trkpt>
					<trkpt lat="48.971220" lon="2.292970">
						<ele>42</ele>
						<time>2024-11-04T01:54:38Z</time>
					</trkpt>
					<trkpt lat="48.971120" lon="2.292980">
						<ele>42</ele>
						<time>2024-11-04T01:54:40Z</time>
					</trkpt>
					<trkpt lat="48.971060" lon="2.293000">
						<ele>42</ele>
						<time>2024-11-04T01:54:41Z</time>
					</trkpt>
					<trkpt lat="48.970860" lon="2.293140">
						<ele>42</ele>
						<time>2024-11-04T01:54:45Z</time>
					</trkpt>
					<trkpt lat="48.970510" lon="2.293430">
						<ele>41</ele>
						<time>2024-11-04T01:54:52Z</time>
					</trkpt>
					<trkpt lat="48.970110" lon="2.293920">
						<ele>39</ele>
						<time>2024-11-04T01:55:01Z</time>
					</trkpt>
					<trkpt lat="48.969880" lon="2.294270">
						<ele>38</ele>
						<time>2024-11-04T01:55:07Z</time>
					</trkpt>
					<trkpt lat="48.969700" lon="2.294650">
						<ele>39</ele>
						<time>2024-11-04T01:55:12Z</time>
					</trkpt>
					<trkpt lat="48.969390" lon="2.295330">
						<ele>41</ele>
						<time>2024-11-04T01:55:22Z</time>
					</trkpt>
					<trkpt lat="48.969370" lon="2.295380">
						<ele>41</ele>
						<time>2024-11-04T01:55:23Z</time>
					</trkpt>
					<trkpt lat="48.969360" lon="2.295410">
						<ele>41</ele>
						<time>2024-11-04T01:55:23Z</time>
					</trkpt>
					<trkpt lat="48.969310" lon="2.295600">
						<ele>41</ele>
						<time>2024-11-04T01:55:26Z</time>
					</trkpt>
					<trkpt lat="48.969280" lon="2.295880">
						<ele>41</ele>
						<time>2024-11-04T01:55:29Z</time>
					</trkpt>
					<trkpt lat="48.969230" lon="2.296030">
						<ele>42</ele>
						<time>2024-11-04T01:55:31Z</time>
					</trkpt>
					<trkpt lat="48.968820" lon="2.296600">
						<ele>43</ele>
						<time>2024-11-04T01:55:41Z</time>
					</trkpt>
					<trkpt lat="48.968430" lon="2.297140">
						<ele>44</ele>
						<time>2024-11-04T01:55:50Z</time>
					</trkpt>
					<trkpt lat="48.967250" lon="2.298780">
						<ele>42</ele>
						<time>2024-11-04T01:56:18Z</time>
					</trkpt>
					<trkpt lat="48.966150" lon="2.300760">
						<ele>42</ele>
						<time>2024-11-04T01:56:49Z</time>
					</trkpt>
					<trkpt lat="48.966110" lon="2.300860">
						<ele>42</ele>
						<time>2024-11-04T01:56:50Z</time>
					</trkpt>
					<trkpt lat="48.965840" lon="2.300570">
						<ele>43</ele>
						<time>2024-11-04T01:56:56Z</time>
					</trkpt>
					<trkpt lat="48.965770" lon="2.300580">
						<ele>44</ele>
						<time>2024-11-04T01:56:57Z</time>
					</trkpt>
					<trkpt lat="48.965690" lon="2.300600">
						<ele>44</ele>
						<time>2024-11-04T01:56:59Z</time>
					</trkpt>
					<trkpt lat="48.965360" lon="2.301360">
						<ele>45</ele>
						<time>2024-11-04T01:57:09Z</time>
					</trkpt>
					<trkpt lat="48.964950" lon="2.301920">
						<ele>45</ele>
						<time>2024-11-04T01:57:19Z</time>
					</trkpt>
					<trkpt lat="48.964390" lon="2.302620">
						<ele>44</ele>
						<time>2024-11-04T01:57:32Z</time>
					</trkpt>
					<trkpt lat="48.963870" lon="2.303300">
						<ele>42</ele>
						<time>2024-11-04T01:57:44Z</time>
					</trkpt>
					<trkpt lat="48.962390" lon="2.304900">
						<ele>39</ele>
						<time>2024-11-04T01:58:17Z</time>
					</trkpt>
					<trkpt lat="48.962210" lon="2.305090">
						<ele>39</ele>
						<time>2024-11-04T01:58:20Z</time>
					</trkpt>
					<trkpt lat="48.962160" lon="2.305150">
						<ele>39</ele>
						<time>2024-11-04T01:58:22Z</time>
					</trkpt>
					<trkpt lat="48.962040" lon="2.305270">
						<ele>39</ele>
						<time>2024-11-04T01:58:24Z</time>
					</trkpt>
					<trkpt lat="48.961670" lon="2.305660">
						<ele>40</ele>
						<time>2024-11-04T01:58:32Z</time>
					</trkpt>
					<trkpt lat="48.961590" lon="2.305750">
						<ele>40</ele>
						<time>2024-11-04T01:58:34Z</time>
					</trkpt>
					<trkpt lat="48.961470" lon="2.305880">
						<ele>40</ele>
						<time>2024-11-04T01:58:37Z</time>
					</trkpt>
					<trkpt lat="48.961320" lon="2.306040">
						<ele>41</ele>
						<time>2024-11-04T01:58:40Z</time>
					</trkpt>
					<trkpt lat="48.961040" lon="2.306330">
						<ele>41</ele>
						<time>2024-11-04T01:58:46Z</time>
					</trkpt>
					<trkpt lat="48.960570" lon="2.306830">
						<ele>40</ele>
						<time>2024-11-04T01:58:56Z</time>
					</trkpt>
					<trkpt lat="48.960260" lon="2.307130">
						<ele>38</ele>
						<time>2024-11-04T01:59:03Z</time>
					</trkpt>
					<trkpt lat="48.959670" lon="2.307720">
						<ele>36</ele>
						<time>2024-11-04T01:59:15Z</time>
					</trkpt>
					<trkpt lat="48.959600" lon="2.307780">
						<ele>36</ele>
						<time>2024-11-04T01:59:17Z</time>
					</trkpt>
					<trkpt lat="48.959320" lon="2.308050">
						<ele>35</ele>
						<time>2024-11-04T01:59:22Z</time>
					</trkpt>
					<trkpt lat="48.959230" lon="2.308140">
						<ele>35</ele>
						<time>2024-11-04T01:59:24Z</time>
					</trkpt>
					<trkpt lat="48.959170" lon="2.308200">
						<ele>35</ele>
						<time>2024-11-04T01:59:26Z</time>
					</trkpt>
					<trkpt lat="48.958990" lon="2.308380">
						<ele>35</ele>
						<time>2024-11-04T01:59:29Z</time>
					</trkpt>
					<trkpt lat="48.958680" lon="2.308630">
						<ele>35</ele>
						<time>2024-11-04T01:59:36Z</time>
					</trkpt>
					<trkpt lat="48.958560" lon="2.308650">
						<ele>35</ele>
						<time>2024-11-04T01:59:38Z</time>
					</trkpt>
					<trkpt lat="48.958440" lon="2.308550">
						<ele>35</ele>
						<time>2024-11-04T01:59:40Z</time>
					</trkpt>
					<trkpt lat="48.958330" lon="2.308550">
						<ele>35</ele>
						<time>2024-11-04T01:59:42Z</time>
					</trkpt>
					<trkpt lat="48.958180" lon="2.308970">
						<ele>35</ele>
						<time>2024-11-04T01:59:48Z</time>
					</trkpt>
					<trkpt lat="48.958090" lon="2.309130">
						<ele>35</ele>
						<time>2024-11-04T01:59:50Z</time>
					</trkpt>
					<trkpt lat="48.957570" lon="2.309670">
						<ele>36</ele>
						<time>2024-11-04T02:00:01Z</time>
					</trkpt>
					<trkpt lat="48.957500" lon="2.309740">
						<ele>37</ele>
						<time>2024-11-04T02:00:03Z</time>
					</trkpt>
					<trkpt lat="48.957390" lon="2.309870">
						<ele>37</ele>
						<time>2024-11-04T02:00:05Z</time>
					</trkpt>
					<trkpt lat="48.957300" lon="2.309920">
						<ele>38</ele>
						<time>2024-11-04T02:00:07Z</time>
					</trkpt>
					<trkpt lat="48.957160" lon="2.310050">
						<ele>38</ele>
						<time>2024-11-04T02:00:10Z</time>
					</trkpt>
					<trkpt lat="48.957110" lon="2.309930">
						<ele>39</ele>
						<time>2024-11-04T02:00:12Z</time>
					</trkpt>
					<trkpt lat="48.957150" lon="2.309890">
						<ele>39</ele>
						<time>2024-11-04T02:00:13Z</time>
					</trkpt>
					<trkpt lat="48.957170" lon="2.309870">
						<ele>38</ele>
						<time>2024-11-04T02:00:13Z</time>
					</trkpt>
					<trkpt lat="48.957170" lon="2.309830">
						<ele>38</ele>
						<time>2024-11-04T02:00:13Z</time>
					</trkpt>
					<trkpt lat="48.957160" lon="2.309800">
						<ele>38</ele>
						<time>2024-11-04T02:00:14Z</time>
					</trkpt>
					<trkpt lat="48.957060" lon="2.309600">
						<ele>39</ele>
						<time>2024-11-04T02:00:17Z</time>
					</trkpt>
					<trkpt lat="48.956840" lon="2.309300">
						<ele>39</ele>
						<time>2024-11-04T02:00:22Z</time>
					</trkpt>
					<trkpt lat="48.956540" lon="2.309020">
						<ele>40</ele>
						<time>2024-11-04T02:00:28Z</time>
					</trkpt>
					<trkpt lat="48.956450" lon="2.308930">
						<ele>40</ele>
						<time>2024-11-04T02:00:30Z</time>
					</trkpt>
					<trkpt lat="48.956410" lon="2.308860">
						<ele>40</ele>
						<time>2024-11-04T02:00:31Z</time>
					</trkpt>
					<trkpt lat="48.956240" lon="2.308720">
						<ele>40</ele>
						<time>2024-11-04T02:00:35Z</time>
					</trkpt>
					<trkpt lat="48.955690" lon="2.308400">
						<ele>41</ele>
						<time>2024-11-04T02:00:45Z</time>
					</trkpt>
					<trkpt lat="48.955540" lon="2.308340">
						<ele>41</ele>
						<time>2024-11-04T02:00:48Z</time>
					</trkpt>
					<trkpt lat="48.954900" lon="2.308140">
						<ele>42</ele>
						<time>2024-11-04T02:01:00Z</time>
					</trkpt>
					<trkpt lat="48.954870" lon="2.308120">
						<ele>42</ele>
						<time>2024-11-04T02:01:00Z</time>
					</trkpt>
					<trkpt lat="48.954880" lon="2.308030">
						<ele>42</ele>
						<time>2024-11-04T02:01:01Z</time>
					</trkpt>
					<trkpt lat="48.954890" lon="2.307900">
						<ele>42</ele>
						<time>2024-11-04T02:01:03Z</time>
					</trkpt>
					<trkpt lat="48.954750" lon="2.307850">
						<ele>42</ele>
						<time>2024-11-04T02:01:05Z</time>
					</trkpt>
					<trkpt lat="48.954620" lon="2.307870">
						<ele>42</ele>
						<time>2024-11-04T02:01:08Z</time>
					</trkpt>
					<trkpt lat="48.954480" lon="2.307840">
						<ele>43</ele>
						<time>2024-11-04T02:01:10Z</time>
					</trkpt>
					<trkpt lat="48.954230" lon="2.307770">
						<ele>43</ele>
						<time>2024-11-04T02:01:15Z</time>
					</trkpt>
					<trkpt lat="48.954150" lon="2.307750">
						<ele>43</ele>
						<time>2024-11-04T02:01:16Z</time>
					</trkpt>
					<trkpt lat="48.953910" lon="2.307670">
						<ele>42</ele>
						<time>2024-11-04T02:01:21Z</time>
					</trkpt>
					<trkpt lat="48.953210" lon="2.307480">
						<ele>40</ele>
						<time>2024-11-04T02:01:33Z</time>
					</trkpt>
					<trkpt lat="48.952580" lon="2.307300">
						<ele>37</ele>
						<time>2024-11-04T02:01:45Z</time>
					</trkpt>
					<trkpt lat="48.952480" lon="2.307280">
						<ele>37</ele>
						<time>2024-11-04T02:01:46Z</time>
					</trkpt>
					<trkpt lat="48.952230" lon="2.307210">
						<ele>35</ele>
						<time>2024-11-04T02:01:51Z</time>
					</trkpt>
					<trkpt lat="48.952130" lon="2.307180">
						<ele>34</ele>
						<time>2024-11-04T02:01:53Z</time>
					</trkpt>
					<trkpt lat="48.952030" lon="2.307160">
						<ele>33</ele>
						<time>2024-11-04T02:01:54Z</time>
					</trkpt>
					<trkpt lat="48.951820" lon="2.307100">
						<ele>31</ele>
						<time>2024-11-04T02:01:58Z</time>
					</trkpt>
					<trkpt lat="48.951710" lon="2.307120">
						<ele>30</ele>
						<time>2024-11-04T02:02:00Z</time>
					</trkpt>
					<trkpt lat="48.951070" lon="2.306940">
						<ele>31</ele>
						<time>2024-11-04T02:02:12Z</time>
					</trkpt>
					<trkpt lat="48.951000" lon="2.306860">
						<ele>31</ele>
						<time>2024-11-04T02:02:13Z</time>
					</trkpt>
					<trkpt lat="48.950730" lon="2.306770">
						<ele>32</ele>
						<time>2024-11-04T02:02:18Z</time>
					</trkpt>
					<trkpt lat="48.950700" lon="2.306760">
						<ele>32</ele>
						<time>2024-11-04T02:02:19Z</time>
					</trkpt>
					<trkpt lat="48.950500" lon="2.306710">
						<ele>31</ele>
						<time>2024-11-04T02:02:22Z</time>
					</trkpt>
					<trkpt lat="48.950490" lon="2.306840">
						<ele>31</ele>
						<time>2024-11-04T02:02:24Z</time>
					</trkpt>
					<trkpt lat="48.950500" lon="2.306950">
						<ele>31</ele>
						<time>2024-11-04T02:02:25Z</time>
					</trkpt>
					<trkpt lat="48.950500" lon="2.307610">
						<ele>31</ele>
						<time>2024-11-04T02:02:33Z</time>
					</trkpt>
					<trkpt lat="48.950490" lon="2.308020">
						<ele>31</ele>
						<time>2024-11-04T02:02:38Z</time>
					</trkpt>
					<trkpt lat="48.950480" lon="2.308190">
						<ele>31</ele>
						<time>2024-11-04T02:02:40Z</time>
					</trkpt>
					<trkpt lat="48.950450" lon="2.308490">
						<ele>31</ele>
						<time>2024-11-04T02:02:43Z</time>
					</trkpt>
					<trkpt lat="48.949940" lon="2.312060">
						<ele>31</ele>
						<time>2024-11-04T02:03:26Z</time>
					</trkpt>
					<trkpt lat="48.949910" lon="2.312160">
						<ele>31</ele>
						<time>2024-11-04T02:03:27Z</time>
					</trkpt>
					<trkpt lat="48.949700" lon="2.312510">
						<ele>30</ele>
						<time>2024-11-04T02:03:33Z</time>
					</trkpt>
					<trkpt lat="48.949680" lon="2.312580">
						<ele>30</ele>
						<time>2024-11-04T02:03:34Z</time>
					</trkpt>
					<trkpt lat="48.949550" lon="2.313300">
						<ele>31</ele>
						<time>2024-11-04T02:03:42Z</time>
					</trkpt>
					<trkpt lat="48.949550" lon="2.313420">
						<ele>31</ele>
						<time>2024-11-04T02:03:44Z</time>
					</trkpt>
					<trkpt lat="48.949610" lon="2.313720">
						<ele>32</ele>
						<time>2024-11-04T02:03:48Z</time>
					</trkpt>
					<trkpt lat="48.949630" lon="2.313860">
						<ele>32</ele>
						<time>2024-11-04T02:03:49Z</time>
					</trkpt>
					<trkpt lat="48.949510" lon="2.314450">
						<ele>33</ele>
						<time>2024-11-04T02:03:56Z</time>
					</trkpt>
					<trkpt lat="48.949070" lon="2.316590">
						<ele>33</ele>
						<time>2024-11-04T02:04:23Z</time>
					</trkpt>
					<trkpt lat="48.948570" lon="2.319060">
						<ele>37</ele>
						<time>2024-11-04T02:04:53Z</time>
					</trkpt>
					<trkpt lat="48.947950" lon="2.321820">
						<ele>34</ele>
						<time>2024-11-04T02:05:27Z</time>
					</trkpt>
					<trkpt lat="48.947350" lon="2.324490">
						<ele>31</ele>
						<time>2024-11-04T02:06:00Z</time>
					</trkpt>
					<trkpt lat="48.946670" lon="2.327070">
						<ele>31</ele>
						<time>2024-11-04T02:06:32Z</time>
					</trkpt>
					<trkpt lat="48.946530" lon="2.327600">
						<ele>29</ele>
						<time>2024-11-04T02:06:39Z</time>
					</trkpt>
					<trkpt lat="48.946480" lon="2.327810">
						<ele>28</ele>
						<time>2024-11-04T02:06:42Z</time>
					</trkpt>
					<trkpt lat="48.946430" lon="2.327990">
						<ele>28</ele>
						<time>2024-11-04T02:06:44Z</time>
					</trkpt>
					<trkpt lat="48.946110" lon="2.329250">
						<ele>26</ele>
						<time>2024-11-04T02:07:00Z</time>
					</trkpt>
					<trkpt lat="48.946050" lon="2.329510">
						<ele>27</ele>
						<time>2024-11-04T02:07:03Z</time>
					</trkpt>
					<trkpt lat="48.945730" lon="2.330730">
						<ele>29</ele>
						<time>2024-11-04T02:07:18Z</time>
					</trkpt>
					<trkpt lat="48.945530" lon="2.331410">
						<ele>27</ele>
						<time>2024-11-04T02:07:27Z</time>
					</trkpt>
					<trkpt lat="48.945050" lon="2.333090">
						<ele>27</ele>
						<time>2024-11-04T02:07:48Z</time>
					</trkpt>
					<trkpt lat="48.944570" lon="2.334260">
						<ele>27</ele>
						<time>2024-11-04T02:08:05Z</time>
					</trkpt>
					<trkpt lat="48.944200" lon="2.334940">
						<ele>27</ele>
						<time>2024-11-04T02:08:15Z</time>
					</trkpt>
					<trkpt lat="48.943930" lon="2.335400">
						<ele>28</ele>
						<time>2024-11-04T02:08:22Z</time>
					</trkpt>
					<trkpt lat="48.943600" lon="2.335940">
						<ele>29</ele>
						<time>2024-11-04T02:08:31Z</time>
					</trkpt>
					<trkpt lat="48.943310" lon="2.336370">
						<ele>29</ele>
						<time>2024-11-04T02:08:38Z</time>
					</trkpt>
					<trkpt lat="48.943230" lon="2.336470">
						<ele>29</ele>
						<time>2024-11-04T02:08:40Z</time>
					</trkpt>
					<trkpt lat="48.942710" lon="2.337120">
						<ele>28</ele>
						<time>2024-11-04T02:08:52Z</time>
					</trkpt>
					<trkpt lat="48.942380" lon="2.337470">
						<ele>28</ele>
						<time>2024-11-04T02:08:59Z</time>
					</trkpt>
					<trkpt lat="48.942110" lon="2.337680">
						<ele>28</ele>
						<time>2024-11-04T02:09:04Z</time>
					</trkpt>
					<trkpt lat="48.941930" lon="2.337820">
						<ele>29</ele>
						<time>2024-11-04T02:09:08Z</time>
					</trkpt>
					<trkpt lat="48.940540" lon="2.338850">
						<ele>26</ele>
						<time>2024-11-04T02:09:35Z</time>
					</trkpt>
					<trkpt lat="48.940310" lon="2.339000">
						<ele>27</ele>
						<time>2024-11-04T02:09:40Z</time>
					</trkpt>
					<trkpt lat="48.939900" lon="2.339240">
						<ele>28</ele>
						<time>2024-11-04T02:09:48Z</time>
					</trkpt>
					<trkpt lat="48.939190" lon="2.339670">
						<ele>27</ele>
						<time>2024-11-04T02:10:01Z</time>
					</trkpt>
					<trkpt lat="48.938820" lon="2.339830">
						<ele>27</ele>
						<time>2024-11-04T02:10:08Z</time>
					</trkpt>
					<trkpt lat="48.938460" lon="2.339990">
						<ele>26</ele>
						<time>2024-11-04T02:10:15Z</time>
					</trkpt>
					<trkpt lat="48.937660" lon="2.340240">
						<ele>28</ele>
						<time>2024-11-04T02:10:29Z</time>
					</trkpt>
					<trkpt lat="48.936740" lon="2.340560">
						<ele>29</ele>
						<time>2024-11-04T02:10:46Z</time>
					</trkpt>
					<trkpt lat="48.935910" lon="2.340860">
						<ele>28</ele>
						<time>2024-11-04T02:11:01Z</time>
					</trkpt>
					<trkpt lat="48.935850" lon="2.340840">
						<ele>28</ele>
						<time>2024-11-04T02:11:02Z</time>
					</trkpt>
					<trkpt lat="48.935840" lon="2.340780">
						<ele>28</ele>
						<time>2024-11-04T02:11:03Z</time>
					</trkpt>
					<trkpt lat="48.935810" lon="2.340750">
						<ele>28</ele>
						<time>2024-11-04T02:11:04Z</time>
					</trkpt>
					<trkpt lat="48.935780" lon="2.340760">
						<ele>28</ele>
						<time>2024-11-04T02:11:04Z</time>
					</trkpt>
					<trkpt lat="48.935750" lon="2.340790">
						<ele>28</ele>
						<time>2024-11-04T02:11:05Z</time>
					</trkpt>
					<trkpt lat="48.935740" lon="2.340840">
						<ele>28</ele>
						<time>2024-11-04T02:11:06Z</time>
					</trkpt>
					<trkpt lat="48.935680" lon="2.340860">
						<ele>28</ele>
						<time>2024-11-04T02:11:07Z</time>
					</trkpt>
					<trkpt lat="48.935460" lon="2.340930">
						<ele>28</ele>
						<time>2024-11-04T02:11:11Z</time>
					</trkpt>
					<trkpt lat="48.935440" lon="2.340930">
						<ele>28</ele>
						<time>2024-11-04T02:11:11Z</time>
					</trkpt>
					<trkpt lat="48.935080" lon="2.341000">
						<ele>28</ele>
						<time>2024-11-04T02:11:17Z</time>
					</trkpt>
					<trkpt lat="48.935050" lon="2.341010">
						<ele>28</ele>
						<time>2024-11-04T02:11:18Z</time>
					</trkpt>
					<trkpt lat="48.934900" lon="2.341010">
						<ele>29</ele>
						<time>2024-11-04T02:11:21Z</time>
					</trkpt>
					<trkpt lat="48.934290" lon="2.340940">
						<ele>28</ele>
						<time>2024-11-04T02:11:32Z</time>
					</trkpt>
					<trkpt lat="48.933590" lon="2.340840">
						<ele>29</ele>
						<time>2024-11-04T02:11:44Z</time>
					</trkpt>
					<trkpt lat="48.933240" lon="2.340790">
						<ele>29</ele>
						<time>2024-11-04T02:11:50Z</time>
					</trkpt>
					<trkpt lat="48.932960" lon="2.340670">
						<ele>29</ele>
						<time>2024-11-04T02:11:55Z</time>
					</trkpt>
					<trkpt lat="48.932060" lon="2.340270">
						<ele>28</ele>
						<time>2024-11-04T02:12:12Z</time>
					</trkpt>
					<trkpt lat="48.931990" lon="2.340140">
						<ele>28</ele>
						<time>2024-11-04T02:12:14Z</time>
					</trkpt>
					<trkpt lat="48.931810" lon="2.340030">
						<ele>27</ele>
						<time>2024-11-04T02:12:18Z</time>
					</trkpt>
					<trkpt lat="48.931590" lon="2.339950">
						<ele>27</ele>
						<time>2024-11-04T02:12:22Z</time>
					</trkpt>
					<trkpt lat="48.931540" lon="2.339880">
						<ele>27</ele>
						<time>2024-11-04T02:12:23Z</time>
					</trkpt>
					<trkpt lat="48.931170" lon="2.339680">
						<ele>28</ele>
						<time>2024-11-04T02:12:30Z</time>
					</trkpt>
					<trkpt lat="48.930520" lon="2.339170">
						<ele>29</ele>
						<time>2024-11-04T02:12:43Z</time>
					</trkpt>
					<trkpt lat="48.930210" lon="2.338880">
						<ele>29</ele>
						<time>2024-11-04T02:12:49Z</time>
					</trkpt>
					<trkpt lat="48.927460" lon="2.336140">
						<ele>28</ele>
						<time>2024-11-04T02:13:48Z</time>
					</trkpt>
					<trkpt lat="48.927120" lon="2.335810">
						<ele>29</ele>
						<time>2024-11-04T02:13:55Z</time>
					</trkpt>
					<trkpt lat="48.925990" lon="2.334800">
						<ele>31</ele>
						<time>2024-11-04T02:14:18Z</time>
					</trkpt>
					<trkpt lat="48.925760" lon="2.334420">
						<ele>31</ele>
						<time>2024-11-04T02:14:24Z</time>
					</trkpt>
					<trkpt lat="48.925650" lon="2.334240">
						<ele>30</ele>
						<time>2024-11-04T02:14:27Z</time>
					</trkpt>
					<trkpt lat="48.925470" lon="2.334070">
						<ele>30</ele>
						<time>2024-11-04T02:14:31Z</time>
					</trkpt>
					<trkpt lat="48.925360" lon="2.334000">
						<ele>30</ele>
						<time>2024-11-04T02:14:33Z</time>
					</trkpt>
					<trkpt lat="48.925340" lon="2.333990">
						<ele>30</ele>
						<time>2024-11-04T02:14:33Z</time>
					</trkpt>
					<trkpt lat="48.924990" lon="2.333830">
						<ele>30</ele>
						<time>2024-11-04T02:14:40Z</time>
					</trkpt>
					<trkpt lat="48.924880" lon="2.333770">
						<ele>30</ele>
						<time>2024-11-04T02:14:42Z</time>
					</trkpt>
					<trkpt lat="48.923830" lon="2.332790">
						<ele>34</ele>
						<time>2024-11-04T02:15:04Z</time>
					</trkpt>
					<trkpt lat="48.923750" lon="2.332600">
						<ele>34</ele>
						<time>2024-11-04T02:15:07Z</time>
					</trkpt>
					<trkpt lat="48.923630" lon="2.332480">
						<ele>34</ele>
						<time>2024-11-04T02:15:09Z</time>
					</trkpt>
					<trkpt lat="48.923520" lon="2.332410">
						<ele>34</ele>
						<time>2024-11-04T02:15:11Z</time>
					</trkpt>
					<trkpt lat="48.922980" lon="2.331890">
						<ele>34</ele>
						<time>2024-11-04T02:15:23Z</time>
					</trkpt>
					<trkpt lat="48.922940" lon="2.331850">
						<ele>34</ele>
						<time>2024-11-04T02:15:23Z</time>
					</trkpt>
					<trkpt lat="48.922830" lon="2.331810">
						<ele>34</ele>
						<time>2024-11-04T02:15:25Z</time>
					</trkpt>
					<trkpt lat="48.922770" lon="2.331750">
						<ele>34</ele>
						<time>2024-11-04T02:15:27Z</time>
					</trkpt>
					<trkpt lat="48.921580" lon="2.330620">
						<ele>32</ele>
						<time>2024-11-04T02:15:52Z</time>
					</trkpt>
					<trkpt lat="48.921500" lon="2.330670">
						<ele>32</ele>
						<time>2024-11-04T02:15:53Z</time>
					</trkpt>
					<trkpt lat="48.921490" lon="2.330670">
						<ele>32</ele>
						<time>2024-11-04T02:15:53Z</time>
					</trkpt>
					<trkpt lat="48.921150" lon="2.330350">
						<ele>32</ele>
						<time>2024-11-04T02:16:01Z</time>
					</trkpt>
					<trkpt lat="48.921050" lon="2.330260">
						<ele>31</ele>
						<time>2024-11-04T02:16:03Z</time>
					</trkpt>
					<trkpt lat="48.920570" lon="2.329810">
						<ele>32</ele>
						<time>2024-11-04T02:16:13Z</time>
					</trkpt>
					<trkpt lat="48.920250" lon="2.329550">
						<ele>33</ele>
						<time>2024-11-04T02:16:19Z</time>
					</trkpt>
					<trkpt lat="48.920010" lon="2.329290">
						<ele>34</ele>
						<time>2024-11-04T02:16:24Z</time>
					</trkpt>
					<trkpt lat="48.919910" lon="2.329160">
						<ele>33</ele>
						<time>2024-11-04T02:16:27Z</time>
					</trkpt>
					<trkpt lat="48.919170" lon="2.328020">
						<ele>32</ele>
						<time>2024-11-04T02:16:45Z</time>
					</trkpt>
					<trkpt lat="48.919120" lon="2.328090">
						<ele>31</ele>
						<time>2024-11-04T02:16:47Z</time>
					</trkpt>
					<trkpt lat="48.918680" lon="2.328740">
						<ele>29</ele>
						<time>2024-11-04T02:16:58Z</time>
					</trkpt>
					<trkpt lat="48.918240" lon="2.329410">
						<ele>33</ele>
						<time>2024-11-04T02:17:09Z</time>
					</trkpt>
					<trkpt lat="48.918210" lon="2.329450">
						<ele>33</ele>
						<time>2024-11-04T02:17:09Z</time>
					</trkpt>
					<trkpt lat="48.918080" lon="2.329470">
						<ele>34</ele>
						<time>2024-11-04T02:17:12Z</time>
					</trkpt>
					<trkpt lat="48.918030" lon="2.329470">
						<ele>35</ele>
						<time>2024-11-04T02:17:13Z</time>
					</trkpt>
					<trkpt lat="48.917920" lon="2.329540">
						<ele>36</ele>
						<time>2024-11-04T02:17:15Z</time>
					</trkpt>
					<trkpt lat="48.917820" lon="2.329610">
						<ele>36</ele>
						<time>2024-11-04T02:17:17Z</time>
					</trkpt>
					<trkpt lat="48.917760" lon="2.329680">
						<ele>37</ele>
						<time>2024-11-04T02:17:18Z</time>
					</trkpt>
					<trkpt lat="48.917030" lon="2.330020">
						<ele>37</ele>
						<time>2024-11-04T02:17:32Z</time>
					</trkpt>
					<trkpt lat="48.916880" lon="2.330100">
						<ele>38</ele>
						<time>2024-11-04T02:17:34Z</time>
					</trkpt>
					<trkpt lat="48.916730" lon="2.330170">
						<ele>38</ele>
						<time>2024-11-04T02:17:37Z</time>
					</trkpt>
					<trkpt lat="48.916540" lon="2.330260">
						<ele>38</ele>
						<time>2024-11-04T02:17:41Z</time>
					</trkpt>
					<trkpt lat="48.916380" lon="2.330350">
						<ele>39</ele>
						<time>2024-11-04T02:17:44Z</time>
					</trkpt>
					<trkpt lat="48.916050" lon="2.330640">
						<ele>40</ele>
						<time>2024-11-04T02:17:50Z</time>
					</trkpt>
					<trkpt lat="48.915730" lon="2.330940">
						<ele>40</ele>
						<time>2024-11-04T02:17:57Z</time>
					</trkpt>
					<trkpt lat="48.915710" lon="2.330960">
						<ele>40</ele>
						<time>2024-11-04T02:17:58Z</time>
					</trkpt>
					<trkpt lat="48.915310" lon="2.331330">
						<ele>38</ele>
						<time>2024-11-04T02:18:06Z</time>
					</trkpt>
					<trkpt lat="48.915110" lon="2.330880">
						<ele>35</ele>
						<time>2024-11-04T02:18:12Z</time>
					</trkpt>
					<trkpt lat="48.914900" lon="2.330440">
						<ele>33</ele>
						<time>2024-11-04T02:18:19Z</time>
					</trkpt>
					<trkpt lat="48.914590" lon="2.329770">
						<ele>31</ele>
						<time>2024-11-04T02:18:28Z</time>
					</trkpt>
					<trkpt lat="48.914170" lon="2.328900">
						<ele>31</ele>
						<time>2024-11-04T02:18:41Z</time>
					</trkpt>
					<trkpt lat="48.914150" lon="2.328850">
						<ele>31</ele>
						<time>2024-11-04T02:18:42Z</time>
					</trkpt>
					<trkpt lat="48.913860" lon="2.328230">
						<ele>32</ele>
						<time>2024-11-04T02:18:50Z</time>
					</trkpt>
					</trkseg>
				</trk>
			</gpx>